<?xml version="1.0" encoding="UTF-8" standalone="no" ?>
<gpx xmlns="http://www.topografix.com/GPX/1/1" xmlns:xsi="http://www.w3.org/2001/XMLSchema-instance" xsi:schemaLocation="http://www.topografix.com/GPX/1/1 http://www.topografix.com/GPX/1/1/gpx.xsd" version="1.1" creator="VisuGPX - https://www.visugpx.com">
  <metadata>
    <name>Rando Joué Sur Erdre 44440</name>
    <desc><![CDATA[Super rando autour du lac de vioreau et ses alentours...]]></desc>
  </metadata>
  <trk>
    <name><![CDATA[20120819_RANDO_JOUE]]></name>
    <desc><![CDATA[]]></desc>
    <trkseg>
      <trkpt lat="47.52854" lon="-1.42232">
        <ele>159</ele>
        <time>2012-08-20T07:30:14.951Z</time>
      </trkpt>
      <trkpt lat="47.52839" lon="-1.42233">
        <ele>65</ele>
        <time>2012-08-20T07:30:15.951Z</time>
      </trkpt>
      <trkpt lat="47.52839" lon="-1.42233">
        <ele>65</ele>
        <time>2012-08-20T07:30:15.951Z</time>
      </trkpt>
      <trkpt lat="47.52839" lon="-1.42233">
        <ele>65</ele>
        <time>2012-08-20T07:30:42.000Z</time>
      </trkpt>
      <trkpt lat="47.52843" lon="-1.42233">
        <ele>87</ele>
        <time>2012-08-20T07:33:52.000Z</time>
      </trkpt>
      <trkpt lat="47.52846" lon="-1.42238">
        <ele>90</ele>
        <time>2012-08-20T07:33:57.000Z</time>
      </trkpt>
      <trkpt lat="47.52849" lon="-1.42244">
        <ele>91</ele>
        <time>2012-08-20T07:34:01.000Z</time>
      </trkpt>
      <trkpt lat="47.52852" lon="-1.42253">
        <ele>91</ele>
        <time>2012-08-20T07:34:04.000Z</time>
      </trkpt>
      <trkpt lat="47.52854" lon="-1.4226">
        <ele>88</ele>
        <time>2012-08-20T07:34:06.000Z</time>
      </trkpt>
      <trkpt lat="47.52853" lon="-1.42269">
        <ele>91</ele>
        <time>2012-08-20T07:34:09.000Z</time>
      </trkpt>
      <trkpt lat="47.52848" lon="-1.42273">
        <ele>88</ele>
        <time>2012-08-20T07:34:12.000Z</time>
      </trkpt>
      <trkpt lat="47.52843" lon="-1.42274">
        <ele>87</ele>
        <time>2012-08-20T07:34:14.000Z</time>
      </trkpt>
      <trkpt lat="47.52835" lon="-1.42272">
        <ele>86</ele>
        <time>2012-08-20T07:34:16.000Z</time>
      </trkpt>
      <trkpt lat="47.52826" lon="-1.42267">
        <ele>87</ele>
        <time>2012-08-20T07:34:18.000Z</time>
      </trkpt>
      <trkpt lat="47.52821" lon="-1.42265">
        <ele>86</ele>
        <time>2012-08-20T07:34:19.000Z</time>
      </trkpt>
      <trkpt lat="47.52816" lon="-1.42262">
        <ele>86</ele>
        <time>2012-08-20T07:34:20.000Z</time>
      </trkpt>
      <trkpt lat="47.52811" lon="-1.42261">
        <ele>84</ele>
        <time>2012-08-20T07:34:21.000Z</time>
      </trkpt>
      <trkpt lat="47.52806" lon="-1.42258">
        <ele>84</ele>
        <time>2012-08-20T07:34:22.000Z</time>
      </trkpt>
      <trkpt lat="47.528" lon="-1.42255">
        <ele>83</ele>
        <time>2012-08-20T07:34:23.000Z</time>
      </trkpt>
      <trkpt lat="47.52794" lon="-1.42252">
        <ele>83</ele>
        <time>2012-08-20T07:34:24.000Z</time>
      </trkpt>
      <trkpt lat="47.52788" lon="-1.42249">
        <ele>84</ele>
        <time>2012-08-20T07:34:25.000Z</time>
      </trkpt>
      <trkpt lat="47.52782" lon="-1.42246">
        <ele>84</ele>
        <time>2012-08-20T07:34:26.000Z</time>
      </trkpt>
      <trkpt lat="47.52776" lon="-1.42244">
        <ele>84</ele>
        <time>2012-08-20T07:34:27.000Z</time>
      </trkpt>
      <trkpt lat="47.5277" lon="-1.42242">
        <ele>82</ele>
        <time>2012-08-20T07:34:28.000Z</time>
      </trkpt>
      <trkpt lat="47.52763" lon="-1.42237">
        <ele>83</ele>
        <time>2012-08-20T07:34:30.000Z</time>
      </trkpt>
      <trkpt lat="47.52761" lon="-1.42229">
        <ele>84</ele>
        <time>2012-08-20T07:34:32.000Z</time>
      </trkpt>
      <trkpt lat="47.52757" lon="-1.42234">
        <ele>85</ele>
        <time>2012-08-20T07:34:46.000Z</time>
      </trkpt>
      <trkpt lat="47.5275" lon="-1.42238">
        <ele>82</ele>
        <time>2012-08-20T07:34:48.000Z</time>
      </trkpt>
      <trkpt lat="47.52745" lon="-1.4224">
        <ele>82</ele>
        <time>2012-08-20T07:35:17.000Z</time>
      </trkpt>
      <trkpt lat="47.52744" lon="-1.42248">
        <ele>82</ele>
        <time>2012-08-20T07:35:21.000Z</time>
      </trkpt>
      <trkpt lat="47.52742" lon="-1.42255">
        <ele>82</ele>
        <time>2012-08-20T07:35:23.000Z</time>
      </trkpt>
      <trkpt lat="47.52739" lon="-1.42261">
        <ele>82</ele>
        <time>2012-08-20T07:35:25.000Z</time>
      </trkpt>
      <trkpt lat="47.52736" lon="-1.4227">
        <ele>83</ele>
        <time>2012-08-20T07:35:27.000Z</time>
      </trkpt>
      <trkpt lat="47.52733" lon="-1.4228">
        <ele>81</ele>
        <time>2012-08-20T07:35:29.000Z</time>
      </trkpt>
      <trkpt lat="47.52729" lon="-1.42291">
        <ele>80</ele>
        <time>2012-08-20T07:35:31.000Z</time>
      </trkpt>
      <trkpt lat="47.52724" lon="-1.42302">
        <ele>80</ele>
        <time>2012-08-20T07:35:33.000Z</time>
      </trkpt>
      <trkpt lat="47.52721" lon="-1.42313">
        <ele>84</ele>
        <time>2012-08-20T07:35:35.000Z</time>
      </trkpt>
      <trkpt lat="47.52717" lon="-1.42322">
        <ele>84</ele>
        <time>2012-08-20T07:35:37.000Z</time>
      </trkpt>
      <trkpt lat="47.52712" lon="-1.42333">
        <ele>83</ele>
        <time>2012-08-20T07:35:39.000Z</time>
      </trkpt>
      <trkpt lat="47.52709" lon="-1.42342">
        <ele>85</ele>
        <time>2012-08-20T07:35:41.000Z</time>
      </trkpt>
      <trkpt lat="47.52708" lon="-1.42353">
        <ele>84</ele>
        <time>2012-08-20T07:35:43.000Z</time>
      </trkpt>
      <trkpt lat="47.52708" lon="-1.42366">
        <ele>82</ele>
        <time>2012-08-20T07:35:45.000Z</time>
      </trkpt>
      <trkpt lat="47.52708" lon="-1.42374">
        <ele>82</ele>
        <time>2012-08-20T07:35:46.000Z</time>
      </trkpt>
      <trkpt lat="47.52709" lon="-1.42381">
        <ele>82</ele>
        <time>2012-08-20T07:35:47.000Z</time>
      </trkpt>
      <trkpt lat="47.5271" lon="-1.42394">
        <ele>81</ele>
        <time>2012-08-20T07:35:49.000Z</time>
      </trkpt>
      <trkpt lat="47.5271" lon="-1.42401">
        <ele>81</ele>
        <time>2012-08-20T07:35:50.000Z</time>
      </trkpt>
      <trkpt lat="47.5271" lon="-1.42408">
        <ele>80</ele>
        <time>2012-08-20T07:35:51.000Z</time>
      </trkpt>
      <trkpt lat="47.5271" lon="-1.42422">
        <ele>78</ele>
        <time>2012-08-20T07:35:53.000Z</time>
      </trkpt>
      <trkpt lat="47.5271" lon="-1.42429">
        <ele>79</ele>
        <time>2012-08-20T07:35:54.000Z</time>
      </trkpt>
      <trkpt lat="47.52711" lon="-1.42436">
        <ele>83</ele>
        <time>2012-08-20T07:35:55.000Z</time>
      </trkpt>
      <trkpt lat="47.52711" lon="-1.4245">
        <ele>81</ele>
        <time>2012-08-20T07:35:57.000Z</time>
      </trkpt>
      <trkpt lat="47.52711" lon="-1.42463">
        <ele>82</ele>
        <time>2012-08-20T07:35:59.000Z</time>
      </trkpt>
      <trkpt lat="47.52711" lon="-1.42471">
        <ele>82</ele>
        <time>2012-08-20T07:36:00.000Z</time>
      </trkpt>
      <trkpt lat="47.52712" lon="-1.42479">
        <ele>81</ele>
        <time>2012-08-20T07:36:01.000Z</time>
      </trkpt>
      <trkpt lat="47.52712" lon="-1.42486">
        <ele>82</ele>
        <time>2012-08-20T07:36:02.000Z</time>
      </trkpt>
      <trkpt lat="47.52711" lon="-1.42493">
        <ele>80</ele>
        <time>2012-08-20T07:36:03.000Z</time>
      </trkpt>
      <trkpt lat="47.52711" lon="-1.425">
        <ele>82</ele>
        <time>2012-08-20T07:36:04.000Z</time>
      </trkpt>
      <trkpt lat="47.52712" lon="-1.42512">
        <ele>80</ele>
        <time>2012-08-20T07:36:06.000Z</time>
      </trkpt>
      <trkpt lat="47.52711" lon="-1.42523">
        <ele>78</ele>
        <time>2012-08-20T07:36:08.000Z</time>
      </trkpt>
      <trkpt lat="47.52711" lon="-1.4253">
        <ele>77</ele>
        <time>2012-08-20T07:36:09.000Z</time>
      </trkpt>
      <trkpt lat="47.52712" lon="-1.42537">
        <ele>78</ele>
        <time>2012-08-20T07:36:10.000Z</time>
      </trkpt>
      <trkpt lat="47.52712" lon="-1.4255">
        <ele>80</ele>
        <time>2012-08-20T07:36:12.000Z</time>
      </trkpt>
      <trkpt lat="47.52712" lon="-1.42558">
        <ele>80</ele>
        <time>2012-08-20T07:36:13.000Z</time>
      </trkpt>
      <trkpt lat="47.52712" lon="-1.42564">
        <ele>80</ele>
        <time>2012-08-20T07:36:14.000Z</time>
      </trkpt>
      <trkpt lat="47.52712" lon="-1.42571">
        <ele>79</ele>
        <time>2012-08-20T07:36:15.000Z</time>
      </trkpt>
      <trkpt lat="47.52711" lon="-1.42583">
        <ele>81</ele>
        <time>2012-08-20T07:36:17.000Z</time>
      </trkpt>
      <trkpt lat="47.52711" lon="-1.42596">
        <ele>82</ele>
        <time>2012-08-20T07:36:19.000Z</time>
      </trkpt>
      <trkpt lat="47.52711" lon="-1.42604">
        <ele>81</ele>
        <time>2012-08-20T07:36:20.000Z</time>
      </trkpt>
      <trkpt lat="47.52711" lon="-1.42611">
        <ele>82</ele>
        <time>2012-08-20T07:36:21.000Z</time>
      </trkpt>
      <trkpt lat="47.5271" lon="-1.42618">
        <ele>82</ele>
        <time>2012-08-20T07:36:22.000Z</time>
      </trkpt>
      <trkpt lat="47.5271" lon="-1.42624">
        <ele>80</ele>
        <time>2012-08-20T07:36:23.000Z</time>
      </trkpt>
      <trkpt lat="47.52709" lon="-1.42638">
        <ele>80</ele>
        <time>2012-08-20T07:36:25.000Z</time>
      </trkpt>
      <trkpt lat="47.52708" lon="-1.42645">
        <ele>79</ele>
        <time>2012-08-20T07:36:26.000Z</time>
      </trkpt>
      <trkpt lat="47.52708" lon="-1.42652">
        <ele>79</ele>
        <time>2012-08-20T07:36:27.000Z</time>
      </trkpt>
      <trkpt lat="47.52708" lon="-1.42659">
        <ele>79</ele>
        <time>2012-08-20T07:36:28.000Z</time>
      </trkpt>
      <trkpt lat="47.52707" lon="-1.42666">
        <ele>79</ele>
        <time>2012-08-20T07:36:29.000Z</time>
      </trkpt>
      <trkpt lat="47.52706" lon="-1.42674">
        <ele>79</ele>
        <time>2012-08-20T07:36:30.000Z</time>
      </trkpt>
      <trkpt lat="47.52706" lon="-1.42681">
        <ele>80</ele>
        <time>2012-08-20T07:36:31.000Z</time>
      </trkpt>
      <trkpt lat="47.52706" lon="-1.42688">
        <ele>79</ele>
        <time>2012-08-20T07:36:32.000Z</time>
      </trkpt>
      <trkpt lat="47.52705" lon="-1.42695">
        <ele>80</ele>
        <time>2012-08-20T07:36:33.000Z</time>
      </trkpt>
      <trkpt lat="47.52704" lon="-1.42702">
        <ele>81</ele>
        <time>2012-08-20T07:36:34.000Z</time>
      </trkpt>
      <trkpt lat="47.52702" lon="-1.42715">
        <ele>80</ele>
        <time>2012-08-20T07:36:36.000Z</time>
      </trkpt>
      <trkpt lat="47.52701" lon="-1.42722">
        <ele>81</ele>
        <time>2012-08-20T07:36:37.000Z</time>
      </trkpt>
      <trkpt lat="47.52697" lon="-1.42732">
        <ele>82</ele>
        <time>2012-08-20T07:36:39.000Z</time>
      </trkpt>
      <trkpt lat="47.5269" lon="-1.42738">
        <ele>81</ele>
        <time>2012-08-20T07:36:41.000Z</time>
      </trkpt>
      <trkpt lat="47.52682" lon="-1.42738">
        <ele>82</ele>
        <time>2012-08-20T07:36:43.000Z</time>
      </trkpt>
      <trkpt lat="47.52677" lon="-1.42738">
        <ele>81</ele>
        <time>2012-08-20T07:36:44.000Z</time>
      </trkpt>
      <trkpt lat="47.52672" lon="-1.42739">
        <ele>82</ele>
        <time>2012-08-20T07:36:45.000Z</time>
      </trkpt>
      <trkpt lat="47.52667" lon="-1.42741">
        <ele>84</ele>
        <time>2012-08-20T07:36:46.000Z</time>
      </trkpt>
      <trkpt lat="47.52662" lon="-1.42742">
        <ele>86</ele>
        <time>2012-08-20T07:36:47.000Z</time>
      </trkpt>
      <trkpt lat="47.52657" lon="-1.42746">
        <ele>87</ele>
        <time>2012-08-20T07:36:48.000Z</time>
      </trkpt>
      <trkpt lat="47.52653" lon="-1.42749">
        <ele>87</ele>
        <time>2012-08-20T07:36:49.000Z</time>
      </trkpt>
      <trkpt lat="47.52649" lon="-1.42754">
        <ele>87</ele>
        <time>2012-08-20T07:36:50.000Z</time>
      </trkpt>
      <trkpt lat="47.52645" lon="-1.42759">
        <ele>84</ele>
        <time>2012-08-20T07:36:51.000Z</time>
      </trkpt>
      <trkpt lat="47.52641" lon="-1.42767">
        <ele>82</ele>
        <time>2012-08-20T07:36:53.000Z</time>
      </trkpt>
      <trkpt lat="47.52636" lon="-1.42776">
        <ele>81</ele>
        <time>2012-08-20T07:36:55.000Z</time>
      </trkpt>
      <trkpt lat="47.52632" lon="-1.42787">
        <ele>82</ele>
        <time>2012-08-20T07:36:57.000Z</time>
      </trkpt>
      <trkpt lat="47.52628" lon="-1.42799">
        <ele>80</ele>
        <time>2012-08-20T07:36:59.000Z</time>
      </trkpt>
      <trkpt lat="47.52626" lon="-1.42809">
        <ele>77</ele>
        <time>2012-08-20T07:37:01.000Z</time>
      </trkpt>
      <trkpt lat="47.52622" lon="-1.42818">
        <ele>83</ele>
        <time>2012-08-20T07:37:03.000Z</time>
      </trkpt>
      <trkpt lat="47.52619" lon="-1.42824">
        <ele>83</ele>
        <time>2012-08-20T07:37:04.000Z</time>
      </trkpt>
      <trkpt lat="47.52614" lon="-1.42834">
        <ele>84</ele>
        <time>2012-08-20T07:37:06.000Z</time>
      </trkpt>
      <trkpt lat="47.52609" lon="-1.42841">
        <ele>86</ele>
        <time>2012-08-20T07:37:08.000Z</time>
      </trkpt>
      <trkpt lat="47.52604" lon="-1.4285">
        <ele>89</ele>
        <time>2012-08-20T07:37:10.000Z</time>
      </trkpt>
      <trkpt lat="47.52601" lon="-1.4286">
        <ele>89</ele>
        <time>2012-08-20T07:37:12.000Z</time>
      </trkpt>
      <trkpt lat="47.52599" lon="-1.42866">
        <ele>90</ele>
        <time>2012-08-20T07:37:13.000Z</time>
      </trkpt>
      <trkpt lat="47.52595" lon="-1.42877">
        <ele>88</ele>
        <time>2012-08-20T07:37:15.000Z</time>
      </trkpt>
      <trkpt lat="47.5259" lon="-1.42889">
        <ele>87</ele>
        <time>2012-08-20T07:37:17.000Z</time>
      </trkpt>
      <trkpt lat="47.52587" lon="-1.42897">
        <ele>84</ele>
        <time>2012-08-20T07:37:18.000Z</time>
      </trkpt>
      <trkpt lat="47.52585" lon="-1.42904">
        <ele>84</ele>
        <time>2012-08-20T07:37:19.000Z</time>
      </trkpt>
      <trkpt lat="47.52583" lon="-1.4291">
        <ele>84</ele>
        <time>2012-08-20T07:37:20.000Z</time>
      </trkpt>
      <trkpt lat="47.52581" lon="-1.42917">
        <ele>84</ele>
        <time>2012-08-20T07:37:21.000Z</time>
      </trkpt>
      <trkpt lat="47.52579" lon="-1.42924">
        <ele>81</ele>
        <time>2012-08-20T07:37:22.000Z</time>
      </trkpt>
      <trkpt lat="47.52577" lon="-1.42931">
        <ele>84</ele>
        <time>2012-08-20T07:37:23.000Z</time>
      </trkpt>
      <trkpt lat="47.52576" lon="-1.42944">
        <ele>84</ele>
        <time>2012-08-20T07:37:25.000Z</time>
      </trkpt>
      <trkpt lat="47.52575" lon="-1.42952">
        <ele>83</ele>
        <time>2012-08-20T07:37:26.000Z</time>
      </trkpt>
      <trkpt lat="47.52575" lon="-1.4296">
        <ele>85</ele>
        <time>2012-08-20T07:37:27.000Z</time>
      </trkpt>
      <trkpt lat="47.52575" lon="-1.42968">
        <ele>85</ele>
        <time>2012-08-20T07:37:28.000Z</time>
      </trkpt>
      <trkpt lat="47.52575" lon="-1.42975">
        <ele>85</ele>
        <time>2012-08-20T07:37:29.000Z</time>
      </trkpt>
      <trkpt lat="47.52575" lon="-1.42987">
        <ele>85</ele>
        <time>2012-08-20T07:37:31.000Z</time>
      </trkpt>
      <trkpt lat="47.52575" lon="-1.42994">
        <ele>82</ele>
        <time>2012-08-20T07:37:32.000Z</time>
      </trkpt>
      <trkpt lat="47.52576" lon="-1.43008">
        <ele>82</ele>
        <time>2012-08-20T07:37:34.000Z</time>
      </trkpt>
      <trkpt lat="47.52577" lon="-1.4302">
        <ele>85</ele>
        <time>2012-08-20T07:37:36.000Z</time>
      </trkpt>
      <trkpt lat="47.52579" lon="-1.4303">
        <ele>86</ele>
        <time>2012-08-20T07:37:38.000Z</time>
      </trkpt>
      <trkpt lat="47.52581" lon="-1.43041">
        <ele>84</ele>
        <time>2012-08-20T07:37:40.000Z</time>
      </trkpt>
      <trkpt lat="47.52584" lon="-1.43052">
        <ele>86</ele>
        <time>2012-08-20T07:37:42.000Z</time>
      </trkpt>
      <trkpt lat="47.52586" lon="-1.43064">
        <ele>85</ele>
        <time>2012-08-20T07:37:44.000Z</time>
      </trkpt>
      <trkpt lat="47.52589" lon="-1.43074">
        <ele>87</ele>
        <time>2012-08-20T07:37:46.000Z</time>
      </trkpt>
      <trkpt lat="47.5259" lon="-1.43082">
        <ele>84</ele>
        <time>2012-08-20T07:37:47.000Z</time>
      </trkpt>
      <trkpt lat="47.52593" lon="-1.43088">
        <ele>84</ele>
        <time>2012-08-20T07:37:48.000Z</time>
      </trkpt>
      <trkpt lat="47.52595" lon="-1.43096">
        <ele>87</ele>
        <time>2012-08-20T07:37:49.000Z</time>
      </trkpt>
      <trkpt lat="47.52596" lon="-1.43104">
        <ele>87</ele>
        <time>2012-08-20T07:37:50.000Z</time>
      </trkpt>
      <trkpt lat="47.52598" lon="-1.43111">
        <ele>83</ele>
        <time>2012-08-20T07:37:51.000Z</time>
      </trkpt>
      <trkpt lat="47.52598" lon="-1.43118">
        <ele>83</ele>
        <time>2012-08-20T07:37:52.000Z</time>
      </trkpt>
      <trkpt lat="47.526" lon="-1.43125">
        <ele>84</ele>
        <time>2012-08-20T07:37:53.000Z</time>
      </trkpt>
      <trkpt lat="47.526" lon="-1.43132">
        <ele>85</ele>
        <time>2012-08-20T07:37:54.000Z</time>
      </trkpt>
      <trkpt lat="47.526" lon="-1.4314">
        <ele>82</ele>
        <time>2012-08-20T07:37:55.000Z</time>
      </trkpt>
      <trkpt lat="47.526" lon="-1.43147">
        <ele>80</ele>
        <time>2012-08-20T07:37:56.000Z</time>
      </trkpt>
      <trkpt lat="47.52601" lon="-1.43162">
        <ele>81</ele>
        <time>2012-08-20T07:37:58.000Z</time>
      </trkpt>
      <trkpt lat="47.52601" lon="-1.4317">
        <ele>80</ele>
        <time>2012-08-20T07:37:59.000Z</time>
      </trkpt>
      <trkpt lat="47.52601" lon="-1.43178">
        <ele>83</ele>
        <time>2012-08-20T07:38:00.000Z</time>
      </trkpt>
      <trkpt lat="47.52602" lon="-1.43191">
        <ele>83</ele>
        <time>2012-08-20T07:38:02.000Z</time>
      </trkpt>
      <trkpt lat="47.52602" lon="-1.43199">
        <ele>84</ele>
        <time>2012-08-20T07:38:03.000Z</time>
      </trkpt>
      <trkpt lat="47.52602" lon="-1.43206">
        <ele>88</ele>
        <time>2012-08-20T07:38:04.000Z</time>
      </trkpt>
      <trkpt lat="47.52605" lon="-1.43216">
        <ele>89</ele>
        <time>2012-08-20T07:38:06.000Z</time>
      </trkpt>
      <trkpt lat="47.52608" lon="-1.43228">
        <ele>83</ele>
        <time>2012-08-20T07:38:08.000Z</time>
      </trkpt>
      <trkpt lat="47.5261" lon="-1.43235">
        <ele>82</ele>
        <time>2012-08-20T07:38:09.000Z</time>
      </trkpt>
      <trkpt lat="47.52612" lon="-1.43246">
        <ele>87</ele>
        <time>2012-08-20T07:38:11.000Z</time>
      </trkpt>
      <trkpt lat="47.52613" lon="-1.43257">
        <ele>85</ele>
        <time>2012-08-20T07:38:13.000Z</time>
      </trkpt>
      <trkpt lat="47.52617" lon="-1.43268">
        <ele>86</ele>
        <time>2012-08-20T07:38:15.000Z</time>
      </trkpt>
      <trkpt lat="47.52621" lon="-1.43279">
        <ele>83</ele>
        <time>2012-08-20T07:38:17.000Z</time>
      </trkpt>
      <trkpt lat="47.52623" lon="-1.43285">
        <ele>84</ele>
        <time>2012-08-20T07:38:18.000Z</time>
      </trkpt>
      <trkpt lat="47.52626" lon="-1.43291">
        <ele>83</ele>
        <time>2012-08-20T07:38:19.000Z</time>
      </trkpt>
      <trkpt lat="47.5263" lon="-1.43302">
        <ele>81</ele>
        <time>2012-08-20T07:38:21.000Z</time>
      </trkpt>
      <trkpt lat="47.52634" lon="-1.43312">
        <ele>82</ele>
        <time>2012-08-20T07:38:23.000Z</time>
      </trkpt>
      <trkpt lat="47.52636" lon="-1.4332">
        <ele>87</ele>
        <time>2012-08-20T07:38:25.000Z</time>
      </trkpt>
      <trkpt lat="47.52637" lon="-1.4333">
        <ele>85</ele>
        <time>2012-08-20T07:38:27.000Z</time>
      </trkpt>
      <trkpt lat="47.52636" lon="-1.43343">
        <ele>85</ele>
        <time>2012-08-20T07:38:29.000Z</time>
      </trkpt>
      <trkpt lat="47.52635" lon="-1.4335">
        <ele>87</ele>
        <time>2012-08-20T07:38:30.000Z</time>
      </trkpt>
      <trkpt lat="47.52634" lon="-1.43358">
        <ele>88</ele>
        <time>2012-08-20T07:38:31.000Z</time>
      </trkpt>
      <trkpt lat="47.52634" lon="-1.43369">
        <ele>86</ele>
        <time>2012-08-20T07:38:33.000Z</time>
      </trkpt>
      <trkpt lat="47.52633" lon="-1.43378">
        <ele>86</ele>
        <time>2012-08-20T07:38:35.000Z</time>
      </trkpt>
      <trkpt lat="47.52632" lon="-1.43389">
        <ele>86</ele>
        <time>2012-08-20T07:38:37.000Z</time>
      </trkpt>
      <trkpt lat="47.52632" lon="-1.43399">
        <ele>85</ele>
        <time>2012-08-20T07:38:39.000Z</time>
      </trkpt>
      <trkpt lat="47.52631" lon="-1.43409">
        <ele>86</ele>
        <time>2012-08-20T07:38:41.000Z</time>
      </trkpt>
      <trkpt lat="47.52631" lon="-1.43421">
        <ele>83</ele>
        <time>2012-08-20T07:38:43.000Z</time>
      </trkpt>
      <trkpt lat="47.52631" lon="-1.43433">
        <ele>85</ele>
        <time>2012-08-20T07:38:45.000Z</time>
      </trkpt>
      <trkpt lat="47.52632" lon="-1.43442">
        <ele>86</ele>
        <time>2012-08-20T07:38:47.000Z</time>
      </trkpt>
      <trkpt lat="47.52631" lon="-1.43452">
        <ele>89</ele>
        <time>2012-08-20T07:38:49.000Z</time>
      </trkpt>
      <trkpt lat="47.52631" lon="-1.43464">
        <ele>87</ele>
        <time>2012-08-20T07:38:51.000Z</time>
      </trkpt>
      <trkpt lat="47.52631" lon="-1.43475">
        <ele>86</ele>
        <time>2012-08-20T07:38:53.000Z</time>
      </trkpt>
      <trkpt lat="47.52631" lon="-1.43483">
        <ele>84</ele>
        <time>2012-08-20T07:38:54.000Z</time>
      </trkpt>
      <trkpt lat="47.52631" lon="-1.43494">
        <ele>86</ele>
        <time>2012-08-20T07:38:56.000Z</time>
      </trkpt>
      <trkpt lat="47.52632" lon="-1.43507">
        <ele>86</ele>
        <time>2012-08-20T07:38:58.000Z</time>
      </trkpt>
      <trkpt lat="47.52633" lon="-1.43514">
        <ele>85</ele>
        <time>2012-08-20T07:38:59.000Z</time>
      </trkpt>
      <trkpt lat="47.52634" lon="-1.43521">
        <ele>83</ele>
        <time>2012-08-20T07:39:00.000Z</time>
      </trkpt>
      <trkpt lat="47.52636" lon="-1.43528">
        <ele>83</ele>
        <time>2012-08-20T07:39:01.000Z</time>
      </trkpt>
      <trkpt lat="47.52638" lon="-1.43535">
        <ele>82</ele>
        <time>2012-08-20T07:39:02.000Z</time>
      </trkpt>
      <trkpt lat="47.52638" lon="-1.43542">
        <ele>82</ele>
        <time>2012-08-20T07:39:03.000Z</time>
      </trkpt>
      <trkpt lat="47.5264" lon="-1.43549">
        <ele>88</ele>
        <time>2012-08-20T07:39:04.000Z</time>
      </trkpt>
      <trkpt lat="47.52641" lon="-1.43556">
        <ele>87</ele>
        <time>2012-08-20T07:39:05.000Z</time>
      </trkpt>
      <trkpt lat="47.52646" lon="-1.43572">
        <ele>84</ele>
        <time>2012-08-20T07:39:08.000Z</time>
      </trkpt>
      <trkpt lat="47.52649" lon="-1.43577">
        <ele>80</ele>
        <time>2012-08-20T07:39:09.000Z</time>
      </trkpt>
      <trkpt lat="47.52653" lon="-1.43588">
        <ele>82</ele>
        <time>2012-08-20T07:39:11.000Z</time>
      </trkpt>
      <trkpt lat="47.52656" lon="-1.43593">
        <ele>84</ele>
        <time>2012-08-20T07:39:12.000Z</time>
      </trkpt>
      <trkpt lat="47.5266" lon="-1.43604">
        <ele>84</ele>
        <time>2012-08-20T07:39:14.000Z</time>
      </trkpt>
      <trkpt lat="47.52665" lon="-1.43614">
        <ele>84</ele>
        <time>2012-08-20T07:39:16.000Z</time>
      </trkpt>
      <trkpt lat="47.52669" lon="-1.4362">
        <ele>82</ele>
        <time>2012-08-20T07:39:17.000Z</time>
      </trkpt>
      <trkpt lat="47.52672" lon="-1.43626">
        <ele>80</ele>
        <time>2012-08-20T07:39:18.000Z</time>
      </trkpt>
      <trkpt lat="47.52676" lon="-1.4363">
        <ele>83</ele>
        <time>2012-08-20T07:39:19.000Z</time>
      </trkpt>
      <trkpt lat="47.52681" lon="-1.43635">
        <ele>80</ele>
        <time>2012-08-20T07:39:20.000Z</time>
      </trkpt>
      <trkpt lat="47.52688" lon="-1.43643">
        <ele>80</ele>
        <time>2012-08-20T07:39:22.000Z</time>
      </trkpt>
      <trkpt lat="47.52695" lon="-1.4365">
        <ele>78</ele>
        <time>2012-08-20T07:39:24.000Z</time>
      </trkpt>
      <trkpt lat="47.52699" lon="-1.43654">
        <ele>79</ele>
        <time>2012-08-20T07:39:25.000Z</time>
      </trkpt>
      <trkpt lat="47.52703" lon="-1.43658">
        <ele>79</ele>
        <time>2012-08-20T07:39:26.000Z</time>
      </trkpt>
      <trkpt lat="47.5271" lon="-1.43661">
        <ele>80</ele>
        <time>2012-08-20T07:39:28.000Z</time>
      </trkpt>
      <trkpt lat="47.52717" lon="-1.43665">
        <ele>77</ele>
        <time>2012-08-20T07:39:30.000Z</time>
      </trkpt>
      <trkpt lat="47.52721" lon="-1.43667">
        <ele>78</ele>
        <time>2012-08-20T07:39:31.000Z</time>
      </trkpt>
      <trkpt lat="47.52726" lon="-1.4367">
        <ele>77</ele>
        <time>2012-08-20T07:39:32.000Z</time>
      </trkpt>
      <trkpt lat="47.5273" lon="-1.43672">
        <ele>79</ele>
        <time>2012-08-20T07:39:33.000Z</time>
      </trkpt>
      <trkpt lat="47.52738" lon="-1.43675">
        <ele>76</ele>
        <time>2012-08-20T07:39:35.000Z</time>
      </trkpt>
      <trkpt lat="47.52746" lon="-1.43676">
        <ele>80</ele>
        <time>2012-08-20T07:39:37.000Z</time>
      </trkpt>
      <trkpt lat="47.52754" lon="-1.43676">
        <ele>83</ele>
        <time>2012-08-20T07:39:39.000Z</time>
      </trkpt>
      <trkpt lat="47.52759" lon="-1.43676">
        <ele>81</ele>
        <time>2012-08-20T07:39:40.000Z</time>
      </trkpt>
      <trkpt lat="47.52764" lon="-1.43676">
        <ele>79</ele>
        <time>2012-08-20T07:39:41.000Z</time>
      </trkpt>
      <trkpt lat="47.5277" lon="-1.43677">
        <ele>78</ele>
        <time>2012-08-20T07:39:42.000Z</time>
      </trkpt>
      <trkpt lat="47.52775" lon="-1.43678">
        <ele>74</ele>
        <time>2012-08-20T07:39:43.000Z</time>
      </trkpt>
      <trkpt lat="47.5278" lon="-1.43678">
        <ele>78</ele>
        <time>2012-08-20T07:39:44.000Z</time>
      </trkpt>
      <trkpt lat="47.52788" lon="-1.43676">
        <ele>78</ele>
        <time>2012-08-20T07:39:46.000Z</time>
      </trkpt>
      <trkpt lat="47.52792" lon="-1.43673">
        <ele>80</ele>
        <time>2012-08-20T07:39:48.000Z</time>
      </trkpt>
      <trkpt lat="47.52797" lon="-1.43673">
        <ele>80</ele>
        <time>2012-08-20T07:39:50.000Z</time>
      </trkpt>
      <trkpt lat="47.52804" lon="-1.43671">
        <ele>78</ele>
        <time>2012-08-20T07:39:52.000Z</time>
      </trkpt>
      <trkpt lat="47.5281" lon="-1.43668">
        <ele>72</ele>
        <time>2012-08-20T07:39:54.000Z</time>
      </trkpt>
      <trkpt lat="47.52817" lon="-1.43667">
        <ele>78</ele>
        <time>2012-08-20T07:39:56.000Z</time>
      </trkpt>
      <trkpt lat="47.52823" lon="-1.43665">
        <ele>79</ele>
        <time>2012-08-20T07:39:58.000Z</time>
      </trkpt>
      <trkpt lat="47.52827" lon="-1.43663">
        <ele>82</ele>
        <time>2012-08-20T07:39:59.000Z</time>
      </trkpt>
      <trkpt lat="47.52834" lon="-1.43659">
        <ele>81</ele>
        <time>2012-08-20T07:40:01.000Z</time>
      </trkpt>
      <trkpt lat="47.52841" lon="-1.43656">
        <ele>82</ele>
        <time>2012-08-20T07:40:03.000Z</time>
      </trkpt>
      <trkpt lat="47.52848" lon="-1.43651">
        <ele>78</ele>
        <time>2012-08-20T07:40:05.000Z</time>
      </trkpt>
      <trkpt lat="47.52852" lon="-1.43649">
        <ele>80</ele>
        <time>2012-08-20T07:40:06.000Z</time>
      </trkpt>
      <trkpt lat="47.5286" lon="-1.43644">
        <ele>79</ele>
        <time>2012-08-20T07:40:08.000Z</time>
      </trkpt>
      <trkpt lat="47.52864" lon="-1.43642">
        <ele>82</ele>
        <time>2012-08-20T07:40:09.000Z</time>
      </trkpt>
      <trkpt lat="47.52869" lon="-1.4364">
        <ele>82</ele>
        <time>2012-08-20T07:40:10.000Z</time>
      </trkpt>
      <trkpt lat="47.52874" lon="-1.43638">
        <ele>82</ele>
        <time>2012-08-20T07:40:11.000Z</time>
      </trkpt>
      <trkpt lat="47.52882" lon="-1.43637">
        <ele>81</ele>
        <time>2012-08-20T07:40:13.000Z</time>
      </trkpt>
      <trkpt lat="47.5289" lon="-1.43634">
        <ele>81</ele>
        <time>2012-08-20T07:40:15.000Z</time>
      </trkpt>
      <trkpt lat="47.52899" lon="-1.43631">
        <ele>74</ele>
        <time>2012-08-20T07:40:17.000Z</time>
      </trkpt>
      <trkpt lat="47.52908" lon="-1.43628">
        <ele>81</ele>
        <time>2012-08-20T07:40:19.000Z</time>
      </trkpt>
      <trkpt lat="47.52913" lon="-1.43627">
        <ele>82</ele>
        <time>2012-08-20T07:40:20.000Z</time>
      </trkpt>
      <trkpt lat="47.5292" lon="-1.43624">
        <ele>83</ele>
        <time>2012-08-20T07:40:22.000Z</time>
      </trkpt>
      <trkpt lat="47.52927" lon="-1.43622">
        <ele>81</ele>
        <time>2012-08-20T07:40:24.000Z</time>
      </trkpt>
      <trkpt lat="47.52933" lon="-1.43622">
        <ele>82</ele>
        <time>2012-08-20T07:40:26.000Z</time>
      </trkpt>
      <trkpt lat="47.52939" lon="-1.43622">
        <ele>79</ele>
        <time>2012-08-20T07:40:28.000Z</time>
      </trkpt>
      <trkpt lat="47.52946" lon="-1.43622">
        <ele>80</ele>
        <time>2012-08-20T07:40:30.000Z</time>
      </trkpt>
      <trkpt lat="47.52954" lon="-1.4362">
        <ele>79</ele>
        <time>2012-08-20T07:40:32.000Z</time>
      </trkpt>
      <trkpt lat="47.52962" lon="-1.4362">
        <ele>81</ele>
        <time>2012-08-20T07:40:34.000Z</time>
      </trkpt>
      <trkpt lat="47.52969" lon="-1.43618">
        <ele>86</ele>
        <time>2012-08-20T07:40:36.000Z</time>
      </trkpt>
      <trkpt lat="47.52976" lon="-1.43614">
        <ele>84</ele>
        <time>2012-08-20T07:40:38.000Z</time>
      </trkpt>
      <trkpt lat="47.52983" lon="-1.43608">
        <ele>87</ele>
        <time>2012-08-20T07:40:40.000Z</time>
      </trkpt>
      <trkpt lat="47.52987" lon="-1.43605">
        <ele>86</ele>
        <time>2012-08-20T07:40:41.000Z</time>
      </trkpt>
      <trkpt lat="47.52992" lon="-1.43599">
        <ele>89</ele>
        <time>2012-08-20T07:40:43.000Z</time>
      </trkpt>
      <trkpt lat="47.52997" lon="-1.4359">
        <ele>84</ele>
        <time>2012-08-20T07:40:45.000Z</time>
      </trkpt>
      <trkpt lat="47.53001" lon="-1.43581">
        <ele>85</ele>
        <time>2012-08-20T07:40:47.000Z</time>
      </trkpt>
      <trkpt lat="47.53004" lon="-1.4357">
        <ele>84</ele>
        <time>2012-08-20T07:40:49.000Z</time>
      </trkpt>
      <trkpt lat="47.53007" lon="-1.43561">
        <ele>84</ele>
        <time>2012-08-20T07:40:51.000Z</time>
      </trkpt>
      <trkpt lat="47.53012" lon="-1.43552">
        <ele>83</ele>
        <time>2012-08-20T07:40:53.000Z</time>
      </trkpt>
      <trkpt lat="47.53015" lon="-1.43548">
        <ele>82</ele>
        <time>2012-08-20T07:40:54.000Z</time>
      </trkpt>
      <trkpt lat="47.53018" lon="-1.43543">
        <ele>84</ele>
        <time>2012-08-20T07:40:55.000Z</time>
      </trkpt>
      <trkpt lat="47.53022" lon="-1.43537">
        <ele>86</ele>
        <time>2012-08-20T07:40:56.000Z</time>
      </trkpt>
      <trkpt lat="47.53025" lon="-1.43532">
        <ele>83</ele>
        <time>2012-08-20T07:40:57.000Z</time>
      </trkpt>
      <trkpt lat="47.53032" lon="-1.43525">
        <ele>84</ele>
        <time>2012-08-20T07:40:59.000Z</time>
      </trkpt>
      <trkpt lat="47.53039" lon="-1.43517">
        <ele>84</ele>
        <time>2012-08-20T07:41:01.000Z</time>
      </trkpt>
      <trkpt lat="47.53044" lon="-1.43513">
        <ele>85</ele>
        <time>2012-08-20T07:41:03.000Z</time>
      </trkpt>
      <trkpt lat="47.53049" lon="-1.43507">
        <ele>86</ele>
        <time>2012-08-20T07:41:05.000Z</time>
      </trkpt>
      <trkpt lat="47.53057" lon="-1.43496">
        <ele>85</ele>
        <time>2012-08-20T07:41:08.000Z</time>
      </trkpt>
      <trkpt lat="47.53064" lon="-1.43488">
        <ele>87</ele>
        <time>2012-08-20T07:41:10.000Z</time>
      </trkpt>
      <trkpt lat="47.53068" lon="-1.43484">
        <ele>85</ele>
        <time>2012-08-20T07:41:11.000Z</time>
      </trkpt>
      <trkpt lat="47.53074" lon="-1.43479">
        <ele>86</ele>
        <time>2012-08-20T07:41:13.000Z</time>
      </trkpt>
      <trkpt lat="47.53079" lon="-1.43473">
        <ele>86</ele>
        <time>2012-08-20T07:41:15.000Z</time>
      </trkpt>
      <trkpt lat="47.53083" lon="-1.43466">
        <ele>87</ele>
        <time>2012-08-20T07:41:17.000Z</time>
      </trkpt>
      <trkpt lat="47.53086" lon="-1.43459">
        <ele>85</ele>
        <time>2012-08-20T07:41:19.000Z</time>
      </trkpt>
      <trkpt lat="47.5309" lon="-1.43454">
        <ele>83</ele>
        <time>2012-08-20T07:41:21.000Z</time>
      </trkpt>
      <trkpt lat="47.53095" lon="-1.43451">
        <ele>82</ele>
        <time>2012-08-20T07:41:24.000Z</time>
      </trkpt>
      <trkpt lat="47.531" lon="-1.43457">
        <ele>84</ele>
        <time>2012-08-20T07:41:26.000Z</time>
      </trkpt>
      <trkpt lat="47.53106" lon="-1.43466">
        <ele>87</ele>
        <time>2012-08-20T07:41:28.000Z</time>
      </trkpt>
      <trkpt lat="47.53109" lon="-1.43473">
        <ele>86</ele>
        <time>2012-08-20T07:41:30.000Z</time>
      </trkpt>
      <trkpt lat="47.53112" lon="-1.43481">
        <ele>84</ele>
        <time>2012-08-20T07:41:32.000Z</time>
      </trkpt>
      <trkpt lat="47.53116" lon="-1.43488">
        <ele>88</ele>
        <time>2012-08-20T07:41:34.000Z</time>
      </trkpt>
      <trkpt lat="47.5312" lon="-1.43497">
        <ele>86</ele>
        <time>2012-08-20T07:41:36.000Z</time>
      </trkpt>
      <trkpt lat="47.53122" lon="-1.43506">
        <ele>85</ele>
        <time>2012-08-20T07:41:38.000Z</time>
      </trkpt>
      <trkpt lat="47.53124" lon="-1.43512">
        <ele>83</ele>
        <time>2012-08-20T07:41:39.000Z</time>
      </trkpt>
      <trkpt lat="47.53126" lon="-1.43519">
        <ele>85</ele>
        <time>2012-08-20T07:41:40.000Z</time>
      </trkpt>
      <trkpt lat="47.53128" lon="-1.43532">
        <ele>85</ele>
        <time>2012-08-20T07:41:42.000Z</time>
      </trkpt>
      <trkpt lat="47.53128" lon="-1.43545">
        <ele>84</ele>
        <time>2012-08-20T07:41:44.000Z</time>
      </trkpt>
      <trkpt lat="47.53128" lon="-1.43557">
        <ele>88</ele>
        <time>2012-08-20T07:41:46.000Z</time>
      </trkpt>
      <trkpt lat="47.53129" lon="-1.43568">
        <ele>88</ele>
        <time>2012-08-20T07:41:48.000Z</time>
      </trkpt>
      <trkpt lat="47.53129" lon="-1.43579">
        <ele>84</ele>
        <time>2012-08-20T07:41:50.000Z</time>
      </trkpt>
      <trkpt lat="47.53129" lon="-1.43591">
        <ele>85</ele>
        <time>2012-08-20T07:41:52.000Z</time>
      </trkpt>
      <trkpt lat="47.5313" lon="-1.43601">
        <ele>86</ele>
        <time>2012-08-20T07:41:54.000Z</time>
      </trkpt>
      <trkpt lat="47.5313" lon="-1.43612">
        <ele>87</ele>
        <time>2012-08-20T07:41:56.000Z</time>
      </trkpt>
      <trkpt lat="47.5313" lon="-1.43623">
        <ele>89</ele>
        <time>2012-08-20T07:41:58.000Z</time>
      </trkpt>
      <trkpt lat="47.53131" lon="-1.43635">
        <ele>85</ele>
        <time>2012-08-20T07:42:00.000Z</time>
      </trkpt>
      <trkpt lat="47.53131" lon="-1.43646">
        <ele>86</ele>
        <time>2012-08-20T07:42:02.000Z</time>
      </trkpt>
      <trkpt lat="47.53131" lon="-1.43658">
        <ele>89</ele>
        <time>2012-08-20T07:42:04.000Z</time>
      </trkpt>
      <trkpt lat="47.53133" lon="-1.43667">
        <ele>88</ele>
        <time>2012-08-20T07:42:06.000Z</time>
      </trkpt>
      <trkpt lat="47.53137" lon="-1.43675">
        <ele>87</ele>
        <time>2012-08-20T07:42:08.000Z</time>
      </trkpt>
      <trkpt lat="47.53144" lon="-1.43677">
        <ele>92</ele>
        <time>2012-08-20T07:42:10.000Z</time>
      </trkpt>
      <trkpt lat="47.5315" lon="-1.43677">
        <ele>93</ele>
        <time>2012-08-20T07:42:12.000Z</time>
      </trkpt>
      <trkpt lat="47.53156" lon="-1.43683">
        <ele>94</ele>
        <time>2012-08-20T07:42:14.000Z</time>
      </trkpt>
      <trkpt lat="47.5316" lon="-1.43691">
        <ele>92</ele>
        <time>2012-08-20T07:42:16.000Z</time>
      </trkpt>
      <trkpt lat="47.53162" lon="-1.437">
        <ele>91</ele>
        <time>2012-08-20T07:42:18.000Z</time>
      </trkpt>
      <trkpt lat="47.53165" lon="-1.43712">
        <ele>97</ele>
        <time>2012-08-20T07:42:20.000Z</time>
      </trkpt>
      <trkpt lat="47.53167" lon="-1.43723">
        <ele>97</ele>
        <time>2012-08-20T07:42:22.000Z</time>
      </trkpt>
      <trkpt lat="47.5317" lon="-1.43735">
        <ele>97</ele>
        <time>2012-08-20T07:42:24.000Z</time>
      </trkpt>
      <trkpt lat="47.53172" lon="-1.43746">
        <ele>96</ele>
        <time>2012-08-20T07:42:26.000Z</time>
      </trkpt>
      <trkpt lat="47.53174" lon="-1.43756">
        <ele>96</ele>
        <time>2012-08-20T07:42:28.000Z</time>
      </trkpt>
      <trkpt lat="47.53176" lon="-1.43767">
        <ele>96</ele>
        <time>2012-08-20T07:42:30.000Z</time>
      </trkpt>
      <trkpt lat="47.53179" lon="-1.43778">
        <ele>95</ele>
        <time>2012-08-20T07:42:32.000Z</time>
      </trkpt>
      <trkpt lat="47.53181" lon="-1.4379">
        <ele>97</ele>
        <time>2012-08-20T07:42:34.000Z</time>
      </trkpt>
      <trkpt lat="47.53182" lon="-1.438">
        <ele>97</ele>
        <time>2012-08-20T07:42:36.000Z</time>
      </trkpt>
      <trkpt lat="47.53184" lon="-1.43811">
        <ele>100</ele>
        <time>2012-08-20T07:42:38.000Z</time>
      </trkpt>
      <trkpt lat="47.53186" lon="-1.43822">
        <ele>96</ele>
        <time>2012-08-20T07:42:40.000Z</time>
      </trkpt>
      <trkpt lat="47.53188" lon="-1.43833">
        <ele>99</ele>
        <time>2012-08-20T07:42:42.000Z</time>
      </trkpt>
      <trkpt lat="47.5319" lon="-1.43844">
        <ele>96</ele>
        <time>2012-08-20T07:42:44.000Z</time>
      </trkpt>
      <trkpt lat="47.53192" lon="-1.43854">
        <ele>95</ele>
        <time>2012-08-20T07:42:46.000Z</time>
      </trkpt>
      <trkpt lat="47.53193" lon="-1.43864">
        <ele>94</ele>
        <time>2012-08-20T07:42:48.000Z</time>
      </trkpt>
      <trkpt lat="47.53194" lon="-1.43876">
        <ele>95</ele>
        <time>2012-08-20T07:42:50.000Z</time>
      </trkpt>
      <trkpt lat="47.53194" lon="-1.43885">
        <ele>97</ele>
        <time>2012-08-20T07:42:52.000Z</time>
      </trkpt>
      <trkpt lat="47.53194" lon="-1.43896">
        <ele>99</ele>
        <time>2012-08-20T07:42:54.000Z</time>
      </trkpt>
      <trkpt lat="47.53194" lon="-1.43906">
        <ele>97</ele>
        <time>2012-08-20T07:42:56.000Z</time>
      </trkpt>
      <trkpt lat="47.53194" lon="-1.43918">
        <ele>98</ele>
        <time>2012-08-20T07:42:58.000Z</time>
      </trkpt>
      <trkpt lat="47.53194" lon="-1.43929">
        <ele>100</ele>
        <time>2012-08-20T07:43:00.000Z</time>
      </trkpt>
      <trkpt lat="47.53194" lon="-1.4394">
        <ele>97</ele>
        <time>2012-08-20T07:43:02.000Z</time>
      </trkpt>
      <trkpt lat="47.53196" lon="-1.43953">
        <ele>93</ele>
        <time>2012-08-20T07:43:04.000Z</time>
      </trkpt>
      <trkpt lat="47.53197" lon="-1.43963">
        <ele>94</ele>
        <time>2012-08-20T07:43:06.000Z</time>
      </trkpt>
      <trkpt lat="47.53199" lon="-1.43976">
        <ele>95</ele>
        <time>2012-08-20T07:43:08.000Z</time>
      </trkpt>
      <trkpt lat="47.53202" lon="-1.43986">
        <ele>96</ele>
        <time>2012-08-20T07:43:10.000Z</time>
      </trkpt>
      <trkpt lat="47.53204" lon="-1.43995">
        <ele>100</ele>
        <time>2012-08-20T07:43:12.000Z</time>
      </trkpt>
      <trkpt lat="47.53207" lon="-1.44005">
        <ele>97</ele>
        <time>2012-08-20T07:43:14.000Z</time>
      </trkpt>
      <trkpt lat="47.53211" lon="-1.44016">
        <ele>98</ele>
        <time>2012-08-20T07:43:16.000Z</time>
      </trkpt>
      <trkpt lat="47.53215" lon="-1.44028">
        <ele>98</ele>
        <time>2012-08-20T07:43:18.000Z</time>
      </trkpt>
      <trkpt lat="47.53218" lon="-1.44038">
        <ele>95</ele>
        <time>2012-08-20T07:43:20.000Z</time>
      </trkpt>
      <trkpt lat="47.53222" lon="-1.4405">
        <ele>96</ele>
        <time>2012-08-20T07:43:22.000Z</time>
      </trkpt>
      <trkpt lat="47.53225" lon="-1.44059">
        <ele>101</ele>
        <time>2012-08-20T07:43:24.000Z</time>
      </trkpt>
      <trkpt lat="47.53228" lon="-1.44068">
        <ele>98</ele>
        <time>2012-08-20T07:43:26.000Z</time>
      </trkpt>
      <trkpt lat="47.53231" lon="-1.44077">
        <ele>100</ele>
        <time>2012-08-20T07:43:28.000Z</time>
      </trkpt>
      <trkpt lat="47.53235" lon="-1.44087">
        <ele>101</ele>
        <time>2012-08-20T07:43:30.000Z</time>
      </trkpt>
      <trkpt lat="47.53238" lon="-1.44096">
        <ele>97</ele>
        <time>2012-08-20T07:43:32.000Z</time>
      </trkpt>
      <trkpt lat="47.53242" lon="-1.44107">
        <ele>95</ele>
        <time>2012-08-20T07:43:34.000Z</time>
      </trkpt>
      <trkpt lat="47.53245" lon="-1.44118">
        <ele>96</ele>
        <time>2012-08-20T07:43:36.000Z</time>
      </trkpt>
      <trkpt lat="47.53247" lon="-1.44128">
        <ele>99</ele>
        <time>2012-08-20T07:43:38.000Z</time>
      </trkpt>
      <trkpt lat="47.5325" lon="-1.44139">
        <ele>100</ele>
        <time>2012-08-20T07:43:40.000Z</time>
      </trkpt>
      <trkpt lat="47.53252" lon="-1.44149">
        <ele>100</ele>
        <time>2012-08-20T07:43:42.000Z</time>
      </trkpt>
      <trkpt lat="47.53254" lon="-1.4416">
        <ele>101</ele>
        <time>2012-08-20T07:43:44.000Z</time>
      </trkpt>
      <trkpt lat="47.53257" lon="-1.44173">
        <ele>102</ele>
        <time>2012-08-20T07:43:46.000Z</time>
      </trkpt>
      <trkpt lat="47.53258" lon="-1.44179">
        <ele>101</ele>
        <time>2012-08-20T07:43:47.000Z</time>
      </trkpt>
      <trkpt lat="47.5326" lon="-1.4419">
        <ele>104</ele>
        <time>2012-08-20T07:43:49.000Z</time>
      </trkpt>
      <trkpt lat="47.53263" lon="-1.44202">
        <ele>100</ele>
        <time>2012-08-20T07:43:51.000Z</time>
      </trkpt>
      <trkpt lat="47.53266" lon="-1.44213">
        <ele>101</ele>
        <time>2012-08-20T07:43:53.000Z</time>
      </trkpt>
      <trkpt lat="47.5327" lon="-1.44223">
        <ele>101</ele>
        <time>2012-08-20T07:43:55.000Z</time>
      </trkpt>
      <trkpt lat="47.53273" lon="-1.44233">
        <ele>100</ele>
        <time>2012-08-20T07:43:57.000Z</time>
      </trkpt>
      <trkpt lat="47.53277" lon="-1.44244">
        <ele>100</ele>
        <time>2012-08-20T07:43:59.000Z</time>
      </trkpt>
      <trkpt lat="47.53282" lon="-1.44255">
        <ele>102</ele>
        <time>2012-08-20T07:44:01.000Z</time>
      </trkpt>
      <trkpt lat="47.53287" lon="-1.44265">
        <ele>100</ele>
        <time>2012-08-20T07:44:03.000Z</time>
      </trkpt>
      <trkpt lat="47.5329" lon="-1.44271">
        <ele>99</ele>
        <time>2012-08-20T07:44:04.000Z</time>
      </trkpt>
      <trkpt lat="47.53293" lon="-1.44277">
        <ele>98</ele>
        <time>2012-08-20T07:44:05.000Z</time>
      </trkpt>
      <trkpt lat="47.53296" lon="-1.44282">
        <ele>98</ele>
        <time>2012-08-20T07:44:06.000Z</time>
      </trkpt>
      <trkpt lat="47.53301" lon="-1.44292">
        <ele>100</ele>
        <time>2012-08-20T07:44:08.000Z</time>
      </trkpt>
      <trkpt lat="47.53306" lon="-1.44302">
        <ele>99</ele>
        <time>2012-08-20T07:44:10.000Z</time>
      </trkpt>
      <trkpt lat="47.53312" lon="-1.4431">
        <ele>104</ele>
        <time>2012-08-20T07:44:12.000Z</time>
      </trkpt>
      <trkpt lat="47.53317" lon="-1.44321">
        <ele>104</ele>
        <time>2012-08-20T07:44:14.000Z</time>
      </trkpt>
      <trkpt lat="47.5332" lon="-1.44326">
        <ele>106</ele>
        <time>2012-08-20T07:44:15.000Z</time>
      </trkpt>
      <trkpt lat="47.53323" lon="-1.44332">
        <ele>106</ele>
        <time>2012-08-20T07:44:16.000Z</time>
      </trkpt>
      <trkpt lat="47.53326" lon="-1.44337">
        <ele>105</ele>
        <time>2012-08-20T07:44:17.000Z</time>
      </trkpt>
      <trkpt lat="47.53331" lon="-1.44346">
        <ele>105</ele>
        <time>2012-08-20T07:44:19.000Z</time>
      </trkpt>
      <trkpt lat="47.53336" lon="-1.44356">
        <ele>107</ele>
        <time>2012-08-20T07:44:21.000Z</time>
      </trkpt>
      <trkpt lat="47.53338" lon="-1.44362">
        <ele>106</ele>
        <time>2012-08-20T07:44:22.000Z</time>
      </trkpt>
      <trkpt lat="47.53343" lon="-1.44372">
        <ele>105</ele>
        <time>2012-08-20T07:44:24.000Z</time>
      </trkpt>
      <trkpt lat="47.53346" lon="-1.44378">
        <ele>105</ele>
        <time>2012-08-20T07:44:25.000Z</time>
      </trkpt>
      <trkpt lat="47.5335" lon="-1.44388">
        <ele>103</ele>
        <time>2012-08-20T07:44:27.000Z</time>
      </trkpt>
      <trkpt lat="47.53354" lon="-1.44398">
        <ele>102</ele>
        <time>2012-08-20T07:44:29.000Z</time>
      </trkpt>
      <trkpt lat="47.53358" lon="-1.44408">
        <ele>105</ele>
        <time>2012-08-20T07:44:31.000Z</time>
      </trkpt>
      <trkpt lat="47.5336" lon="-1.44414">
        <ele>108</ele>
        <time>2012-08-20T07:44:32.000Z</time>
      </trkpt>
      <trkpt lat="47.53362" lon="-1.44421">
        <ele>107</ele>
        <time>2012-08-20T07:44:33.000Z</time>
      </trkpt>
      <trkpt lat="47.53364" lon="-1.44427">
        <ele>104</ele>
        <time>2012-08-20T07:44:34.000Z</time>
      </trkpt>
      <trkpt lat="47.53368" lon="-1.44436">
        <ele>105</ele>
        <time>2012-08-20T07:44:36.000Z</time>
      </trkpt>
      <trkpt lat="47.53372" lon="-1.44445">
        <ele>106</ele>
        <time>2012-08-20T07:44:38.000Z</time>
      </trkpt>
      <trkpt lat="47.53376" lon="-1.44456">
        <ele>107</ele>
        <time>2012-08-20T07:44:40.000Z</time>
      </trkpt>
      <trkpt lat="47.53379" lon="-1.44466">
        <ele>103</ele>
        <time>2012-08-20T07:44:42.000Z</time>
      </trkpt>
      <trkpt lat="47.53381" lon="-1.44474">
        <ele>101</ele>
        <time>2012-08-20T07:44:44.000Z</time>
      </trkpt>
      <trkpt lat="47.53382" lon="-1.44484">
        <ele>103</ele>
        <time>2012-08-20T07:44:46.000Z</time>
      </trkpt>
      <trkpt lat="47.5338" lon="-1.44492">
        <ele>100</ele>
        <time>2012-08-20T07:44:48.000Z</time>
      </trkpt>
      <trkpt lat="47.53376" lon="-1.44497">
        <ele>102</ele>
        <time>2012-08-20T07:44:50.000Z</time>
      </trkpt>
      <trkpt lat="47.53369" lon="-1.44501">
        <ele>100</ele>
        <time>2012-08-20T07:44:52.000Z</time>
      </trkpt>
      <trkpt lat="47.53361" lon="-1.44505">
        <ele>100</ele>
        <time>2012-08-20T07:44:54.000Z</time>
      </trkpt>
      <trkpt lat="47.53351" lon="-1.4451">
        <ele>98</ele>
        <time>2012-08-20T07:44:56.000Z</time>
      </trkpt>
      <trkpt lat="47.53344" lon="-1.44513">
        <ele>100</ele>
        <time>2012-08-20T07:44:57.000Z</time>
      </trkpt>
      <trkpt lat="47.53338" lon="-1.44516">
        <ele>101</ele>
        <time>2012-08-20T07:44:58.000Z</time>
      </trkpt>
      <trkpt lat="47.53331" lon="-1.4452">
        <ele>99</ele>
        <time>2012-08-20T07:44:59.000Z</time>
      </trkpt>
      <trkpt lat="47.53324" lon="-1.44524">
        <ele>96</ele>
        <time>2012-08-20T07:45:00.000Z</time>
      </trkpt>
      <trkpt lat="47.53318" lon="-1.44528">
        <ele>99</ele>
        <time>2012-08-20T07:45:01.000Z</time>
      </trkpt>
      <trkpt lat="47.53313" lon="-1.44532">
        <ele>99</ele>
        <time>2012-08-20T07:45:02.000Z</time>
      </trkpt>
      <trkpt lat="47.53308" lon="-1.44535">
        <ele>100</ele>
        <time>2012-08-20T07:45:03.000Z</time>
      </trkpt>
      <trkpt lat="47.53303" lon="-1.44538">
        <ele>102</ele>
        <time>2012-08-20T07:45:04.000Z</time>
      </trkpt>
      <trkpt lat="47.53297" lon="-1.44542">
        <ele>101</ele>
        <time>2012-08-20T07:45:05.000Z</time>
      </trkpt>
      <trkpt lat="47.53291" lon="-1.44544">
        <ele>101</ele>
        <time>2012-08-20T07:45:06.000Z</time>
      </trkpt>
      <trkpt lat="47.5328" lon="-1.44548">
        <ele>102</ele>
        <time>2012-08-20T07:45:08.000Z</time>
      </trkpt>
      <trkpt lat="47.53273" lon="-1.4455">
        <ele>103</ele>
        <time>2012-08-20T07:45:09.000Z</time>
      </trkpt>
      <trkpt lat="47.53267" lon="-1.44551">
        <ele>101</ele>
        <time>2012-08-20T07:45:10.000Z</time>
      </trkpt>
      <trkpt lat="47.5326" lon="-1.44553">
        <ele>96</ele>
        <time>2012-08-20T07:45:11.000Z</time>
      </trkpt>
      <trkpt lat="47.53253" lon="-1.44555">
        <ele>96</ele>
        <time>2012-08-20T07:45:12.000Z</time>
      </trkpt>
      <trkpt lat="47.53247" lon="-1.44556">
        <ele>98</ele>
        <time>2012-08-20T07:45:13.000Z</time>
      </trkpt>
      <trkpt lat="47.53241" lon="-1.44558">
        <ele>99</ele>
        <time>2012-08-20T07:45:14.000Z</time>
      </trkpt>
      <trkpt lat="47.53234" lon="-1.44559">
        <ele>98</ele>
        <time>2012-08-20T07:45:15.000Z</time>
      </trkpt>
      <trkpt lat="47.53227" lon="-1.44561">
        <ele>101</ele>
        <time>2012-08-20T07:45:16.000Z</time>
      </trkpt>
      <trkpt lat="47.53221" lon="-1.44562">
        <ele>101</ele>
        <time>2012-08-20T07:45:17.000Z</time>
      </trkpt>
      <trkpt lat="47.53215" lon="-1.44563">
        <ele>101</ele>
        <time>2012-08-20T07:45:18.000Z</time>
      </trkpt>
      <trkpt lat="47.53208" lon="-1.44564">
        <ele>102</ele>
        <time>2012-08-20T07:45:19.000Z</time>
      </trkpt>
      <trkpt lat="47.53202" lon="-1.44565">
        <ele>102</ele>
        <time>2012-08-20T07:45:20.000Z</time>
      </trkpt>
      <trkpt lat="47.53196" lon="-1.44566">
        <ele>101</ele>
        <time>2012-08-20T07:45:21.000Z</time>
      </trkpt>
      <trkpt lat="47.53191" lon="-1.44567">
        <ele>101</ele>
        <time>2012-08-20T07:45:22.000Z</time>
      </trkpt>
      <trkpt lat="47.53186" lon="-1.44567">
        <ele>100</ele>
        <time>2012-08-20T07:45:23.000Z</time>
      </trkpt>
      <trkpt lat="47.53181" lon="-1.44566">
        <ele>100</ele>
        <time>2012-08-20T07:45:24.000Z</time>
      </trkpt>
      <trkpt lat="47.53175" lon="-1.44565">
        <ele>101</ele>
        <time>2012-08-20T07:45:25.000Z</time>
      </trkpt>
      <trkpt lat="47.53169" lon="-1.44563">
        <ele>103</ele>
        <time>2012-08-20T07:45:26.000Z</time>
      </trkpt>
      <trkpt lat="47.53164" lon="-1.44559">
        <ele>100</ele>
        <time>2012-08-20T07:45:27.000Z</time>
      </trkpt>
      <trkpt lat="47.53159" lon="-1.44556">
        <ele>100</ele>
        <time>2012-08-20T07:45:28.000Z</time>
      </trkpt>
      <trkpt lat="47.53154" lon="-1.44552">
        <ele>99</ele>
        <time>2012-08-20T07:45:29.000Z</time>
      </trkpt>
      <trkpt lat="47.53149" lon="-1.4455">
        <ele>97</ele>
        <time>2012-08-20T07:45:30.000Z</time>
      </trkpt>
      <trkpt lat="47.53144" lon="-1.44549">
        <ele>95</ele>
        <time>2012-08-20T07:45:31.000Z</time>
      </trkpt>
      <trkpt lat="47.53139" lon="-1.4455">
        <ele>95</ele>
        <time>2012-08-20T07:45:32.000Z</time>
      </trkpt>
      <trkpt lat="47.53134" lon="-1.4455">
        <ele>95</ele>
        <time>2012-08-20T07:45:33.000Z</time>
      </trkpt>
      <trkpt lat="47.53128" lon="-1.44551">
        <ele>95</ele>
        <time>2012-08-20T07:45:34.000Z</time>
      </trkpt>
      <trkpt lat="47.53122" lon="-1.44553">
        <ele>95</ele>
        <time>2012-08-20T07:45:35.000Z</time>
      </trkpt>
      <trkpt lat="47.53116" lon="-1.44555">
        <ele>96</ele>
        <time>2012-08-20T07:45:36.000Z</time>
      </trkpt>
      <trkpt lat="47.5311" lon="-1.44558">
        <ele>97</ele>
        <time>2012-08-20T07:45:37.000Z</time>
      </trkpt>
      <trkpt lat="47.53105" lon="-1.44562">
        <ele>95</ele>
        <time>2012-08-20T07:45:38.000Z</time>
      </trkpt>
      <trkpt lat="47.531" lon="-1.44565">
        <ele>96</ele>
        <time>2012-08-20T07:45:39.000Z</time>
      </trkpt>
      <trkpt lat="47.53095" lon="-1.44569">
        <ele>98</ele>
        <time>2012-08-20T07:45:40.000Z</time>
      </trkpt>
      <trkpt lat="47.5309" lon="-1.44573">
        <ele>97</ele>
        <time>2012-08-20T07:45:41.000Z</time>
      </trkpt>
      <trkpt lat="47.53086" lon="-1.44576">
        <ele>100</ele>
        <time>2012-08-20T07:45:42.000Z</time>
      </trkpt>
      <trkpt lat="47.53078" lon="-1.44583">
        <ele>100</ele>
        <time>2012-08-20T07:45:44.000Z</time>
      </trkpt>
      <trkpt lat="47.53074" lon="-1.44588">
        <ele>99</ele>
        <time>2012-08-20T07:45:45.000Z</time>
      </trkpt>
      <trkpt lat="47.53069" lon="-1.44592">
        <ele>99</ele>
        <time>2012-08-20T07:45:46.000Z</time>
      </trkpt>
      <trkpt lat="47.53064" lon="-1.44597">
        <ele>99</ele>
        <time>2012-08-20T07:45:47.000Z</time>
      </trkpt>
      <trkpt lat="47.5306" lon="-1.44602">
        <ele>99</ele>
        <time>2012-08-20T07:45:48.000Z</time>
      </trkpt>
      <trkpt lat="47.53056" lon="-1.44606">
        <ele>99</ele>
        <time>2012-08-20T07:45:49.000Z</time>
      </trkpt>
      <trkpt lat="47.53052" lon="-1.4461">
        <ele>101</ele>
        <time>2012-08-20T07:45:50.000Z</time>
      </trkpt>
      <trkpt lat="47.53048" lon="-1.44614">
        <ele>100</ele>
        <time>2012-08-20T07:45:51.000Z</time>
      </trkpt>
      <trkpt lat="47.53043" lon="-1.44616">
        <ele>100</ele>
        <time>2012-08-20T07:45:52.000Z</time>
      </trkpt>
      <trkpt lat="47.53035" lon="-1.44621">
        <ele>100</ele>
        <time>2012-08-20T07:45:54.000Z</time>
      </trkpt>
      <trkpt lat="47.53026" lon="-1.44625">
        <ele>101</ele>
        <time>2012-08-20T07:45:56.000Z</time>
      </trkpt>
      <trkpt lat="47.5302" lon="-1.44628">
        <ele>101</ele>
        <time>2012-08-20T07:45:57.000Z</time>
      </trkpt>
      <trkpt lat="47.53015" lon="-1.4463">
        <ele>101</ele>
        <time>2012-08-20T07:45:58.000Z</time>
      </trkpt>
      <trkpt lat="47.53009" lon="-1.44632">
        <ele>101</ele>
        <time>2012-08-20T07:45:59.000Z</time>
      </trkpt>
      <trkpt lat="47.53003" lon="-1.44635">
        <ele>99</ele>
        <time>2012-08-20T07:46:00.000Z</time>
      </trkpt>
      <trkpt lat="47.52998" lon="-1.44638">
        <ele>98</ele>
        <time>2012-08-20T07:46:01.000Z</time>
      </trkpt>
      <trkpt lat="47.52992" lon="-1.4464">
        <ele>95</ele>
        <time>2012-08-20T07:46:02.000Z</time>
      </trkpt>
      <trkpt lat="47.52987" lon="-1.44644">
        <ele>97</ele>
        <time>2012-08-20T07:46:03.000Z</time>
      </trkpt>
      <trkpt lat="47.52981" lon="-1.44646">
        <ele>96</ele>
        <time>2012-08-20T07:46:04.000Z</time>
      </trkpt>
      <trkpt lat="47.52975" lon="-1.4465">
        <ele>96</ele>
        <time>2012-08-20T07:46:05.000Z</time>
      </trkpt>
      <trkpt lat="47.5297" lon="-1.44653">
        <ele>94</ele>
        <time>2012-08-20T07:46:06.000Z</time>
      </trkpt>
      <trkpt lat="47.52961" lon="-1.4466">
        <ele>98</ele>
        <time>2012-08-20T07:46:08.000Z</time>
      </trkpt>
      <trkpt lat="47.52957" lon="-1.44663">
        <ele>98</ele>
        <time>2012-08-20T07:46:09.000Z</time>
      </trkpt>
      <trkpt lat="47.52952" lon="-1.44667">
        <ele>98</ele>
        <time>2012-08-20T07:46:10.000Z</time>
      </trkpt>
      <trkpt lat="47.52948" lon="-1.44671">
        <ele>97</ele>
        <time>2012-08-20T07:46:11.000Z</time>
      </trkpt>
      <trkpt lat="47.52944" lon="-1.44674">
        <ele>97</ele>
        <time>2012-08-20T07:46:12.000Z</time>
      </trkpt>
      <trkpt lat="47.5294" lon="-1.44678">
        <ele>96</ele>
        <time>2012-08-20T07:46:13.000Z</time>
      </trkpt>
      <trkpt lat="47.52933" lon="-1.44687">
        <ele>96</ele>
        <time>2012-08-20T07:46:15.000Z</time>
      </trkpt>
      <trkpt lat="47.5293" lon="-1.44693">
        <ele>95</ele>
        <time>2012-08-20T07:46:16.000Z</time>
      </trkpt>
      <trkpt lat="47.52929" lon="-1.447">
        <ele>95</ele>
        <time>2012-08-20T07:46:17.000Z</time>
      </trkpt>
      <trkpt lat="47.52928" lon="-1.44712">
        <ele>98</ele>
        <time>2012-08-20T07:46:19.000Z</time>
      </trkpt>
      <trkpt lat="47.52928" lon="-1.4472">
        <ele>97</ele>
        <time>2012-08-20T07:46:20.000Z</time>
      </trkpt>
      <trkpt lat="47.52928" lon="-1.44728">
        <ele>95</ele>
        <time>2012-08-20T07:46:21.000Z</time>
      </trkpt>
      <trkpt lat="47.52928" lon="-1.44736">
        <ele>99</ele>
        <time>2012-08-20T07:46:22.000Z</time>
      </trkpt>
      <trkpt lat="47.52928" lon="-1.44743">
        <ele>97</ele>
        <time>2012-08-20T07:46:23.000Z</time>
      </trkpt>
      <trkpt lat="47.52928" lon="-1.4475">
        <ele>94</ele>
        <time>2012-08-20T07:46:24.000Z</time>
      </trkpt>
      <trkpt lat="47.52927" lon="-1.44758">
        <ele>93</ele>
        <time>2012-08-20T07:46:25.000Z</time>
      </trkpt>
      <trkpt lat="47.52926" lon="-1.44765">
        <ele>94</ele>
        <time>2012-08-20T07:46:26.000Z</time>
      </trkpt>
      <trkpt lat="47.52925" lon="-1.44772">
        <ele>95</ele>
        <time>2012-08-20T07:46:27.000Z</time>
      </trkpt>
      <trkpt lat="47.52921" lon="-1.44782">
        <ele>97</ele>
        <time>2012-08-20T07:46:29.000Z</time>
      </trkpt>
      <trkpt lat="47.52915" lon="-1.44789">
        <ele>92</ele>
        <time>2012-08-20T07:46:31.000Z</time>
      </trkpt>
      <trkpt lat="47.52907" lon="-1.44794">
        <ele>94</ele>
        <time>2012-08-20T07:46:33.000Z</time>
      </trkpt>
      <trkpt lat="47.52902" lon="-1.44796">
        <ele>93</ele>
        <time>2012-08-20T07:46:34.000Z</time>
      </trkpt>
      <trkpt lat="47.52898" lon="-1.44797">
        <ele>95</ele>
        <time>2012-08-20T07:46:35.000Z</time>
      </trkpt>
      <trkpt lat="47.52892" lon="-1.44799">
        <ele>95</ele>
        <time>2012-08-20T07:46:36.000Z</time>
      </trkpt>
      <trkpt lat="47.52887" lon="-1.44801">
        <ele>96</ele>
        <time>2012-08-20T07:46:37.000Z</time>
      </trkpt>
      <trkpt lat="47.52882" lon="-1.44803">
        <ele>96</ele>
        <time>2012-08-20T07:46:38.000Z</time>
      </trkpt>
      <trkpt lat="47.52875" lon="-1.44804">
        <ele>96</ele>
        <time>2012-08-20T07:46:39.000Z</time>
      </trkpt>
      <trkpt lat="47.52868" lon="-1.44806">
        <ele>95</ele>
        <time>2012-08-20T07:46:40.000Z</time>
      </trkpt>
      <trkpt lat="47.5286" lon="-1.44809">
        <ele>93</ele>
        <time>2012-08-20T07:46:41.000Z</time>
      </trkpt>
      <trkpt lat="47.52853" lon="-1.44811">
        <ele>92</ele>
        <time>2012-08-20T07:46:42.000Z</time>
      </trkpt>
      <trkpt lat="47.52845" lon="-1.44813">
        <ele>93</ele>
        <time>2012-08-20T07:46:43.000Z</time>
      </trkpt>
      <trkpt lat="47.52837" lon="-1.44815">
        <ele>92</ele>
        <time>2012-08-20T07:46:44.000Z</time>
      </trkpt>
      <trkpt lat="47.52829" lon="-1.44817">
        <ele>91</ele>
        <time>2012-08-20T07:46:45.000Z</time>
      </trkpt>
      <trkpt lat="47.52821" lon="-1.4482">
        <ele>90</ele>
        <time>2012-08-20T07:46:46.000Z</time>
      </trkpt>
      <trkpt lat="47.52813" lon="-1.44823">
        <ele>89</ele>
        <time>2012-08-20T07:46:47.000Z</time>
      </trkpt>
      <trkpt lat="47.52806" lon="-1.44825">
        <ele>89</ele>
        <time>2012-08-20T07:46:48.000Z</time>
      </trkpt>
      <trkpt lat="47.52799" lon="-1.44827">
        <ele>88</ele>
        <time>2012-08-20T07:46:49.000Z</time>
      </trkpt>
      <trkpt lat="47.52792" lon="-1.44829">
        <ele>88</ele>
        <time>2012-08-20T07:46:50.000Z</time>
      </trkpt>
      <trkpt lat="47.52784" lon="-1.44831">
        <ele>88</ele>
        <time>2012-08-20T07:46:51.000Z</time>
      </trkpt>
      <trkpt lat="47.52778" lon="-1.44833">
        <ele>88</ele>
        <time>2012-08-20T07:46:52.000Z</time>
      </trkpt>
      <trkpt lat="47.5277" lon="-1.44835">
        <ele>88</ele>
        <time>2012-08-20T07:46:53.000Z</time>
      </trkpt>
      <trkpt lat="47.52764" lon="-1.44837">
        <ele>88</ele>
        <time>2012-08-20T07:46:54.000Z</time>
      </trkpt>
      <trkpt lat="47.52756" lon="-1.44839">
        <ele>88</ele>
        <time>2012-08-20T07:46:55.000Z</time>
      </trkpt>
      <trkpt lat="47.5275" lon="-1.44841">
        <ele>89</ele>
        <time>2012-08-20T07:46:56.000Z</time>
      </trkpt>
      <trkpt lat="47.52744" lon="-1.44842">
        <ele>88</ele>
        <time>2012-08-20T07:46:57.000Z</time>
      </trkpt>
      <trkpt lat="47.52737" lon="-1.44845">
        <ele>87</ele>
        <time>2012-08-20T07:46:58.000Z</time>
      </trkpt>
      <trkpt lat="47.5273" lon="-1.44847">
        <ele>86</ele>
        <time>2012-08-20T07:46:59.000Z</time>
      </trkpt>
      <trkpt lat="47.52723" lon="-1.4485">
        <ele>88</ele>
        <time>2012-08-20T07:47:00.000Z</time>
      </trkpt>
      <trkpt lat="47.52716" lon="-1.44853">
        <ele>91</ele>
        <time>2012-08-20T07:47:01.000Z</time>
      </trkpt>
      <trkpt lat="47.5271" lon="-1.44855">
        <ele>89</ele>
        <time>2012-08-20T07:47:02.000Z</time>
      </trkpt>
      <trkpt lat="47.52705" lon="-1.44857">
        <ele>89</ele>
        <time>2012-08-20T07:47:03.000Z</time>
      </trkpt>
      <trkpt lat="47.527" lon="-1.44859">
        <ele>89</ele>
        <time>2012-08-20T07:47:04.000Z</time>
      </trkpt>
      <trkpt lat="47.52694" lon="-1.44861">
        <ele>89</ele>
        <time>2012-08-20T07:47:05.000Z</time>
      </trkpt>
      <trkpt lat="47.52687" lon="-1.44863">
        <ele>88</ele>
        <time>2012-08-20T07:47:06.000Z</time>
      </trkpt>
      <trkpt lat="47.52681" lon="-1.44864">
        <ele>89</ele>
        <time>2012-08-20T07:47:07.000Z</time>
      </trkpt>
      <trkpt lat="47.52676" lon="-1.44866">
        <ele>88</ele>
        <time>2012-08-20T07:47:08.000Z</time>
      </trkpt>
      <trkpt lat="47.5267" lon="-1.44868">
        <ele>88</ele>
        <time>2012-08-20T07:47:09.000Z</time>
      </trkpt>
      <trkpt lat="47.52665" lon="-1.44869">
        <ele>89</ele>
        <time>2012-08-20T07:47:10.000Z</time>
      </trkpt>
      <trkpt lat="47.52659" lon="-1.44871">
        <ele>89</ele>
        <time>2012-08-20T07:47:11.000Z</time>
      </trkpt>
      <trkpt lat="47.52653" lon="-1.44874">
        <ele>88</ele>
        <time>2012-08-20T07:47:12.000Z</time>
      </trkpt>
      <trkpt lat="47.52647" lon="-1.44876">
        <ele>88</ele>
        <time>2012-08-20T07:47:13.000Z</time>
      </trkpt>
      <trkpt lat="47.52642" lon="-1.44878">
        <ele>88</ele>
        <time>2012-08-20T07:47:14.000Z</time>
      </trkpt>
      <trkpt lat="47.52635" lon="-1.4488">
        <ele>87</ele>
        <time>2012-08-20T07:47:15.000Z</time>
      </trkpt>
      <trkpt lat="47.52629" lon="-1.44882">
        <ele>86</ele>
        <time>2012-08-20T07:47:16.000Z</time>
      </trkpt>
      <trkpt lat="47.52622" lon="-1.44885">
        <ele>86</ele>
        <time>2012-08-20T07:47:17.000Z</time>
      </trkpt>
      <trkpt lat="47.52616" lon="-1.44887">
        <ele>85</ele>
        <time>2012-08-20T07:47:18.000Z</time>
      </trkpt>
      <trkpt lat="47.52609" lon="-1.44889">
        <ele>84</ele>
        <time>2012-08-20T07:47:19.000Z</time>
      </trkpt>
      <trkpt lat="47.52603" lon="-1.44891">
        <ele>84</ele>
        <time>2012-08-20T07:47:20.000Z</time>
      </trkpt>
      <trkpt lat="47.52597" lon="-1.44894">
        <ele>82</ele>
        <time>2012-08-20T07:47:21.000Z</time>
      </trkpt>
      <trkpt lat="47.52593" lon="-1.44898">
        <ele>82</ele>
        <time>2012-08-20T07:47:22.000Z</time>
      </trkpt>
      <trkpt lat="47.52589" lon="-1.44903">
        <ele>81</ele>
        <time>2012-08-20T07:47:23.000Z</time>
      </trkpt>
      <trkpt lat="47.52584" lon="-1.44911">
        <ele>83</ele>
        <time>2012-08-20T07:47:25.000Z</time>
      </trkpt>
      <trkpt lat="47.52583" lon="-1.44918">
        <ele>82</ele>
        <time>2012-08-20T07:47:28.000Z</time>
      </trkpt>
      <trkpt lat="47.52585" lon="-1.44925">
        <ele>84</ele>
        <time>2012-08-20T07:47:30.000Z</time>
      </trkpt>
      <trkpt lat="47.5259" lon="-1.44933">
        <ele>83</ele>
        <time>2012-08-20T07:47:32.000Z</time>
      </trkpt>
      <trkpt lat="47.52596" lon="-1.4494">
        <ele>81</ele>
        <time>2012-08-20T07:47:34.000Z</time>
      </trkpt>
      <trkpt lat="47.52602" lon="-1.44947">
        <ele>79</ele>
        <time>2012-08-20T07:47:36.000Z</time>
      </trkpt>
      <trkpt lat="47.52608" lon="-1.44952">
        <ele>78</ele>
        <time>2012-08-20T07:47:38.000Z</time>
      </trkpt>
      <trkpt lat="47.52616" lon="-1.4496">
        <ele>79</ele>
        <time>2012-08-20T07:47:40.000Z</time>
      </trkpt>
      <trkpt lat="47.52621" lon="-1.44965">
        <ele>79</ele>
        <time>2012-08-20T07:47:42.000Z</time>
      </trkpt>
      <trkpt lat="47.52624" lon="-1.4497">
        <ele>77</ele>
        <time>2012-08-20T07:47:43.000Z</time>
      </trkpt>
      <trkpt lat="47.5263" lon="-1.44979">
        <ele>82</ele>
        <time>2012-08-20T07:47:45.000Z</time>
      </trkpt>
      <trkpt lat="47.52638" lon="-1.44988">
        <ele>81</ele>
        <time>2012-08-20T07:47:47.000Z</time>
      </trkpt>
      <trkpt lat="47.52641" lon="-1.44992">
        <ele>81</ele>
        <time>2012-08-20T07:47:48.000Z</time>
      </trkpt>
      <trkpt lat="47.52648" lon="-1.45">
        <ele>83</ele>
        <time>2012-08-20T07:47:50.000Z</time>
      </trkpt>
      <trkpt lat="47.52654" lon="-1.45007">
        <ele>83</ele>
        <time>2012-08-20T07:47:52.000Z</time>
      </trkpt>
      <trkpt lat="47.5266" lon="-1.45015">
        <ele>84</ele>
        <time>2012-08-20T07:47:54.000Z</time>
      </trkpt>
      <trkpt lat="47.52664" lon="-1.4502">
        <ele>86</ele>
        <time>2012-08-20T07:47:55.000Z</time>
      </trkpt>
      <trkpt lat="47.52667" lon="-1.45024">
        <ele>88</ele>
        <time>2012-08-20T07:47:56.000Z</time>
      </trkpt>
      <trkpt lat="47.52671" lon="-1.45029">
        <ele>89</ele>
        <time>2012-08-20T07:47:57.000Z</time>
      </trkpt>
      <trkpt lat="47.52677" lon="-1.45037">
        <ele>87</ele>
        <time>2012-08-20T07:47:59.000Z</time>
      </trkpt>
      <trkpt lat="47.52682" lon="-1.45042">
        <ele>86</ele>
        <time>2012-08-20T07:48:00.000Z</time>
      </trkpt>
      <trkpt lat="47.52685" lon="-1.45047">
        <ele>86</ele>
        <time>2012-08-20T07:48:01.000Z</time>
      </trkpt>
      <trkpt lat="47.52688" lon="-1.45051">
        <ele>84</ele>
        <time>2012-08-20T07:48:02.000Z</time>
      </trkpt>
      <trkpt lat="47.52695" lon="-1.45059">
        <ele>79</ele>
        <time>2012-08-20T07:48:04.000Z</time>
      </trkpt>
      <trkpt lat="47.52702" lon="-1.45068">
        <ele>77</ele>
        <time>2012-08-20T07:48:06.000Z</time>
      </trkpt>
      <trkpt lat="47.52705" lon="-1.45073">
        <ele>78</ele>
        <time>2012-08-20T07:48:07.000Z</time>
      </trkpt>
      <trkpt lat="47.52709" lon="-1.45078">
        <ele>78</ele>
        <time>2012-08-20T07:48:08.000Z</time>
      </trkpt>
      <trkpt lat="47.52712" lon="-1.45083">
        <ele>79</ele>
        <time>2012-08-20T07:48:09.000Z</time>
      </trkpt>
      <trkpt lat="47.52717" lon="-1.45088">
        <ele>82</ele>
        <time>2012-08-20T07:48:10.000Z</time>
      </trkpt>
      <trkpt lat="47.5272" lon="-1.45092">
        <ele>82</ele>
        <time>2012-08-20T07:48:11.000Z</time>
      </trkpt>
      <trkpt lat="47.52727" lon="-1.45101">
        <ele>83</ele>
        <time>2012-08-20T07:48:13.000Z</time>
      </trkpt>
      <trkpt lat="47.52733" lon="-1.45109">
        <ele>83</ele>
        <time>2012-08-20T07:48:15.000Z</time>
      </trkpt>
      <trkpt lat="47.52739" lon="-1.45117">
        <ele>82</ele>
        <time>2012-08-20T07:48:17.000Z</time>
      </trkpt>
      <trkpt lat="47.52746" lon="-1.45125">
        <ele>83</ele>
        <time>2012-08-20T07:48:19.000Z</time>
      </trkpt>
      <trkpt lat="47.52749" lon="-1.4513">
        <ele>82</ele>
        <time>2012-08-20T07:48:20.000Z</time>
      </trkpt>
      <trkpt lat="47.52752" lon="-1.45134">
        <ele>83</ele>
        <time>2012-08-20T07:48:21.000Z</time>
      </trkpt>
      <trkpt lat="47.52756" lon="-1.45139">
        <ele>82</ele>
        <time>2012-08-20T07:48:22.000Z</time>
      </trkpt>
      <trkpt lat="47.52759" lon="-1.45144">
        <ele>84</ele>
        <time>2012-08-20T07:48:23.000Z</time>
      </trkpt>
      <trkpt lat="47.52762" lon="-1.45149">
        <ele>82</ele>
        <time>2012-08-20T07:48:24.000Z</time>
      </trkpt>
      <trkpt lat="47.52766" lon="-1.45154">
        <ele>81</ele>
        <time>2012-08-20T07:48:25.000Z</time>
      </trkpt>
      <trkpt lat="47.5277" lon="-1.45159">
        <ele>80</ele>
        <time>2012-08-20T07:48:26.000Z</time>
      </trkpt>
      <trkpt lat="47.52776" lon="-1.45169">
        <ele>80</ele>
        <time>2012-08-20T07:48:28.000Z</time>
      </trkpt>
      <trkpt lat="47.5278" lon="-1.45174">
        <ele>77</ele>
        <time>2012-08-20T07:48:29.000Z</time>
      </trkpt>
      <trkpt lat="47.52783" lon="-1.4518">
        <ele>79</ele>
        <time>2012-08-20T07:48:30.000Z</time>
      </trkpt>
      <trkpt lat="47.52788" lon="-1.45189">
        <ele>77</ele>
        <time>2012-08-20T07:48:32.000Z</time>
      </trkpt>
      <trkpt lat="47.52793" lon="-1.452">
        <ele>78</ele>
        <time>2012-08-20T07:48:34.000Z</time>
      </trkpt>
      <trkpt lat="47.52796" lon="-1.45206">
        <ele>78</ele>
        <time>2012-08-20T07:48:35.000Z</time>
      </trkpt>
      <trkpt lat="47.52799" lon="-1.45211">
        <ele>81</ele>
        <time>2012-08-20T07:48:36.000Z</time>
      </trkpt>
      <trkpt lat="47.52801" lon="-1.45225">
        <ele>81</ele>
        <time>2012-08-20T07:48:38.000Z</time>
      </trkpt>
      <trkpt lat="47.52801" lon="-1.45232">
        <ele>81</ele>
        <time>2012-08-20T07:48:39.000Z</time>
      </trkpt>
      <trkpt lat="47.528" lon="-1.4524">
        <ele>83</ele>
        <time>2012-08-20T07:48:40.000Z</time>
      </trkpt>
      <trkpt lat="47.52799" lon="-1.45247">
        <ele>83</ele>
        <time>2012-08-20T07:48:41.000Z</time>
      </trkpt>
      <trkpt lat="47.52796" lon="-1.4526">
        <ele>86</ele>
        <time>2012-08-20T07:48:43.000Z</time>
      </trkpt>
      <trkpt lat="47.52794" lon="-1.45267">
        <ele>85</ele>
        <time>2012-08-20T07:48:44.000Z</time>
      </trkpt>
      <trkpt lat="47.52793" lon="-1.45274">
        <ele>88</ele>
        <time>2012-08-20T07:48:45.000Z</time>
      </trkpt>
      <trkpt lat="47.52791" lon="-1.45282">
        <ele>87</ele>
        <time>2012-08-20T07:48:46.000Z</time>
      </trkpt>
      <trkpt lat="47.52789" lon="-1.4529">
        <ele>87</ele>
        <time>2012-08-20T07:48:47.000Z</time>
      </trkpt>
      <trkpt lat="47.52788" lon="-1.45298">
        <ele>89</ele>
        <time>2012-08-20T07:48:48.000Z</time>
      </trkpt>
      <trkpt lat="47.52786" lon="-1.45306">
        <ele>88</ele>
        <time>2012-08-20T07:48:49.000Z</time>
      </trkpt>
      <trkpt lat="47.52784" lon="-1.45313">
        <ele>88</ele>
        <time>2012-08-20T07:48:50.000Z</time>
      </trkpt>
      <trkpt lat="47.52783" lon="-1.45321">
        <ele>87</ele>
        <time>2012-08-20T07:48:51.000Z</time>
      </trkpt>
      <trkpt lat="47.52781" lon="-1.45328">
        <ele>86</ele>
        <time>2012-08-20T07:48:52.000Z</time>
      </trkpt>
      <trkpt lat="47.5278" lon="-1.45334">
        <ele>86</ele>
        <time>2012-08-20T07:48:53.000Z</time>
      </trkpt>
      <trkpt lat="47.52779" lon="-1.45342">
        <ele>84</ele>
        <time>2012-08-20T07:48:54.000Z</time>
      </trkpt>
      <trkpt lat="47.52777" lon="-1.45349">
        <ele>83</ele>
        <time>2012-08-20T07:48:55.000Z</time>
      </trkpt>
      <trkpt lat="47.52776" lon="-1.45356">
        <ele>84</ele>
        <time>2012-08-20T07:48:56.000Z</time>
      </trkpt>
      <trkpt lat="47.52775" lon="-1.45363">
        <ele>83</ele>
        <time>2012-08-20T07:48:57.000Z</time>
      </trkpt>
      <trkpt lat="47.52774" lon="-1.45371">
        <ele>82</ele>
        <time>2012-08-20T07:48:58.000Z</time>
      </trkpt>
      <trkpt lat="47.52772" lon="-1.45378">
        <ele>84</ele>
        <time>2012-08-20T07:48:59.000Z</time>
      </trkpt>
      <trkpt lat="47.5277" lon="-1.4539">
        <ele>84</ele>
        <time>2012-08-20T07:49:01.000Z</time>
      </trkpt>
      <trkpt lat="47.52768" lon="-1.45401">
        <ele>86</ele>
        <time>2012-08-20T07:49:03.000Z</time>
      </trkpt>
      <trkpt lat="47.52766" lon="-1.45408">
        <ele>86</ele>
        <time>2012-08-20T07:49:04.000Z</time>
      </trkpt>
      <trkpt lat="47.52765" lon="-1.45415">
        <ele>85</ele>
        <time>2012-08-20T07:49:05.000Z</time>
      </trkpt>
      <trkpt lat="47.52764" lon="-1.45422">
        <ele>84</ele>
        <time>2012-08-20T07:49:06.000Z</time>
      </trkpt>
      <trkpt lat="47.52762" lon="-1.45429">
        <ele>83</ele>
        <time>2012-08-20T07:49:07.000Z</time>
      </trkpt>
      <trkpt lat="47.52761" lon="-1.45436">
        <ele>85</ele>
        <time>2012-08-20T07:49:08.000Z</time>
      </trkpt>
      <trkpt lat="47.52759" lon="-1.45443">
        <ele>84</ele>
        <time>2012-08-20T07:49:10.000Z</time>
      </trkpt>
      <trkpt lat="47.52757" lon="-1.45449">
        <ele>84</ele>
        <time>2012-08-20T07:49:14.000Z</time>
      </trkpt>
      <trkpt lat="47.52756" lon="-1.45458">
        <ele>87</ele>
        <time>2012-08-20T07:49:16.000Z</time>
      </trkpt>
      <trkpt lat="47.52754" lon="-1.45469">
        <ele>83</ele>
        <time>2012-08-20T07:49:18.000Z</time>
      </trkpt>
      <trkpt lat="47.52753" lon="-1.45476">
        <ele>83</ele>
        <time>2012-08-20T07:49:19.000Z</time>
      </trkpt>
      <trkpt lat="47.52751" lon="-1.45488">
        <ele>85</ele>
        <time>2012-08-20T07:49:21.000Z</time>
      </trkpt>
      <trkpt lat="47.52748" lon="-1.45499">
        <ele>85</ele>
        <time>2012-08-20T07:49:23.000Z</time>
      </trkpt>
      <trkpt lat="47.52746" lon="-1.45509">
        <ele>85</ele>
        <time>2012-08-20T07:49:25.000Z</time>
      </trkpt>
      <trkpt lat="47.52743" lon="-1.45521">
        <ele>81</ele>
        <time>2012-08-20T07:49:27.000Z</time>
      </trkpt>
      <trkpt lat="47.52742" lon="-1.45527">
        <ele>83</ele>
        <time>2012-08-20T07:49:28.000Z</time>
      </trkpt>
      <trkpt lat="47.5274" lon="-1.45539">
        <ele>83</ele>
        <time>2012-08-20T07:49:30.000Z</time>
      </trkpt>
      <trkpt lat="47.52737" lon="-1.45551">
        <ele>83</ele>
        <time>2012-08-20T07:49:32.000Z</time>
      </trkpt>
      <trkpt lat="47.52735" lon="-1.45564">
        <ele>83</ele>
        <time>2012-08-20T07:49:34.000Z</time>
      </trkpt>
      <trkpt lat="47.52734" lon="-1.4557">
        <ele>83</ele>
        <time>2012-08-20T07:49:35.000Z</time>
      </trkpt>
      <trkpt lat="47.52732" lon="-1.45577">
        <ele>82</ele>
        <time>2012-08-20T07:49:36.000Z</time>
      </trkpt>
      <trkpt lat="47.5273" lon="-1.45589">
        <ele>83</ele>
        <time>2012-08-20T07:49:38.000Z</time>
      </trkpt>
      <trkpt lat="47.52729" lon="-1.45601">
        <ele>84</ele>
        <time>2012-08-20T07:49:40.000Z</time>
      </trkpt>
      <trkpt lat="47.52727" lon="-1.45613">
        <ele>84</ele>
        <time>2012-08-20T07:49:42.000Z</time>
      </trkpt>
      <trkpt lat="47.52725" lon="-1.45623">
        <ele>82</ele>
        <time>2012-08-20T07:49:44.000Z</time>
      </trkpt>
      <trkpt lat="47.52723" lon="-1.45635">
        <ele>81</ele>
        <time>2012-08-20T07:49:46.000Z</time>
      </trkpt>
      <trkpt lat="47.52721" lon="-1.45646">
        <ele>79</ele>
        <time>2012-08-20T07:49:48.000Z</time>
      </trkpt>
      <trkpt lat="47.5272" lon="-1.45653">
        <ele>80</ele>
        <time>2012-08-20T07:49:49.000Z</time>
      </trkpt>
      <trkpt lat="47.52718" lon="-1.45665">
        <ele>82</ele>
        <time>2012-08-20T07:49:51.000Z</time>
      </trkpt>
      <trkpt lat="47.52716" lon="-1.45672">
        <ele>83</ele>
        <time>2012-08-20T07:49:52.000Z</time>
      </trkpt>
      <trkpt lat="47.52715" lon="-1.45678">
        <ele>83</ele>
        <time>2012-08-20T07:49:53.000Z</time>
      </trkpt>
      <trkpt lat="47.52713" lon="-1.45691">
        <ele>81</ele>
        <time>2012-08-20T07:49:55.000Z</time>
      </trkpt>
      <trkpt lat="47.52711" lon="-1.45702">
        <ele>81</ele>
        <time>2012-08-20T07:49:57.000Z</time>
      </trkpt>
      <trkpt lat="47.5271" lon="-1.45713">
        <ele>80</ele>
        <time>2012-08-20T07:49:59.000Z</time>
      </trkpt>
      <trkpt lat="47.5271" lon="-1.45726">
        <ele>83</ele>
        <time>2012-08-20T07:50:01.000Z</time>
      </trkpt>
      <trkpt lat="47.52711" lon="-1.45737">
        <ele>82</ele>
        <time>2012-08-20T07:50:03.000Z</time>
      </trkpt>
      <trkpt lat="47.52714" lon="-1.45747">
        <ele>80</ele>
        <time>2012-08-20T07:50:05.000Z</time>
      </trkpt>
      <trkpt lat="47.52716" lon="-1.45757">
        <ele>83</ele>
        <time>2012-08-20T07:50:07.000Z</time>
      </trkpt>
      <trkpt lat="47.52718" lon="-1.45763">
        <ele>85</ele>
        <time>2012-08-20T07:50:08.000Z</time>
      </trkpt>
      <trkpt lat="47.5272" lon="-1.45769">
        <ele>83</ele>
        <time>2012-08-20T07:50:09.000Z</time>
      </trkpt>
      <trkpt lat="47.52722" lon="-1.45776">
        <ele>85</ele>
        <time>2012-08-20T07:50:10.000Z</time>
      </trkpt>
      <trkpt lat="47.52724" lon="-1.45788">
        <ele>83</ele>
        <time>2012-08-20T07:50:12.000Z</time>
      </trkpt>
      <trkpt lat="47.52727" lon="-1.45798">
        <ele>86</ele>
        <time>2012-08-20T07:50:14.000Z</time>
      </trkpt>
      <trkpt lat="47.52729" lon="-1.45808">
        <ele>88</ele>
        <time>2012-08-20T07:50:16.000Z</time>
      </trkpt>
      <trkpt lat="47.5273" lon="-1.45816">
        <ele>83</ele>
        <time>2012-08-20T07:50:18.000Z</time>
      </trkpt>
      <trkpt lat="47.52733" lon="-1.45826">
        <ele>87</ele>
        <time>2012-08-20T07:50:20.000Z</time>
      </trkpt>
      <trkpt lat="47.52736" lon="-1.45837">
        <ele>89</ele>
        <time>2012-08-20T07:50:22.000Z</time>
      </trkpt>
      <trkpt lat="47.52738" lon="-1.45844">
        <ele>88</ele>
        <time>2012-08-20T07:50:23.000Z</time>
      </trkpt>
      <trkpt lat="47.5274" lon="-1.45854">
        <ele>89</ele>
        <time>2012-08-20T07:50:25.000Z</time>
      </trkpt>
      <trkpt lat="47.52742" lon="-1.45861">
        <ele>89</ele>
        <time>2012-08-20T07:50:26.000Z</time>
      </trkpt>
      <trkpt lat="47.52745" lon="-1.45874">
        <ele>91</ele>
        <time>2012-08-20T07:50:28.000Z</time>
      </trkpt>
      <trkpt lat="47.52746" lon="-1.4588">
        <ele>91</ele>
        <time>2012-08-20T07:50:29.000Z</time>
      </trkpt>
      <trkpt lat="47.52749" lon="-1.45891">
        <ele>88</ele>
        <time>2012-08-20T07:50:31.000Z</time>
      </trkpt>
      <trkpt lat="47.52751" lon="-1.459">
        <ele>90</ele>
        <time>2012-08-20T07:50:33.000Z</time>
      </trkpt>
      <trkpt lat="47.52754" lon="-1.45912">
        <ele>92</ele>
        <time>2012-08-20T07:50:35.000Z</time>
      </trkpt>
      <trkpt lat="47.52756" lon="-1.45918">
        <ele>91</ele>
        <time>2012-08-20T07:50:36.000Z</time>
      </trkpt>
      <trkpt lat="47.52758" lon="-1.4593">
        <ele>87</ele>
        <time>2012-08-20T07:50:38.000Z</time>
      </trkpt>
      <trkpt lat="47.5276" lon="-1.4594">
        <ele>89</ele>
        <time>2012-08-20T07:50:40.000Z</time>
      </trkpt>
      <trkpt lat="47.52765" lon="-1.45959">
        <ele>88</ele>
        <time>2012-08-20T07:50:57.000Z</time>
      </trkpt>
      <trkpt lat="47.52765" lon="-1.45959">
        <ele>88</ele>
        <time>2012-08-20T07:50:57.000Z</time>
      </trkpt>
      <trkpt lat="47.52765" lon="-1.45959">
        <ele>88</ele>
        <time>2012-08-20T07:51:56.000Z</time>
      </trkpt>
      <trkpt lat="47.52768" lon="-1.45965">
        <ele>81</ele>
        <time>2012-08-20T07:51:57.000Z</time>
      </trkpt>
      <trkpt lat="47.5277" lon="-1.45971">
        <ele>83</ele>
        <time>2012-08-20T07:51:59.000Z</time>
      </trkpt>
      <trkpt lat="47.52772" lon="-1.4598">
        <ele>84</ele>
        <time>2012-08-20T07:52:01.000Z</time>
      </trkpt>
      <trkpt lat="47.52774" lon="-1.45988">
        <ele>81</ele>
        <time>2012-08-20T07:52:03.000Z</time>
      </trkpt>
      <trkpt lat="47.52776" lon="-1.45997">
        <ele>80</ele>
        <time>2012-08-20T07:52:05.000Z</time>
      </trkpt>
      <trkpt lat="47.5278" lon="-1.46005">
        <ele>82</ele>
        <time>2012-08-20T07:52:07.000Z</time>
      </trkpt>
      <trkpt lat="47.52784" lon="-1.46015">
        <ele>82</ele>
        <time>2012-08-20T07:52:09.000Z</time>
      </trkpt>
      <trkpt lat="47.52786" lon="-1.46025">
        <ele>84</ele>
        <time>2012-08-20T07:52:11.000Z</time>
      </trkpt>
      <trkpt lat="47.52788" lon="-1.46034">
        <ele>84</ele>
        <time>2012-08-20T07:52:13.000Z</time>
      </trkpt>
      <trkpt lat="47.5279" lon="-1.46042">
        <ele>85</ele>
        <time>2012-08-20T07:52:15.000Z</time>
      </trkpt>
      <trkpt lat="47.52791" lon="-1.46053">
        <ele>83</ele>
        <time>2012-08-20T07:52:17.000Z</time>
      </trkpt>
      <trkpt lat="47.52793" lon="-1.46065">
        <ele>85</ele>
        <time>2012-08-20T07:52:19.000Z</time>
      </trkpt>
      <trkpt lat="47.52794" lon="-1.46077">
        <ele>86</ele>
        <time>2012-08-20T07:52:21.000Z</time>
      </trkpt>
      <trkpt lat="47.52793" lon="-1.46084">
        <ele>89</ele>
        <time>2012-08-20T07:52:22.000Z</time>
      </trkpt>
      <trkpt lat="47.52792" lon="-1.4609">
        <ele>90</ele>
        <time>2012-08-20T07:52:23.000Z</time>
      </trkpt>
      <trkpt lat="47.52789" lon="-1.46103">
        <ele>88</ele>
        <time>2012-08-20T07:52:25.000Z</time>
      </trkpt>
      <trkpt lat="47.52785" lon="-1.46112">
        <ele>86</ele>
        <time>2012-08-20T07:52:27.000Z</time>
      </trkpt>
      <trkpt lat="47.52782" lon="-1.46122">
        <ele>88</ele>
        <time>2012-08-20T07:52:29.000Z</time>
      </trkpt>
      <trkpt lat="47.52776" lon="-1.46132">
        <ele>91</ele>
        <time>2012-08-20T07:52:31.000Z</time>
      </trkpt>
      <trkpt lat="47.52772" lon="-1.46141">
        <ele>93</ele>
        <time>2012-08-20T07:52:33.000Z</time>
      </trkpt>
      <trkpt lat="47.52767" lon="-1.46152">
        <ele>90</ele>
        <time>2012-08-20T07:52:35.000Z</time>
      </trkpt>
      <trkpt lat="47.52764" lon="-1.46159">
        <ele>88</ele>
        <time>2012-08-20T07:52:36.000Z</time>
      </trkpt>
      <trkpt lat="47.52762" lon="-1.46166">
        <ele>89</ele>
        <time>2012-08-20T07:52:37.000Z</time>
      </trkpt>
      <trkpt lat="47.5276" lon="-1.46172">
        <ele>89</ele>
        <time>2012-08-20T07:52:38.000Z</time>
      </trkpt>
      <trkpt lat="47.52755" lon="-1.46183">
        <ele>89</ele>
        <time>2012-08-20T07:52:40.000Z</time>
      </trkpt>
      <trkpt lat="47.52749" lon="-1.46194">
        <ele>90</ele>
        <time>2012-08-20T07:52:42.000Z</time>
      </trkpt>
      <trkpt lat="47.52746" lon="-1.462">
        <ele>88</ele>
        <time>2012-08-20T07:52:43.000Z</time>
      </trkpt>
      <trkpt lat="47.52744" lon="-1.46206">
        <ele>87</ele>
        <time>2012-08-20T07:52:44.000Z</time>
      </trkpt>
      <trkpt lat="47.52739" lon="-1.46214">
        <ele>83</ele>
        <time>2012-08-20T07:52:46.000Z</time>
      </trkpt>
      <trkpt lat="47.52736" lon="-1.46221">
        <ele>87</ele>
        <time>2012-08-20T07:52:48.000Z</time>
      </trkpt>
      <trkpt lat="47.52733" lon="-1.4623">
        <ele>88</ele>
        <time>2012-08-20T07:52:50.000Z</time>
      </trkpt>
      <trkpt lat="47.52729" lon="-1.4624">
        <ele>89</ele>
        <time>2012-08-20T07:52:52.000Z</time>
      </trkpt>
      <trkpt lat="47.52725" lon="-1.4625">
        <ele>88</ele>
        <time>2012-08-20T07:52:54.000Z</time>
      </trkpt>
      <trkpt lat="47.52721" lon="-1.46261">
        <ele>87</ele>
        <time>2012-08-20T07:52:56.000Z</time>
      </trkpt>
      <trkpt lat="47.52717" lon="-1.4627">
        <ele>89</ele>
        <time>2012-08-20T07:52:58.000Z</time>
      </trkpt>
      <trkpt lat="47.52712" lon="-1.4628">
        <ele>89</ele>
        <time>2012-08-20T07:53:00.000Z</time>
      </trkpt>
      <trkpt lat="47.52707" lon="-1.46292">
        <ele>91</ele>
        <time>2012-08-20T07:53:02.000Z</time>
      </trkpt>
      <trkpt lat="47.52704" lon="-1.46297">
        <ele>86</ele>
        <time>2012-08-20T07:53:03.000Z</time>
      </trkpt>
      <trkpt lat="47.52698" lon="-1.46308">
        <ele>90</ele>
        <time>2012-08-20T07:53:05.000Z</time>
      </trkpt>
      <trkpt lat="47.52696" lon="-1.46314">
        <ele>92</ele>
        <time>2012-08-20T07:53:06.000Z</time>
      </trkpt>
      <trkpt lat="47.52693" lon="-1.46321">
        <ele>92</ele>
        <time>2012-08-20T07:53:07.000Z</time>
      </trkpt>
      <trkpt lat="47.5269" lon="-1.46328">
        <ele>94</ele>
        <time>2012-08-20T07:53:08.000Z</time>
      </trkpt>
      <trkpt lat="47.52688" lon="-1.46334">
        <ele>94</ele>
        <time>2012-08-20T07:53:09.000Z</time>
      </trkpt>
      <trkpt lat="47.52685" lon="-1.4634">
        <ele>92</ele>
        <time>2012-08-20T07:53:10.000Z</time>
      </trkpt>
      <trkpt lat="47.52681" lon="-1.4635">
        <ele>93</ele>
        <time>2012-08-20T07:53:12.000Z</time>
      </trkpt>
      <trkpt lat="47.52677" lon="-1.46357">
        <ele>94</ele>
        <time>2012-08-20T07:53:13.000Z</time>
      </trkpt>
      <trkpt lat="47.52673" lon="-1.46365">
        <ele>93</ele>
        <time>2012-08-20T07:53:15.000Z</time>
      </trkpt>
      <trkpt lat="47.52668" lon="-1.46368">
        <ele>94</ele>
        <time>2012-08-20T07:53:18.000Z</time>
      </trkpt>
      <trkpt lat="47.52662" lon="-1.46364">
        <ele>94</ele>
        <time>2012-08-20T07:53:21.000Z</time>
      </trkpt>
      <trkpt lat="47.52655" lon="-1.46369">
        <ele>89</ele>
        <time>2012-08-20T07:53:23.000Z</time>
      </trkpt>
      <trkpt lat="47.5265" lon="-1.46378">
        <ele>89</ele>
        <time>2012-08-20T07:53:25.000Z</time>
      </trkpt>
      <trkpt lat="47.52648" lon="-1.46388">
        <ele>92</ele>
        <time>2012-08-20T07:53:27.000Z</time>
      </trkpt>
      <trkpt lat="47.52647" lon="-1.46395">
        <ele>90</ele>
        <time>2012-08-20T07:53:28.000Z</time>
      </trkpt>
      <trkpt lat="47.52646" lon="-1.46407">
        <ele>90</ele>
        <time>2012-08-20T07:53:30.000Z</time>
      </trkpt>
      <trkpt lat="47.52646" lon="-1.46414">
        <ele>93</ele>
        <time>2012-08-20T07:53:31.000Z</time>
      </trkpt>
      <trkpt lat="47.52646" lon="-1.46421">
        <ele>90</ele>
        <time>2012-08-20T07:53:32.000Z</time>
      </trkpt>
      <trkpt lat="47.52646" lon="-1.46428">
        <ele>88</ele>
        <time>2012-08-20T07:53:33.000Z</time>
      </trkpt>
      <trkpt lat="47.52646" lon="-1.46439">
        <ele>88</ele>
        <time>2012-08-20T07:53:35.000Z</time>
      </trkpt>
      <trkpt lat="47.52646" lon="-1.46451">
        <ele>88</ele>
        <time>2012-08-20T07:53:37.000Z</time>
      </trkpt>
      <trkpt lat="47.52647" lon="-1.46464">
        <ele>87</ele>
        <time>2012-08-20T07:53:39.000Z</time>
      </trkpt>
      <trkpt lat="47.52647" lon="-1.46471">
        <ele>87</ele>
        <time>2012-08-20T07:53:40.000Z</time>
      </trkpt>
      <trkpt lat="47.52647" lon="-1.46478">
        <ele>86</ele>
        <time>2012-08-20T07:53:41.000Z</time>
      </trkpt>
      <trkpt lat="47.52647" lon="-1.46484">
        <ele>87</ele>
        <time>2012-08-20T07:53:42.000Z</time>
      </trkpt>
      <trkpt lat="47.52647" lon="-1.46497">
        <ele>85</ele>
        <time>2012-08-20T07:53:44.000Z</time>
      </trkpt>
      <trkpt lat="47.52647" lon="-1.46509">
        <ele>89</ele>
        <time>2012-08-20T07:53:46.000Z</time>
      </trkpt>
      <trkpt lat="47.52646" lon="-1.46522">
        <ele>89</ele>
        <time>2012-08-20T07:53:48.000Z</time>
      </trkpt>
      <trkpt lat="47.52646" lon="-1.46532">
        <ele>86</ele>
        <time>2012-08-20T07:53:50.000Z</time>
      </trkpt>
      <trkpt lat="47.52646" lon="-1.46546">
        <ele>89</ele>
        <time>2012-08-20T07:53:52.000Z</time>
      </trkpt>
      <trkpt lat="47.52646" lon="-1.46552">
        <ele>87</ele>
        <time>2012-08-20T07:53:53.000Z</time>
      </trkpt>
      <trkpt lat="47.52645" lon="-1.46559">
        <ele>89</ele>
        <time>2012-08-20T07:53:54.000Z</time>
      </trkpt>
      <trkpt lat="47.52645" lon="-1.46571">
        <ele>90</ele>
        <time>2012-08-20T07:53:56.000Z</time>
      </trkpt>
      <trkpt lat="47.52646" lon="-1.46583">
        <ele>89</ele>
        <time>2012-08-20T07:53:58.000Z</time>
      </trkpt>
      <trkpt lat="47.52647" lon="-1.46596">
        <ele>89</ele>
        <time>2012-08-20T07:54:00.000Z</time>
      </trkpt>
      <trkpt lat="47.52648" lon="-1.46608">
        <ele>88</ele>
        <time>2012-08-20T07:54:02.000Z</time>
      </trkpt>
      <trkpt lat="47.52648" lon="-1.46615">
        <ele>88</ele>
        <time>2012-08-20T07:54:03.000Z</time>
      </trkpt>
      <trkpt lat="47.52648" lon="-1.46626">
        <ele>91</ele>
        <time>2012-08-20T07:54:05.000Z</time>
      </trkpt>
      <trkpt lat="47.52649" lon="-1.46637">
        <ele>89</ele>
        <time>2012-08-20T07:54:07.000Z</time>
      </trkpt>
      <trkpt lat="47.52649" lon="-1.4665">
        <ele>89</ele>
        <time>2012-08-20T07:54:09.000Z</time>
      </trkpt>
      <trkpt lat="47.52649" lon="-1.46657">
        <ele>91</ele>
        <time>2012-08-20T07:54:10.000Z</time>
      </trkpt>
      <trkpt lat="47.52648" lon="-1.46664">
        <ele>93</ele>
        <time>2012-08-20T07:54:11.000Z</time>
      </trkpt>
      <trkpt lat="47.52649" lon="-1.46676">
        <ele>94</ele>
        <time>2012-08-20T07:54:13.000Z</time>
      </trkpt>
      <trkpt lat="47.52649" lon="-1.46683">
        <ele>96</ele>
        <time>2012-08-20T07:54:14.000Z</time>
      </trkpt>
      <trkpt lat="47.52649" lon="-1.46694">
        <ele>94</ele>
        <time>2012-08-20T07:54:16.000Z</time>
      </trkpt>
      <trkpt lat="47.52649" lon="-1.46701">
        <ele>93</ele>
        <time>2012-08-20T07:54:17.000Z</time>
      </trkpt>
      <trkpt lat="47.52649" lon="-1.46709">
        <ele>90</ele>
        <time>2012-08-20T07:54:18.000Z</time>
      </trkpt>
      <trkpt lat="47.52649" lon="-1.46716">
        <ele>91</ele>
        <time>2012-08-20T07:54:19.000Z</time>
      </trkpt>
      <trkpt lat="47.52649" lon="-1.46728">
        <ele>91</ele>
        <time>2012-08-20T07:54:21.000Z</time>
      </trkpt>
      <trkpt lat="47.5265" lon="-1.46739">
        <ele>93</ele>
        <time>2012-08-20T07:54:23.000Z</time>
      </trkpt>
      <trkpt lat="47.5265" lon="-1.4675">
        <ele>91</ele>
        <time>2012-08-20T07:54:25.000Z</time>
      </trkpt>
      <trkpt lat="47.52651" lon="-1.4676">
        <ele>92</ele>
        <time>2012-08-20T07:54:27.000Z</time>
      </trkpt>
      <trkpt lat="47.52651" lon="-1.46773">
        <ele>93</ele>
        <time>2012-08-20T07:54:29.000Z</time>
      </trkpt>
      <trkpt lat="47.52651" lon="-1.46785">
        <ele>94</ele>
        <time>2012-08-20T07:54:31.000Z</time>
      </trkpt>
      <trkpt lat="47.5265" lon="-1.46796">
        <ele>94</ele>
        <time>2012-08-20T07:54:33.000Z</time>
      </trkpt>
      <trkpt lat="47.5265" lon="-1.46808">
        <ele>99</ele>
        <time>2012-08-20T07:54:35.000Z</time>
      </trkpt>
      <trkpt lat="47.52649" lon="-1.46815">
        <ele>98</ele>
        <time>2012-08-20T07:54:36.000Z</time>
      </trkpt>
      <trkpt lat="47.52649" lon="-1.46822">
        <ele>97</ele>
        <time>2012-08-20T07:54:37.000Z</time>
      </trkpt>
      <trkpt lat="47.52648" lon="-1.46834">
        <ele>98</ele>
        <time>2012-08-20T07:54:39.000Z</time>
      </trkpt>
      <trkpt lat="47.52648" lon="-1.46846">
        <ele>95</ele>
        <time>2012-08-20T07:54:41.000Z</time>
      </trkpt>
      <trkpt lat="47.52647" lon="-1.46852">
        <ele>96</ele>
        <time>2012-08-20T07:54:42.000Z</time>
      </trkpt>
      <trkpt lat="47.52647" lon="-1.46864">
        <ele>94</ele>
        <time>2012-08-20T07:54:44.000Z</time>
      </trkpt>
      <trkpt lat="47.52647" lon="-1.46875">
        <ele>95</ele>
        <time>2012-08-20T07:54:46.000Z</time>
      </trkpt>
      <trkpt lat="47.52646" lon="-1.46887">
        <ele>94</ele>
        <time>2012-08-20T07:54:48.000Z</time>
      </trkpt>
      <trkpt lat="47.52646" lon="-1.46899">
        <ele>95</ele>
        <time>2012-08-20T07:54:50.000Z</time>
      </trkpt>
      <trkpt lat="47.52646" lon="-1.46911">
        <ele>93</ele>
        <time>2012-08-20T07:54:52.000Z</time>
      </trkpt>
      <trkpt lat="47.52646" lon="-1.46918">
        <ele>95</ele>
        <time>2012-08-20T07:54:53.000Z</time>
      </trkpt>
      <trkpt lat="47.52646" lon="-1.46924">
        <ele>94</ele>
        <time>2012-08-20T07:54:54.000Z</time>
      </trkpt>
      <trkpt lat="47.52646" lon="-1.46931">
        <ele>92</ele>
        <time>2012-08-20T07:54:55.000Z</time>
      </trkpt>
      <trkpt lat="47.52646" lon="-1.46938">
        <ele>94</ele>
        <time>2012-08-20T07:54:56.000Z</time>
      </trkpt>
      <trkpt lat="47.52645" lon="-1.4695">
        <ele>95</ele>
        <time>2012-08-20T07:54:58.000Z</time>
      </trkpt>
      <trkpt lat="47.52645" lon="-1.46962">
        <ele>94</ele>
        <time>2012-08-20T07:55:00.000Z</time>
      </trkpt>
      <trkpt lat="47.52644" lon="-1.46972">
        <ele>95</ele>
        <time>2012-08-20T07:55:02.000Z</time>
      </trkpt>
      <trkpt lat="47.52643" lon="-1.46981">
        <ele>96</ele>
        <time>2012-08-20T07:55:04.000Z</time>
      </trkpt>
      <trkpt lat="47.52642" lon="-1.46989">
        <ele>99</ele>
        <time>2012-08-20T07:55:07.000Z</time>
      </trkpt>
      <trkpt lat="47.5264" lon="-1.46996">
        <ele>95</ele>
        <time>2012-08-20T07:55:13.000Z</time>
      </trkpt>
      <trkpt lat="47.52644" lon="-1.46992">
        <ele>101</ele>
        <time>2012-08-20T07:55:33.000Z</time>
      </trkpt>
      <trkpt lat="47.52649" lon="-1.46991">
        <ele>92</ele>
        <time>2012-08-20T07:55:36.000Z</time>
      </trkpt>
      <trkpt lat="47.52652" lon="-1.46996">
        <ele>93</ele>
        <time>2012-08-20T07:55:39.000Z</time>
      </trkpt>
      <trkpt lat="47.52652" lon="-1.47003">
        <ele>94</ele>
        <time>2012-08-20T07:55:41.000Z</time>
      </trkpt>
      <trkpt lat="47.52652" lon="-1.47014">
        <ele>96</ele>
        <time>2012-08-20T07:55:43.000Z</time>
      </trkpt>
      <trkpt lat="47.52652" lon="-1.47026">
        <ele>98</ele>
        <time>2012-08-20T07:55:45.000Z</time>
      </trkpt>
      <trkpt lat="47.52653" lon="-1.47037">
        <ele>96</ele>
        <time>2012-08-20T07:55:47.000Z</time>
      </trkpt>
      <trkpt lat="47.52654" lon="-1.47049">
        <ele>100</ele>
        <time>2012-08-20T07:55:49.000Z</time>
      </trkpt>
      <trkpt lat="47.52654" lon="-1.47056">
        <ele>99</ele>
        <time>2012-08-20T07:55:50.000Z</time>
      </trkpt>
      <trkpt lat="47.52653" lon="-1.47068">
        <ele>101</ele>
        <time>2012-08-20T07:55:52.000Z</time>
      </trkpt>
      <trkpt lat="47.52653" lon="-1.47079">
        <ele>100</ele>
        <time>2012-08-20T07:55:54.000Z</time>
      </trkpt>
      <trkpt lat="47.52653" lon="-1.4709">
        <ele>108</ele>
        <time>2012-08-20T07:55:56.000Z</time>
      </trkpt>
      <trkpt lat="47.52654" lon="-1.471">
        <ele>110</ele>
        <time>2012-08-20T07:55:58.000Z</time>
      </trkpt>
      <trkpt lat="47.52652" lon="-1.47112">
        <ele>101</ele>
        <time>2012-08-20T07:56:00.000Z</time>
      </trkpt>
      <trkpt lat="47.52651" lon="-1.4712">
        <ele>102</ele>
        <time>2012-08-20T07:56:01.000Z</time>
      </trkpt>
      <trkpt lat="47.52651" lon="-1.47127">
        <ele>99</ele>
        <time>2012-08-20T07:56:02.000Z</time>
      </trkpt>
      <trkpt lat="47.52648" lon="-1.47138">
        <ele>107</ele>
        <time>2012-08-20T07:56:04.000Z</time>
      </trkpt>
      <trkpt lat="47.52647" lon="-1.47146">
        <ele>106</ele>
        <time>2012-08-20T07:56:05.000Z</time>
      </trkpt>
      <trkpt lat="47.52646" lon="-1.47153">
        <ele>104</ele>
        <time>2012-08-20T07:56:06.000Z</time>
      </trkpt>
      <trkpt lat="47.52646" lon="-1.47161">
        <ele>103</ele>
        <time>2012-08-20T07:56:07.000Z</time>
      </trkpt>
      <trkpt lat="47.52645" lon="-1.47168">
        <ele>104</ele>
        <time>2012-08-20T07:56:08.000Z</time>
      </trkpt>
      <trkpt lat="47.52646" lon="-1.47182">
        <ele>103</ele>
        <time>2012-08-20T07:56:10.000Z</time>
      </trkpt>
      <trkpt lat="47.52646" lon="-1.4719">
        <ele>102</ele>
        <time>2012-08-20T07:56:11.000Z</time>
      </trkpt>
      <trkpt lat="47.52647" lon="-1.47197">
        <ele>104</ele>
        <time>2012-08-20T07:56:12.000Z</time>
      </trkpt>
      <trkpt lat="47.52648" lon="-1.47209">
        <ele>103</ele>
        <time>2012-08-20T07:56:14.000Z</time>
      </trkpt>
      <trkpt lat="47.52649" lon="-1.47216">
        <ele>104</ele>
        <time>2012-08-20T07:56:15.000Z</time>
      </trkpt>
      <trkpt lat="47.52649" lon="-1.47224">
        <ele>102</ele>
        <time>2012-08-20T07:56:16.000Z</time>
      </trkpt>
      <trkpt lat="47.5265" lon="-1.4723">
        <ele>101</ele>
        <time>2012-08-20T07:56:17.000Z</time>
      </trkpt>
      <trkpt lat="47.52651" lon="-1.47243">
        <ele>100</ele>
        <time>2012-08-20T07:56:19.000Z</time>
      </trkpt>
      <trkpt lat="47.52651" lon="-1.47256">
        <ele>107</ele>
        <time>2012-08-20T07:56:21.000Z</time>
      </trkpt>
      <trkpt lat="47.52652" lon="-1.47269">
        <ele>108</ele>
        <time>2012-08-20T07:56:23.000Z</time>
      </trkpt>
      <trkpt lat="47.52651" lon="-1.47282">
        <ele>111</ele>
        <time>2012-08-20T07:56:25.000Z</time>
      </trkpt>
      <trkpt lat="47.5265" lon="-1.47293">
        <ele>110</ele>
        <time>2012-08-20T07:56:27.000Z</time>
      </trkpt>
      <trkpt lat="47.5265" lon="-1.47307">
        <ele>108</ele>
        <time>2012-08-20T07:56:29.000Z</time>
      </trkpt>
      <trkpt lat="47.5265" lon="-1.47314">
        <ele>109</ele>
        <time>2012-08-20T07:56:30.000Z</time>
      </trkpt>
      <trkpt lat="47.5265" lon="-1.47321">
        <ele>111</ele>
        <time>2012-08-20T07:56:31.000Z</time>
      </trkpt>
      <trkpt lat="47.52651" lon="-1.47328">
        <ele>110</ele>
        <time>2012-08-20T07:56:32.000Z</time>
      </trkpt>
      <trkpt lat="47.5265" lon="-1.47335">
        <ele>109</ele>
        <time>2012-08-20T07:56:33.000Z</time>
      </trkpt>
      <trkpt lat="47.52649" lon="-1.47343">
        <ele>108</ele>
        <time>2012-08-20T07:56:34.000Z</time>
      </trkpt>
      <trkpt lat="47.52648" lon="-1.4735">
        <ele>114</ele>
        <time>2012-08-20T07:56:35.000Z</time>
      </trkpt>
      <trkpt lat="47.52648" lon="-1.47358">
        <ele>113</ele>
        <time>2012-08-20T07:56:36.000Z</time>
      </trkpt>
      <trkpt lat="47.52648" lon="-1.47365">
        <ele>114</ele>
        <time>2012-08-20T07:56:37.000Z</time>
      </trkpt>
      <trkpt lat="47.52648" lon="-1.47372">
        <ele>116</ele>
        <time>2012-08-20T07:56:38.000Z</time>
      </trkpt>
      <trkpt lat="47.52648" lon="-1.47383">
        <ele>114</ele>
        <time>2012-08-20T07:56:40.000Z</time>
      </trkpt>
      <trkpt lat="47.52648" lon="-1.47394">
        <ele>114</ele>
        <time>2012-08-20T07:56:42.000Z</time>
      </trkpt>
      <trkpt lat="47.52648" lon="-1.47401">
        <ele>111</ele>
        <time>2012-08-20T07:56:43.000Z</time>
      </trkpt>
      <trkpt lat="47.52648" lon="-1.47409">
        <ele>112</ele>
        <time>2012-08-20T07:56:44.000Z</time>
      </trkpt>
      <trkpt lat="47.52648" lon="-1.47422">
        <ele>108</ele>
        <time>2012-08-20T07:56:46.000Z</time>
      </trkpt>
      <trkpt lat="47.52648" lon="-1.47429">
        <ele>108</ele>
        <time>2012-08-20T07:56:47.000Z</time>
      </trkpt>
      <trkpt lat="47.52648" lon="-1.47436">
        <ele>106</ele>
        <time>2012-08-20T07:56:48.000Z</time>
      </trkpt>
      <trkpt lat="47.52647" lon="-1.47447">
        <ele>107</ele>
        <time>2012-08-20T07:56:50.000Z</time>
      </trkpt>
      <trkpt lat="47.52647" lon="-1.4746">
        <ele>108</ele>
        <time>2012-08-20T07:56:52.000Z</time>
      </trkpt>
      <trkpt lat="47.52647" lon="-1.4747">
        <ele>104</ele>
        <time>2012-08-20T07:56:54.000Z</time>
      </trkpt>
      <trkpt lat="47.52647" lon="-1.47482">
        <ele>108</ele>
        <time>2012-08-20T07:56:56.000Z</time>
      </trkpt>
      <trkpt lat="47.52649" lon="-1.47496">
        <ele>110</ele>
        <time>2012-08-20T07:56:58.000Z</time>
      </trkpt>
      <trkpt lat="47.52649" lon="-1.47503">
        <ele>111</ele>
        <time>2012-08-20T07:56:59.000Z</time>
      </trkpt>
      <trkpt lat="47.52649" lon="-1.47511">
        <ele>116</ele>
        <time>2012-08-20T07:57:00.000Z</time>
      </trkpt>
      <trkpt lat="47.52649" lon="-1.47518">
        <ele>113</ele>
        <time>2012-08-20T07:57:01.000Z</time>
      </trkpt>
      <trkpt lat="47.52648" lon="-1.47527">
        <ele>109</ele>
        <time>2012-08-20T07:57:02.000Z</time>
      </trkpt>
      <trkpt lat="47.52647" lon="-1.47536">
        <ele>108</ele>
        <time>2012-08-20T07:57:03.000Z</time>
      </trkpt>
      <trkpt lat="47.52646" lon="-1.47543">
        <ele>111</ele>
        <time>2012-08-20T07:57:04.000Z</time>
      </trkpt>
      <trkpt lat="47.52646" lon="-1.47551">
        <ele>110</ele>
        <time>2012-08-20T07:57:05.000Z</time>
      </trkpt>
      <trkpt lat="47.52646" lon="-1.47559">
        <ele>108</ele>
        <time>2012-08-20T07:57:06.000Z</time>
      </trkpt>
      <trkpt lat="47.52645" lon="-1.47567">
        <ele>109</ele>
        <time>2012-08-20T07:57:07.000Z</time>
      </trkpt>
      <trkpt lat="47.52644" lon="-1.4758">
        <ele>106</ele>
        <time>2012-08-20T07:57:09.000Z</time>
      </trkpt>
      <trkpt lat="47.52644" lon="-1.47588">
        <ele>104</ele>
        <time>2012-08-20T07:57:10.000Z</time>
      </trkpt>
      <trkpt lat="47.52644" lon="-1.47595">
        <ele>107</ele>
        <time>2012-08-20T07:57:11.000Z</time>
      </trkpt>
      <trkpt lat="47.52644" lon="-1.47603">
        <ele>102</ele>
        <time>2012-08-20T07:57:12.000Z</time>
      </trkpt>
      <trkpt lat="47.52645" lon="-1.47612">
        <ele>101</ele>
        <time>2012-08-20T07:57:13.000Z</time>
      </trkpt>
      <trkpt lat="47.52644" lon="-1.47621">
        <ele>100</ele>
        <time>2012-08-20T07:57:14.000Z</time>
      </trkpt>
      <trkpt lat="47.52644" lon="-1.47628">
        <ele>99</ele>
        <time>2012-08-20T07:57:15.000Z</time>
      </trkpt>
      <trkpt lat="47.52644" lon="-1.4764">
        <ele>101</ele>
        <time>2012-08-20T07:57:17.000Z</time>
      </trkpt>
      <trkpt lat="47.52645" lon="-1.4765">
        <ele>98</ele>
        <time>2012-08-20T07:57:19.000Z</time>
      </trkpt>
      <trkpt lat="47.52644" lon="-1.47659">
        <ele>99</ele>
        <time>2012-08-20T07:57:21.000Z</time>
      </trkpt>
      <trkpt lat="47.52641" lon="-1.47666">
        <ele>100</ele>
        <time>2012-08-20T07:57:23.000Z</time>
      </trkpt>
      <trkpt lat="47.52635" lon="-1.47669">
        <ele>96</ele>
        <time>2012-08-20T07:57:26.000Z</time>
      </trkpt>
      <trkpt lat="47.52629" lon="-1.47668">
        <ele>96</ele>
        <time>2012-08-20T07:57:28.000Z</time>
      </trkpt>
      <trkpt lat="47.52622" lon="-1.47668">
        <ele>96</ele>
        <time>2012-08-20T07:57:30.000Z</time>
      </trkpt>
      <trkpt lat="47.52615" lon="-1.47669">
        <ele>94</ele>
        <time>2012-08-20T07:57:32.000Z</time>
      </trkpt>
      <trkpt lat="47.52608" lon="-1.47669">
        <ele>91</ele>
        <time>2012-08-20T07:57:34.000Z</time>
      </trkpt>
      <trkpt lat="47.52601" lon="-1.4767">
        <ele>90</ele>
        <time>2012-08-20T07:57:36.000Z</time>
      </trkpt>
      <trkpt lat="47.52592" lon="-1.47671">
        <ele>92</ele>
        <time>2012-08-20T07:57:38.000Z</time>
      </trkpt>
      <trkpt lat="47.52584" lon="-1.47672">
        <ele>95</ele>
        <time>2012-08-20T07:57:40.000Z</time>
      </trkpt>
      <trkpt lat="47.52576" lon="-1.47673">
        <ele>90</ele>
        <time>2012-08-20T07:57:42.000Z</time>
      </trkpt>
      <trkpt lat="47.52567" lon="-1.47673">
        <ele>92</ele>
        <time>2012-08-20T07:57:44.000Z</time>
      </trkpt>
      <trkpt lat="47.52559" lon="-1.47674">
        <ele>94</ele>
        <time>2012-08-20T07:57:46.000Z</time>
      </trkpt>
      <trkpt lat="47.52551" lon="-1.47674">
        <ele>93</ele>
        <time>2012-08-20T07:57:48.000Z</time>
      </trkpt>
      <trkpt lat="47.52543" lon="-1.47675">
        <ele>96</ele>
        <time>2012-08-20T07:57:50.000Z</time>
      </trkpt>
      <trkpt lat="47.52538" lon="-1.47675">
        <ele>96</ele>
        <time>2012-08-20T07:57:51.000Z</time>
      </trkpt>
      <trkpt lat="47.5253" lon="-1.47675">
        <ele>91</ele>
        <time>2012-08-20T07:57:53.000Z</time>
      </trkpt>
      <trkpt lat="47.52521" lon="-1.47675">
        <ele>96</ele>
        <time>2012-08-20T07:57:55.000Z</time>
      </trkpt>
      <trkpt lat="47.52516" lon="-1.47675">
        <ele>96</ele>
        <time>2012-08-20T07:57:56.000Z</time>
      </trkpt>
      <trkpt lat="47.52512" lon="-1.47675">
        <ele>95</ele>
        <time>2012-08-20T07:57:57.000Z</time>
      </trkpt>
      <trkpt lat="47.52504" lon="-1.47676">
        <ele>99</ele>
        <time>2012-08-20T07:57:59.000Z</time>
      </trkpt>
      <trkpt lat="47.52496" lon="-1.47677">
        <ele>98</ele>
        <time>2012-08-20T07:58:01.000Z</time>
      </trkpt>
      <trkpt lat="47.52488" lon="-1.47678">
        <ele>94</ele>
        <time>2012-08-20T07:58:03.000Z</time>
      </trkpt>
      <trkpt lat="47.5248" lon="-1.47678">
        <ele>93</ele>
        <time>2012-08-20T07:58:05.000Z</time>
      </trkpt>
      <trkpt lat="47.52476" lon="-1.47679">
        <ele>95</ele>
        <time>2012-08-20T07:58:06.000Z</time>
      </trkpt>
      <trkpt lat="47.52471" lon="-1.47679">
        <ele>96</ele>
        <time>2012-08-20T07:58:07.000Z</time>
      </trkpt>
      <trkpt lat="47.52466" lon="-1.47679">
        <ele>94</ele>
        <time>2012-08-20T07:58:08.000Z</time>
      </trkpt>
      <trkpt lat="47.52462" lon="-1.47679">
        <ele>95</ele>
        <time>2012-08-20T07:58:09.000Z</time>
      </trkpt>
      <trkpt lat="47.52454" lon="-1.47678">
        <ele>93</ele>
        <time>2012-08-20T07:58:11.000Z</time>
      </trkpt>
      <trkpt lat="47.52448" lon="-1.47679">
        <ele>92</ele>
        <time>2012-08-20T07:58:13.000Z</time>
      </trkpt>
      <trkpt lat="47.52442" lon="-1.47686">
        <ele>96</ele>
        <time>2012-08-20T07:58:15.000Z</time>
      </trkpt>
      <trkpt lat="47.5244" lon="-1.47696">
        <ele>92</ele>
        <time>2012-08-20T07:58:17.000Z</time>
      </trkpt>
      <trkpt lat="47.5244" lon="-1.47703">
        <ele>92</ele>
        <time>2012-08-20T07:58:18.000Z</time>
      </trkpt>
      <trkpt lat="47.52439" lon="-1.4771">
        <ele>94</ele>
        <time>2012-08-20T07:58:19.000Z</time>
      </trkpt>
      <trkpt lat="47.52439" lon="-1.47717">
        <ele>91</ele>
        <time>2012-08-20T07:58:20.000Z</time>
      </trkpt>
      <trkpt lat="47.52439" lon="-1.4773">
        <ele>93</ele>
        <time>2012-08-20T07:58:22.000Z</time>
      </trkpt>
      <trkpt lat="47.52439" lon="-1.47742">
        <ele>93</ele>
        <time>2012-08-20T07:58:24.000Z</time>
      </trkpt>
      <trkpt lat="47.5244" lon="-1.47749">
        <ele>95</ele>
        <time>2012-08-20T07:58:25.000Z</time>
      </trkpt>
      <trkpt lat="47.5244" lon="-1.47756">
        <ele>93</ele>
        <time>2012-08-20T07:58:26.000Z</time>
      </trkpt>
      <trkpt lat="47.52441" lon="-1.47763">
        <ele>93</ele>
        <time>2012-08-20T07:58:27.000Z</time>
      </trkpt>
      <trkpt lat="47.52441" lon="-1.4777">
        <ele>91</ele>
        <time>2012-08-20T07:58:28.000Z</time>
      </trkpt>
      <trkpt lat="47.52441" lon="-1.47776">
        <ele>88</ele>
        <time>2012-08-20T07:58:29.000Z</time>
      </trkpt>
      <trkpt lat="47.52441" lon="-1.47789">
        <ele>91</ele>
        <time>2012-08-20T07:58:31.000Z</time>
      </trkpt>
      <trkpt lat="47.52442" lon="-1.47796">
        <ele>91</ele>
        <time>2012-08-20T07:58:32.000Z</time>
      </trkpt>
      <trkpt lat="47.52442" lon="-1.47803">
        <ele>94</ele>
        <time>2012-08-20T07:58:33.000Z</time>
      </trkpt>
      <trkpt lat="47.52442" lon="-1.47816">
        <ele>89</ele>
        <time>2012-08-20T07:58:35.000Z</time>
      </trkpt>
      <trkpt lat="47.52442" lon="-1.47822">
        <ele>92</ele>
        <time>2012-08-20T07:58:36.000Z</time>
      </trkpt>
      <trkpt lat="47.52442" lon="-1.47829">
        <ele>90</ele>
        <time>2012-08-20T07:58:37.000Z</time>
      </trkpt>
      <trkpt lat="47.52443" lon="-1.47836">
        <ele>94</ele>
        <time>2012-08-20T07:58:38.000Z</time>
      </trkpt>
      <trkpt lat="47.52443" lon="-1.47844">
        <ele>94</ele>
        <time>2012-08-20T07:58:39.000Z</time>
      </trkpt>
      <trkpt lat="47.52443" lon="-1.47851">
        <ele>93</ele>
        <time>2012-08-20T07:58:40.000Z</time>
      </trkpt>
      <trkpt lat="47.52443" lon="-1.47857">
        <ele>94</ele>
        <time>2012-08-20T07:58:41.000Z</time>
      </trkpt>
      <trkpt lat="47.52443" lon="-1.47865">
        <ele>93</ele>
        <time>2012-08-20T07:58:42.000Z</time>
      </trkpt>
      <trkpt lat="47.52444" lon="-1.47873">
        <ele>92</ele>
        <time>2012-08-20T07:58:43.000Z</time>
      </trkpt>
      <trkpt lat="47.52444" lon="-1.47881">
        <ele>91</ele>
        <time>2012-08-20T07:58:44.000Z</time>
      </trkpt>
      <trkpt lat="47.52444" lon="-1.47889">
        <ele>93</ele>
        <time>2012-08-20T07:58:45.000Z</time>
      </trkpt>
      <trkpt lat="47.52444" lon="-1.47896">
        <ele>93</ele>
        <time>2012-08-20T07:58:46.000Z</time>
      </trkpt>
      <trkpt lat="47.52444" lon="-1.47904">
        <ele>92</ele>
        <time>2012-08-20T07:58:47.000Z</time>
      </trkpt>
      <trkpt lat="47.52444" lon="-1.47911">
        <ele>89</ele>
        <time>2012-08-20T07:58:48.000Z</time>
      </trkpt>
      <trkpt lat="47.52445" lon="-1.47919">
        <ele>92</ele>
        <time>2012-08-20T07:58:49.000Z</time>
      </trkpt>
      <trkpt lat="47.52445" lon="-1.47926">
        <ele>94</ele>
        <time>2012-08-20T07:58:50.000Z</time>
      </trkpt>
      <trkpt lat="47.5244" lon="-1.47936">
        <ele>94</ele>
        <time>2012-08-20T07:58:52.000Z</time>
      </trkpt>
      <trkpt lat="47.52436" lon="-1.47938">
        <ele>94</ele>
        <time>2012-08-20T07:58:53.000Z</time>
      </trkpt>
      <trkpt lat="47.52428" lon="-1.47938">
        <ele>94</ele>
        <time>2012-08-20T07:58:55.000Z</time>
      </trkpt>
      <trkpt lat="47.52423" lon="-1.47937">
        <ele>94</ele>
        <time>2012-08-20T07:58:56.000Z</time>
      </trkpt>
      <trkpt lat="47.52418" lon="-1.47936">
        <ele>95</ele>
        <time>2012-08-20T07:58:57.000Z</time>
      </trkpt>
      <trkpt lat="47.52413" lon="-1.47935">
        <ele>96</ele>
        <time>2012-08-20T07:58:58.000Z</time>
      </trkpt>
      <trkpt lat="47.52408" lon="-1.47934">
        <ele>97</ele>
        <time>2012-08-20T07:58:59.000Z</time>
      </trkpt>
      <trkpt lat="47.52403" lon="-1.47933">
        <ele>97</ele>
        <time>2012-08-20T07:59:00.000Z</time>
      </trkpt>
      <trkpt lat="47.52398" lon="-1.47933">
        <ele>98</ele>
        <time>2012-08-20T07:59:01.000Z</time>
      </trkpt>
      <trkpt lat="47.52393" lon="-1.47933">
        <ele>100</ele>
        <time>2012-08-20T07:59:02.000Z</time>
      </trkpt>
      <trkpt lat="47.52388" lon="-1.47932">
        <ele>99</ele>
        <time>2012-08-20T07:59:03.000Z</time>
      </trkpt>
      <trkpt lat="47.5238" lon="-1.47931">
        <ele>96</ele>
        <time>2012-08-20T07:59:05.000Z</time>
      </trkpt>
      <trkpt lat="47.52372" lon="-1.4793">
        <ele>99</ele>
        <time>2012-08-20T07:59:07.000Z</time>
      </trkpt>
      <trkpt lat="47.52364" lon="-1.47928">
        <ele>95</ele>
        <time>2012-08-20T07:59:09.000Z</time>
      </trkpt>
      <trkpt lat="47.52354" lon="-1.47926">
        <ele>94</ele>
        <time>2012-08-20T07:59:11.000Z</time>
      </trkpt>
      <trkpt lat="47.5235" lon="-1.47925">
        <ele>94</ele>
        <time>2012-08-20T07:59:12.000Z</time>
      </trkpt>
      <trkpt lat="47.5234" lon="-1.47924">
        <ele>96</ele>
        <time>2012-08-20T07:59:14.000Z</time>
      </trkpt>
      <trkpt lat="47.52332" lon="-1.47922">
        <ele>94</ele>
        <time>2012-08-20T07:59:16.000Z</time>
      </trkpt>
      <trkpt lat="47.52324" lon="-1.47922">
        <ele>95</ele>
        <time>2012-08-20T07:59:18.000Z</time>
      </trkpt>
      <trkpt lat="47.52318" lon="-1.4792">
        <ele>97</ele>
        <time>2012-08-20T07:59:20.000Z</time>
      </trkpt>
      <trkpt lat="47.52309" lon="-1.47919">
        <ele>96</ele>
        <time>2012-08-20T07:59:22.000Z</time>
      </trkpt>
      <trkpt lat="47.52304" lon="-1.47919">
        <ele>97</ele>
        <time>2012-08-20T07:59:23.000Z</time>
      </trkpt>
      <trkpt lat="47.52296" lon="-1.47918">
        <ele>99</ele>
        <time>2012-08-20T07:59:25.000Z</time>
      </trkpt>
      <trkpt lat="47.52288" lon="-1.47917">
        <ele>97</ele>
        <time>2012-08-20T07:59:27.000Z</time>
      </trkpt>
      <trkpt lat="47.52283" lon="-1.47916">
        <ele>97</ele>
        <time>2012-08-20T07:59:28.000Z</time>
      </trkpt>
      <trkpt lat="47.52274" lon="-1.47917">
        <ele>96</ele>
        <time>2012-08-20T07:59:30.000Z</time>
      </trkpt>
      <trkpt lat="47.5227" lon="-1.47917">
        <ele>96</ele>
        <time>2012-08-20T07:59:31.000Z</time>
      </trkpt>
      <trkpt lat="47.52262" lon="-1.47919">
        <ele>97</ele>
        <time>2012-08-20T07:59:33.000Z</time>
      </trkpt>
      <trkpt lat="47.52254" lon="-1.47922">
        <ele>98</ele>
        <time>2012-08-20T07:59:35.000Z</time>
      </trkpt>
      <trkpt lat="47.52247" lon="-1.47924">
        <ele>94</ele>
        <time>2012-08-20T07:59:37.000Z</time>
      </trkpt>
      <trkpt lat="47.5224" lon="-1.47928">
        <ele>93</ele>
        <time>2012-08-20T07:59:39.000Z</time>
      </trkpt>
      <trkpt lat="47.52232" lon="-1.47932">
        <ele>96</ele>
        <time>2012-08-20T07:59:41.000Z</time>
      </trkpt>
      <trkpt lat="47.52226" lon="-1.47936">
        <ele>96</ele>
        <time>2012-08-20T07:59:43.000Z</time>
      </trkpt>
      <trkpt lat="47.52219" lon="-1.47939">
        <ele>97</ele>
        <time>2012-08-20T07:59:45.000Z</time>
      </trkpt>
      <trkpt lat="47.52212" lon="-1.47942">
        <ele>98</ele>
        <time>2012-08-20T07:59:47.000Z</time>
      </trkpt>
      <trkpt lat="47.52205" lon="-1.47946">
        <ele>98</ele>
        <time>2012-08-20T07:59:49.000Z</time>
      </trkpt>
      <trkpt lat="47.52198" lon="-1.47949">
        <ele>97</ele>
        <time>2012-08-20T07:59:51.000Z</time>
      </trkpt>
      <trkpt lat="47.5219" lon="-1.47953">
        <ele>98</ele>
        <time>2012-08-20T07:59:53.000Z</time>
      </trkpt>
      <trkpt lat="47.52182" lon="-1.47957">
        <ele>99</ele>
        <time>2012-08-20T07:59:55.000Z</time>
      </trkpt>
      <trkpt lat="47.52175" lon="-1.47959">
        <ele>97</ele>
        <time>2012-08-20T07:59:57.000Z</time>
      </trkpt>
      <trkpt lat="47.52169" lon="-1.47961">
        <ele>99</ele>
        <time>2012-08-20T07:59:59.000Z</time>
      </trkpt>
      <trkpt lat="47.5216" lon="-1.47964">
        <ele>98</ele>
        <time>2012-08-20T08:00:01.000Z</time>
      </trkpt>
      <trkpt lat="47.52153" lon="-1.47966">
        <ele>101</ele>
        <time>2012-08-20T08:00:03.000Z</time>
      </trkpt>
      <trkpt lat="47.52147" lon="-1.47968">
        <ele>103</ele>
        <time>2012-08-20T08:00:05.000Z</time>
      </trkpt>
      <trkpt lat="47.52139" lon="-1.4797">
        <ele>104</ele>
        <time>2012-08-20T08:00:07.000Z</time>
      </trkpt>
      <trkpt lat="47.52132" lon="-1.47971">
        <ele>104</ele>
        <time>2012-08-20T08:00:09.000Z</time>
      </trkpt>
      <trkpt lat="47.52124" lon="-1.47972">
        <ele>104</ele>
        <time>2012-08-20T08:00:11.000Z</time>
      </trkpt>
      <trkpt lat="47.52117" lon="-1.47973">
        <ele>107</ele>
        <time>2012-08-20T08:00:13.000Z</time>
      </trkpt>
      <trkpt lat="47.5211" lon="-1.47975">
        <ele>103</ele>
        <time>2012-08-20T08:00:15.000Z</time>
      </trkpt>
      <trkpt lat="47.52102" lon="-1.47976">
        <ele>104</ele>
        <time>2012-08-20T08:00:17.000Z</time>
      </trkpt>
      <trkpt lat="47.52095" lon="-1.47977">
        <ele>105</ele>
        <time>2012-08-20T08:00:19.000Z</time>
      </trkpt>
      <trkpt lat="47.52088" lon="-1.47979">
        <ele>104</ele>
        <time>2012-08-20T08:00:21.000Z</time>
      </trkpt>
      <trkpt lat="47.52079" lon="-1.47982">
        <ele>107</ele>
        <time>2012-08-20T08:00:23.000Z</time>
      </trkpt>
      <trkpt lat="47.52071" lon="-1.47983">
        <ele>104</ele>
        <time>2012-08-20T08:00:25.000Z</time>
      </trkpt>
      <trkpt lat="47.52064" lon="-1.47984">
        <ele>106</ele>
        <time>2012-08-20T08:00:27.000Z</time>
      </trkpt>
      <trkpt lat="47.52057" lon="-1.47986">
        <ele>104</ele>
        <time>2012-08-20T08:00:29.000Z</time>
      </trkpt>
      <trkpt lat="47.5205" lon="-1.47987">
        <ele>102</ele>
        <time>2012-08-20T08:00:31.000Z</time>
      </trkpt>
      <trkpt lat="47.52042" lon="-1.47988">
        <ele>99</ele>
        <time>2012-08-20T08:00:33.000Z</time>
      </trkpt>
      <trkpt lat="47.52034" lon="-1.4799">
        <ele>99</ele>
        <time>2012-08-20T08:00:35.000Z</time>
      </trkpt>
      <trkpt lat="47.52028" lon="-1.47993">
        <ele>102</ele>
        <time>2012-08-20T08:00:37.000Z</time>
      </trkpt>
      <trkpt lat="47.52024" lon="-1.48">
        <ele>100</ele>
        <time>2012-08-20T08:00:39.000Z</time>
      </trkpt>
      <trkpt lat="47.5202" lon="-1.48011">
        <ele>103</ele>
        <time>2012-08-20T08:00:41.000Z</time>
      </trkpt>
      <trkpt lat="47.52014" lon="-1.48019">
        <ele>102</ele>
        <time>2012-08-20T08:00:43.000Z</time>
      </trkpt>
      <trkpt lat="47.52007" lon="-1.48023">
        <ele>107</ele>
        <time>2012-08-20T08:00:45.000Z</time>
      </trkpt>
      <trkpt lat="47.52" lon="-1.48025">
        <ele>106</ele>
        <time>2012-08-20T08:00:47.000Z</time>
      </trkpt>
      <trkpt lat="47.51992" lon="-1.48027">
        <ele>103</ele>
        <time>2012-08-20T08:00:49.000Z</time>
      </trkpt>
      <trkpt lat="47.51985" lon="-1.48028">
        <ele>105</ele>
        <time>2012-08-20T08:00:51.000Z</time>
      </trkpt>
      <trkpt lat="47.5198" lon="-1.4803">
        <ele>104</ele>
        <time>2012-08-20T08:00:53.000Z</time>
      </trkpt>
      <trkpt lat="47.51973" lon="-1.48031">
        <ele>108</ele>
        <time>2012-08-20T08:00:55.000Z</time>
      </trkpt>
      <trkpt lat="47.51968" lon="-1.48032">
        <ele>107</ele>
        <time>2012-08-20T08:00:57.000Z</time>
      </trkpt>
      <trkpt lat="47.51962" lon="-1.48034">
        <ele>106</ele>
        <time>2012-08-20T08:00:59.000Z</time>
      </trkpt>
      <trkpt lat="47.51956" lon="-1.48035">
        <ele>108</ele>
        <time>2012-08-20T08:01:01.000Z</time>
      </trkpt>
      <trkpt lat="47.5195" lon="-1.48037">
        <ele>109</ele>
        <time>2012-08-20T08:01:03.000Z</time>
      </trkpt>
      <trkpt lat="47.51945" lon="-1.48039">
        <ele>105</ele>
        <time>2012-08-20T08:01:05.000Z</time>
      </trkpt>
      <trkpt lat="47.5194" lon="-1.48041">
        <ele>104</ele>
        <time>2012-08-20T08:01:07.000Z</time>
      </trkpt>
      <trkpt lat="47.51934" lon="-1.48042">
        <ele>105</ele>
        <time>2012-08-20T08:01:09.000Z</time>
      </trkpt>
      <trkpt lat="47.51928" lon="-1.48044">
        <ele>105</ele>
        <time>2012-08-20T08:01:11.000Z</time>
      </trkpt>
      <trkpt lat="47.51922" lon="-1.48045">
        <ele>106</ele>
        <time>2012-08-20T08:01:13.000Z</time>
      </trkpt>
      <trkpt lat="47.51917" lon="-1.48048">
        <ele>108</ele>
        <time>2012-08-20T08:01:15.000Z</time>
      </trkpt>
      <trkpt lat="47.51911" lon="-1.48051">
        <ele>109</ele>
        <time>2012-08-20T08:01:17.000Z</time>
      </trkpt>
      <trkpt lat="47.51906" lon="-1.48054">
        <ele>108</ele>
        <time>2012-08-20T08:01:19.000Z</time>
      </trkpt>
      <trkpt lat="47.51901" lon="-1.48057">
        <ele>109</ele>
        <time>2012-08-20T08:01:21.000Z</time>
      </trkpt>
      <trkpt lat="47.51895" lon="-1.48059">
        <ele>111</ele>
        <time>2012-08-20T08:01:24.000Z</time>
      </trkpt>
      <trkpt lat="47.5189" lon="-1.48062">
        <ele>113</ele>
        <time>2012-08-20T08:01:26.000Z</time>
      </trkpt>
      <trkpt lat="47.51885" lon="-1.48065">
        <ele>111</ele>
        <time>2012-08-20T08:01:28.000Z</time>
      </trkpt>
      <trkpt lat="47.5188" lon="-1.48068">
        <ele>110</ele>
        <time>2012-08-20T08:01:30.000Z</time>
      </trkpt>
      <trkpt lat="47.51875" lon="-1.4807">
        <ele>112</ele>
        <time>2012-08-20T08:01:32.000Z</time>
      </trkpt>
      <trkpt lat="47.51869" lon="-1.48074">
        <ele>113</ele>
        <time>2012-08-20T08:01:34.000Z</time>
      </trkpt>
      <trkpt lat="47.51864" lon="-1.48078">
        <ele>114</ele>
        <time>2012-08-20T08:01:36.000Z</time>
      </trkpt>
      <trkpt lat="47.51859" lon="-1.48081">
        <ele>112</ele>
        <time>2012-08-20T08:01:38.000Z</time>
      </trkpt>
      <trkpt lat="47.51855" lon="-1.48084">
        <ele>113</ele>
        <time>2012-08-20T08:01:40.000Z</time>
      </trkpt>
      <trkpt lat="47.5185" lon="-1.48087">
        <ele>117</ele>
        <time>2012-08-20T08:01:42.000Z</time>
      </trkpt>
      <trkpt lat="47.51846" lon="-1.48091">
        <ele>115</ele>
        <time>2012-08-20T08:01:44.000Z</time>
      </trkpt>
      <trkpt lat="47.5184" lon="-1.48096">
        <ele>118</ele>
        <time>2012-08-20T08:01:46.000Z</time>
      </trkpt>
      <trkpt lat="47.51834" lon="-1.48101">
        <ele>115</ele>
        <time>2012-08-20T08:01:48.000Z</time>
      </trkpt>
      <trkpt lat="47.51829" lon="-1.48105">
        <ele>116</ele>
        <time>2012-08-20T08:01:50.000Z</time>
      </trkpt>
      <trkpt lat="47.51824" lon="-1.48109">
        <ele>117</ele>
        <time>2012-08-20T08:01:52.000Z</time>
      </trkpt>
      <trkpt lat="47.5182" lon="-1.48112">
        <ele>115</ele>
        <time>2012-08-20T08:01:54.000Z</time>
      </trkpt>
      <trkpt lat="47.51814" lon="-1.48117">
        <ele>116</ele>
        <time>2012-08-20T08:01:56.000Z</time>
      </trkpt>
      <trkpt lat="47.51809" lon="-1.48122">
        <ele>117</ele>
        <time>2012-08-20T08:01:58.000Z</time>
      </trkpt>
      <trkpt lat="47.51805" lon="-1.48127">
        <ele>117</ele>
        <time>2012-08-20T08:02:00.000Z</time>
      </trkpt>
      <trkpt lat="47.518" lon="-1.48131">
        <ele>114</ele>
        <time>2012-08-20T08:02:02.000Z</time>
      </trkpt>
      <trkpt lat="47.51794" lon="-1.48135">
        <ele>111</ele>
        <time>2012-08-20T08:02:05.000Z</time>
      </trkpt>
      <trkpt lat="47.5179" lon="-1.48139">
        <ele>114</ele>
        <time>2012-08-20T08:02:07.000Z</time>
      </trkpt>
      <trkpt lat="47.51784" lon="-1.48143">
        <ele>112</ele>
        <time>2012-08-20T08:02:09.000Z</time>
      </trkpt>
      <trkpt lat="47.51778" lon="-1.48148">
        <ele>112</ele>
        <time>2012-08-20T08:02:11.000Z</time>
      </trkpt>
      <trkpt lat="47.51772" lon="-1.48153">
        <ele>113</ele>
        <time>2012-08-20T08:02:13.000Z</time>
      </trkpt>
      <trkpt lat="47.51766" lon="-1.4816">
        <ele>111</ele>
        <time>2012-08-20T08:02:15.000Z</time>
      </trkpt>
      <trkpt lat="47.51762" lon="-1.48165">
        <ele>111</ele>
        <time>2012-08-20T08:02:17.000Z</time>
      </trkpt>
      <trkpt lat="47.51755" lon="-1.4817">
        <ele>113</ele>
        <time>2012-08-20T08:02:19.000Z</time>
      </trkpt>
      <trkpt lat="47.51748" lon="-1.48174">
        <ele>115</ele>
        <time>2012-08-20T08:02:21.000Z</time>
      </trkpt>
      <trkpt lat="47.5174" lon="-1.48175">
        <ele>115</ele>
        <time>2012-08-20T08:02:23.000Z</time>
      </trkpt>
      <trkpt lat="47.51731" lon="-1.48176">
        <ele>116</ele>
        <time>2012-08-20T08:02:25.000Z</time>
      </trkpt>
      <trkpt lat="47.51726" lon="-1.48176">
        <ele>117</ele>
        <time>2012-08-20T08:02:26.000Z</time>
      </trkpt>
      <trkpt lat="47.51722" lon="-1.48176">
        <ele>118</ele>
        <time>2012-08-20T08:02:27.000Z</time>
      </trkpt>
      <trkpt lat="47.51714" lon="-1.48175">
        <ele>115</ele>
        <time>2012-08-20T08:02:29.000Z</time>
      </trkpt>
      <trkpt lat="47.51705" lon="-1.48175">
        <ele>115</ele>
        <time>2012-08-20T08:02:31.000Z</time>
      </trkpt>
      <trkpt lat="47.51696" lon="-1.48174">
        <ele>111</ele>
        <time>2012-08-20T08:02:33.000Z</time>
      </trkpt>
      <trkpt lat="47.51691" lon="-1.48174">
        <ele>109</ele>
        <time>2012-08-20T08:02:34.000Z</time>
      </trkpt>
      <trkpt lat="47.51682" lon="-1.48173">
        <ele>111</ele>
        <time>2012-08-20T08:02:36.000Z</time>
      </trkpt>
      <trkpt lat="47.51676" lon="-1.48173">
        <ele>113</ele>
        <time>2012-08-20T08:02:37.000Z</time>
      </trkpt>
      <trkpt lat="47.51671" lon="-1.48173">
        <ele>111</ele>
        <time>2012-08-20T08:02:38.000Z</time>
      </trkpt>
      <trkpt lat="47.51666" lon="-1.48172">
        <ele>110</ele>
        <time>2012-08-20T08:02:39.000Z</time>
      </trkpt>
      <trkpt lat="47.51661" lon="-1.48172">
        <ele>109</ele>
        <time>2012-08-20T08:02:40.000Z</time>
      </trkpt>
      <trkpt lat="47.51655" lon="-1.48171">
        <ele>109</ele>
        <time>2012-08-20T08:02:41.000Z</time>
      </trkpt>
      <trkpt lat="47.51649" lon="-1.4817">
        <ele>108</ele>
        <time>2012-08-20T08:02:42.000Z</time>
      </trkpt>
      <trkpt lat="47.51643" lon="-1.48168">
        <ele>106</ele>
        <time>2012-08-20T08:02:43.000Z</time>
      </trkpt>
      <trkpt lat="47.51637" lon="-1.48167">
        <ele>106</ele>
        <time>2012-08-20T08:02:44.000Z</time>
      </trkpt>
      <trkpt lat="47.5163" lon="-1.48166">
        <ele>108</ele>
        <time>2012-08-20T08:02:45.000Z</time>
      </trkpt>
      <trkpt lat="47.51625" lon="-1.48165">
        <ele>108</ele>
        <time>2012-08-20T08:02:46.000Z</time>
      </trkpt>
      <trkpt lat="47.5162" lon="-1.48164">
        <ele>107</ele>
        <time>2012-08-20T08:02:47.000Z</time>
      </trkpt>
      <trkpt lat="47.51614" lon="-1.48164">
        <ele>108</ele>
        <time>2012-08-20T08:02:48.000Z</time>
      </trkpt>
      <trkpt lat="47.51608" lon="-1.48163">
        <ele>109</ele>
        <time>2012-08-20T08:02:49.000Z</time>
      </trkpt>
      <trkpt lat="47.51602" lon="-1.48163">
        <ele>106</ele>
        <time>2012-08-20T08:02:50.000Z</time>
      </trkpt>
      <trkpt lat="47.51596" lon="-1.48162">
        <ele>107</ele>
        <time>2012-08-20T08:02:51.000Z</time>
      </trkpt>
      <trkpt lat="47.51589" lon="-1.48161">
        <ele>107</ele>
        <time>2012-08-20T08:02:52.000Z</time>
      </trkpt>
      <trkpt lat="47.51582" lon="-1.4816">
        <ele>107</ele>
        <time>2012-08-20T08:02:53.000Z</time>
      </trkpt>
      <trkpt lat="47.51576" lon="-1.48159">
        <ele>108</ele>
        <time>2012-08-20T08:02:54.000Z</time>
      </trkpt>
      <trkpt lat="47.5157" lon="-1.48159">
        <ele>111</ele>
        <time>2012-08-20T08:02:55.000Z</time>
      </trkpt>
      <trkpt lat="47.51563" lon="-1.48158">
        <ele>110</ele>
        <time>2012-08-20T08:02:56.000Z</time>
      </trkpt>
      <trkpt lat="47.51557" lon="-1.48157">
        <ele>107</ele>
        <time>2012-08-20T08:02:57.000Z</time>
      </trkpt>
      <trkpt lat="47.5155" lon="-1.48156">
        <ele>106</ele>
        <time>2012-08-20T08:02:58.000Z</time>
      </trkpt>
      <trkpt lat="47.51544" lon="-1.48155">
        <ele>107</ele>
        <time>2012-08-20T08:02:59.000Z</time>
      </trkpt>
      <trkpt lat="47.51538" lon="-1.48154">
        <ele>108</ele>
        <time>2012-08-20T08:03:00.000Z</time>
      </trkpt>
      <trkpt lat="47.51531" lon="-1.48154">
        <ele>109</ele>
        <time>2012-08-20T08:03:01.000Z</time>
      </trkpt>
      <trkpt lat="47.51524" lon="-1.48154">
        <ele>106</ele>
        <time>2012-08-20T08:03:02.000Z</time>
      </trkpt>
      <trkpt lat="47.51517" lon="-1.48155">
        <ele>105</ele>
        <time>2012-08-20T08:03:03.000Z</time>
      </trkpt>
      <trkpt lat="47.5151" lon="-1.48156">
        <ele>104</ele>
        <time>2012-08-20T08:03:04.000Z</time>
      </trkpt>
      <trkpt lat="47.51503" lon="-1.48157">
        <ele>104</ele>
        <time>2012-08-20T08:03:05.000Z</time>
      </trkpt>
      <trkpt lat="47.51496" lon="-1.48159">
        <ele>104</ele>
        <time>2012-08-20T08:03:06.000Z</time>
      </trkpt>
      <trkpt lat="47.51489" lon="-1.48161">
        <ele>102</ele>
        <time>2012-08-20T08:03:07.000Z</time>
      </trkpt>
      <trkpt lat="47.51475" lon="-1.48166">
        <ele>100</ele>
        <time>2012-08-20T08:03:09.000Z</time>
      </trkpt>
      <trkpt lat="47.51468" lon="-1.48167">
        <ele>101</ele>
        <time>2012-08-20T08:03:10.000Z</time>
      </trkpt>
      <trkpt lat="47.51463" lon="-1.48168">
        <ele>98</ele>
        <time>2012-08-20T08:03:11.000Z</time>
      </trkpt>
      <trkpt lat="47.51457" lon="-1.48168">
        <ele>100</ele>
        <time>2012-08-20T08:03:12.000Z</time>
      </trkpt>
      <trkpt lat="47.51452" lon="-1.48168">
        <ele>98</ele>
        <time>2012-08-20T08:03:14.000Z</time>
      </trkpt>
      <trkpt lat="47.51452" lon="-1.48168">
        <ele>98</ele>
        <time>2012-08-20T08:03:14.000Z</time>
      </trkpt>
      <trkpt lat="47.51452" lon="-1.48168">
        <ele>98</ele>
        <time>2012-08-20T08:03:18.000Z</time>
      </trkpt>
      <trkpt lat="47.51451" lon="-1.4816">
        <ele>98</ele>
        <time>2012-08-20T08:03:20.000Z</time>
      </trkpt>
      <trkpt lat="47.51451" lon="-1.4816">
        <ele>98</ele>
        <time>2012-08-20T08:03:20.000Z</time>
      </trkpt>
      <trkpt lat="47.51451" lon="-1.4816">
        <ele>98</ele>
        <time>2012-08-20T08:03:21.000Z</time>
      </trkpt>
      <trkpt lat="47.51456" lon="-1.4816">
        <ele>97</ele>
        <time>2012-08-20T08:03:24.000Z</time>
      </trkpt>
      <trkpt lat="47.51461" lon="-1.48162">
        <ele>96</ele>
        <time>2012-08-20T08:03:27.000Z</time>
      </trkpt>
      <trkpt lat="47.51467" lon="-1.48163">
        <ele>101</ele>
        <time>2012-08-20T08:03:30.000Z</time>
      </trkpt>
      <trkpt lat="47.51472" lon="-1.48164">
        <ele>99</ele>
        <time>2012-08-20T08:03:32.000Z</time>
      </trkpt>
      <trkpt lat="47.51478" lon="-1.48165">
        <ele>98</ele>
        <time>2012-08-20T08:03:34.000Z</time>
      </trkpt>
      <trkpt lat="47.51484" lon="-1.48165">
        <ele>100</ele>
        <time>2012-08-20T08:03:36.000Z</time>
      </trkpt>
      <trkpt lat="47.5149" lon="-1.48164">
        <ele>102</ele>
        <time>2012-08-20T08:03:38.000Z</time>
      </trkpt>
      <trkpt lat="47.51497" lon="-1.48162">
        <ele>100</ele>
        <time>2012-08-20T08:03:40.000Z</time>
      </trkpt>
      <trkpt lat="47.51505" lon="-1.48161">
        <ele>102</ele>
        <time>2012-08-20T08:03:42.000Z</time>
      </trkpt>
      <trkpt lat="47.51511" lon="-1.4816">
        <ele>102</ele>
        <time>2012-08-20T08:03:44.000Z</time>
      </trkpt>
      <trkpt lat="47.51518" lon="-1.48157">
        <ele>105</ele>
        <time>2012-08-20T08:03:46.000Z</time>
      </trkpt>
      <trkpt lat="47.51524" lon="-1.48155">
        <ele>105</ele>
        <time>2012-08-20T08:03:48.000Z</time>
      </trkpt>
      <trkpt lat="47.51531" lon="-1.48154">
        <ele>106</ele>
        <time>2012-08-20T08:03:50.000Z</time>
      </trkpt>
      <trkpt lat="47.51538" lon="-1.48153">
        <ele>105</ele>
        <time>2012-08-20T08:03:52.000Z</time>
      </trkpt>
      <trkpt lat="47.51546" lon="-1.48153">
        <ele>106</ele>
        <time>2012-08-20T08:03:54.000Z</time>
      </trkpt>
      <trkpt lat="47.51554" lon="-1.48154">
        <ele>104</ele>
        <time>2012-08-20T08:03:56.000Z</time>
      </trkpt>
      <trkpt lat="47.51561" lon="-1.48154">
        <ele>108</ele>
        <time>2012-08-20T08:03:58.000Z</time>
      </trkpt>
      <trkpt lat="47.51567" lon="-1.48156">
        <ele>109</ele>
        <time>2012-08-20T08:04:00.000Z</time>
      </trkpt>
      <trkpt lat="47.51574" lon="-1.48157">
        <ele>107</ele>
        <time>2012-08-20T08:04:02.000Z</time>
      </trkpt>
      <trkpt lat="47.51582" lon="-1.48159">
        <ele>106</ele>
        <time>2012-08-20T08:04:04.000Z</time>
      </trkpt>
      <trkpt lat="47.51587" lon="-1.4816">
        <ele>106</ele>
        <time>2012-08-20T08:04:05.000Z</time>
      </trkpt>
      <trkpt lat="47.51591" lon="-1.4816">
        <ele>106</ele>
        <time>2012-08-20T08:04:06.000Z</time>
      </trkpt>
      <trkpt lat="47.51599" lon="-1.48162">
        <ele>106</ele>
        <time>2012-08-20T08:04:08.000Z</time>
      </trkpt>
      <trkpt lat="47.51606" lon="-1.48162">
        <ele>105</ele>
        <time>2012-08-20T08:04:10.000Z</time>
      </trkpt>
      <trkpt lat="47.51614" lon="-1.48163">
        <ele>107</ele>
        <time>2012-08-20T08:04:12.000Z</time>
      </trkpt>
      <trkpt lat="47.51621" lon="-1.48164">
        <ele>108</ele>
        <time>2012-08-20T08:04:14.000Z</time>
      </trkpt>
      <trkpt lat="47.51629" lon="-1.48166">
        <ele>110</ele>
        <time>2012-08-20T08:04:16.000Z</time>
      </trkpt>
      <trkpt lat="47.51636" lon="-1.48167">
        <ele>110</ele>
        <time>2012-08-20T08:04:18.000Z</time>
      </trkpt>
      <trkpt lat="47.51644" lon="-1.48168">
        <ele>108</ele>
        <time>2012-08-20T08:04:20.000Z</time>
      </trkpt>
      <trkpt lat="47.51652" lon="-1.48168">
        <ele>109</ele>
        <time>2012-08-20T08:04:22.000Z</time>
      </trkpt>
      <trkpt lat="47.5166" lon="-1.48169">
        <ele>111</ele>
        <time>2012-08-20T08:04:24.000Z</time>
      </trkpt>
      <trkpt lat="47.51668" lon="-1.4817">
        <ele>112</ele>
        <time>2012-08-20T08:04:26.000Z</time>
      </trkpt>
      <trkpt lat="47.51676" lon="-1.48172">
        <ele>112</ele>
        <time>2012-08-20T08:04:28.000Z</time>
      </trkpt>
      <trkpt lat="47.51684" lon="-1.48172">
        <ele>113</ele>
        <time>2012-08-20T08:04:30.000Z</time>
      </trkpt>
      <trkpt lat="47.51691" lon="-1.48173">
        <ele>115</ele>
        <time>2012-08-20T08:04:32.000Z</time>
      </trkpt>
      <trkpt lat="47.51698" lon="-1.48174">
        <ele>113</ele>
        <time>2012-08-20T08:04:34.000Z</time>
      </trkpt>
      <trkpt lat="47.51705" lon="-1.48174">
        <ele>112</ele>
        <time>2012-08-20T08:04:36.000Z</time>
      </trkpt>
      <trkpt lat="47.51713" lon="-1.48175">
        <ele>113</ele>
        <time>2012-08-20T08:04:38.000Z</time>
      </trkpt>
      <trkpt lat="47.51721" lon="-1.48175">
        <ele>109</ele>
        <time>2012-08-20T08:04:40.000Z</time>
      </trkpt>
      <trkpt lat="47.51728" lon="-1.48175">
        <ele>110</ele>
        <time>2012-08-20T08:04:42.000Z</time>
      </trkpt>
      <trkpt lat="47.51735" lon="-1.48175">
        <ele>111</ele>
        <time>2012-08-20T08:04:44.000Z</time>
      </trkpt>
      <trkpt lat="47.51742" lon="-1.48175">
        <ele>111</ele>
        <time>2012-08-20T08:04:46.000Z</time>
      </trkpt>
      <trkpt lat="47.51749" lon="-1.48174">
        <ele>115</ele>
        <time>2012-08-20T08:04:48.000Z</time>
      </trkpt>
      <trkpt lat="47.51757" lon="-1.48171">
        <ele>115</ele>
        <time>2012-08-20T08:04:50.000Z</time>
      </trkpt>
      <trkpt lat="47.51764" lon="-1.48166">
        <ele>118</ele>
        <time>2012-08-20T08:04:52.000Z</time>
      </trkpt>
      <trkpt lat="47.5177" lon="-1.48159">
        <ele>117</ele>
        <time>2012-08-20T08:04:54.000Z</time>
      </trkpt>
      <trkpt lat="47.51773" lon="-1.48155">
        <ele>115</ele>
        <time>2012-08-20T08:04:55.000Z</time>
      </trkpt>
      <trkpt lat="47.51779" lon="-1.48148">
        <ele>117</ele>
        <time>2012-08-20T08:04:57.000Z</time>
      </trkpt>
      <trkpt lat="47.51786" lon="-1.48142">
        <ele>116</ele>
        <time>2012-08-20T08:04:59.000Z</time>
      </trkpt>
      <trkpt lat="47.51792" lon="-1.48137">
        <ele>115</ele>
        <time>2012-08-20T08:05:01.000Z</time>
      </trkpt>
      <trkpt lat="47.51799" lon="-1.48132">
        <ele>115</ele>
        <time>2012-08-20T08:05:03.000Z</time>
      </trkpt>
      <trkpt lat="47.51805" lon="-1.48128">
        <ele>114</ele>
        <time>2012-08-20T08:05:05.000Z</time>
      </trkpt>
      <trkpt lat="47.51809" lon="-1.48124">
        <ele>113</ele>
        <time>2012-08-20T08:05:07.000Z</time>
      </trkpt>
      <trkpt lat="47.51813" lon="-1.48118">
        <ele>119</ele>
        <time>2012-08-20T08:05:09.000Z</time>
      </trkpt>
      <trkpt lat="47.51818" lon="-1.48113">
        <ele>118</ele>
        <time>2012-08-20T08:05:11.000Z</time>
      </trkpt>
      <trkpt lat="47.51823" lon="-1.4811">
        <ele>117</ele>
        <time>2012-08-20T08:05:13.000Z</time>
      </trkpt>
      <trkpt lat="47.51829" lon="-1.48106">
        <ele>116</ele>
        <time>2012-08-20T08:05:15.000Z</time>
      </trkpt>
      <trkpt lat="47.51836" lon="-1.481">
        <ele>117</ele>
        <time>2012-08-20T08:05:17.000Z</time>
      </trkpt>
      <trkpt lat="47.51842" lon="-1.48095">
        <ele>118</ele>
        <time>2012-08-20T08:05:19.000Z</time>
      </trkpt>
      <trkpt lat="47.51849" lon="-1.48089">
        <ele>119</ele>
        <time>2012-08-20T08:05:21.000Z</time>
      </trkpt>
      <trkpt lat="47.51856" lon="-1.48083">
        <ele>117</ele>
        <time>2012-08-20T08:05:23.000Z</time>
      </trkpt>
      <trkpt lat="47.51864" lon="-1.48078">
        <ele>115</ele>
        <time>2012-08-20T08:05:25.000Z</time>
      </trkpt>
      <trkpt lat="47.51869" lon="-1.48075">
        <ele>114</ele>
        <time>2012-08-20T08:05:26.000Z</time>
      </trkpt>
      <trkpt lat="47.51873" lon="-1.48072">
        <ele>114</ele>
        <time>2012-08-20T08:05:27.000Z</time>
      </trkpt>
      <trkpt lat="47.51877" lon="-1.48069">
        <ele>114</ele>
        <time>2012-08-20T08:05:28.000Z</time>
      </trkpt>
      <trkpt lat="47.51883" lon="-1.48065">
        <ele>115</ele>
        <time>2012-08-20T08:05:29.000Z</time>
      </trkpt>
      <trkpt lat="47.51888" lon="-1.48062">
        <ele>114</ele>
        <time>2012-08-20T08:05:30.000Z</time>
      </trkpt>
      <trkpt lat="47.51893" lon="-1.48059">
        <ele>116</ele>
        <time>2012-08-20T08:05:31.000Z</time>
      </trkpt>
      <trkpt lat="47.51899" lon="-1.48056">
        <ele>114</ele>
        <time>2012-08-20T08:05:32.000Z</time>
      </trkpt>
      <trkpt lat="47.51904" lon="-1.48054">
        <ele>115</ele>
        <time>2012-08-20T08:05:33.000Z</time>
      </trkpt>
      <trkpt lat="47.51908" lon="-1.48051">
        <ele>114</ele>
        <time>2012-08-20T08:05:34.000Z</time>
      </trkpt>
      <trkpt lat="47.51913" lon="-1.48049">
        <ele>115</ele>
        <time>2012-08-20T08:05:35.000Z</time>
      </trkpt>
      <trkpt lat="47.51919" lon="-1.48046">
        <ele>113</ele>
        <time>2012-08-20T08:05:36.000Z</time>
      </trkpt>
      <trkpt lat="47.51925" lon="-1.48044">
        <ele>113</ele>
        <time>2012-08-20T08:05:37.000Z</time>
      </trkpt>
      <trkpt lat="47.5193" lon="-1.48042">
        <ele>113</ele>
        <time>2012-08-20T08:05:38.000Z</time>
      </trkpt>
      <trkpt lat="47.51936" lon="-1.4804">
        <ele>112</ele>
        <time>2012-08-20T08:05:39.000Z</time>
      </trkpt>
      <trkpt lat="47.51943" lon="-1.48038">
        <ele>111</ele>
        <time>2012-08-20T08:05:40.000Z</time>
      </trkpt>
      <trkpt lat="47.51949" lon="-1.48037">
        <ele>112</ele>
        <time>2012-08-20T08:05:41.000Z</time>
      </trkpt>
      <trkpt lat="47.51956" lon="-1.48035">
        <ele>112</ele>
        <time>2012-08-20T08:05:42.000Z</time>
      </trkpt>
      <trkpt lat="47.51962" lon="-1.48033">
        <ele>110</ele>
        <time>2012-08-20T08:05:43.000Z</time>
      </trkpt>
      <trkpt lat="47.51969" lon="-1.48032">
        <ele>110</ele>
        <time>2012-08-20T08:05:44.000Z</time>
      </trkpt>
      <trkpt lat="47.51976" lon="-1.4803">
        <ele>110</ele>
        <time>2012-08-20T08:05:45.000Z</time>
      </trkpt>
      <trkpt lat="47.51983" lon="-1.48027">
        <ele>112</ele>
        <time>2012-08-20T08:05:46.000Z</time>
      </trkpt>
      <trkpt lat="47.51991" lon="-1.48025">
        <ele>110</ele>
        <time>2012-08-20T08:05:47.000Z</time>
      </trkpt>
      <trkpt lat="47.51998" lon="-1.48022">
        <ele>109</ele>
        <time>2012-08-20T08:05:48.000Z</time>
      </trkpt>
      <trkpt lat="47.52005" lon="-1.48019">
        <ele>105</ele>
        <time>2012-08-20T08:05:49.000Z</time>
      </trkpt>
      <trkpt lat="47.52011" lon="-1.48016">
        <ele>103</ele>
        <time>2012-08-20T08:05:50.000Z</time>
      </trkpt>
      <trkpt lat="47.52017" lon="-1.4801">
        <ele>103</ele>
        <time>2012-08-20T08:05:51.000Z</time>
      </trkpt>
      <trkpt lat="47.52021" lon="-1.48003">
        <ele>100</ele>
        <time>2012-08-20T08:05:52.000Z</time>
      </trkpt>
      <trkpt lat="47.52025" lon="-1.47996">
        <ele>102</ele>
        <time>2012-08-20T08:05:53.000Z</time>
      </trkpt>
      <trkpt lat="47.52031" lon="-1.47991">
        <ele>104</ele>
        <time>2012-08-20T08:05:55.000Z</time>
      </trkpt>
      <trkpt lat="47.52037" lon="-1.47989">
        <ele>103</ele>
        <time>2012-08-20T08:05:57.000Z</time>
      </trkpt>
      <trkpt lat="47.52043" lon="-1.47986">
        <ele>102</ele>
        <time>2012-08-20T08:05:59.000Z</time>
      </trkpt>
      <trkpt lat="47.52049" lon="-1.47984">
        <ele>103</ele>
        <time>2012-08-20T08:06:01.000Z</time>
      </trkpt>
      <trkpt lat="47.52054" lon="-1.47982">
        <ele>103</ele>
        <time>2012-08-20T08:06:03.000Z</time>
      </trkpt>
      <trkpt lat="47.52059" lon="-1.47981">
        <ele>104</ele>
        <time>2012-08-20T08:06:05.000Z</time>
      </trkpt>
      <trkpt lat="47.52059" lon="-1.47981">
        <ele>104</ele>
        <time>2012-08-20T08:06:05.000Z</time>
      </trkpt>
      <trkpt lat="47.52059" lon="-1.47981">
        <ele>104</ele>
        <time>2012-08-20T08:06:11.000Z</time>
      </trkpt>
      <trkpt lat="47.52065" lon="-1.4798">
        <ele>101</ele>
        <time>2012-08-20T08:06:15.000Z</time>
      </trkpt>
      <trkpt lat="47.5207" lon="-1.47979">
        <ele>103</ele>
        <time>2012-08-20T08:06:17.000Z</time>
      </trkpt>
      <trkpt lat="47.52076" lon="-1.47978">
        <ele>103</ele>
        <time>2012-08-20T08:06:19.000Z</time>
      </trkpt>
      <trkpt lat="47.52083" lon="-1.47977">
        <ele>101</ele>
        <time>2012-08-20T08:06:21.000Z</time>
      </trkpt>
      <trkpt lat="47.5209" lon="-1.47976">
        <ele>98</ele>
        <time>2012-08-20T08:06:23.000Z</time>
      </trkpt>
      <trkpt lat="47.52095" lon="-1.47976">
        <ele>99</ele>
        <time>2012-08-20T08:06:24.000Z</time>
      </trkpt>
      <trkpt lat="47.52102" lon="-1.47975">
        <ele>100</ele>
        <time>2012-08-20T08:06:26.000Z</time>
      </trkpt>
      <trkpt lat="47.52106" lon="-1.47968">
        <ele>104</ele>
        <time>2012-08-20T08:06:29.000Z</time>
      </trkpt>
      <trkpt lat="47.52106" lon="-1.47958">
        <ele>106</ele>
        <time>2012-08-20T08:06:32.000Z</time>
      </trkpt>
      <trkpt lat="47.52106" lon="-1.4795">
        <ele>104</ele>
        <time>2012-08-20T08:06:34.000Z</time>
      </trkpt>
      <trkpt lat="47.52106" lon="-1.47942">
        <ele>104</ele>
        <time>2012-08-20T08:06:36.000Z</time>
      </trkpt>
      <trkpt lat="47.52106" lon="-1.47932">
        <ele>105</ele>
        <time>2012-08-20T08:06:38.000Z</time>
      </trkpt>
      <trkpt lat="47.52107" lon="-1.4792">
        <ele>101</ele>
        <time>2012-08-20T08:06:40.000Z</time>
      </trkpt>
      <trkpt lat="47.52108" lon="-1.47909">
        <ele>100</ele>
        <time>2012-08-20T08:06:42.000Z</time>
      </trkpt>
      <trkpt lat="47.52109" lon="-1.47897">
        <ele>101</ele>
        <time>2012-08-20T08:06:44.000Z</time>
      </trkpt>
      <trkpt lat="47.5211" lon="-1.47884">
        <ele>105</ele>
        <time>2012-08-20T08:06:46.000Z</time>
      </trkpt>
      <trkpt lat="47.52111" lon="-1.47872">
        <ele>106</ele>
        <time>2012-08-20T08:06:48.000Z</time>
      </trkpt>
      <trkpt lat="47.52112" lon="-1.47858">
        <ele>106</ele>
        <time>2012-08-20T08:06:50.000Z</time>
      </trkpt>
      <trkpt lat="47.52112" lon="-1.47845">
        <ele>106</ele>
        <time>2012-08-20T08:06:52.000Z</time>
      </trkpt>
      <trkpt lat="47.52112" lon="-1.47832">
        <ele>102</ele>
        <time>2012-08-20T08:06:54.000Z</time>
      </trkpt>
      <trkpt lat="47.52113" lon="-1.47824">
        <ele>105</ele>
        <time>2012-08-20T08:06:55.000Z</time>
      </trkpt>
      <trkpt lat="47.52113" lon="-1.47817">
        <ele>104</ele>
        <time>2012-08-20T08:06:56.000Z</time>
      </trkpt>
      <trkpt lat="47.52114" lon="-1.4781">
        <ele>103</ele>
        <time>2012-08-20T08:06:57.000Z</time>
      </trkpt>
      <trkpt lat="47.52114" lon="-1.47803">
        <ele>105</ele>
        <time>2012-08-20T08:06:58.000Z</time>
      </trkpt>
      <trkpt lat="47.52114" lon="-1.47795">
        <ele>101</ele>
        <time>2012-08-20T08:06:59.000Z</time>
      </trkpt>
      <trkpt lat="47.52114" lon="-1.47787">
        <ele>100</ele>
        <time>2012-08-20T08:07:00.000Z</time>
      </trkpt>
      <trkpt lat="47.52115" lon="-1.47779">
        <ele>101</ele>
        <time>2012-08-20T08:07:01.000Z</time>
      </trkpt>
      <trkpt lat="47.52115" lon="-1.47771">
        <ele>101</ele>
        <time>2012-08-20T08:07:02.000Z</time>
      </trkpt>
      <trkpt lat="47.52115" lon="-1.47764">
        <ele>101</ele>
        <time>2012-08-20T08:07:03.000Z</time>
      </trkpt>
      <trkpt lat="47.52115" lon="-1.47756">
        <ele>101</ele>
        <time>2012-08-20T08:07:04.000Z</time>
      </trkpt>
      <trkpt lat="47.52116" lon="-1.47741">
        <ele>102</ele>
        <time>2012-08-20T08:07:06.000Z</time>
      </trkpt>
      <trkpt lat="47.52116" lon="-1.47734">
        <ele>102</ele>
        <time>2012-08-20T08:07:07.000Z</time>
      </trkpt>
      <trkpt lat="47.52116" lon="-1.47721">
        <ele>102</ele>
        <time>2012-08-20T08:07:09.000Z</time>
      </trkpt>
      <trkpt lat="47.52117" lon="-1.47713">
        <ele>102</ele>
        <time>2012-08-20T08:07:10.000Z</time>
      </trkpt>
      <trkpt lat="47.52117" lon="-1.47699">
        <ele>101</ele>
        <time>2012-08-20T08:07:12.000Z</time>
      </trkpt>
      <trkpt lat="47.52118" lon="-1.47686">
        <ele>102</ele>
        <time>2012-08-20T08:07:14.000Z</time>
      </trkpt>
      <trkpt lat="47.52118" lon="-1.47678">
        <ele>102</ele>
        <time>2012-08-20T08:07:15.000Z</time>
      </trkpt>
      <trkpt lat="47.52118" lon="-1.47669">
        <ele>102</ele>
        <time>2012-08-20T08:07:16.000Z</time>
      </trkpt>
      <trkpt lat="47.52118" lon="-1.47661">
        <ele>99</ele>
        <time>2012-08-20T08:07:17.000Z</time>
      </trkpt>
      <trkpt lat="47.52118" lon="-1.47653">
        <ele>98</ele>
        <time>2012-08-20T08:07:18.000Z</time>
      </trkpt>
      <trkpt lat="47.52119" lon="-1.47644">
        <ele>98</ele>
        <time>2012-08-20T08:07:19.000Z</time>
      </trkpt>
      <trkpt lat="47.52119" lon="-1.47636">
        <ele>96</ele>
        <time>2012-08-20T08:07:20.000Z</time>
      </trkpt>
      <trkpt lat="47.52119" lon="-1.47628">
        <ele>99</ele>
        <time>2012-08-20T08:07:21.000Z</time>
      </trkpt>
      <trkpt lat="47.52119" lon="-1.4762">
        <ele>98</ele>
        <time>2012-08-20T08:07:22.000Z</time>
      </trkpt>
      <trkpt lat="47.52119" lon="-1.47612">
        <ele>97</ele>
        <time>2012-08-20T08:07:23.000Z</time>
      </trkpt>
      <trkpt lat="47.5212" lon="-1.47604">
        <ele>99</ele>
        <time>2012-08-20T08:07:24.000Z</time>
      </trkpt>
      <trkpt lat="47.5212" lon="-1.47597">
        <ele>100</ele>
        <time>2012-08-20T08:07:25.000Z</time>
      </trkpt>
      <trkpt lat="47.5212" lon="-1.4759">
        <ele>101</ele>
        <time>2012-08-20T08:07:26.000Z</time>
      </trkpt>
      <trkpt lat="47.52121" lon="-1.47582">
        <ele>102</ele>
        <time>2012-08-20T08:07:27.000Z</time>
      </trkpt>
      <trkpt lat="47.52121" lon="-1.47575">
        <ele>103</ele>
        <time>2012-08-20T08:07:28.000Z</time>
      </trkpt>
      <trkpt lat="47.52121" lon="-1.47568">
        <ele>103</ele>
        <time>2012-08-20T08:07:29.000Z</time>
      </trkpt>
      <trkpt lat="47.52122" lon="-1.4756">
        <ele>103</ele>
        <time>2012-08-20T08:07:30.000Z</time>
      </trkpt>
      <trkpt lat="47.52123" lon="-1.47553">
        <ele>102</ele>
        <time>2012-08-20T08:07:31.000Z</time>
      </trkpt>
      <trkpt lat="47.52123" lon="-1.47545">
        <ele>99</ele>
        <time>2012-08-20T08:07:32.000Z</time>
      </trkpt>
      <trkpt lat="47.52123" lon="-1.47538">
        <ele>99</ele>
        <time>2012-08-20T08:07:33.000Z</time>
      </trkpt>
      <trkpt lat="47.52124" lon="-1.4753">
        <ele>100</ele>
        <time>2012-08-20T08:07:34.000Z</time>
      </trkpt>
      <trkpt lat="47.52124" lon="-1.47523">
        <ele>100</ele>
        <time>2012-08-20T08:07:35.000Z</time>
      </trkpt>
      <trkpt lat="47.52124" lon="-1.47516">
        <ele>101</ele>
        <time>2012-08-20T08:07:36.000Z</time>
      </trkpt>
      <trkpt lat="47.52123" lon="-1.47504">
        <ele>100</ele>
        <time>2012-08-20T08:07:38.000Z</time>
      </trkpt>
      <trkpt lat="47.52117" lon="-1.47495">
        <ele>103</ele>
        <time>2012-08-20T08:07:40.000Z</time>
      </trkpt>
      <trkpt lat="47.5211" lon="-1.4749">
        <ele>102</ele>
        <time>2012-08-20T08:07:42.000Z</time>
      </trkpt>
      <trkpt lat="47.52103" lon="-1.47485">
        <ele>102</ele>
        <time>2012-08-20T08:07:44.000Z</time>
      </trkpt>
      <trkpt lat="47.52096" lon="-1.47481">
        <ele>100</ele>
        <time>2012-08-20T08:07:46.000Z</time>
      </trkpt>
      <trkpt lat="47.52089" lon="-1.47477">
        <ele>98</ele>
        <time>2012-08-20T08:07:48.000Z</time>
      </trkpt>
      <trkpt lat="47.52082" lon="-1.47473">
        <ele>101</ele>
        <time>2012-08-20T08:07:50.000Z</time>
      </trkpt>
      <trkpt lat="47.52076" lon="-1.47469">
        <ele>101</ele>
        <time>2012-08-20T08:07:52.000Z</time>
      </trkpt>
      <trkpt lat="47.52069" lon="-1.47465">
        <ele>103</ele>
        <time>2012-08-20T08:07:54.000Z</time>
      </trkpt>
      <trkpt lat="47.52062" lon="-1.47461">
        <ele>103</ele>
        <time>2012-08-20T08:07:56.000Z</time>
      </trkpt>
      <trkpt lat="47.52054" lon="-1.47457">
        <ele>103</ele>
        <time>2012-08-20T08:07:58.000Z</time>
      </trkpt>
      <trkpt lat="47.52048" lon="-1.47454">
        <ele>103</ele>
        <time>2012-08-20T08:08:00.000Z</time>
      </trkpt>
      <trkpt lat="47.52041" lon="-1.4745">
        <ele>102</ele>
        <time>2012-08-20T08:08:02.000Z</time>
      </trkpt>
      <trkpt lat="47.52034" lon="-1.47445">
        <ele>103</ele>
        <time>2012-08-20T08:08:04.000Z</time>
      </trkpt>
      <trkpt lat="47.52027" lon="-1.47441">
        <ele>103</ele>
        <time>2012-08-20T08:08:06.000Z</time>
      </trkpt>
      <trkpt lat="47.52022" lon="-1.47438">
        <ele>105</ele>
        <time>2012-08-20T08:08:08.000Z</time>
      </trkpt>
      <trkpt lat="47.52017" lon="-1.47435">
        <ele>103</ele>
        <time>2012-08-20T08:08:10.000Z</time>
      </trkpt>
      <trkpt lat="47.52011" lon="-1.47432">
        <ele>105</ele>
        <time>2012-08-20T08:08:12.000Z</time>
      </trkpt>
      <trkpt lat="47.52005" lon="-1.47428">
        <ele>102</ele>
        <time>2012-08-20T08:08:14.000Z</time>
      </trkpt>
      <trkpt lat="47.51998" lon="-1.47423">
        <ele>104</ele>
        <time>2012-08-20T08:08:16.000Z</time>
      </trkpt>
      <trkpt lat="47.51992" lon="-1.47418">
        <ele>103</ele>
        <time>2012-08-20T08:08:18.000Z</time>
      </trkpt>
      <trkpt lat="47.51986" lon="-1.47415">
        <ele>104</ele>
        <time>2012-08-20T08:08:20.000Z</time>
      </trkpt>
      <trkpt lat="47.5198" lon="-1.47411">
        <ele>104</ele>
        <time>2012-08-20T08:08:22.000Z</time>
      </trkpt>
      <trkpt lat="47.51973" lon="-1.47406">
        <ele>105</ele>
        <time>2012-08-20T08:08:24.000Z</time>
      </trkpt>
      <trkpt lat="47.51966" lon="-1.47402">
        <ele>103</ele>
        <time>2012-08-20T08:08:26.000Z</time>
      </trkpt>
      <trkpt lat="47.51959" lon="-1.47398">
        <ele>103</ele>
        <time>2012-08-20T08:08:28.000Z</time>
      </trkpt>
      <trkpt lat="47.51953" lon="-1.47395">
        <ele>107</ele>
        <time>2012-08-20T08:08:30.000Z</time>
      </trkpt>
      <trkpt lat="47.51948" lon="-1.47392">
        <ele>109</ele>
        <time>2012-08-20T08:08:32.000Z</time>
      </trkpt>
      <trkpt lat="47.51942" lon="-1.47388">
        <ele>107</ele>
        <time>2012-08-20T08:08:34.000Z</time>
      </trkpt>
      <trkpt lat="47.51936" lon="-1.47384">
        <ele>106</ele>
        <time>2012-08-20T08:08:36.000Z</time>
      </trkpt>
      <trkpt lat="47.51929" lon="-1.4738">
        <ele>108</ele>
        <time>2012-08-20T08:08:38.000Z</time>
      </trkpt>
      <trkpt lat="47.51922" lon="-1.47376">
        <ele>110</ele>
        <time>2012-08-20T08:08:40.000Z</time>
      </trkpt>
      <trkpt lat="47.51915" lon="-1.47372">
        <ele>110</ele>
        <time>2012-08-20T08:08:42.000Z</time>
      </trkpt>
      <trkpt lat="47.51909" lon="-1.47368">
        <ele>110</ele>
        <time>2012-08-20T08:08:44.000Z</time>
      </trkpt>
      <trkpt lat="47.51903" lon="-1.47364">
        <ele>110</ele>
        <time>2012-08-20T08:08:46.000Z</time>
      </trkpt>
      <trkpt lat="47.51897" lon="-1.4736">
        <ele>109</ele>
        <time>2012-08-20T08:08:48.000Z</time>
      </trkpt>
      <trkpt lat="47.5189" lon="-1.47356">
        <ele>110</ele>
        <time>2012-08-20T08:08:50.000Z</time>
      </trkpt>
      <trkpt lat="47.51884" lon="-1.47352">
        <ele>111</ele>
        <time>2012-08-20T08:08:52.000Z</time>
      </trkpt>
      <trkpt lat="47.51879" lon="-1.47348">
        <ele>115</ele>
        <time>2012-08-20T08:08:54.000Z</time>
      </trkpt>
      <trkpt lat="47.51874" lon="-1.47344">
        <ele>114</ele>
        <time>2012-08-20T08:08:56.000Z</time>
      </trkpt>
      <trkpt lat="47.51869" lon="-1.47341">
        <ele>116</ele>
        <time>2012-08-20T08:08:58.000Z</time>
      </trkpt>
      <trkpt lat="47.51865" lon="-1.47338">
        <ele>116</ele>
        <time>2012-08-20T08:09:00.000Z</time>
      </trkpt>
      <trkpt lat="47.51861" lon="-1.47332">
        <ele>115</ele>
        <time>2012-08-20T08:09:02.000Z</time>
      </trkpt>
      <trkpt lat="47.51857" lon="-1.47327">
        <ele>112</ele>
        <time>2012-08-20T08:09:04.000Z</time>
      </trkpt>
      <trkpt lat="47.51853" lon="-1.47321">
        <ele>113</ele>
        <time>2012-08-20T08:09:06.000Z</time>
      </trkpt>
      <trkpt lat="47.51849" lon="-1.47316">
        <ele>108</ele>
        <time>2012-08-20T08:09:08.000Z</time>
      </trkpt>
      <trkpt lat="47.51846" lon="-1.4731">
        <ele>111</ele>
        <time>2012-08-20T08:09:11.000Z</time>
      </trkpt>
      <trkpt lat="47.51846" lon="-1.47303">
        <ele>112</ele>
        <time>2012-08-20T08:09:14.000Z</time>
      </trkpt>
      <trkpt lat="47.51851" lon="-1.47299">
        <ele>113</ele>
        <time>2012-08-20T08:09:17.000Z</time>
      </trkpt>
      <trkpt lat="47.51856" lon="-1.47294">
        <ele>114</ele>
        <time>2012-08-20T08:09:20.000Z</time>
      </trkpt>
      <trkpt lat="47.5186" lon="-1.4729">
        <ele>114</ele>
        <time>2012-08-20T08:09:23.000Z</time>
      </trkpt>
      <trkpt lat="47.51865" lon="-1.47285">
        <ele>113</ele>
        <time>2012-08-20T08:09:26.000Z</time>
      </trkpt>
      <trkpt lat="47.51868" lon="-1.4728">
        <ele>115</ele>
        <time>2012-08-20T08:09:29.000Z</time>
      </trkpt>
      <trkpt lat="47.51869" lon="-1.47287">
        <ele>109</ele>
        <time>2012-08-20T08:09:37.000Z</time>
      </trkpt>
      <trkpt lat="47.51866" lon="-1.47292">
        <ele>112</ele>
        <time>2012-08-20T08:09:40.000Z</time>
      </trkpt>
      <trkpt lat="47.51862" lon="-1.4729">
        <ele>113</ele>
        <time>2012-08-20T08:09:44.000Z</time>
      </trkpt>
      <trkpt lat="47.51864" lon="-1.47283">
        <ele>113</ele>
        <time>2012-08-20T08:09:47.000Z</time>
      </trkpt>
      <trkpt lat="47.51866" lon="-1.47274">
        <ele>112</ele>
        <time>2012-08-20T08:09:49.000Z</time>
      </trkpt>
      <trkpt lat="47.51865" lon="-1.47268">
        <ele>110</ele>
        <time>2012-08-20T08:09:51.000Z</time>
      </trkpt>
      <trkpt lat="47.5186" lon="-1.47261">
        <ele>109</ele>
        <time>2012-08-20T08:09:54.000Z</time>
      </trkpt>
      <trkpt lat="47.51856" lon="-1.47258">
        <ele>109</ele>
        <time>2012-08-20T08:09:56.000Z</time>
      </trkpt>
      <trkpt lat="47.51852" lon="-1.47254">
        <ele>111</ele>
        <time>2012-08-20T08:09:58.000Z</time>
      </trkpt>
      <trkpt lat="47.51848" lon="-1.47251">
        <ele>112</ele>
        <time>2012-08-20T08:10:00.000Z</time>
      </trkpt>
      <trkpt lat="47.51843" lon="-1.47247">
        <ele>114</ele>
        <time>2012-08-20T08:10:02.000Z</time>
      </trkpt>
      <trkpt lat="47.51837" lon="-1.47243">
        <ele>110</ele>
        <time>2012-08-20T08:10:04.000Z</time>
      </trkpt>
      <trkpt lat="47.51832" lon="-1.47239">
        <ele>111</ele>
        <time>2012-08-20T08:10:06.000Z</time>
      </trkpt>
      <trkpt lat="47.51827" lon="-1.47234">
        <ele>112</ele>
        <time>2012-08-20T08:10:08.000Z</time>
      </trkpt>
      <trkpt lat="47.51821" lon="-1.47228">
        <ele>114</ele>
        <time>2012-08-20T08:10:10.000Z</time>
      </trkpt>
      <trkpt lat="47.51815" lon="-1.47224">
        <ele>113</ele>
        <time>2012-08-20T08:10:12.000Z</time>
      </trkpt>
      <trkpt lat="47.51809" lon="-1.4722">
        <ele>112</ele>
        <time>2012-08-20T08:10:14.000Z</time>
      </trkpt>
      <trkpt lat="47.51802" lon="-1.47214">
        <ele>112</ele>
        <time>2012-08-20T08:10:16.000Z</time>
      </trkpt>
      <trkpt lat="47.51794" lon="-1.47208">
        <ele>113</ele>
        <time>2012-08-20T08:10:18.000Z</time>
      </trkpt>
      <trkpt lat="47.51788" lon="-1.47203">
        <ele>112</ele>
        <time>2012-08-20T08:10:20.000Z</time>
      </trkpt>
      <trkpt lat="47.5178" lon="-1.47196">
        <ele>114</ele>
        <time>2012-08-20T08:10:22.000Z</time>
      </trkpt>
      <trkpt lat="47.51774" lon="-1.47192">
        <ele>113</ele>
        <time>2012-08-20T08:10:24.000Z</time>
      </trkpt>
      <trkpt lat="47.51769" lon="-1.47188">
        <ele>113</ele>
        <time>2012-08-20T08:10:26.000Z</time>
      </trkpt>
      <trkpt lat="47.51763" lon="-1.47184">
        <ele>110</ele>
        <time>2012-08-20T08:10:28.000Z</time>
      </trkpt>
      <trkpt lat="47.51758" lon="-1.4718">
        <ele>110</ele>
        <time>2012-08-20T08:10:30.000Z</time>
      </trkpt>
      <trkpt lat="47.51752" lon="-1.47174">
        <ele>110</ele>
        <time>2012-08-20T08:10:32.000Z</time>
      </trkpt>
      <trkpt lat="47.51746" lon="-1.47168">
        <ele>108</ele>
        <time>2012-08-20T08:10:34.000Z</time>
      </trkpt>
      <trkpt lat="47.5174" lon="-1.47162">
        <ele>111</ele>
        <time>2012-08-20T08:10:36.000Z</time>
      </trkpt>
      <trkpt lat="47.51734" lon="-1.47156">
        <ele>109</ele>
        <time>2012-08-20T08:10:38.000Z</time>
      </trkpt>
      <trkpt lat="47.51728" lon="-1.47151">
        <ele>113</ele>
        <time>2012-08-20T08:10:40.000Z</time>
      </trkpt>
      <trkpt lat="47.51722" lon="-1.47144">
        <ele>112</ele>
        <time>2012-08-20T08:10:42.000Z</time>
      </trkpt>
      <trkpt lat="47.51715" lon="-1.47136">
        <ele>112</ele>
        <time>2012-08-20T08:10:44.000Z</time>
      </trkpt>
      <trkpt lat="47.51712" lon="-1.47132">
        <ele>111</ele>
        <time>2012-08-20T08:10:45.000Z</time>
      </trkpt>
      <trkpt lat="47.51706" lon="-1.47125">
        <ele>113</ele>
        <time>2012-08-20T08:10:47.000Z</time>
      </trkpt>
      <trkpt lat="47.517" lon="-1.47118">
        <ele>116</ele>
        <time>2012-08-20T08:10:49.000Z</time>
      </trkpt>
      <trkpt lat="47.51695" lon="-1.47111">
        <ele>116</ele>
        <time>2012-08-20T08:10:51.000Z</time>
      </trkpt>
      <trkpt lat="47.5169" lon="-1.47101">
        <ele>113</ele>
        <time>2012-08-20T08:10:53.000Z</time>
      </trkpt>
      <trkpt lat="47.51687" lon="-1.47096">
        <ele>110</ele>
        <time>2012-08-20T08:10:54.000Z</time>
      </trkpt>
      <trkpt lat="47.5168" lon="-1.47088">
        <ele>111</ele>
        <time>2012-08-20T08:10:56.000Z</time>
      </trkpt>
      <trkpt lat="47.51674" lon="-1.4708">
        <ele>111</ele>
        <time>2012-08-20T08:10:58.000Z</time>
      </trkpt>
      <trkpt lat="47.51671" lon="-1.47074">
        <ele>112</ele>
        <time>2012-08-20T08:10:59.000Z</time>
      </trkpt>
      <trkpt lat="47.51669" lon="-1.47068">
        <ele>113</ele>
        <time>2012-08-20T08:11:00.000Z</time>
      </trkpt>
      <trkpt lat="47.51666" lon="-1.47061">
        <ele>115</ele>
        <time>2012-08-20T08:11:01.000Z</time>
      </trkpt>
      <trkpt lat="47.51663" lon="-1.47054">
        <ele>114</ele>
        <time>2012-08-20T08:11:02.000Z</time>
      </trkpt>
      <trkpt lat="47.5166" lon="-1.47047">
        <ele>112</ele>
        <time>2012-08-20T08:11:03.000Z</time>
      </trkpt>
      <trkpt lat="47.51657" lon="-1.47041">
        <ele>111</ele>
        <time>2012-08-20T08:11:04.000Z</time>
      </trkpt>
      <trkpt lat="47.51655" lon="-1.47035">
        <ele>111</ele>
        <time>2012-08-20T08:11:05.000Z</time>
      </trkpt>
      <trkpt lat="47.51652" lon="-1.47029">
        <ele>109</ele>
        <time>2012-08-20T08:11:06.000Z</time>
      </trkpt>
      <trkpt lat="47.51648" lon="-1.47022">
        <ele>108</ele>
        <time>2012-08-20T08:11:07.000Z</time>
      </trkpt>
      <trkpt lat="47.51645" lon="-1.47016">
        <ele>109</ele>
        <time>2012-08-20T08:11:08.000Z</time>
      </trkpt>
      <trkpt lat="47.51642" lon="-1.47011">
        <ele>106</ele>
        <time>2012-08-20T08:11:09.000Z</time>
      </trkpt>
      <trkpt lat="47.51639" lon="-1.47006">
        <ele>105</ele>
        <time>2012-08-20T08:11:10.000Z</time>
      </trkpt>
      <trkpt lat="47.51633" lon="-1.46996">
        <ele>104</ele>
        <time>2012-08-20T08:11:12.000Z</time>
      </trkpt>
      <trkpt lat="47.51627" lon="-1.46986">
        <ele>103</ele>
        <time>2012-08-20T08:11:14.000Z</time>
      </trkpt>
      <trkpt lat="47.51624" lon="-1.4698">
        <ele>105</ele>
        <time>2012-08-20T08:11:15.000Z</time>
      </trkpt>
      <trkpt lat="47.5162" lon="-1.46973">
        <ele>103</ele>
        <time>2012-08-20T08:11:16.000Z</time>
      </trkpt>
      <trkpt lat="47.51616" lon="-1.46966">
        <ele>106</ele>
        <time>2012-08-20T08:11:17.000Z</time>
      </trkpt>
      <trkpt lat="47.51613" lon="-1.46961">
        <ele>107</ele>
        <time>2012-08-20T08:11:18.000Z</time>
      </trkpt>
      <trkpt lat="47.51609" lon="-1.46955">
        <ele>111</ele>
        <time>2012-08-20T08:11:19.000Z</time>
      </trkpt>
      <trkpt lat="47.51606" lon="-1.46948">
        <ele>108</ele>
        <time>2012-08-20T08:11:20.000Z</time>
      </trkpt>
      <trkpt lat="47.51602" lon="-1.46942">
        <ele>109</ele>
        <time>2012-08-20T08:11:21.000Z</time>
      </trkpt>
      <trkpt lat="47.51599" lon="-1.46935">
        <ele>107</ele>
        <time>2012-08-20T08:11:22.000Z</time>
      </trkpt>
      <trkpt lat="47.51596" lon="-1.46929">
        <ele>107</ele>
        <time>2012-08-20T08:11:23.000Z</time>
      </trkpt>
      <trkpt lat="47.51593" lon="-1.46922">
        <ele>105</ele>
        <time>2012-08-20T08:11:24.000Z</time>
      </trkpt>
      <trkpt lat="47.5159" lon="-1.46915">
        <ele>106</ele>
        <time>2012-08-20T08:11:25.000Z</time>
      </trkpt>
      <trkpt lat="47.51587" lon="-1.46908">
        <ele>109</ele>
        <time>2012-08-20T08:11:26.000Z</time>
      </trkpt>
      <trkpt lat="47.51584" lon="-1.46902">
        <ele>110</ele>
        <time>2012-08-20T08:11:27.000Z</time>
      </trkpt>
      <trkpt lat="47.51582" lon="-1.46895">
        <ele>109</ele>
        <time>2012-08-20T08:11:28.000Z</time>
      </trkpt>
      <trkpt lat="47.51579" lon="-1.46887">
        <ele>111</ele>
        <time>2012-08-20T08:11:29.000Z</time>
      </trkpt>
      <trkpt lat="47.51576" lon="-1.4688">
        <ele>108</ele>
        <time>2012-08-20T08:11:30.000Z</time>
      </trkpt>
      <trkpt lat="47.51574" lon="-1.46872">
        <ele>110</ele>
        <time>2012-08-20T08:11:31.000Z</time>
      </trkpt>
      <trkpt lat="47.51571" lon="-1.46865">
        <ele>113</ele>
        <time>2012-08-20T08:11:32.000Z</time>
      </trkpt>
      <trkpt lat="47.51569" lon="-1.46858">
        <ele>113</ele>
        <time>2012-08-20T08:11:33.000Z</time>
      </trkpt>
      <trkpt lat="47.51566" lon="-1.46851">
        <ele>109</ele>
        <time>2012-08-20T08:11:34.000Z</time>
      </trkpt>
      <trkpt lat="47.51564" lon="-1.46844">
        <ele>112</ele>
        <time>2012-08-20T08:11:35.000Z</time>
      </trkpt>
      <trkpt lat="47.51562" lon="-1.46838">
        <ele>110</ele>
        <time>2012-08-20T08:11:36.000Z</time>
      </trkpt>
      <trkpt lat="47.5156" lon="-1.4683">
        <ele>109</ele>
        <time>2012-08-20T08:11:37.000Z</time>
      </trkpt>
      <trkpt lat="47.51558" lon="-1.46823">
        <ele>109</ele>
        <time>2012-08-20T08:11:38.000Z</time>
      </trkpt>
      <trkpt lat="47.51556" lon="-1.46816">
        <ele>109</ele>
        <time>2012-08-20T08:11:39.000Z</time>
      </trkpt>
      <trkpt lat="47.51553" lon="-1.46809">
        <ele>108</ele>
        <time>2012-08-20T08:11:40.000Z</time>
      </trkpt>
      <trkpt lat="47.51551" lon="-1.46801">
        <ele>108</ele>
        <time>2012-08-20T08:11:41.000Z</time>
      </trkpt>
      <trkpt lat="47.51549" lon="-1.46793">
        <ele>109</ele>
        <time>2012-08-20T08:11:42.000Z</time>
      </trkpt>
      <trkpt lat="47.51547" lon="-1.46786">
        <ele>107</ele>
        <time>2012-08-20T08:11:43.000Z</time>
      </trkpt>
      <trkpt lat="47.51547" lon="-1.46779">
        <ele>109</ele>
        <time>2012-08-20T08:11:44.000Z</time>
      </trkpt>
      <trkpt lat="47.51547" lon="-1.46772">
        <ele>107</ele>
        <time>2012-08-20T08:11:45.000Z</time>
      </trkpt>
      <trkpt lat="47.51548" lon="-1.46765">
        <ele>105</ele>
        <time>2012-08-20T08:11:46.000Z</time>
      </trkpt>
      <trkpt lat="47.51548" lon="-1.46758">
        <ele>106</ele>
        <time>2012-08-20T08:11:47.000Z</time>
      </trkpt>
      <trkpt lat="47.5155" lon="-1.4675">
        <ele>106</ele>
        <time>2012-08-20T08:11:48.000Z</time>
      </trkpt>
      <trkpt lat="47.51551" lon="-1.46743">
        <ele>107</ele>
        <time>2012-08-20T08:11:49.000Z</time>
      </trkpt>
      <trkpt lat="47.51552" lon="-1.46735">
        <ele>103</ele>
        <time>2012-08-20T08:11:50.000Z</time>
      </trkpt>
      <trkpt lat="47.51554" lon="-1.46727">
        <ele>102</ele>
        <time>2012-08-20T08:11:51.000Z</time>
      </trkpt>
      <trkpt lat="47.51555" lon="-1.4672">
        <ele>99</ele>
        <time>2012-08-20T08:11:52.000Z</time>
      </trkpt>
      <trkpt lat="47.51556" lon="-1.46713">
        <ele>100</ele>
        <time>2012-08-20T08:11:53.000Z</time>
      </trkpt>
      <trkpt lat="47.51557" lon="-1.46706">
        <ele>103</ele>
        <time>2012-08-20T08:11:54.000Z</time>
      </trkpt>
      <trkpt lat="47.51558" lon="-1.46698">
        <ele>105</ele>
        <time>2012-08-20T08:11:55.000Z</time>
      </trkpt>
      <trkpt lat="47.51558" lon="-1.46689">
        <ele>103</ele>
        <time>2012-08-20T08:11:56.000Z</time>
      </trkpt>
      <trkpt lat="47.51559" lon="-1.46681">
        <ele>104</ele>
        <time>2012-08-20T08:11:57.000Z</time>
      </trkpt>
      <trkpt lat="47.51559" lon="-1.46672">
        <ele>108</ele>
        <time>2012-08-20T08:11:58.000Z</time>
      </trkpt>
      <trkpt lat="47.5156" lon="-1.46661">
        <ele>105</ele>
        <time>2012-08-20T08:11:59.000Z</time>
      </trkpt>
      <trkpt lat="47.5156" lon="-1.46651">
        <ele>103</ele>
        <time>2012-08-20T08:12:00.000Z</time>
      </trkpt>
      <trkpt lat="47.51561" lon="-1.46641">
        <ele>103</ele>
        <time>2012-08-20T08:12:01.000Z</time>
      </trkpt>
      <trkpt lat="47.51561" lon="-1.46631">
        <ele>102</ele>
        <time>2012-08-20T08:12:02.000Z</time>
      </trkpt>
      <trkpt lat="47.51562" lon="-1.46622">
        <ele>103</ele>
        <time>2012-08-20T08:12:03.000Z</time>
      </trkpt>
      <trkpt lat="47.51562" lon="-1.46613">
        <ele>102</ele>
        <time>2012-08-20T08:12:04.000Z</time>
      </trkpt>
      <trkpt lat="47.51563" lon="-1.46603">
        <ele>102</ele>
        <time>2012-08-20T08:12:05.000Z</time>
      </trkpt>
      <trkpt lat="47.51563" lon="-1.46594">
        <ele>103</ele>
        <time>2012-08-20T08:12:06.000Z</time>
      </trkpt>
      <trkpt lat="47.51564" lon="-1.46584">
        <ele>106</ele>
        <time>2012-08-20T08:12:07.000Z</time>
      </trkpt>
      <trkpt lat="47.51564" lon="-1.46574">
        <ele>106</ele>
        <time>2012-08-20T08:12:08.000Z</time>
      </trkpt>
      <trkpt lat="47.51566" lon="-1.46552">
        <ele>105</ele>
        <time>2012-08-20T08:12:10.000Z</time>
      </trkpt>
      <trkpt lat="47.51566" lon="-1.46541">
        <ele>105</ele>
        <time>2012-08-20T08:12:11.000Z</time>
      </trkpt>
      <trkpt lat="47.51567" lon="-1.46532">
        <ele>105</ele>
        <time>2012-08-20T08:12:12.000Z</time>
      </trkpt>
      <trkpt lat="47.51567" lon="-1.46521">
        <ele>104</ele>
        <time>2012-08-20T08:12:13.000Z</time>
      </trkpt>
      <trkpt lat="47.51568" lon="-1.46511">
        <ele>104</ele>
        <time>2012-08-20T08:12:14.000Z</time>
      </trkpt>
      <trkpt lat="47.51568" lon="-1.46501">
        <ele>103</ele>
        <time>2012-08-20T08:12:15.000Z</time>
      </trkpt>
      <trkpt lat="47.51568" lon="-1.46492">
        <ele>103</ele>
        <time>2012-08-20T08:12:16.000Z</time>
      </trkpt>
      <trkpt lat="47.51569" lon="-1.46481">
        <ele>106</ele>
        <time>2012-08-20T08:12:17.000Z</time>
      </trkpt>
      <trkpt lat="47.51569" lon="-1.46469">
        <ele>104</ele>
        <time>2012-08-20T08:12:18.000Z</time>
      </trkpt>
      <trkpt lat="47.5157" lon="-1.46457">
        <ele>102</ele>
        <time>2012-08-20T08:12:19.000Z</time>
      </trkpt>
      <trkpt lat="47.5157" lon="-1.46445">
        <ele>104</ele>
        <time>2012-08-20T08:12:20.000Z</time>
      </trkpt>
      <trkpt lat="47.51571" lon="-1.46434">
        <ele>104</ele>
        <time>2012-08-20T08:12:21.000Z</time>
      </trkpt>
      <trkpt lat="47.51571" lon="-1.46423">
        <ele>103</ele>
        <time>2012-08-20T08:12:22.000Z</time>
      </trkpt>
      <trkpt lat="47.51571" lon="-1.46413">
        <ele>104</ele>
        <time>2012-08-20T08:12:23.000Z</time>
      </trkpt>
      <trkpt lat="47.51572" lon="-1.46403">
        <ele>103</ele>
        <time>2012-08-20T08:12:24.000Z</time>
      </trkpt>
      <trkpt lat="47.51572" lon="-1.46396">
        <ele>101</ele>
        <time>2012-08-20T08:12:25.000Z</time>
      </trkpt>
      <trkpt lat="47.51569" lon="-1.4639">
        <ele>98</ele>
        <time>2012-08-20T08:12:27.000Z</time>
      </trkpt>
      <trkpt lat="47.51561" lon="-1.46388">
        <ele>95</ele>
        <time>2012-08-20T08:12:29.000Z</time>
      </trkpt>
      <trkpt lat="47.51556" lon="-1.46388">
        <ele>97</ele>
        <time>2012-08-20T08:12:30.000Z</time>
      </trkpt>
      <trkpt lat="47.51549" lon="-1.46387">
        <ele>96</ele>
        <time>2012-08-20T08:12:31.000Z</time>
      </trkpt>
      <trkpt lat="47.51542" lon="-1.46387">
        <ele>96</ele>
        <time>2012-08-20T08:12:32.000Z</time>
      </trkpt>
      <trkpt lat="47.51534" lon="-1.46386">
        <ele>95</ele>
        <time>2012-08-20T08:12:33.000Z</time>
      </trkpt>
      <trkpt lat="47.51525" lon="-1.46384">
        <ele>94</ele>
        <time>2012-08-20T08:12:34.000Z</time>
      </trkpt>
      <trkpt lat="47.51517" lon="-1.46382">
        <ele>93</ele>
        <time>2012-08-20T08:12:35.000Z</time>
      </trkpt>
      <trkpt lat="47.51508" lon="-1.46381">
        <ele>94</ele>
        <time>2012-08-20T08:12:36.000Z</time>
      </trkpt>
      <trkpt lat="47.515" lon="-1.4638">
        <ele>94</ele>
        <time>2012-08-20T08:12:37.000Z</time>
      </trkpt>
      <trkpt lat="47.51492" lon="-1.46378">
        <ele>93</ele>
        <time>2012-08-20T08:12:38.000Z</time>
      </trkpt>
      <trkpt lat="47.51484" lon="-1.46378">
        <ele>94</ele>
        <time>2012-08-20T08:12:39.000Z</time>
      </trkpt>
      <trkpt lat="47.51477" lon="-1.46377">
        <ele>91</ele>
        <time>2012-08-20T08:12:40.000Z</time>
      </trkpt>
      <trkpt lat="47.51469" lon="-1.46376">
        <ele>92</ele>
        <time>2012-08-20T08:12:41.000Z</time>
      </trkpt>
      <trkpt lat="47.51461" lon="-1.46375">
        <ele>93</ele>
        <time>2012-08-20T08:12:42.000Z</time>
      </trkpt>
      <trkpt lat="47.51453" lon="-1.46374">
        <ele>93</ele>
        <time>2012-08-20T08:12:43.000Z</time>
      </trkpt>
      <trkpt lat="47.51446" lon="-1.46373">
        <ele>93</ele>
        <time>2012-08-20T08:12:44.000Z</time>
      </trkpt>
      <trkpt lat="47.51439" lon="-1.46372">
        <ele>93</ele>
        <time>2012-08-20T08:12:45.000Z</time>
      </trkpt>
      <trkpt lat="47.51432" lon="-1.46371">
        <ele>94</ele>
        <time>2012-08-20T08:12:46.000Z</time>
      </trkpt>
      <trkpt lat="47.51424" lon="-1.4637">
        <ele>93</ele>
        <time>2012-08-20T08:12:47.000Z</time>
      </trkpt>
      <trkpt lat="47.51417" lon="-1.4637">
        <ele>96</ele>
        <time>2012-08-20T08:12:48.000Z</time>
      </trkpt>
      <trkpt lat="47.5141" lon="-1.46369">
        <ele>95</ele>
        <time>2012-08-20T08:12:49.000Z</time>
      </trkpt>
      <trkpt lat="47.51404" lon="-1.46369">
        <ele>95</ele>
        <time>2012-08-20T08:12:50.000Z</time>
      </trkpt>
      <trkpt lat="47.51397" lon="-1.46368">
        <ele>94</ele>
        <time>2012-08-20T08:12:51.000Z</time>
      </trkpt>
      <trkpt lat="47.51391" lon="-1.46367">
        <ele>95</ele>
        <time>2012-08-20T08:12:52.000Z</time>
      </trkpt>
      <trkpt lat="47.51385" lon="-1.46366">
        <ele>95</ele>
        <time>2012-08-20T08:12:53.000Z</time>
      </trkpt>
      <trkpt lat="47.51378" lon="-1.46365">
        <ele>95</ele>
        <time>2012-08-20T08:12:54.000Z</time>
      </trkpt>
      <trkpt lat="47.51371" lon="-1.46364">
        <ele>97</ele>
        <time>2012-08-20T08:12:55.000Z</time>
      </trkpt>
      <trkpt lat="47.51364" lon="-1.46362">
        <ele>94</ele>
        <time>2012-08-20T08:12:56.000Z</time>
      </trkpt>
      <trkpt lat="47.51358" lon="-1.46362">
        <ele>93</ele>
        <time>2012-08-20T08:12:57.000Z</time>
      </trkpt>
      <trkpt lat="47.51351" lon="-1.46361">
        <ele>95</ele>
        <time>2012-08-20T08:12:58.000Z</time>
      </trkpt>
      <trkpt lat="47.51344" lon="-1.4636">
        <ele>95</ele>
        <time>2012-08-20T08:12:59.000Z</time>
      </trkpt>
      <trkpt lat="47.51337" lon="-1.46359">
        <ele>95</ele>
        <time>2012-08-20T08:13:00.000Z</time>
      </trkpt>
      <trkpt lat="47.51331" lon="-1.46358">
        <ele>97</ele>
        <time>2012-08-20T08:13:01.000Z</time>
      </trkpt>
      <trkpt lat="47.51324" lon="-1.46358">
        <ele>95</ele>
        <time>2012-08-20T08:13:02.000Z</time>
      </trkpt>
      <trkpt lat="47.51319" lon="-1.46357">
        <ele>93</ele>
        <time>2012-08-20T08:13:03.000Z</time>
      </trkpt>
      <trkpt lat="47.51313" lon="-1.46356">
        <ele>91</ele>
        <time>2012-08-20T08:13:04.000Z</time>
      </trkpt>
      <trkpt lat="47.51306" lon="-1.46356">
        <ele>93</ele>
        <time>2012-08-20T08:13:05.000Z</time>
      </trkpt>
      <trkpt lat="47.51298" lon="-1.46355">
        <ele>92</ele>
        <time>2012-08-20T08:13:06.000Z</time>
      </trkpt>
      <trkpt lat="47.51291" lon="-1.46354">
        <ele>92</ele>
        <time>2012-08-20T08:13:07.000Z</time>
      </trkpt>
      <trkpt lat="47.51284" lon="-1.46353">
        <ele>91</ele>
        <time>2012-08-20T08:13:08.000Z</time>
      </trkpt>
      <trkpt lat="47.51277" lon="-1.46352">
        <ele>91</ele>
        <time>2012-08-20T08:13:09.000Z</time>
      </trkpt>
      <trkpt lat="47.5127" lon="-1.46351">
        <ele>92</ele>
        <time>2012-08-20T08:13:10.000Z</time>
      </trkpt>
      <trkpt lat="47.51264" lon="-1.4635">
        <ele>94</ele>
        <time>2012-08-20T08:13:11.000Z</time>
      </trkpt>
      <trkpt lat="47.51259" lon="-1.46349">
        <ele>92</ele>
        <time>2012-08-20T08:13:12.000Z</time>
      </trkpt>
      <trkpt lat="47.51253" lon="-1.46348">
        <ele>90</ele>
        <time>2012-08-20T08:13:13.000Z</time>
      </trkpt>
      <trkpt lat="47.51247" lon="-1.46348">
        <ele>90</ele>
        <time>2012-08-20T08:13:14.000Z</time>
      </trkpt>
      <trkpt lat="47.51242" lon="-1.46347">
        <ele>90</ele>
        <time>2012-08-20T08:13:15.000Z</time>
      </trkpt>
      <trkpt lat="47.51237" lon="-1.46346">
        <ele>92</ele>
        <time>2012-08-20T08:13:16.000Z</time>
      </trkpt>
      <trkpt lat="47.51232" lon="-1.46345">
        <ele>93</ele>
        <time>2012-08-20T08:13:17.000Z</time>
      </trkpt>
      <trkpt lat="47.51226" lon="-1.46344">
        <ele>94</ele>
        <time>2012-08-20T08:13:18.000Z</time>
      </trkpt>
      <trkpt lat="47.51221" lon="-1.46344">
        <ele>92</ele>
        <time>2012-08-20T08:13:19.000Z</time>
      </trkpt>
      <trkpt lat="47.51216" lon="-1.46343">
        <ele>94</ele>
        <time>2012-08-20T08:13:20.000Z</time>
      </trkpt>
      <trkpt lat="47.51211" lon="-1.46343">
        <ele>94</ele>
        <time>2012-08-20T08:13:21.000Z</time>
      </trkpt>
      <trkpt lat="47.51206" lon="-1.46342">
        <ele>94</ele>
        <time>2012-08-20T08:13:22.000Z</time>
      </trkpt>
      <trkpt lat="47.51201" lon="-1.46342">
        <ele>93</ele>
        <time>2012-08-20T08:13:23.000Z</time>
      </trkpt>
      <trkpt lat="47.51195" lon="-1.46341">
        <ele>96</ele>
        <time>2012-08-20T08:13:24.000Z</time>
      </trkpt>
      <trkpt lat="47.5119" lon="-1.46341">
        <ele>97</ele>
        <time>2012-08-20T08:13:25.000Z</time>
      </trkpt>
      <trkpt lat="47.51185" lon="-1.4634">
        <ele>97</ele>
        <time>2012-08-20T08:13:26.000Z</time>
      </trkpt>
      <trkpt lat="47.51179" lon="-1.46339">
        <ele>97</ele>
        <time>2012-08-20T08:13:27.000Z</time>
      </trkpt>
      <trkpt lat="47.51174" lon="-1.46338">
        <ele>96</ele>
        <time>2012-08-20T08:13:28.000Z</time>
      </trkpt>
      <trkpt lat="47.51169" lon="-1.46338">
        <ele>96</ele>
        <time>2012-08-20T08:13:29.000Z</time>
      </trkpt>
      <trkpt lat="47.51164" lon="-1.46337">
        <ele>95</ele>
        <time>2012-08-20T08:13:30.000Z</time>
      </trkpt>
      <trkpt lat="47.5116" lon="-1.46336">
        <ele>96</ele>
        <time>2012-08-20T08:13:31.000Z</time>
      </trkpt>
      <trkpt lat="47.51155" lon="-1.46335">
        <ele>93</ele>
        <time>2012-08-20T08:13:32.000Z</time>
      </trkpt>
      <trkpt lat="47.5115" lon="-1.46335">
        <ele>95</ele>
        <time>2012-08-20T08:13:33.000Z</time>
      </trkpt>
      <trkpt lat="47.51146" lon="-1.46335">
        <ele>97</ele>
        <time>2012-08-20T08:13:34.000Z</time>
      </trkpt>
      <trkpt lat="47.51137" lon="-1.46331">
        <ele>93</ele>
        <time>2012-08-20T08:13:36.000Z</time>
      </trkpt>
      <trkpt lat="47.51134" lon="-1.46323">
        <ele>98</ele>
        <time>2012-08-20T08:13:38.000Z</time>
      </trkpt>
      <trkpt lat="47.51138" lon="-1.46317">
        <ele>97</ele>
        <time>2012-08-20T08:13:40.000Z</time>
      </trkpt>
      <trkpt lat="47.51144" lon="-1.46312">
        <ele>98</ele>
        <time>2012-08-20T08:13:42.000Z</time>
      </trkpt>
      <trkpt lat="47.5115" lon="-1.46307">
        <ele>97</ele>
        <time>2012-08-20T08:13:44.000Z</time>
      </trkpt>
      <trkpt lat="47.51158" lon="-1.46301">
        <ele>95</ele>
        <time>2012-08-20T08:13:46.000Z</time>
      </trkpt>
      <trkpt lat="47.51162" lon="-1.46298">
        <ele>96</ele>
        <time>2012-08-20T08:13:47.000Z</time>
      </trkpt>
      <trkpt lat="47.51166" lon="-1.46294">
        <ele>96</ele>
        <time>2012-08-20T08:13:48.000Z</time>
      </trkpt>
      <trkpt lat="47.5117" lon="-1.46289">
        <ele>95</ele>
        <time>2012-08-20T08:13:49.000Z</time>
      </trkpt>
      <trkpt lat="47.51172" lon="-1.46284">
        <ele>96</ele>
        <time>2012-08-20T08:13:50.000Z</time>
      </trkpt>
      <trkpt lat="47.51175" lon="-1.46278">
        <ele>96</ele>
        <time>2012-08-20T08:13:51.000Z</time>
      </trkpt>
      <trkpt lat="47.51177" lon="-1.46271">
        <ele>95</ele>
        <time>2012-08-20T08:13:52.000Z</time>
      </trkpt>
      <trkpt lat="47.51179" lon="-1.46264">
        <ele>95</ele>
        <time>2012-08-20T08:13:53.000Z</time>
      </trkpt>
      <trkpt lat="47.51179" lon="-1.46256">
        <ele>97</ele>
        <time>2012-08-20T08:13:54.000Z</time>
      </trkpt>
      <trkpt lat="47.5118" lon="-1.46248">
        <ele>97</ele>
        <time>2012-08-20T08:13:55.000Z</time>
      </trkpt>
      <trkpt lat="47.5118" lon="-1.46241">
        <ele>96</ele>
        <time>2012-08-20T08:13:56.000Z</time>
      </trkpt>
      <trkpt lat="47.5118" lon="-1.46233">
        <ele>96</ele>
        <time>2012-08-20T08:13:57.000Z</time>
      </trkpt>
      <trkpt lat="47.5118" lon="-1.46225">
        <ele>95</ele>
        <time>2012-08-20T08:13:58.000Z</time>
      </trkpt>
      <trkpt lat="47.51179" lon="-1.46218">
        <ele>95</ele>
        <time>2012-08-20T08:13:59.000Z</time>
      </trkpt>
      <trkpt lat="47.51179" lon="-1.4621">
        <ele>97</ele>
        <time>2012-08-20T08:14:00.000Z</time>
      </trkpt>
      <trkpt lat="47.51179" lon="-1.46202">
        <ele>99</ele>
        <time>2012-08-20T08:14:01.000Z</time>
      </trkpt>
      <trkpt lat="47.51178" lon="-1.46194">
        <ele>100</ele>
        <time>2012-08-20T08:14:02.000Z</time>
      </trkpt>
      <trkpt lat="47.51178" lon="-1.46187">
        <ele>99</ele>
        <time>2012-08-20T08:14:03.000Z</time>
      </trkpt>
      <trkpt lat="47.51178" lon="-1.46179">
        <ele>97</ele>
        <time>2012-08-20T08:14:04.000Z</time>
      </trkpt>
      <trkpt lat="47.51177" lon="-1.46171">
        <ele>98</ele>
        <time>2012-08-20T08:14:05.000Z</time>
      </trkpt>
      <trkpt lat="47.51177" lon="-1.46163">
        <ele>97</ele>
        <time>2012-08-20T08:14:06.000Z</time>
      </trkpt>
      <trkpt lat="47.51176" lon="-1.46156">
        <ele>95</ele>
        <time>2012-08-20T08:14:07.000Z</time>
      </trkpt>
      <trkpt lat="47.51176" lon="-1.46148">
        <ele>98</ele>
        <time>2012-08-20T08:14:08.000Z</time>
      </trkpt>
      <trkpt lat="47.51176" lon="-1.4614">
        <ele>99</ele>
        <time>2012-08-20T08:14:09.000Z</time>
      </trkpt>
      <trkpt lat="47.51176" lon="-1.46132">
        <ele>99</ele>
        <time>2012-08-20T08:14:10.000Z</time>
      </trkpt>
      <trkpt lat="47.51175" lon="-1.46124">
        <ele>95</ele>
        <time>2012-08-20T08:14:11.000Z</time>
      </trkpt>
      <trkpt lat="47.51174" lon="-1.46116">
        <ele>95</ele>
        <time>2012-08-20T08:14:12.000Z</time>
      </trkpt>
      <trkpt lat="47.51174" lon="-1.46108">
        <ele>92</ele>
        <time>2012-08-20T08:14:13.000Z</time>
      </trkpt>
      <trkpt lat="47.51173" lon="-1.461">
        <ele>93</ele>
        <time>2012-08-20T08:14:14.000Z</time>
      </trkpt>
      <trkpt lat="47.51172" lon="-1.46091">
        <ele>94</ele>
        <time>2012-08-20T08:14:15.000Z</time>
      </trkpt>
      <trkpt lat="47.5117" lon="-1.46083">
        <ele>97</ele>
        <time>2012-08-20T08:14:16.000Z</time>
      </trkpt>
      <trkpt lat="47.51169" lon="-1.46075">
        <ele>95</ele>
        <time>2012-08-20T08:14:17.000Z</time>
      </trkpt>
      <trkpt lat="47.51167" lon="-1.46065">
        <ele>96</ele>
        <time>2012-08-20T08:14:18.000Z</time>
      </trkpt>
      <trkpt lat="47.51166" lon="-1.46058">
        <ele>99</ele>
        <time>2012-08-20T08:14:19.000Z</time>
      </trkpt>
      <trkpt lat="47.51165" lon="-1.4605">
        <ele>98</ele>
        <time>2012-08-20T08:14:20.000Z</time>
      </trkpt>
      <trkpt lat="47.51163" lon="-1.46042">
        <ele>96</ele>
        <time>2012-08-20T08:14:21.000Z</time>
      </trkpt>
      <trkpt lat="47.51162" lon="-1.46034">
        <ele>96</ele>
        <time>2012-08-20T08:14:22.000Z</time>
      </trkpt>
      <trkpt lat="47.5116" lon="-1.46026">
        <ele>95</ele>
        <time>2012-08-20T08:14:23.000Z</time>
      </trkpt>
      <trkpt lat="47.51159" lon="-1.46018">
        <ele>96</ele>
        <time>2012-08-20T08:14:24.000Z</time>
      </trkpt>
      <trkpt lat="47.51158" lon="-1.46011">
        <ele>96</ele>
        <time>2012-08-20T08:14:25.000Z</time>
      </trkpt>
      <trkpt lat="47.51156" lon="-1.46002">
        <ele>93</ele>
        <time>2012-08-20T08:14:26.000Z</time>
      </trkpt>
      <trkpt lat="47.51155" lon="-1.45993">
        <ele>91</ele>
        <time>2012-08-20T08:14:27.000Z</time>
      </trkpt>
      <trkpt lat="47.51153" lon="-1.45984">
        <ele>90</ele>
        <time>2012-08-20T08:14:28.000Z</time>
      </trkpt>
      <trkpt lat="47.51152" lon="-1.45975">
        <ele>93</ele>
        <time>2012-08-20T08:14:29.000Z</time>
      </trkpt>
      <trkpt lat="47.51151" lon="-1.45966">
        <ele>90</ele>
        <time>2012-08-20T08:14:30.000Z</time>
      </trkpt>
      <trkpt lat="47.5115" lon="-1.45959">
        <ele>91</ele>
        <time>2012-08-20T08:14:31.000Z</time>
      </trkpt>
      <trkpt lat="47.51149" lon="-1.45951">
        <ele>92</ele>
        <time>2012-08-20T08:14:32.000Z</time>
      </trkpt>
      <trkpt lat="47.51148" lon="-1.45944">
        <ele>95</ele>
        <time>2012-08-20T08:14:33.000Z</time>
      </trkpt>
      <trkpt lat="47.51147" lon="-1.45936">
        <ele>95</ele>
        <time>2012-08-20T08:14:34.000Z</time>
      </trkpt>
      <trkpt lat="47.51146" lon="-1.45928">
        <ele>95</ele>
        <time>2012-08-20T08:14:35.000Z</time>
      </trkpt>
      <trkpt lat="47.51144" lon="-1.45922">
        <ele>94</ele>
        <time>2012-08-20T08:14:36.000Z</time>
      </trkpt>
      <trkpt lat="47.5114" lon="-1.45919">
        <ele>91</ele>
        <time>2012-08-20T08:14:38.000Z</time>
      </trkpt>
      <trkpt lat="47.51138" lon="-1.45913">
        <ele>89</ele>
        <time>2012-08-20T08:14:42.000Z</time>
      </trkpt>
      <trkpt lat="47.51142" lon="-1.45914">
        <ele>90</ele>
        <time>2012-08-20T08:14:45.000Z</time>
      </trkpt>
      <trkpt lat="47.51146" lon="-1.45919">
        <ele>91</ele>
        <time>2012-08-20T08:14:47.000Z</time>
      </trkpt>
      <trkpt lat="47.51151" lon="-1.4592">
        <ele>92</ele>
        <time>2012-08-20T08:14:50.000Z</time>
      </trkpt>
      <trkpt lat="47.51146" lon="-1.4592">
        <ele>92</ele>
        <time>2012-08-20T08:14:59.000Z</time>
      </trkpt>
      <trkpt lat="47.51142" lon="-1.45922">
        <ele>91</ele>
        <time>2012-08-20T08:15:02.000Z</time>
      </trkpt>
      <trkpt lat="47.5114" lon="-1.45915">
        <ele>86</ele>
        <time>2012-08-20T08:15:11.000Z</time>
      </trkpt>
      <trkpt lat="47.51145" lon="-1.45915">
        <ele>91</ele>
        <time>2012-08-20T08:15:15.000Z</time>
      </trkpt>
      <trkpt lat="47.51151" lon="-1.45912">
        <ele>96</ele>
        <time>2012-08-20T08:15:17.000Z</time>
      </trkpt>
      <trkpt lat="47.51156" lon="-1.45907">
        <ele>94</ele>
        <time>2012-08-20T08:15:19.000Z</time>
      </trkpt>
      <trkpt lat="47.51162" lon="-1.45899">
        <ele>90</ele>
        <time>2012-08-20T08:15:21.000Z</time>
      </trkpt>
      <trkpt lat="47.51166" lon="-1.45888">
        <ele>90</ele>
        <time>2012-08-20T08:15:23.000Z</time>
      </trkpt>
      <trkpt lat="47.51169" lon="-1.45877">
        <ele>90</ele>
        <time>2012-08-20T08:15:25.000Z</time>
      </trkpt>
      <trkpt lat="47.51171" lon="-1.4587">
        <ele>91</ele>
        <time>2012-08-20T08:15:26.000Z</time>
      </trkpt>
      <trkpt lat="47.51174" lon="-1.45864">
        <ele>89</ele>
        <time>2012-08-20T08:15:27.000Z</time>
      </trkpt>
      <trkpt lat="47.51175" lon="-1.45858">
        <ele>89</ele>
        <time>2012-08-20T08:15:28.000Z</time>
      </trkpt>
      <trkpt lat="47.51177" lon="-1.45851">
        <ele>89</ele>
        <time>2012-08-20T08:15:29.000Z</time>
      </trkpt>
      <trkpt lat="47.5118" lon="-1.45844">
        <ele>90</ele>
        <time>2012-08-20T08:15:30.000Z</time>
      </trkpt>
      <trkpt lat="47.51182" lon="-1.45837">
        <ele>87</ele>
        <time>2012-08-20T08:15:31.000Z</time>
      </trkpt>
      <trkpt lat="47.51184" lon="-1.4583">
        <ele>88</ele>
        <time>2012-08-20T08:15:32.000Z</time>
      </trkpt>
      <trkpt lat="47.51186" lon="-1.45823">
        <ele>86</ele>
        <time>2012-08-20T08:15:33.000Z</time>
      </trkpt>
      <trkpt lat="47.51189" lon="-1.45816">
        <ele>90</ele>
        <time>2012-08-20T08:15:34.000Z</time>
      </trkpt>
      <trkpt lat="47.51192" lon="-1.45808">
        <ele>92</ele>
        <time>2012-08-20T08:15:35.000Z</time>
      </trkpt>
      <trkpt lat="47.51196" lon="-1.45802">
        <ele>92</ele>
        <time>2012-08-20T08:15:36.000Z</time>
      </trkpt>
      <trkpt lat="47.512" lon="-1.45796">
        <ele>91</ele>
        <time>2012-08-20T08:15:37.000Z</time>
      </trkpt>
      <trkpt lat="47.51206" lon="-1.4579">
        <ele>88</ele>
        <time>2012-08-20T08:15:38.000Z</time>
      </trkpt>
      <trkpt lat="47.51211" lon="-1.45786">
        <ele>87</ele>
        <time>2012-08-20T08:15:39.000Z</time>
      </trkpt>
      <trkpt lat="47.51217" lon="-1.45783">
        <ele>86</ele>
        <time>2012-08-20T08:15:40.000Z</time>
      </trkpt>
      <trkpt lat="47.51222" lon="-1.4578">
        <ele>85</ele>
        <time>2012-08-20T08:15:41.000Z</time>
      </trkpt>
      <trkpt lat="47.51228" lon="-1.45778">
        <ele>84</ele>
        <time>2012-08-20T08:15:42.000Z</time>
      </trkpt>
      <trkpt lat="47.51234" lon="-1.45776">
        <ele>83</ele>
        <time>2012-08-20T08:15:43.000Z</time>
      </trkpt>
      <trkpt lat="47.5124" lon="-1.45773">
        <ele>85</ele>
        <time>2012-08-20T08:15:44.000Z</time>
      </trkpt>
      <trkpt lat="47.51248" lon="-1.45771">
        <ele>85</ele>
        <time>2012-08-20T08:15:45.000Z</time>
      </trkpt>
      <trkpt lat="47.51254" lon="-1.45768">
        <ele>84</ele>
        <time>2012-08-20T08:15:46.000Z</time>
      </trkpt>
      <trkpt lat="47.51261" lon="-1.45766">
        <ele>83</ele>
        <time>2012-08-20T08:15:47.000Z</time>
      </trkpt>
      <trkpt lat="47.51268" lon="-1.45763">
        <ele>83</ele>
        <time>2012-08-20T08:15:48.000Z</time>
      </trkpt>
      <trkpt lat="47.51275" lon="-1.4576">
        <ele>85</ele>
        <time>2012-08-20T08:15:49.000Z</time>
      </trkpt>
      <trkpt lat="47.51282" lon="-1.45757">
        <ele>84</ele>
        <time>2012-08-20T08:15:50.000Z</time>
      </trkpt>
      <trkpt lat="47.51288" lon="-1.45753">
        <ele>84</ele>
        <time>2012-08-20T08:15:51.000Z</time>
      </trkpt>
      <trkpt lat="47.51295" lon="-1.4575">
        <ele>84</ele>
        <time>2012-08-20T08:15:52.000Z</time>
      </trkpt>
      <trkpt lat="47.513" lon="-1.45746">
        <ele>86</ele>
        <time>2012-08-20T08:15:53.000Z</time>
      </trkpt>
      <trkpt lat="47.51303" lon="-1.45733">
        <ele>84</ele>
        <time>2012-08-20T08:15:55.000Z</time>
      </trkpt>
      <trkpt lat="47.51302" lon="-1.4572">
        <ele>83</ele>
        <time>2012-08-20T08:15:57.000Z</time>
      </trkpt>
      <trkpt lat="47.51302" lon="-1.45712">
        <ele>85</ele>
        <time>2012-08-20T08:15:58.000Z</time>
      </trkpt>
      <trkpt lat="47.513" lon="-1.45703">
        <ele>86</ele>
        <time>2012-08-20T08:15:59.000Z</time>
      </trkpt>
      <trkpt lat="47.51298" lon="-1.45694">
        <ele>85</ele>
        <time>2012-08-20T08:16:00.000Z</time>
      </trkpt>
      <trkpt lat="47.51296" lon="-1.45683">
        <ele>89</ele>
        <time>2012-08-20T08:16:01.000Z</time>
      </trkpt>
      <trkpt lat="47.51294" lon="-1.45673">
        <ele>87</ele>
        <time>2012-08-20T08:16:02.000Z</time>
      </trkpt>
      <trkpt lat="47.51293" lon="-1.45662">
        <ele>87</ele>
        <time>2012-08-20T08:16:03.000Z</time>
      </trkpt>
      <trkpt lat="47.51291" lon="-1.45653">
        <ele>85</ele>
        <time>2012-08-20T08:16:04.000Z</time>
      </trkpt>
      <trkpt lat="47.5129" lon="-1.45643">
        <ele>88</ele>
        <time>2012-08-20T08:16:05.000Z</time>
      </trkpt>
      <trkpt lat="47.51289" lon="-1.45634">
        <ele>87</ele>
        <time>2012-08-20T08:16:06.000Z</time>
      </trkpt>
      <trkpt lat="47.51288" lon="-1.45624">
        <ele>89</ele>
        <time>2012-08-20T08:16:07.000Z</time>
      </trkpt>
      <trkpt lat="47.51286" lon="-1.45614">
        <ele>87</ele>
        <time>2012-08-20T08:16:08.000Z</time>
      </trkpt>
      <trkpt lat="47.51285" lon="-1.45605">
        <ele>85</ele>
        <time>2012-08-20T08:16:09.000Z</time>
      </trkpt>
      <trkpt lat="47.51284" lon="-1.45595">
        <ele>85</ele>
        <time>2012-08-20T08:16:10.000Z</time>
      </trkpt>
      <trkpt lat="47.51282" lon="-1.45586">
        <ele>84</ele>
        <time>2012-08-20T08:16:11.000Z</time>
      </trkpt>
      <trkpt lat="47.51281" lon="-1.45576">
        <ele>82</ele>
        <time>2012-08-20T08:16:12.000Z</time>
      </trkpt>
      <trkpt lat="47.5128" lon="-1.45566">
        <ele>83</ele>
        <time>2012-08-20T08:16:13.000Z</time>
      </trkpt>
      <trkpt lat="47.51279" lon="-1.45557">
        <ele>82</ele>
        <time>2012-08-20T08:16:14.000Z</time>
      </trkpt>
      <trkpt lat="47.51277" lon="-1.45547">
        <ele>81</ele>
        <time>2012-08-20T08:16:15.000Z</time>
      </trkpt>
      <trkpt lat="47.51277" lon="-1.45537">
        <ele>83</ele>
        <time>2012-08-20T08:16:16.000Z</time>
      </trkpt>
      <trkpt lat="47.51276" lon="-1.45528">
        <ele>81</ele>
        <time>2012-08-20T08:16:17.000Z</time>
      </trkpt>
      <trkpt lat="47.51278" lon="-1.45519">
        <ele>77</ele>
        <time>2012-08-20T08:16:18.000Z</time>
      </trkpt>
      <trkpt lat="47.51279" lon="-1.4551">
        <ele>77</ele>
        <time>2012-08-20T08:16:19.000Z</time>
      </trkpt>
      <trkpt lat="47.5128" lon="-1.455">
        <ele>79</ele>
        <time>2012-08-20T08:16:20.000Z</time>
      </trkpt>
      <trkpt lat="47.51282" lon="-1.4549">
        <ele>82</ele>
        <time>2012-08-20T08:16:21.000Z</time>
      </trkpt>
      <trkpt lat="47.51284" lon="-1.45482">
        <ele>82</ele>
        <time>2012-08-20T08:16:22.000Z</time>
      </trkpt>
      <trkpt lat="47.51286" lon="-1.45472">
        <ele>83</ele>
        <time>2012-08-20T08:16:23.000Z</time>
      </trkpt>
      <trkpt lat="47.51287" lon="-1.45462">
        <ele>83</ele>
        <time>2012-08-20T08:16:24.000Z</time>
      </trkpt>
      <trkpt lat="47.51289" lon="-1.45452">
        <ele>84</ele>
        <time>2012-08-20T08:16:25.000Z</time>
      </trkpt>
      <trkpt lat="47.5129" lon="-1.45441">
        <ele>84</ele>
        <time>2012-08-20T08:16:26.000Z</time>
      </trkpt>
      <trkpt lat="47.51292" lon="-1.4543">
        <ele>83</ele>
        <time>2012-08-20T08:16:27.000Z</time>
      </trkpt>
      <trkpt lat="47.51294" lon="-1.4542">
        <ele>82</ele>
        <time>2012-08-20T08:16:28.000Z</time>
      </trkpt>
      <trkpt lat="47.51296" lon="-1.45408">
        <ele>82</ele>
        <time>2012-08-20T08:16:29.000Z</time>
      </trkpt>
      <trkpt lat="47.51297" lon="-1.45397">
        <ele>83</ele>
        <time>2012-08-20T08:16:30.000Z</time>
      </trkpt>
      <trkpt lat="47.51299" lon="-1.45387">
        <ele>80</ele>
        <time>2012-08-20T08:16:31.000Z</time>
      </trkpt>
      <trkpt lat="47.51301" lon="-1.45377">
        <ele>80</ele>
        <time>2012-08-20T08:16:32.000Z</time>
      </trkpt>
      <trkpt lat="47.51302" lon="-1.45367">
        <ele>81</ele>
        <time>2012-08-20T08:16:33.000Z</time>
      </trkpt>
      <trkpt lat="47.51304" lon="-1.45357">
        <ele>80</ele>
        <time>2012-08-20T08:16:34.000Z</time>
      </trkpt>
      <trkpt lat="47.51305" lon="-1.45348">
        <ele>78</ele>
        <time>2012-08-20T08:16:35.000Z</time>
      </trkpt>
      <trkpt lat="47.51307" lon="-1.45338">
        <ele>77</ele>
        <time>2012-08-20T08:16:36.000Z</time>
      </trkpt>
      <trkpt lat="47.51308" lon="-1.45329">
        <ele>76</ele>
        <time>2012-08-20T08:16:37.000Z</time>
      </trkpt>
      <trkpt lat="47.5131" lon="-1.45318">
        <ele>77</ele>
        <time>2012-08-20T08:16:38.000Z</time>
      </trkpt>
      <trkpt lat="47.51312" lon="-1.45308">
        <ele>80</ele>
        <time>2012-08-20T08:16:39.000Z</time>
      </trkpt>
      <trkpt lat="47.51313" lon="-1.45299">
        <ele>80</ele>
        <time>2012-08-20T08:16:40.000Z</time>
      </trkpt>
      <trkpt lat="47.51315" lon="-1.4529">
        <ele>76</ele>
        <time>2012-08-20T08:16:41.000Z</time>
      </trkpt>
      <trkpt lat="47.51317" lon="-1.4528">
        <ele>77</ele>
        <time>2012-08-20T08:16:42.000Z</time>
      </trkpt>
      <trkpt lat="47.51319" lon="-1.4527">
        <ele>78</ele>
        <time>2012-08-20T08:16:43.000Z</time>
      </trkpt>
      <trkpt lat="47.5132" lon="-1.4526">
        <ele>77</ele>
        <time>2012-08-20T08:16:44.000Z</time>
      </trkpt>
      <trkpt lat="47.51322" lon="-1.4525">
        <ele>77</ele>
        <time>2012-08-20T08:16:45.000Z</time>
      </trkpt>
      <trkpt lat="47.51324" lon="-1.4524">
        <ele>77</ele>
        <time>2012-08-20T08:16:46.000Z</time>
      </trkpt>
      <trkpt lat="47.51325" lon="-1.45231">
        <ele>77</ele>
        <time>2012-08-20T08:16:47.000Z</time>
      </trkpt>
      <trkpt lat="47.51327" lon="-1.45222">
        <ele>77</ele>
        <time>2012-08-20T08:16:48.000Z</time>
      </trkpt>
      <trkpt lat="47.51328" lon="-1.45212">
        <ele>77</ele>
        <time>2012-08-20T08:16:49.000Z</time>
      </trkpt>
      <trkpt lat="47.51329" lon="-1.45204">
        <ele>76</ele>
        <time>2012-08-20T08:16:50.000Z</time>
      </trkpt>
      <trkpt lat="47.51331" lon="-1.45196">
        <ele>77</ele>
        <time>2012-08-20T08:16:51.000Z</time>
      </trkpt>
      <trkpt lat="47.51332" lon="-1.45188">
        <ele>77</ele>
        <time>2012-08-20T08:16:52.000Z</time>
      </trkpt>
      <trkpt lat="47.51333" lon="-1.4518">
        <ele>78</ele>
        <time>2012-08-20T08:16:53.000Z</time>
      </trkpt>
      <trkpt lat="47.51334" lon="-1.45171">
        <ele>76</ele>
        <time>2012-08-20T08:16:54.000Z</time>
      </trkpt>
      <trkpt lat="47.51336" lon="-1.45162">
        <ele>77</ele>
        <time>2012-08-20T08:16:55.000Z</time>
      </trkpt>
      <trkpt lat="47.51337" lon="-1.45153">
        <ele>75</ele>
        <time>2012-08-20T08:16:56.000Z</time>
      </trkpt>
      <trkpt lat="47.51338" lon="-1.45144">
        <ele>74</ele>
        <time>2012-08-20T08:16:57.000Z</time>
      </trkpt>
      <trkpt lat="47.51339" lon="-1.45135">
        <ele>73</ele>
        <time>2012-08-20T08:16:58.000Z</time>
      </trkpt>
      <trkpt lat="47.5134" lon="-1.45125">
        <ele>73</ele>
        <time>2012-08-20T08:16:59.000Z</time>
      </trkpt>
      <trkpt lat="47.51341" lon="-1.45117">
        <ele>78</ele>
        <time>2012-08-20T08:17:00.000Z</time>
      </trkpt>
      <trkpt lat="47.51343" lon="-1.45108">
        <ele>79</ele>
        <time>2012-08-20T08:17:01.000Z</time>
      </trkpt>
      <trkpt lat="47.51345" lon="-1.451">
        <ele>78</ele>
        <time>2012-08-20T08:17:02.000Z</time>
      </trkpt>
      <trkpt lat="47.51348" lon="-1.45093">
        <ele>77</ele>
        <time>2012-08-20T08:17:03.000Z</time>
      </trkpt>
      <trkpt lat="47.51351" lon="-1.45087">
        <ele>76</ele>
        <time>2012-08-20T08:17:04.000Z</time>
      </trkpt>
      <trkpt lat="47.51354" lon="-1.45076">
        <ele>76</ele>
        <time>2012-08-20T08:17:06.000Z</time>
      </trkpt>
      <trkpt lat="47.51355" lon="-1.45065">
        <ele>77</ele>
        <time>2012-08-20T08:17:08.000Z</time>
      </trkpt>
      <trkpt lat="47.51356" lon="-1.45054">
        <ele>78</ele>
        <time>2012-08-20T08:17:10.000Z</time>
      </trkpt>
      <trkpt lat="47.51358" lon="-1.45047">
        <ele>78</ele>
        <time>2012-08-20T08:17:12.000Z</time>
      </trkpt>
      <trkpt lat="47.5136" lon="-1.4504">
        <ele>77</ele>
        <time>2012-08-20T08:17:14.000Z</time>
      </trkpt>
      <trkpt lat="47.51363" lon="-1.45029">
        <ele>79</ele>
        <time>2012-08-20T08:17:16.000Z</time>
      </trkpt>
      <trkpt lat="47.51365" lon="-1.45017">
        <ele>76</ele>
        <time>2012-08-20T08:17:18.000Z</time>
      </trkpt>
      <trkpt lat="47.51367" lon="-1.45005">
        <ele>78</ele>
        <time>2012-08-20T08:17:20.000Z</time>
      </trkpt>
      <trkpt lat="47.51368" lon="-1.44993">
        <ele>79</ele>
        <time>2012-08-20T08:17:22.000Z</time>
      </trkpt>
      <trkpt lat="47.51368" lon="-1.44981">
        <ele>77</ele>
        <time>2012-08-20T08:17:24.000Z</time>
      </trkpt>
      <trkpt lat="47.5137" lon="-1.4497">
        <ele>76</ele>
        <time>2012-08-20T08:17:26.000Z</time>
      </trkpt>
      <trkpt lat="47.5137" lon="-1.44959">
        <ele>75</ele>
        <time>2012-08-20T08:17:28.000Z</time>
      </trkpt>
      <trkpt lat="47.51371" lon="-1.44949">
        <ele>73</ele>
        <time>2012-08-20T08:17:30.000Z</time>
      </trkpt>
      <trkpt lat="47.51371" lon="-1.44939">
        <ele>77</ele>
        <time>2012-08-20T08:17:32.000Z</time>
      </trkpt>
      <trkpt lat="47.5137" lon="-1.44928">
        <ele>75</ele>
        <time>2012-08-20T08:17:34.000Z</time>
      </trkpt>
      <trkpt lat="47.5137" lon="-1.44917">
        <ele>76</ele>
        <time>2012-08-20T08:17:36.000Z</time>
      </trkpt>
      <trkpt lat="47.51368" lon="-1.44905">
        <ele>76</ele>
        <time>2012-08-20T08:17:38.000Z</time>
      </trkpt>
      <trkpt lat="47.51368" lon="-1.44899">
        <ele>76</ele>
        <time>2012-08-20T08:17:39.000Z</time>
      </trkpt>
      <trkpt lat="47.51367" lon="-1.44889">
        <ele>76</ele>
        <time>2012-08-20T08:17:41.000Z</time>
      </trkpt>
      <trkpt lat="47.51366" lon="-1.44882">
        <ele>74</ele>
        <time>2012-08-20T08:17:43.000Z</time>
      </trkpt>
      <trkpt lat="47.51364" lon="-1.44875">
        <ele>78</ele>
        <time>2012-08-20T08:17:46.000Z</time>
      </trkpt>
      <trkpt lat="47.51358" lon="-1.44877">
        <ele>78</ele>
        <time>2012-08-20T08:17:49.000Z</time>
      </trkpt>
      <trkpt lat="47.51353" lon="-1.44876">
        <ele>75</ele>
        <time>2012-08-20T08:17:51.000Z</time>
      </trkpt>
      <trkpt lat="47.51346" lon="-1.44867">
        <ele>80</ele>
        <time>2012-08-20T08:17:53.000Z</time>
      </trkpt>
      <trkpt lat="47.51342" lon="-1.44861">
        <ele>80</ele>
        <time>2012-08-20T08:17:54.000Z</time>
      </trkpt>
      <trkpt lat="47.51339" lon="-1.44854">
        <ele>79</ele>
        <time>2012-08-20T08:17:55.000Z</time>
      </trkpt>
      <trkpt lat="47.51336" lon="-1.44841">
        <ele>80</ele>
        <time>2012-08-20T08:17:57.000Z</time>
      </trkpt>
      <trkpt lat="47.51334" lon="-1.44834">
        <ele>77</ele>
        <time>2012-08-20T08:17:58.000Z</time>
      </trkpt>
      <trkpt lat="47.51333" lon="-1.44824">
        <ele>75</ele>
        <time>2012-08-20T08:18:00.000Z</time>
      </trkpt>
      <trkpt lat="47.51332" lon="-1.44813">
        <ele>80</ele>
        <time>2012-08-20T08:18:02.000Z</time>
      </trkpt>
      <trkpt lat="47.51331" lon="-1.44804">
        <ele>81</ele>
        <time>2012-08-20T08:18:04.000Z</time>
      </trkpt>
      <trkpt lat="47.51331" lon="-1.44792">
        <ele>79</ele>
        <time>2012-08-20T08:18:06.000Z</time>
      </trkpt>
      <trkpt lat="47.51331" lon="-1.4478">
        <ele>83</ele>
        <time>2012-08-20T08:18:08.000Z</time>
      </trkpt>
      <trkpt lat="47.51331" lon="-1.4477">
        <ele>79</ele>
        <time>2012-08-20T08:18:10.000Z</time>
      </trkpt>
      <trkpt lat="47.51332" lon="-1.44761">
        <ele>79</ele>
        <time>2012-08-20T08:18:12.000Z</time>
      </trkpt>
      <trkpt lat="47.51333" lon="-1.44753">
        <ele>84</ele>
        <time>2012-08-20T08:18:14.000Z</time>
      </trkpt>
      <trkpt lat="47.51333" lon="-1.44737">
        <ele>84</ele>
        <time>2012-08-20T08:18:18.000Z</time>
      </trkpt>
      <trkpt lat="47.51335" lon="-1.44728">
        <ele>83</ele>
        <time>2012-08-20T08:18:20.000Z</time>
      </trkpt>
      <trkpt lat="47.51336" lon="-1.44715">
        <ele>83</ele>
        <time>2012-08-20T08:18:22.000Z</time>
      </trkpt>
      <trkpt lat="47.51339" lon="-1.44703">
        <ele>85</ele>
        <time>2012-08-20T08:18:24.000Z</time>
      </trkpt>
      <trkpt lat="47.5134" lon="-1.44696">
        <ele>81</ele>
        <time>2012-08-20T08:18:25.000Z</time>
      </trkpt>
      <trkpt lat="47.51341" lon="-1.44683">
        <ele>81</ele>
        <time>2012-08-20T08:18:27.000Z</time>
      </trkpt>
      <trkpt lat="47.51343" lon="-1.44676">
        <ele>81</ele>
        <time>2012-08-20T08:18:28.000Z</time>
      </trkpt>
      <trkpt lat="47.51345" lon="-1.44669">
        <ele>78</ele>
        <time>2012-08-20T08:18:29.000Z</time>
      </trkpt>
      <trkpt lat="47.51348" lon="-1.44659">
        <ele>77</ele>
        <time>2012-08-20T08:18:31.000Z</time>
      </trkpt>
      <trkpt lat="47.51351" lon="-1.44652">
        <ele>81</ele>
        <time>2012-08-20T08:18:32.000Z</time>
      </trkpt>
      <trkpt lat="47.51355" lon="-1.44641">
        <ele>79</ele>
        <time>2012-08-20T08:18:34.000Z</time>
      </trkpt>
      <trkpt lat="47.51358" lon="-1.44634">
        <ele>74</ele>
        <time>2012-08-20T08:18:35.000Z</time>
      </trkpt>
      <trkpt lat="47.51362" lon="-1.44624">
        <ele>79</ele>
        <time>2012-08-20T08:18:37.000Z</time>
      </trkpt>
      <trkpt lat="47.51365" lon="-1.44615">
        <ele>78</ele>
        <time>2012-08-20T08:18:39.000Z</time>
      </trkpt>
      <trkpt lat="47.51363" lon="-1.44604">
        <ele>75</ele>
        <time>2012-08-20T08:18:41.000Z</time>
      </trkpt>
      <trkpt lat="47.51359" lon="-1.44596">
        <ele>77</ele>
        <time>2012-08-20T08:18:43.000Z</time>
      </trkpt>
      <trkpt lat="47.51355" lon="-1.4459">
        <ele>79</ele>
        <time>2012-08-20T08:18:45.000Z</time>
      </trkpt>
      <trkpt lat="47.5135" lon="-1.44583">
        <ele>81</ele>
        <time>2012-08-20T08:18:47.000Z</time>
      </trkpt>
      <trkpt lat="47.51344" lon="-1.44575">
        <ele>80</ele>
        <time>2012-08-20T08:18:49.000Z</time>
      </trkpt>
      <trkpt lat="47.51344" lon="-1.44575">
        <ele>80</ele>
        <time>2012-08-20T08:18:49.000Z</time>
      </trkpt>
      <trkpt lat="47.51344" lon="-1.44575">
        <ele>80</ele>
        <time>2012-08-20T08:18:53.000Z</time>
      </trkpt>
      <trkpt lat="47.51334" lon="-1.44562">
        <ele>77</ele>
        <time>2012-08-20T08:18:54.000Z</time>
      </trkpt>
      <trkpt lat="47.51334" lon="-1.44562">
        <ele>77</ele>
        <time>2012-08-20T08:18:54.000Z</time>
      </trkpt>
      <trkpt lat="47.51334" lon="-1.44562">
        <ele>77</ele>
        <time>2012-08-20T08:18:56.000Z</time>
      </trkpt>
      <trkpt lat="47.51329" lon="-1.44553">
        <ele>76</ele>
        <time>2012-08-20T08:18:57.000Z</time>
      </trkpt>
      <trkpt lat="47.51323" lon="-1.44546">
        <ele>79</ele>
        <time>2012-08-20T08:18:59.000Z</time>
      </trkpt>
      <trkpt lat="47.51323" lon="-1.44546">
        <ele>79</ele>
        <time>2012-08-20T08:18:59.000Z</time>
      </trkpt>
      <trkpt lat="47.51323" lon="-1.44546">
        <ele>79</ele>
        <time>2012-08-20T08:19:01.000Z</time>
      </trkpt>
      <trkpt lat="47.51316" lon="-1.44535">
        <ele>77</ele>
        <time>2012-08-20T08:19:02.000Z</time>
      </trkpt>
      <trkpt lat="47.51313" lon="-1.4453">
        <ele>77</ele>
        <time>2012-08-20T08:19:03.000Z</time>
      </trkpt>
      <trkpt lat="47.51309" lon="-1.44525">
        <ele>79</ele>
        <time>2012-08-20T08:19:04.000Z</time>
      </trkpt>
      <trkpt lat="47.51306" lon="-1.44519">
        <ele>77</ele>
        <time>2012-08-20T08:19:05.000Z</time>
      </trkpt>
      <trkpt lat="47.51302" lon="-1.44513">
        <ele>73</ele>
        <time>2012-08-20T08:19:06.000Z</time>
      </trkpt>
      <trkpt lat="47.513" lon="-1.44506">
        <ele>77</ele>
        <time>2012-08-20T08:19:07.000Z</time>
      </trkpt>
      <trkpt lat="47.51298" lon="-1.44498">
        <ele>76</ele>
        <time>2012-08-20T08:19:08.000Z</time>
      </trkpt>
      <trkpt lat="47.51296" lon="-1.4449">
        <ele>78</ele>
        <time>2012-08-20T08:19:09.000Z</time>
      </trkpt>
      <trkpt lat="47.51294" lon="-1.44481">
        <ele>79</ele>
        <time>2012-08-20T08:19:10.000Z</time>
      </trkpt>
      <trkpt lat="47.51291" lon="-1.44473">
        <ele>77</ele>
        <time>2012-08-20T08:19:11.000Z</time>
      </trkpt>
      <trkpt lat="47.51287" lon="-1.44462">
        <ele>80</ele>
        <time>2012-08-20T08:19:12.000Z</time>
      </trkpt>
      <trkpt lat="47.51283" lon="-1.44448">
        <ele>79</ele>
        <time>2012-08-20T08:19:13.000Z</time>
      </trkpt>
      <trkpt lat="47.5128" lon="-1.44438">
        <ele>81</ele>
        <time>2012-08-20T08:19:14.000Z</time>
      </trkpt>
      <trkpt lat="47.51279" lon="-1.44428">
        <ele>80</ele>
        <time>2012-08-20T08:19:15.000Z</time>
      </trkpt>
      <trkpt lat="47.5128" lon="-1.44421">
        <ele>79</ele>
        <time>2012-08-20T08:19:16.000Z</time>
      </trkpt>
      <trkpt lat="47.5128" lon="-1.44414">
        <ele>82</ele>
        <time>2012-08-20T08:19:17.000Z</time>
      </trkpt>
      <trkpt lat="47.51279" lon="-1.44407">
        <ele>79</ele>
        <time>2012-08-20T08:19:19.000Z</time>
      </trkpt>
      <trkpt lat="47.51279" lon="-1.44397">
        <ele>78</ele>
        <time>2012-08-20T08:19:22.000Z</time>
      </trkpt>
      <trkpt lat="47.51279" lon="-1.44388">
        <ele>77</ele>
        <time>2012-08-20T08:19:24.000Z</time>
      </trkpt>
      <trkpt lat="47.5128" lon="-1.44378">
        <ele>78</ele>
        <time>2012-08-20T08:19:26.000Z</time>
      </trkpt>
      <trkpt lat="47.51282" lon="-1.44369">
        <ele>77</ele>
        <time>2012-08-20T08:19:28.000Z</time>
      </trkpt>
      <trkpt lat="47.51285" lon="-1.44358">
        <ele>77</ele>
        <time>2012-08-20T08:19:30.000Z</time>
      </trkpt>
      <trkpt lat="47.51288" lon="-1.44349">
        <ele>72</ele>
        <time>2012-08-20T08:19:32.000Z</time>
      </trkpt>
      <trkpt lat="47.51294" lon="-1.44341">
        <ele>78</ele>
        <time>2012-08-20T08:19:34.000Z</time>
      </trkpt>
      <trkpt lat="47.51297" lon="-1.44336">
        <ele>80</ele>
        <time>2012-08-20T08:19:35.000Z</time>
      </trkpt>
      <trkpt lat="47.51301" lon="-1.44332">
        <ele>79</ele>
        <time>2012-08-20T08:19:36.000Z</time>
      </trkpt>
      <trkpt lat="47.51305" lon="-1.44328">
        <ele>79</ele>
        <time>2012-08-20T08:19:37.000Z</time>
      </trkpt>
      <trkpt lat="47.51312" lon="-1.44324">
        <ele>77</ele>
        <time>2012-08-20T08:19:39.000Z</time>
      </trkpt>
      <trkpt lat="47.51319" lon="-1.44318">
        <ele>77</ele>
        <time>2012-08-20T08:19:41.000Z</time>
      </trkpt>
      <trkpt lat="47.51324" lon="-1.44316">
        <ele>76</ele>
        <time>2012-08-20T08:19:42.000Z</time>
      </trkpt>
      <trkpt lat="47.51332" lon="-1.4431">
        <ele>74</ele>
        <time>2012-08-20T08:19:44.000Z</time>
      </trkpt>
      <trkpt lat="47.51337" lon="-1.44308">
        <ele>75</ele>
        <time>2012-08-20T08:19:45.000Z</time>
      </trkpt>
      <trkpt lat="47.51342" lon="-1.44305">
        <ele>77</ele>
        <time>2012-08-20T08:19:46.000Z</time>
      </trkpt>
      <trkpt lat="47.51347" lon="-1.44302">
        <ele>75</ele>
        <time>2012-08-20T08:19:47.000Z</time>
      </trkpt>
      <trkpt lat="47.51352" lon="-1.44299">
        <ele>75</ele>
        <time>2012-08-20T08:19:48.000Z</time>
      </trkpt>
      <trkpt lat="47.51357" lon="-1.44296">
        <ele>75</ele>
        <time>2012-08-20T08:19:49.000Z</time>
      </trkpt>
      <trkpt lat="47.51361" lon="-1.44293">
        <ele>76</ele>
        <time>2012-08-20T08:19:50.000Z</time>
      </trkpt>
      <trkpt lat="47.51366" lon="-1.4429">
        <ele>76</ele>
        <time>2012-08-20T08:19:51.000Z</time>
      </trkpt>
      <trkpt lat="47.5137" lon="-1.44287">
        <ele>76</ele>
        <time>2012-08-20T08:19:52.000Z</time>
      </trkpt>
      <trkpt lat="47.51375" lon="-1.44284">
        <ele>75</ele>
        <time>2012-08-20T08:19:53.000Z</time>
      </trkpt>
      <trkpt lat="47.51379" lon="-1.4428">
        <ele>75</ele>
        <time>2012-08-20T08:19:54.000Z</time>
      </trkpt>
      <trkpt lat="47.51383" lon="-1.44276">
        <ele>75</ele>
        <time>2012-08-20T08:19:55.000Z</time>
      </trkpt>
      <trkpt lat="47.51387" lon="-1.44272">
        <ele>76</ele>
        <time>2012-08-20T08:19:56.000Z</time>
      </trkpt>
      <trkpt lat="47.51394" lon="-1.44263">
        <ele>74</ele>
        <time>2012-08-20T08:19:58.000Z</time>
      </trkpt>
      <trkpt lat="47.51397" lon="-1.44258">
        <ele>75</ele>
        <time>2012-08-20T08:19:59.000Z</time>
      </trkpt>
      <trkpt lat="47.514" lon="-1.44252">
        <ele>73</ele>
        <time>2012-08-20T08:20:00.000Z</time>
      </trkpt>
      <trkpt lat="47.51404" lon="-1.44247">
        <ele>75</ele>
        <time>2012-08-20T08:20:01.000Z</time>
      </trkpt>
      <trkpt lat="47.51407" lon="-1.44242">
        <ele>79</ele>
        <time>2012-08-20T08:20:02.000Z</time>
      </trkpt>
      <trkpt lat="47.51413" lon="-1.44233">
        <ele>80</ele>
        <time>2012-08-20T08:20:04.000Z</time>
      </trkpt>
      <trkpt lat="47.5142" lon="-1.44224">
        <ele>78</ele>
        <time>2012-08-20T08:20:06.000Z</time>
      </trkpt>
      <trkpt lat="47.51424" lon="-1.44219">
        <ele>78</ele>
        <time>2012-08-20T08:20:07.000Z</time>
      </trkpt>
      <trkpt lat="47.51427" lon="-1.44214">
        <ele>77</ele>
        <time>2012-08-20T08:20:08.000Z</time>
      </trkpt>
      <trkpt lat="47.51431" lon="-1.44208">
        <ele>75</ele>
        <time>2012-08-20T08:20:09.000Z</time>
      </trkpt>
      <trkpt lat="47.51435" lon="-1.44199">
        <ele>73</ele>
        <time>2012-08-20T08:20:11.000Z</time>
      </trkpt>
      <trkpt lat="47.51439" lon="-1.44187">
        <ele>75</ele>
        <time>2012-08-20T08:20:13.000Z</time>
      </trkpt>
      <trkpt lat="47.51441" lon="-1.4418">
        <ele>75</ele>
        <time>2012-08-20T08:20:14.000Z</time>
      </trkpt>
      <trkpt lat="47.51443" lon="-1.44172">
        <ele>75</ele>
        <time>2012-08-20T08:20:15.000Z</time>
      </trkpt>
      <trkpt lat="47.51445" lon="-1.44163">
        <ele>75</ele>
        <time>2012-08-20T08:20:16.000Z</time>
      </trkpt>
      <trkpt lat="47.51447" lon="-1.44156">
        <ele>74</ele>
        <time>2012-08-20T08:20:17.000Z</time>
      </trkpt>
      <trkpt lat="47.51448" lon="-1.44147">
        <ele>74</ele>
        <time>2012-08-20T08:20:18.000Z</time>
      </trkpt>
      <trkpt lat="47.5145" lon="-1.44139">
        <ele>73</ele>
        <time>2012-08-20T08:20:19.000Z</time>
      </trkpt>
      <trkpt lat="47.51451" lon="-1.4413">
        <ele>75</ele>
        <time>2012-08-20T08:20:20.000Z</time>
      </trkpt>
      <trkpt lat="47.51452" lon="-1.44122">
        <ele>75</ele>
        <time>2012-08-20T08:20:21.000Z</time>
      </trkpt>
      <trkpt lat="47.51453" lon="-1.44114">
        <ele>78</ele>
        <time>2012-08-20T08:20:22.000Z</time>
      </trkpt>
      <trkpt lat="47.51453" lon="-1.44107">
        <ele>77</ele>
        <time>2012-08-20T08:20:23.000Z</time>
      </trkpt>
      <trkpt lat="47.51452" lon="-1.44099">
        <ele>78</ele>
        <time>2012-08-20T08:20:24.000Z</time>
      </trkpt>
      <trkpt lat="47.51452" lon="-1.44092">
        <ele>79</ele>
        <time>2012-08-20T08:20:25.000Z</time>
      </trkpt>
      <trkpt lat="47.51451" lon="-1.44085">
        <ele>81</ele>
        <time>2012-08-20T08:20:26.000Z</time>
      </trkpt>
      <trkpt lat="47.5145" lon="-1.44072">
        <ele>82</ele>
        <time>2012-08-20T08:20:28.000Z</time>
      </trkpt>
      <trkpt lat="47.51448" lon="-1.44058">
        <ele>79</ele>
        <time>2012-08-20T08:20:30.000Z</time>
      </trkpt>
      <trkpt lat="47.51447" lon="-1.44048">
        <ele>77</ele>
        <time>2012-08-20T08:20:31.000Z</time>
      </trkpt>
      <trkpt lat="47.51446" lon="-1.44041">
        <ele>76</ele>
        <time>2012-08-20T08:20:32.000Z</time>
      </trkpt>
      <trkpt lat="47.51446" lon="-1.4403">
        <ele>77</ele>
        <time>2012-08-20T08:20:34.000Z</time>
      </trkpt>
      <trkpt lat="47.51446" lon="-1.44019">
        <ele>76</ele>
        <time>2012-08-20T08:20:36.000Z</time>
      </trkpt>
      <trkpt lat="47.51447" lon="-1.44006">
        <ele>74</ele>
        <time>2012-08-20T08:20:38.000Z</time>
      </trkpt>
      <trkpt lat="47.51448" lon="-1.43999">
        <ele>76</ele>
        <time>2012-08-20T08:20:39.000Z</time>
      </trkpt>
      <trkpt lat="47.51448" lon="-1.43991">
        <ele>75</ele>
        <time>2012-08-20T08:20:40.000Z</time>
      </trkpt>
      <trkpt lat="47.51449" lon="-1.43978">
        <ele>79</ele>
        <time>2012-08-20T08:20:42.000Z</time>
      </trkpt>
      <trkpt lat="47.5145" lon="-1.4397">
        <ele>80</ele>
        <time>2012-08-20T08:20:43.000Z</time>
      </trkpt>
      <trkpt lat="47.51451" lon="-1.43962">
        <ele>80</ele>
        <time>2012-08-20T08:20:44.000Z</time>
      </trkpt>
      <trkpt lat="47.51451" lon="-1.43954">
        <ele>77</ele>
        <time>2012-08-20T08:20:45.000Z</time>
      </trkpt>
      <trkpt lat="47.51452" lon="-1.43947">
        <ele>77</ele>
        <time>2012-08-20T08:20:46.000Z</time>
      </trkpt>
      <trkpt lat="47.51453" lon="-1.43932">
        <ele>73</ele>
        <time>2012-08-20T08:20:48.000Z</time>
      </trkpt>
      <trkpt lat="47.51454" lon="-1.43925">
        <ele>72</ele>
        <time>2012-08-20T08:20:49.000Z</time>
      </trkpt>
      <trkpt lat="47.51455" lon="-1.43918">
        <ele>74</ele>
        <time>2012-08-20T08:20:50.000Z</time>
      </trkpt>
      <trkpt lat="47.51456" lon="-1.43912">
        <ele>74</ele>
        <time>2012-08-20T08:20:51.000Z</time>
      </trkpt>
      <trkpt lat="47.51457" lon="-1.439">
        <ele>76</ele>
        <time>2012-08-20T08:20:53.000Z</time>
      </trkpt>
      <trkpt lat="47.51457" lon="-1.43887">
        <ele>80</ele>
        <time>2012-08-20T08:20:55.000Z</time>
      </trkpt>
      <trkpt lat="47.51457" lon="-1.4388">
        <ele>80</ele>
        <time>2012-08-20T08:20:56.000Z</time>
      </trkpt>
      <trkpt lat="47.51457" lon="-1.43873">
        <ele>79</ele>
        <time>2012-08-20T08:20:57.000Z</time>
      </trkpt>
      <trkpt lat="47.51456" lon="-1.43866">
        <ele>78</ele>
        <time>2012-08-20T08:20:58.000Z</time>
      </trkpt>
      <trkpt lat="47.51457" lon="-1.43853">
        <ele>77</ele>
        <time>2012-08-20T08:21:00.000Z</time>
      </trkpt>
      <trkpt lat="47.51457" lon="-1.43845">
        <ele>77</ele>
        <time>2012-08-20T08:21:01.000Z</time>
      </trkpt>
      <trkpt lat="47.51458" lon="-1.43837">
        <ele>76</ele>
        <time>2012-08-20T08:21:02.000Z</time>
      </trkpt>
      <trkpt lat="47.51459" lon="-1.4383">
        <ele>78</ele>
        <time>2012-08-20T08:21:03.000Z</time>
      </trkpt>
      <trkpt lat="47.5146" lon="-1.43822">
        <ele>75</ele>
        <time>2012-08-20T08:21:04.000Z</time>
      </trkpt>
      <trkpt lat="47.51462" lon="-1.43814">
        <ele>75</ele>
        <time>2012-08-20T08:21:05.000Z</time>
      </trkpt>
      <trkpt lat="47.51464" lon="-1.43808">
        <ele>75</ele>
        <time>2012-08-20T08:21:06.000Z</time>
      </trkpt>
      <trkpt lat="47.51468" lon="-1.43803">
        <ele>73</ele>
        <time>2012-08-20T08:21:07.000Z</time>
      </trkpt>
      <trkpt lat="47.51471" lon="-1.43798">
        <ele>71</ele>
        <time>2012-08-20T08:21:08.000Z</time>
      </trkpt>
      <trkpt lat="47.51479" lon="-1.43793">
        <ele>74</ele>
        <time>2012-08-20T08:21:10.000Z</time>
      </trkpt>
      <trkpt lat="47.51485" lon="-1.43788">
        <ele>72</ele>
        <time>2012-08-20T08:21:12.000Z</time>
      </trkpt>
      <trkpt lat="47.51487" lon="-1.43773">
        <ele>71</ele>
        <time>2012-08-20T08:21:16.000Z</time>
      </trkpt>
      <trkpt lat="47.51484" lon="-1.43767">
        <ele>76</ele>
        <time>2012-08-20T08:21:19.000Z</time>
      </trkpt>
      <trkpt lat="47.51477" lon="-1.43758">
        <ele>79</ele>
        <time>2012-08-20T08:21:23.000Z</time>
      </trkpt>
      <trkpt lat="47.51474" lon="-1.43752">
        <ele>80</ele>
        <time>2012-08-20T08:21:25.000Z</time>
      </trkpt>
      <trkpt lat="47.5147" lon="-1.43742">
        <ele>80</ele>
        <time>2012-08-20T08:21:27.000Z</time>
      </trkpt>
      <trkpt lat="47.51468" lon="-1.43735">
        <ele>80</ele>
        <time>2012-08-20T08:21:28.000Z</time>
      </trkpt>
      <trkpt lat="47.51467" lon="-1.43726">
        <ele>81</ele>
        <time>2012-08-20T08:21:29.000Z</time>
      </trkpt>
      <trkpt lat="47.51467" lon="-1.43719">
        <ele>84</ele>
        <time>2012-08-20T08:21:30.000Z</time>
      </trkpt>
      <trkpt lat="47.51466" lon="-1.43712">
        <ele>84</ele>
        <time>2012-08-20T08:21:31.000Z</time>
      </trkpt>
      <trkpt lat="47.51467" lon="-1.437">
        <ele>81</ele>
        <time>2012-08-20T08:21:33.000Z</time>
      </trkpt>
      <trkpt lat="47.51468" lon="-1.43693">
        <ele>79</ele>
        <time>2012-08-20T08:21:34.000Z</time>
      </trkpt>
      <trkpt lat="47.51469" lon="-1.43686">
        <ele>79</ele>
        <time>2012-08-20T08:21:35.000Z</time>
      </trkpt>
      <trkpt lat="47.51472" lon="-1.4368">
        <ele>78</ele>
        <time>2012-08-20T08:21:36.000Z</time>
      </trkpt>
      <trkpt lat="47.51474" lon="-1.43674">
        <ele>75</ele>
        <time>2012-08-20T08:21:37.000Z</time>
      </trkpt>
      <trkpt lat="47.51476" lon="-1.43669">
        <ele>77</ele>
        <time>2012-08-20T08:21:38.000Z</time>
      </trkpt>
      <trkpt lat="47.51479" lon="-1.43662">
        <ele>79</ele>
        <time>2012-08-20T08:21:39.000Z</time>
      </trkpt>
      <trkpt lat="47.51482" lon="-1.43655">
        <ele>77</ele>
        <time>2012-08-20T08:21:40.000Z</time>
      </trkpt>
      <trkpt lat="47.51484" lon="-1.43648">
        <ele>77</ele>
        <time>2012-08-20T08:21:41.000Z</time>
      </trkpt>
      <trkpt lat="47.51489" lon="-1.43636">
        <ele>76</ele>
        <time>2012-08-20T08:21:43.000Z</time>
      </trkpt>
      <trkpt lat="47.51495" lon="-1.43619">
        <ele>75</ele>
        <time>2012-08-20T08:21:49.000Z</time>
      </trkpt>
      <trkpt lat="47.51495" lon="-1.43619">
        <ele>75</ele>
        <time>2012-08-20T08:21:49.000Z</time>
      </trkpt>
      <trkpt lat="47.51495" lon="-1.43619">
        <ele>75</ele>
        <time>2012-08-20T08:21:54.000Z</time>
      </trkpt>
      <trkpt lat="47.51502" lon="-1.43611">
        <ele>76</ele>
        <time>2012-08-20T08:21:55.000Z</time>
      </trkpt>
      <trkpt lat="47.51504" lon="-1.43604">
        <ele>74</ele>
        <time>2012-08-20T08:22:04.000Z</time>
      </trkpt>
      <trkpt lat="47.51506" lon="-1.43597">
        <ele>74</ele>
        <time>2012-08-20T08:22:07.000Z</time>
      </trkpt>
      <trkpt lat="47.51509" lon="-1.43591">
        <ele>73</ele>
        <time>2012-08-20T08:22:10.000Z</time>
      </trkpt>
      <trkpt lat="47.51512" lon="-1.43584">
        <ele>72</ele>
        <time>2012-08-20T08:22:12.000Z</time>
      </trkpt>
      <trkpt lat="47.51515" lon="-1.43576">
        <ele>76</ele>
        <time>2012-08-20T08:22:14.000Z</time>
      </trkpt>
      <trkpt lat="47.5152" lon="-1.43568">
        <ele>74</ele>
        <time>2012-08-20T08:22:16.000Z</time>
      </trkpt>
      <trkpt lat="47.51524" lon="-1.43561">
        <ele>80</ele>
        <time>2012-08-20T08:22:18.000Z</time>
      </trkpt>
      <trkpt lat="47.51528" lon="-1.43555">
        <ele>78</ele>
        <time>2012-08-20T08:22:20.000Z</time>
      </trkpt>
      <trkpt lat="47.51531" lon="-1.43549">
        <ele>78</ele>
        <time>2012-08-20T08:22:22.000Z</time>
      </trkpt>
      <trkpt lat="47.51536" lon="-1.43542">
        <ele>78</ele>
        <time>2012-08-20T08:22:24.000Z</time>
      </trkpt>
      <trkpt lat="47.51539" lon="-1.43532">
        <ele>77</ele>
        <time>2012-08-20T08:22:26.000Z</time>
      </trkpt>
      <trkpt lat="47.51541" lon="-1.4352">
        <ele>74</ele>
        <time>2012-08-20T08:22:28.000Z</time>
      </trkpt>
      <trkpt lat="47.51542" lon="-1.43514">
        <ele>72</ele>
        <time>2012-08-20T08:22:29.000Z</time>
      </trkpt>
      <trkpt lat="47.51544" lon="-1.43502">
        <ele>72</ele>
        <time>2012-08-20T08:22:31.000Z</time>
      </trkpt>
      <trkpt lat="47.51547" lon="-1.43492">
        <ele>76</ele>
        <time>2012-08-20T08:22:33.000Z</time>
      </trkpt>
      <trkpt lat="47.51549" lon="-1.43483">
        <ele>71</ele>
        <time>2012-08-20T08:22:35.000Z</time>
      </trkpt>
      <trkpt lat="47.51554" lon="-1.43473">
        <ele>73</ele>
        <time>2012-08-20T08:22:37.000Z</time>
      </trkpt>
      <trkpt lat="47.51558" lon="-1.43464">
        <ele>76</ele>
        <time>2012-08-20T08:22:39.000Z</time>
      </trkpt>
      <trkpt lat="47.51562" lon="-1.43455">
        <ele>74</ele>
        <time>2012-08-20T08:22:41.000Z</time>
      </trkpt>
      <trkpt lat="47.51566" lon="-1.43445">
        <ele>75</ele>
        <time>2012-08-20T08:22:43.000Z</time>
      </trkpt>
      <trkpt lat="47.5157" lon="-1.43435">
        <ele>75</ele>
        <time>2012-08-20T08:22:45.000Z</time>
      </trkpt>
      <trkpt lat="47.51572" lon="-1.43429">
        <ele>73</ele>
        <time>2012-08-20T08:22:46.000Z</time>
      </trkpt>
      <trkpt lat="47.51577" lon="-1.43418">
        <ele>73</ele>
        <time>2012-08-20T08:22:48.000Z</time>
      </trkpt>
      <trkpt lat="47.51581" lon="-1.43408">
        <ele>76</ele>
        <time>2012-08-20T08:22:50.000Z</time>
      </trkpt>
      <trkpt lat="47.51584" lon="-1.434">
        <ele>74</ele>
        <time>2012-08-20T08:22:52.000Z</time>
      </trkpt>
      <trkpt lat="47.51585" lon="-1.43386">
        <ele>76</ele>
        <time>2012-08-20T08:22:54.000Z</time>
      </trkpt>
      <trkpt lat="47.51585" lon="-1.43378">
        <ele>78</ele>
        <time>2012-08-20T08:22:55.000Z</time>
      </trkpt>
      <trkpt lat="47.51586" lon="-1.43371">
        <ele>78</ele>
        <time>2012-08-20T08:22:56.000Z</time>
      </trkpt>
      <trkpt lat="47.51586" lon="-1.4336">
        <ele>77</ele>
        <time>2012-08-20T08:22:58.000Z</time>
      </trkpt>
      <trkpt lat="47.51585" lon="-1.43351">
        <ele>78</ele>
        <time>2012-08-20T08:23:00.000Z</time>
      </trkpt>
      <trkpt lat="47.51586" lon="-1.43343">
        <ele>78</ele>
        <time>2012-08-20T08:23:02.000Z</time>
      </trkpt>
      <trkpt lat="47.51586" lon="-1.43334">
        <ele>76</ele>
        <time>2012-08-20T08:23:04.000Z</time>
      </trkpt>
      <trkpt lat="47.51587" lon="-1.43323">
        <ele>76</ele>
        <time>2012-08-20T08:23:06.000Z</time>
      </trkpt>
      <trkpt lat="47.51588" lon="-1.43312">
        <ele>79</ele>
        <time>2012-08-20T08:23:08.000Z</time>
      </trkpt>
      <trkpt lat="47.51587" lon="-1.43301">
        <ele>78</ele>
        <time>2012-08-20T08:23:10.000Z</time>
      </trkpt>
      <trkpt lat="47.51588" lon="-1.43291">
        <ele>77</ele>
        <time>2012-08-20T08:23:12.000Z</time>
      </trkpt>
      <trkpt lat="47.51588" lon="-1.43284">
        <ele>76</ele>
        <time>2012-08-20T08:23:13.000Z</time>
      </trkpt>
      <trkpt lat="47.51586" lon="-1.43272">
        <ele>77</ele>
        <time>2012-08-20T08:23:15.000Z</time>
      </trkpt>
      <trkpt lat="47.51585" lon="-1.43259">
        <ele>75</ele>
        <time>2012-08-20T08:23:17.000Z</time>
      </trkpt>
      <trkpt lat="47.51585" lon="-1.43246">
        <ele>72</ele>
        <time>2012-08-20T08:23:19.000Z</time>
      </trkpt>
      <trkpt lat="47.51585" lon="-1.4324">
        <ele>75</ele>
        <time>2012-08-20T08:23:20.000Z</time>
      </trkpt>
      <trkpt lat="47.51584" lon="-1.4323">
        <ele>76</ele>
        <time>2012-08-20T08:23:22.000Z</time>
      </trkpt>
      <trkpt lat="47.51584" lon="-1.43222">
        <ele>72</ele>
        <time>2012-08-20T08:23:31.000Z</time>
      </trkpt>
      <trkpt lat="47.51583" lon="-1.43214">
        <ele>70</ele>
        <time>2012-08-20T08:23:35.000Z</time>
      </trkpt>
      <trkpt lat="47.51582" lon="-1.43206">
        <ele>71</ele>
        <time>2012-08-20T08:23:38.000Z</time>
      </trkpt>
      <trkpt lat="47.51581" lon="-1.43196">
        <ele>71</ele>
        <time>2012-08-20T08:23:40.000Z</time>
      </trkpt>
      <trkpt lat="47.5158" lon="-1.43184">
        <ele>75</ele>
        <time>2012-08-20T08:23:42.000Z</time>
      </trkpt>
      <trkpt lat="47.5158" lon="-1.43174">
        <ele>75</ele>
        <time>2012-08-20T08:23:44.000Z</time>
      </trkpt>
      <trkpt lat="47.51578" lon="-1.4316">
        <ele>74</ele>
        <time>2012-08-20T08:23:46.000Z</time>
      </trkpt>
      <trkpt lat="47.51577" lon="-1.43147">
        <ele>74</ele>
        <time>2012-08-20T08:23:48.000Z</time>
      </trkpt>
      <trkpt lat="47.51577" lon="-1.43139">
        <ele>78</ele>
        <time>2012-08-20T08:23:49.000Z</time>
      </trkpt>
      <trkpt lat="47.51576" lon="-1.43132">
        <ele>78</ele>
        <time>2012-08-20T08:23:50.000Z</time>
      </trkpt>
      <trkpt lat="47.51575" lon="-1.4312">
        <ele>79</ele>
        <time>2012-08-20T08:23:52.000Z</time>
      </trkpt>
      <trkpt lat="47.51576" lon="-1.43114">
        <ele>77</ele>
        <time>2012-08-20T08:23:53.000Z</time>
      </trkpt>
      <trkpt lat="47.51577" lon="-1.431">
        <ele>76</ele>
        <time>2012-08-20T08:23:55.000Z</time>
      </trkpt>
      <trkpt lat="47.51579" lon="-1.43089">
        <ele>73</ele>
        <time>2012-08-20T08:23:57.000Z</time>
      </trkpt>
      <trkpt lat="47.51582" lon="-1.43077">
        <ele>73</ele>
        <time>2012-08-20T08:23:59.000Z</time>
      </trkpt>
      <trkpt lat="47.51586" lon="-1.43065">
        <ele>70</ele>
        <time>2012-08-20T08:24:01.000Z</time>
      </trkpt>
      <trkpt lat="47.51588" lon="-1.43058">
        <ele>69</ele>
        <time>2012-08-20T08:24:02.000Z</time>
      </trkpt>
      <trkpt lat="47.5159" lon="-1.43052">
        <ele>71</ele>
        <time>2012-08-20T08:24:03.000Z</time>
      </trkpt>
      <trkpt lat="47.51593" lon="-1.43042">
        <ele>72</ele>
        <time>2012-08-20T08:24:05.000Z</time>
      </trkpt>
      <trkpt lat="47.51598" lon="-1.43033">
        <ele>77</ele>
        <time>2012-08-20T08:24:07.000Z</time>
      </trkpt>
      <trkpt lat="47.51602" lon="-1.43024">
        <ele>73</ele>
        <time>2012-08-20T08:24:09.000Z</time>
      </trkpt>
      <trkpt lat="47.51606" lon="-1.43016">
        <ele>73</ele>
        <time>2012-08-20T08:24:11.000Z</time>
      </trkpt>
      <trkpt lat="47.51611" lon="-1.4301">
        <ele>71</ele>
        <time>2012-08-20T08:24:13.000Z</time>
      </trkpt>
      <trkpt lat="47.51618" lon="-1.43006">
        <ele>73</ele>
        <time>2012-08-20T08:24:15.000Z</time>
      </trkpt>
      <trkpt lat="47.51623" lon="-1.43001">
        <ele>73</ele>
        <time>2012-08-20T08:24:17.000Z</time>
      </trkpt>
      <trkpt lat="47.51626" lon="-1.42996">
        <ele>72</ele>
        <time>2012-08-20T08:24:19.000Z</time>
      </trkpt>
      <trkpt lat="47.5163" lon="-1.42991">
        <ele>71</ele>
        <time>2012-08-20T08:24:22.000Z</time>
      </trkpt>
      <trkpt lat="47.51634" lon="-1.42988">
        <ele>70</ele>
        <time>2012-08-20T08:24:48.000Z</time>
      </trkpt>
      <trkpt lat="47.51639" lon="-1.42986">
        <ele>75</ele>
        <time>2012-08-20T08:24:51.000Z</time>
      </trkpt>
      <trkpt lat="47.51646" lon="-1.42988">
        <ele>74</ele>
        <time>2012-08-20T08:24:54.000Z</time>
      </trkpt>
      <trkpt lat="47.51652" lon="-1.42989">
        <ele>74</ele>
        <time>2012-08-20T08:24:57.000Z</time>
      </trkpt>
      <trkpt lat="47.51656" lon="-1.4299">
        <ele>78</ele>
        <time>2012-08-20T08:24:59.000Z</time>
      </trkpt>
      <trkpt lat="47.51661" lon="-1.4299">
        <ele>76</ele>
        <time>2012-08-20T08:25:01.000Z</time>
      </trkpt>
      <trkpt lat="47.51667" lon="-1.42988">
        <ele>77</ele>
        <time>2012-08-20T08:25:03.000Z</time>
      </trkpt>
      <trkpt lat="47.51675" lon="-1.42988">
        <ele>79</ele>
        <time>2012-08-20T08:25:05.000Z</time>
      </trkpt>
      <trkpt lat="47.51681" lon="-1.42989">
        <ele>77</ele>
        <time>2012-08-20T08:25:07.000Z</time>
      </trkpt>
      <trkpt lat="47.51688" lon="-1.42988">
        <ele>76</ele>
        <time>2012-08-20T08:25:09.000Z</time>
      </trkpt>
      <trkpt lat="47.51695" lon="-1.42988">
        <ele>77</ele>
        <time>2012-08-20T08:25:11.000Z</time>
      </trkpt>
      <trkpt lat="47.51701" lon="-1.42987">
        <ele>79</ele>
        <time>2012-08-20T08:25:13.000Z</time>
      </trkpt>
      <trkpt lat="47.51709" lon="-1.42988">
        <ele>81</ele>
        <time>2012-08-20T08:25:15.000Z</time>
      </trkpt>
      <trkpt lat="47.51714" lon="-1.42987">
        <ele>77</ele>
        <time>2012-08-20T08:25:17.000Z</time>
      </trkpt>
      <trkpt lat="47.5172" lon="-1.42988">
        <ele>81</ele>
        <time>2012-08-20T08:25:19.000Z</time>
      </trkpt>
      <trkpt lat="47.51725" lon="-1.42988">
        <ele>79</ele>
        <time>2012-08-20T08:25:21.000Z</time>
      </trkpt>
      <trkpt lat="47.51732" lon="-1.4299">
        <ele>77</ele>
        <time>2012-08-20T08:25:23.000Z</time>
      </trkpt>
      <trkpt lat="47.51737" lon="-1.4299">
        <ele>75</ele>
        <time>2012-08-20T08:25:25.000Z</time>
      </trkpt>
      <trkpt lat="47.51742" lon="-1.42991">
        <ele>79</ele>
        <time>2012-08-20T08:25:27.000Z</time>
      </trkpt>
      <trkpt lat="47.51744" lon="-1.42984">
        <ele>78</ele>
        <time>2012-08-20T08:25:30.000Z</time>
      </trkpt>
      <trkpt lat="47.51743" lon="-1.42977">
        <ele>80</ele>
        <time>2012-08-20T08:25:33.000Z</time>
      </trkpt>
      <trkpt lat="47.51744" lon="-1.4297">
        <ele>79</ele>
        <time>2012-08-20T08:25:37.000Z</time>
      </trkpt>
      <trkpt lat="47.51746" lon="-1.42962">
        <ele>76</ele>
        <time>2012-08-20T08:25:40.000Z</time>
      </trkpt>
      <trkpt lat="47.51749" lon="-1.42953">
        <ele>76</ele>
        <time>2012-08-20T08:25:43.000Z</time>
      </trkpt>
      <trkpt lat="47.51749" lon="-1.42943">
        <ele>77</ele>
        <time>2012-08-20T08:25:46.000Z</time>
      </trkpt>
      <trkpt lat="47.51749" lon="-1.42936">
        <ele>85</ele>
        <time>2012-08-20T08:25:49.000Z</time>
      </trkpt>
      <trkpt lat="47.5175" lon="-1.42927">
        <ele>80</ele>
        <time>2012-08-20T08:25:53.000Z</time>
      </trkpt>
      <trkpt lat="47.5175" lon="-1.42919">
        <ele>81</ele>
        <time>2012-08-20T08:25:56.000Z</time>
      </trkpt>
      <trkpt lat="47.5175" lon="-1.42912">
        <ele>82</ele>
        <time>2012-08-20T08:25:58.000Z</time>
      </trkpt>
      <trkpt lat="47.51751" lon="-1.42905">
        <ele>88</ele>
        <time>2012-08-20T08:26:01.000Z</time>
      </trkpt>
      <trkpt lat="47.51751" lon="-1.42897">
        <ele>89</ele>
        <time>2012-08-20T08:26:04.000Z</time>
      </trkpt>
      <trkpt lat="47.51751" lon="-1.4289">
        <ele>89</ele>
        <time>2012-08-20T08:26:06.000Z</time>
      </trkpt>
      <trkpt lat="47.51751" lon="-1.42881">
        <ele>90</ele>
        <time>2012-08-20T08:26:09.000Z</time>
      </trkpt>
      <trkpt lat="47.51752" lon="-1.42874">
        <ele>85</ele>
        <time>2012-08-20T08:26:12.000Z</time>
      </trkpt>
      <trkpt lat="47.51756" lon="-1.42868">
        <ele>79</ele>
        <time>2012-08-20T08:26:17.000Z</time>
      </trkpt>
      <trkpt lat="47.51762" lon="-1.42867">
        <ele>83</ele>
        <time>2012-08-20T08:26:21.000Z</time>
      </trkpt>
      <trkpt lat="47.51767" lon="-1.42867">
        <ele>80</ele>
        <time>2012-08-20T08:26:24.000Z</time>
      </trkpt>
      <trkpt lat="47.51773" lon="-1.42867">
        <ele>79</ele>
        <time>2012-08-20T08:26:27.000Z</time>
      </trkpt>
      <trkpt lat="47.51778" lon="-1.42865">
        <ele>66</ele>
        <time>2012-08-20T08:26:40.000Z</time>
      </trkpt>
      <trkpt lat="47.51783" lon="-1.42865">
        <ele>81</ele>
        <time>2012-08-20T08:27:16.000Z</time>
      </trkpt>
      <trkpt lat="47.5179" lon="-1.42865">
        <ele>82</ele>
        <time>2012-08-20T08:27:19.000Z</time>
      </trkpt>
      <trkpt lat="47.51795" lon="-1.42864">
        <ele>83</ele>
        <time>2012-08-20T08:27:21.000Z</time>
      </trkpt>
      <trkpt lat="47.518" lon="-1.42863">
        <ele>82</ele>
        <time>2012-08-20T08:27:23.000Z</time>
      </trkpt>
      <trkpt lat="47.51804" lon="-1.42862">
        <ele>82</ele>
        <time>2012-08-20T08:27:25.000Z</time>
      </trkpt>
      <trkpt lat="47.51809" lon="-1.42862">
        <ele>84</ele>
        <time>2012-08-20T08:27:27.000Z</time>
      </trkpt>
      <trkpt lat="47.51814" lon="-1.42861">
        <ele>79</ele>
        <time>2012-08-20T08:27:29.000Z</time>
      </trkpt>
      <trkpt lat="47.51819" lon="-1.4286">
        <ele>80</ele>
        <time>2012-08-20T08:27:31.000Z</time>
      </trkpt>
      <trkpt lat="47.51826" lon="-1.42859">
        <ele>84</ele>
        <time>2012-08-20T08:27:33.000Z</time>
      </trkpt>
      <trkpt lat="47.51834" lon="-1.42858">
        <ele>84</ele>
        <time>2012-08-20T08:27:35.000Z</time>
      </trkpt>
      <trkpt lat="47.51841" lon="-1.42856">
        <ele>84</ele>
        <time>2012-08-20T08:27:37.000Z</time>
      </trkpt>
      <trkpt lat="47.5185" lon="-1.42854">
        <ele>80</ele>
        <time>2012-08-20T08:27:39.000Z</time>
      </trkpt>
      <trkpt lat="47.51859" lon="-1.42852">
        <ele>84</ele>
        <time>2012-08-20T08:27:41.000Z</time>
      </trkpt>
      <trkpt lat="47.51865" lon="-1.42848">
        <ele>83</ele>
        <time>2012-08-20T08:27:43.000Z</time>
      </trkpt>
      <trkpt lat="47.5187" lon="-1.42842">
        <ele>85</ele>
        <time>2012-08-20T08:27:45.000Z</time>
      </trkpt>
      <trkpt lat="47.51877" lon="-1.42833">
        <ele>81</ele>
        <time>2012-08-20T08:27:47.000Z</time>
      </trkpt>
      <trkpt lat="47.51882" lon="-1.42824">
        <ele>78</ele>
        <time>2012-08-20T08:27:49.000Z</time>
      </trkpt>
      <trkpt lat="47.51886" lon="-1.42815">
        <ele>81</ele>
        <time>2012-08-20T08:27:51.000Z</time>
      </trkpt>
      <trkpt lat="47.5189" lon="-1.42805">
        <ele>81</ele>
        <time>2012-08-20T08:27:53.000Z</time>
      </trkpt>
      <trkpt lat="47.51893" lon="-1.42794">
        <ele>80</ele>
        <time>2012-08-20T08:27:55.000Z</time>
      </trkpt>
      <trkpt lat="47.51896" lon="-1.42784">
        <ele>83</ele>
        <time>2012-08-20T08:27:57.000Z</time>
      </trkpt>
      <trkpt lat="47.51897" lon="-1.42776">
        <ele>82</ele>
        <time>2012-08-20T08:27:58.000Z</time>
      </trkpt>
      <trkpt lat="47.51897" lon="-1.42764">
        <ele>82</ele>
        <time>2012-08-20T08:28:00.000Z</time>
      </trkpt>
      <trkpt lat="47.51897" lon="-1.42751">
        <ele>79</ele>
        <time>2012-08-20T08:28:02.000Z</time>
      </trkpt>
      <trkpt lat="47.51897" lon="-1.42738">
        <ele>80</ele>
        <time>2012-08-20T08:28:04.000Z</time>
      </trkpt>
      <trkpt lat="47.51897" lon="-1.42726">
        <ele>84</ele>
        <time>2012-08-20T08:28:06.000Z</time>
      </trkpt>
      <trkpt lat="47.51897" lon="-1.42712">
        <ele>81</ele>
        <time>2012-08-20T08:28:08.000Z</time>
      </trkpt>
      <trkpt lat="47.51898" lon="-1.42705">
        <ele>82</ele>
        <time>2012-08-20T08:28:09.000Z</time>
      </trkpt>
      <trkpt lat="47.51897" lon="-1.42693">
        <ele>79</ele>
        <time>2012-08-20T08:28:11.000Z</time>
      </trkpt>
      <trkpt lat="47.51897" lon="-1.42681">
        <ele>79</ele>
        <time>2012-08-20T08:28:13.000Z</time>
      </trkpt>
      <trkpt lat="47.51898" lon="-1.42674">
        <ele>76</ele>
        <time>2012-08-20T08:28:14.000Z</time>
      </trkpt>
      <trkpt lat="47.51899" lon="-1.42661">
        <ele>75</ele>
        <time>2012-08-20T08:28:16.000Z</time>
      </trkpt>
      <trkpt lat="47.519" lon="-1.42652">
        <ele>74</ele>
        <time>2012-08-20T08:28:17.000Z</time>
      </trkpt>
      <trkpt lat="47.51902" lon="-1.42643">
        <ele>76</ele>
        <time>2012-08-20T08:28:18.000Z</time>
      </trkpt>
      <trkpt lat="47.51903" lon="-1.42635">
        <ele>75</ele>
        <time>2012-08-20T08:28:19.000Z</time>
      </trkpt>
      <trkpt lat="47.51905" lon="-1.42626">
        <ele>74</ele>
        <time>2012-08-20T08:28:20.000Z</time>
      </trkpt>
      <trkpt lat="47.51906" lon="-1.42616">
        <ele>76</ele>
        <time>2012-08-20T08:28:21.000Z</time>
      </trkpt>
      <trkpt lat="47.51907" lon="-1.42607">
        <ele>77</ele>
        <time>2012-08-20T08:28:22.000Z</time>
      </trkpt>
      <trkpt lat="47.51909" lon="-1.42598">
        <ele>76</ele>
        <time>2012-08-20T08:28:23.000Z</time>
      </trkpt>
      <trkpt lat="47.5191" lon="-1.4259">
        <ele>76</ele>
        <time>2012-08-20T08:28:24.000Z</time>
      </trkpt>
      <trkpt lat="47.51911" lon="-1.42583">
        <ele>76</ele>
        <time>2012-08-20T08:28:25.000Z</time>
      </trkpt>
      <trkpt lat="47.51912" lon="-1.42576">
        <ele>77</ele>
        <time>2012-08-20T08:28:26.000Z</time>
      </trkpt>
      <trkpt lat="47.51912" lon="-1.42569">
        <ele>76</ele>
        <time>2012-08-20T08:28:27.000Z</time>
      </trkpt>
      <trkpt lat="47.51912" lon="-1.42561">
        <ele>77</ele>
        <time>2012-08-20T08:28:28.000Z</time>
      </trkpt>
      <trkpt lat="47.51912" lon="-1.42554">
        <ele>77</ele>
        <time>2012-08-20T08:28:29.000Z</time>
      </trkpt>
      <trkpt lat="47.51914" lon="-1.42545">
        <ele>76</ele>
        <time>2012-08-20T08:28:30.000Z</time>
      </trkpt>
      <trkpt lat="47.51916" lon="-1.42537">
        <ele>77</ele>
        <time>2012-08-20T08:28:31.000Z</time>
      </trkpt>
      <trkpt lat="47.51918" lon="-1.42529">
        <ele>77</ele>
        <time>2012-08-20T08:28:32.000Z</time>
      </trkpt>
      <trkpt lat="47.51919" lon="-1.42522">
        <ele>78</ele>
        <time>2012-08-20T08:28:33.000Z</time>
      </trkpt>
      <trkpt lat="47.51922" lon="-1.42514">
        <ele>81</ele>
        <time>2012-08-20T08:28:34.000Z</time>
      </trkpt>
      <trkpt lat="47.51924" lon="-1.42507">
        <ele>81</ele>
        <time>2012-08-20T08:28:35.000Z</time>
      </trkpt>
      <trkpt lat="47.51926" lon="-1.42501">
        <ele>81</ele>
        <time>2012-08-20T08:28:36.000Z</time>
      </trkpt>
      <trkpt lat="47.51928" lon="-1.42494">
        <ele>82</ele>
        <time>2012-08-20T08:28:37.000Z</time>
      </trkpt>
      <trkpt lat="47.51931" lon="-1.42483">
        <ele>84</ele>
        <time>2012-08-20T08:28:39.000Z</time>
      </trkpt>
      <trkpt lat="47.51934" lon="-1.42472">
        <ele>85</ele>
        <time>2012-08-20T08:28:41.000Z</time>
      </trkpt>
      <trkpt lat="47.51936" lon="-1.42465">
        <ele>85</ele>
        <time>2012-08-20T08:28:42.000Z</time>
      </trkpt>
      <trkpt lat="47.51938" lon="-1.42459">
        <ele>84</ele>
        <time>2012-08-20T08:28:43.000Z</time>
      </trkpt>
      <trkpt lat="47.5194" lon="-1.42452">
        <ele>83</ele>
        <time>2012-08-20T08:28:44.000Z</time>
      </trkpt>
      <trkpt lat="47.51941" lon="-1.42445">
        <ele>84</ele>
        <time>2012-08-20T08:28:45.000Z</time>
      </trkpt>
      <trkpt lat="47.51943" lon="-1.42437">
        <ele>86</ele>
        <time>2012-08-20T08:28:46.000Z</time>
      </trkpt>
      <trkpt lat="47.51944" lon="-1.4243">
        <ele>87</ele>
        <time>2012-08-20T08:28:47.000Z</time>
      </trkpt>
      <trkpt lat="47.51946" lon="-1.42418">
        <ele>85</ele>
        <time>2012-08-20T08:28:49.000Z</time>
      </trkpt>
      <trkpt lat="47.51946" lon="-1.42406">
        <ele>80</ele>
        <time>2012-08-20T08:28:51.000Z</time>
      </trkpt>
      <trkpt lat="47.51945" lon="-1.42396">
        <ele>79</ele>
        <time>2012-08-20T08:28:53.000Z</time>
      </trkpt>
      <trkpt lat="47.51944" lon="-1.42385">
        <ele>81</ele>
        <time>2012-08-20T08:28:55.000Z</time>
      </trkpt>
      <trkpt lat="47.51944" lon="-1.42372">
        <ele>82</ele>
        <time>2012-08-20T08:28:57.000Z</time>
      </trkpt>
      <trkpt lat="47.51945" lon="-1.4236">
        <ele>80</ele>
        <time>2012-08-20T08:28:59.000Z</time>
      </trkpt>
      <trkpt lat="47.51946" lon="-1.42348">
        <ele>82</ele>
        <time>2012-08-20T08:29:01.000Z</time>
      </trkpt>
      <trkpt lat="47.51948" lon="-1.42336">
        <ele>81</ele>
        <time>2012-08-20T08:29:03.000Z</time>
      </trkpt>
      <trkpt lat="47.5195" lon="-1.42326">
        <ele>81</ele>
        <time>2012-08-20T08:29:05.000Z</time>
      </trkpt>
      <trkpt lat="47.51952" lon="-1.42315">
        <ele>80</ele>
        <time>2012-08-20T08:29:07.000Z</time>
      </trkpt>
      <trkpt lat="47.51954" lon="-1.42304">
        <ele>89</ele>
        <time>2012-08-20T08:29:09.000Z</time>
      </trkpt>
      <trkpt lat="47.51956" lon="-1.42294">
        <ele>90</ele>
        <time>2012-08-20T08:29:11.000Z</time>
      </trkpt>
      <trkpt lat="47.51958" lon="-1.42287">
        <ele>87</ele>
        <time>2012-08-20T08:29:12.000Z</time>
      </trkpt>
      <trkpt lat="47.51963" lon="-1.42276">
        <ele>90</ele>
        <time>2012-08-20T08:29:14.000Z</time>
      </trkpt>
      <trkpt lat="47.51966" lon="-1.42265">
        <ele>84</ele>
        <time>2012-08-20T08:29:16.000Z</time>
      </trkpt>
      <trkpt lat="47.51968" lon="-1.42259">
        <ele>84</ele>
        <time>2012-08-20T08:29:17.000Z</time>
      </trkpt>
      <trkpt lat="47.51969" lon="-1.42252">
        <ele>85</ele>
        <time>2012-08-20T08:29:18.000Z</time>
      </trkpt>
      <trkpt lat="47.5197" lon="-1.42244">
        <ele>83</ele>
        <time>2012-08-20T08:29:19.000Z</time>
      </trkpt>
      <trkpt lat="47.51971" lon="-1.42234">
        <ele>81</ele>
        <time>2012-08-20T08:29:20.000Z</time>
      </trkpt>
      <trkpt lat="47.51972" lon="-1.42225">
        <ele>77</ele>
        <time>2012-08-20T08:29:21.000Z</time>
      </trkpt>
      <trkpt lat="47.51972" lon="-1.42217">
        <ele>79</ele>
        <time>2012-08-20T08:29:22.000Z</time>
      </trkpt>
      <trkpt lat="47.51972" lon="-1.42209">
        <ele>80</ele>
        <time>2012-08-20T08:29:23.000Z</time>
      </trkpt>
      <trkpt lat="47.51973" lon="-1.42202">
        <ele>84</ele>
        <time>2012-08-20T08:29:24.000Z</time>
      </trkpt>
      <trkpt lat="47.51973" lon="-1.42195">
        <ele>85</ele>
        <time>2012-08-20T08:29:25.000Z</time>
      </trkpt>
      <trkpt lat="47.51973" lon="-1.42188">
        <ele>83</ele>
        <time>2012-08-20T08:29:26.000Z</time>
      </trkpt>
      <trkpt lat="47.51973" lon="-1.42176">
        <ele>80</ele>
        <time>2012-08-20T08:29:28.000Z</time>
      </trkpt>
      <trkpt lat="47.51972" lon="-1.42164">
        <ele>79</ele>
        <time>2012-08-20T08:29:30.000Z</time>
      </trkpt>
      <trkpt lat="47.51973" lon="-1.42151">
        <ele>79</ele>
        <time>2012-08-20T08:29:32.000Z</time>
      </trkpt>
      <trkpt lat="47.51978" lon="-1.42139">
        <ele>78</ele>
        <time>2012-08-20T08:29:34.000Z</time>
      </trkpt>
      <trkpt lat="47.51982" lon="-1.42132">
        <ele>79</ele>
        <time>2012-08-20T08:29:35.000Z</time>
      </trkpt>
      <trkpt lat="47.51986" lon="-1.42128">
        <ele>79</ele>
        <time>2012-08-20T08:29:36.000Z</time>
      </trkpt>
      <trkpt lat="47.5199" lon="-1.42125">
        <ele>82</ele>
        <time>2012-08-20T08:29:37.000Z</time>
      </trkpt>
      <trkpt lat="47.51997" lon="-1.42122">
        <ele>85</ele>
        <time>2012-08-20T08:29:38.000Z</time>
      </trkpt>
      <trkpt lat="47.52003" lon="-1.42119">
        <ele>82</ele>
        <time>2012-08-20T08:29:39.000Z</time>
      </trkpt>
      <trkpt lat="47.52009" lon="-1.42116">
        <ele>85</ele>
        <time>2012-08-20T08:29:40.000Z</time>
      </trkpt>
      <trkpt lat="47.52014" lon="-1.42112">
        <ele>87</ele>
        <time>2012-08-20T08:29:41.000Z</time>
      </trkpt>
      <trkpt lat="47.52018" lon="-1.4211">
        <ele>86</ele>
        <time>2012-08-20T08:29:42.000Z</time>
      </trkpt>
      <trkpt lat="47.52023" lon="-1.42108">
        <ele>87</ele>
        <time>2012-08-20T08:29:43.000Z</time>
      </trkpt>
      <trkpt lat="47.52028" lon="-1.42107">
        <ele>89</ele>
        <time>2012-08-20T08:29:44.000Z</time>
      </trkpt>
      <trkpt lat="47.52037" lon="-1.42107">
        <ele>85</ele>
        <time>2012-08-20T08:29:46.000Z</time>
      </trkpt>
      <trkpt lat="47.52045" lon="-1.42112">
        <ele>84</ele>
        <time>2012-08-20T08:29:48.000Z</time>
      </trkpt>
      <trkpt lat="47.52053" lon="-1.42115">
        <ele>83</ele>
        <time>2012-08-20T08:29:50.000Z</time>
      </trkpt>
      <trkpt lat="47.5206" lon="-1.42118">
        <ele>80</ele>
        <time>2012-08-20T08:29:52.000Z</time>
      </trkpt>
      <trkpt lat="47.52067" lon="-1.42116">
        <ele>79</ele>
        <time>2012-08-20T08:29:54.000Z</time>
      </trkpt>
      <trkpt lat="47.52072" lon="-1.42107">
        <ele>80</ele>
        <time>2012-08-20T08:29:56.000Z</time>
      </trkpt>
      <trkpt lat="47.52077" lon="-1.42097">
        <ele>77</ele>
        <time>2012-08-20T08:29:58.000Z</time>
      </trkpt>
      <trkpt lat="47.5208" lon="-1.42087">
        <ele>80</ele>
        <time>2012-08-20T08:30:00.000Z</time>
      </trkpt>
      <trkpt lat="47.52084" lon="-1.42077">
        <ele>80</ele>
        <time>2012-08-20T08:30:02.000Z</time>
      </trkpt>
      <trkpt lat="47.52087" lon="-1.42067">
        <ele>81</ele>
        <time>2012-08-20T08:30:04.000Z</time>
      </trkpt>
      <trkpt lat="47.52089" lon="-1.4206">
        <ele>79</ele>
        <time>2012-08-20T08:30:05.000Z</time>
      </trkpt>
      <trkpt lat="47.5209" lon="-1.42054">
        <ele>78</ele>
        <time>2012-08-20T08:30:06.000Z</time>
      </trkpt>
      <trkpt lat="47.52091" lon="-1.42042">
        <ele>82</ele>
        <time>2012-08-20T08:30:08.000Z</time>
      </trkpt>
      <trkpt lat="47.52091" lon="-1.42034">
        <ele>87</ele>
        <time>2012-08-20T08:30:09.000Z</time>
      </trkpt>
      <trkpt lat="47.52089" lon="-1.42028">
        <ele>88</ele>
        <time>2012-08-20T08:30:10.000Z</time>
      </trkpt>
      <trkpt lat="47.52087" lon="-1.42021">
        <ele>85</ele>
        <time>2012-08-20T08:30:11.000Z</time>
      </trkpt>
      <trkpt lat="47.52086" lon="-1.42013">
        <ele>81</ele>
        <time>2012-08-20T08:30:12.000Z</time>
      </trkpt>
      <trkpt lat="47.52083" lon="-1.42">
        <ele>83</ele>
        <time>2012-08-20T08:30:14.000Z</time>
      </trkpt>
      <trkpt lat="47.52084" lon="-1.41993">
        <ele>82</ele>
        <time>2012-08-20T08:30:15.000Z</time>
      </trkpt>
      <trkpt lat="47.52085" lon="-1.4198">
        <ele>80</ele>
        <time>2012-08-20T08:30:17.000Z</time>
      </trkpt>
      <trkpt lat="47.52087" lon="-1.41968">
        <ele>82</ele>
        <time>2012-08-20T08:30:19.000Z</time>
      </trkpt>
      <trkpt lat="47.5209" lon="-1.41957">
        <ele>83</ele>
        <time>2012-08-20T08:30:21.000Z</time>
      </trkpt>
      <trkpt lat="47.52094" lon="-1.41949">
        <ele>81</ele>
        <time>2012-08-20T08:30:23.000Z</time>
      </trkpt>
      <trkpt lat="47.52102" lon="-1.41941">
        <ele>88</ele>
        <time>2012-08-20T08:30:25.000Z</time>
      </trkpt>
      <trkpt lat="47.52105" lon="-1.41937">
        <ele>84</ele>
        <time>2012-08-20T08:30:26.000Z</time>
      </trkpt>
      <trkpt lat="47.5211" lon="-1.41932">
        <ele>87</ele>
        <time>2012-08-20T08:30:27.000Z</time>
      </trkpt>
      <trkpt lat="47.52114" lon="-1.41928">
        <ele>84</ele>
        <time>2012-08-20T08:30:28.000Z</time>
      </trkpt>
      <trkpt lat="47.52117" lon="-1.41919">
        <ele>82</ele>
        <time>2012-08-20T08:30:30.000Z</time>
      </trkpt>
      <trkpt lat="47.5212" lon="-1.41906">
        <ele>79</ele>
        <time>2012-08-20T08:30:32.000Z</time>
      </trkpt>
      <trkpt lat="47.52122" lon="-1.419">
        <ele>83</ele>
        <time>2012-08-20T08:30:33.000Z</time>
      </trkpt>
      <trkpt lat="47.52125" lon="-1.41888">
        <ele>82</ele>
        <time>2012-08-20T08:30:35.000Z</time>
      </trkpt>
      <trkpt lat="47.52126" lon="-1.41875">
        <ele>88</ele>
        <time>2012-08-20T08:30:37.000Z</time>
      </trkpt>
      <trkpt lat="47.52128" lon="-1.41862">
        <ele>85</ele>
        <time>2012-08-20T08:30:39.000Z</time>
      </trkpt>
      <trkpt lat="47.5213" lon="-1.41855">
        <ele>84</ele>
        <time>2012-08-20T08:30:40.000Z</time>
      </trkpt>
      <trkpt lat="47.52131" lon="-1.41848">
        <ele>87</ele>
        <time>2012-08-20T08:30:41.000Z</time>
      </trkpt>
      <trkpt lat="47.52132" lon="-1.41841">
        <ele>88</ele>
        <time>2012-08-20T08:30:42.000Z</time>
      </trkpt>
      <trkpt lat="47.52133" lon="-1.41829">
        <ele>88</ele>
        <time>2012-08-20T08:30:44.000Z</time>
      </trkpt>
      <trkpt lat="47.52135" lon="-1.41821">
        <ele>85</ele>
        <time>2012-08-20T08:30:45.000Z</time>
      </trkpt>
      <trkpt lat="47.52137" lon="-1.41812">
        <ele>86</ele>
        <time>2012-08-20T08:30:46.000Z</time>
      </trkpt>
      <trkpt lat="47.52138" lon="-1.41804">
        <ele>80</ele>
        <time>2012-08-20T08:30:47.000Z</time>
      </trkpt>
      <trkpt lat="47.5214" lon="-1.41796">
        <ele>82</ele>
        <time>2012-08-20T08:30:48.000Z</time>
      </trkpt>
      <trkpt lat="47.52142" lon="-1.41787">
        <ele>84</ele>
        <time>2012-08-20T08:30:49.000Z</time>
      </trkpt>
      <trkpt lat="47.52144" lon="-1.41779">
        <ele>88</ele>
        <time>2012-08-20T08:30:50.000Z</time>
      </trkpt>
      <trkpt lat="47.52144" lon="-1.41772">
        <ele>89</ele>
        <time>2012-08-20T08:30:51.000Z</time>
      </trkpt>
      <trkpt lat="47.52144" lon="-1.41765">
        <ele>84</ele>
        <time>2012-08-20T08:30:52.000Z</time>
      </trkpt>
      <trkpt lat="47.52144" lon="-1.41758">
        <ele>86</ele>
        <time>2012-08-20T08:30:53.000Z</time>
      </trkpt>
      <trkpt lat="47.52143" lon="-1.41748">
        <ele>82</ele>
        <time>2012-08-20T08:30:54.000Z</time>
      </trkpt>
      <trkpt lat="47.52143" lon="-1.41739">
        <ele>83</ele>
        <time>2012-08-20T08:30:55.000Z</time>
      </trkpt>
      <trkpt lat="47.52143" lon="-1.41731">
        <ele>84</ele>
        <time>2012-08-20T08:30:56.000Z</time>
      </trkpt>
      <trkpt lat="47.52143" lon="-1.41723">
        <ele>82</ele>
        <time>2012-08-20T08:30:57.000Z</time>
      </trkpt>
      <trkpt lat="47.52142" lon="-1.41715">
        <ele>83</ele>
        <time>2012-08-20T08:30:58.000Z</time>
      </trkpt>
      <trkpt lat="47.52142" lon="-1.41699">
        <ele>84</ele>
        <time>2012-08-20T08:31:00.000Z</time>
      </trkpt>
      <trkpt lat="47.52142" lon="-1.41692">
        <ele>84</ele>
        <time>2012-08-20T08:31:01.000Z</time>
      </trkpt>
      <trkpt lat="47.52143" lon="-1.41682">
        <ele>85</ele>
        <time>2012-08-20T08:31:02.000Z</time>
      </trkpt>
      <trkpt lat="47.52143" lon="-1.41675">
        <ele>87</ele>
        <time>2012-08-20T08:31:03.000Z</time>
      </trkpt>
      <trkpt lat="47.52143" lon="-1.41667">
        <ele>84</ele>
        <time>2012-08-20T08:31:04.000Z</time>
      </trkpt>
      <trkpt lat="47.52142" lon="-1.4166">
        <ele>85</ele>
        <time>2012-08-20T08:31:05.000Z</time>
      </trkpt>
      <trkpt lat="47.5214" lon="-1.41649">
        <ele>85</ele>
        <time>2012-08-20T08:31:07.000Z</time>
      </trkpt>
      <trkpt lat="47.52139" lon="-1.41642">
        <ele>85</ele>
        <time>2012-08-20T08:31:08.000Z</time>
      </trkpt>
      <trkpt lat="47.52138" lon="-1.41635">
        <ele>88</ele>
        <time>2012-08-20T08:31:09.000Z</time>
      </trkpt>
      <trkpt lat="47.52138" lon="-1.41627">
        <ele>88</ele>
        <time>2012-08-20T08:31:10.000Z</time>
      </trkpt>
      <trkpt lat="47.52139" lon="-1.4162">
        <ele>89</ele>
        <time>2012-08-20T08:31:11.000Z</time>
      </trkpt>
      <trkpt lat="47.5214" lon="-1.41612">
        <ele>87</ele>
        <time>2012-08-20T08:31:12.000Z</time>
      </trkpt>
      <trkpt lat="47.52141" lon="-1.41603">
        <ele>89</ele>
        <time>2012-08-20T08:31:13.000Z</time>
      </trkpt>
      <trkpt lat="47.52141" lon="-1.41596">
        <ele>90</ele>
        <time>2012-08-20T08:31:14.000Z</time>
      </trkpt>
      <trkpt lat="47.52141" lon="-1.41588">
        <ele>88</ele>
        <time>2012-08-20T08:31:15.000Z</time>
      </trkpt>
      <trkpt lat="47.52141" lon="-1.4158">
        <ele>90</ele>
        <time>2012-08-20T08:31:16.000Z</time>
      </trkpt>
      <trkpt lat="47.52144" lon="-1.41571">
        <ele>90</ele>
        <time>2012-08-20T08:31:17.000Z</time>
      </trkpt>
      <trkpt lat="47.52144" lon="-1.41562">
        <ele>87</ele>
        <time>2012-08-20T08:31:18.000Z</time>
      </trkpt>
      <trkpt lat="47.52142" lon="-1.41553">
        <ele>85</ele>
        <time>2012-08-20T08:31:19.000Z</time>
      </trkpt>
      <trkpt lat="47.52142" lon="-1.41546">
        <ele>86</ele>
        <time>2012-08-20T08:31:20.000Z</time>
      </trkpt>
      <trkpt lat="47.52142" lon="-1.41538">
        <ele>89</ele>
        <time>2012-08-20T08:31:21.000Z</time>
      </trkpt>
      <trkpt lat="47.52143" lon="-1.4153">
        <ele>88</ele>
        <time>2012-08-20T08:31:22.000Z</time>
      </trkpt>
      <trkpt lat="47.52142" lon="-1.41523">
        <ele>84</ele>
        <time>2012-08-20T08:31:23.000Z</time>
      </trkpt>
      <trkpt lat="47.52142" lon="-1.41515">
        <ele>80</ele>
        <time>2012-08-20T08:31:24.000Z</time>
      </trkpt>
      <trkpt lat="47.5214" lon="-1.41507">
        <ele>82</ele>
        <time>2012-08-20T08:31:25.000Z</time>
      </trkpt>
      <trkpt lat="47.5214" lon="-1.41499">
        <ele>81</ele>
        <time>2012-08-20T08:31:26.000Z</time>
      </trkpt>
      <trkpt lat="47.5214" lon="-1.41492">
        <ele>80</ele>
        <time>2012-08-20T08:31:27.000Z</time>
      </trkpt>
      <trkpt lat="47.5214" lon="-1.41484">
        <ele>80</ele>
        <time>2012-08-20T08:31:28.000Z</time>
      </trkpt>
      <trkpt lat="47.5214" lon="-1.41477">
        <ele>78</ele>
        <time>2012-08-20T08:31:29.000Z</time>
      </trkpt>
      <trkpt lat="47.52142" lon="-1.41465">
        <ele>76</ele>
        <time>2012-08-20T08:31:31.000Z</time>
      </trkpt>
      <trkpt lat="47.52145" lon="-1.41453">
        <ele>81</ele>
        <time>2012-08-20T08:31:33.000Z</time>
      </trkpt>
      <trkpt lat="47.52146" lon="-1.41446">
        <ele>81</ele>
        <time>2012-08-20T08:31:34.000Z</time>
      </trkpt>
      <trkpt lat="47.52148" lon="-1.41437">
        <ele>81</ele>
        <time>2012-08-20T08:31:35.000Z</time>
      </trkpt>
      <trkpt lat="47.5215" lon="-1.41428">
        <ele>76</ele>
        <time>2012-08-20T08:31:36.000Z</time>
      </trkpt>
      <trkpt lat="47.52151" lon="-1.41422">
        <ele>78</ele>
        <time>2012-08-20T08:31:37.000Z</time>
      </trkpt>
      <trkpt lat="47.52152" lon="-1.41415">
        <ele>78</ele>
        <time>2012-08-20T08:31:38.000Z</time>
      </trkpt>
      <trkpt lat="47.52154" lon="-1.41407">
        <ele>81</ele>
        <time>2012-08-20T08:31:39.000Z</time>
      </trkpt>
      <trkpt lat="47.52156" lon="-1.41401">
        <ele>81</ele>
        <time>2012-08-20T08:31:40.000Z</time>
      </trkpt>
      <trkpt lat="47.5216" lon="-1.41393">
        <ele>79</ele>
        <time>2012-08-20T08:31:42.000Z</time>
      </trkpt>
      <trkpt lat="47.52165" lon="-1.41387">
        <ele>84</ele>
        <time>2012-08-20T08:31:44.000Z</time>
      </trkpt>
      <trkpt lat="47.52168" lon="-1.41377">
        <ele>82</ele>
        <time>2012-08-20T08:31:46.000Z</time>
      </trkpt>
      <trkpt lat="47.5217" lon="-1.41366">
        <ele>83</ele>
        <time>2012-08-20T08:31:48.000Z</time>
      </trkpt>
      <trkpt lat="47.52173" lon="-1.4136">
        <ele>86</ele>
        <time>2012-08-20T08:31:49.000Z</time>
      </trkpt>
      <trkpt lat="47.52177" lon="-1.41354">
        <ele>86</ele>
        <time>2012-08-20T08:31:50.000Z</time>
      </trkpt>
      <trkpt lat="47.52182" lon="-1.41348">
        <ele>84</ele>
        <time>2012-08-20T08:31:51.000Z</time>
      </trkpt>
      <trkpt lat="47.52184" lon="-1.41342">
        <ele>83</ele>
        <time>2012-08-20T08:31:52.000Z</time>
      </trkpt>
      <trkpt lat="47.52188" lon="-1.41331">
        <ele>85</ele>
        <time>2012-08-20T08:31:54.000Z</time>
      </trkpt>
      <trkpt lat="47.5219" lon="-1.41325">
        <ele>88</ele>
        <time>2012-08-20T08:31:55.000Z</time>
      </trkpt>
      <trkpt lat="47.52196" lon="-1.41317">
        <ele>89</ele>
        <time>2012-08-20T08:31:57.000Z</time>
      </trkpt>
      <trkpt lat="47.52202" lon="-1.41309">
        <ele>86</ele>
        <time>2012-08-20T08:31:59.000Z</time>
      </trkpt>
      <trkpt lat="47.52206" lon="-1.41305">
        <ele>87</ele>
        <time>2012-08-20T08:32:00.000Z</time>
      </trkpt>
      <trkpt lat="47.52211" lon="-1.41302">
        <ele>89</ele>
        <time>2012-08-20T08:32:01.000Z</time>
      </trkpt>
      <trkpt lat="47.52215" lon="-1.413">
        <ele>88</ele>
        <time>2012-08-20T08:32:02.000Z</time>
      </trkpt>
      <trkpt lat="47.52223" lon="-1.41296">
        <ele>89</ele>
        <time>2012-08-20T08:32:04.000Z</time>
      </trkpt>
      <trkpt lat="47.5223" lon="-1.41294">
        <ele>88</ele>
        <time>2012-08-20T08:32:06.000Z</time>
      </trkpt>
      <trkpt lat="47.52238" lon="-1.4129">
        <ele>87</ele>
        <time>2012-08-20T08:32:08.000Z</time>
      </trkpt>
      <trkpt lat="47.52244" lon="-1.41286">
        <ele>90</ele>
        <time>2012-08-20T08:32:10.000Z</time>
      </trkpt>
      <trkpt lat="47.52251" lon="-1.41279">
        <ele>89</ele>
        <time>2012-08-20T08:32:12.000Z</time>
      </trkpt>
      <trkpt lat="47.52255" lon="-1.41275">
        <ele>90</ele>
        <time>2012-08-20T08:32:13.000Z</time>
      </trkpt>
      <trkpt lat="47.52261" lon="-1.41268">
        <ele>86</ele>
        <time>2012-08-20T08:32:15.000Z</time>
      </trkpt>
      <trkpt lat="47.52265" lon="-1.41261">
        <ele>84</ele>
        <time>2012-08-20T08:32:17.000Z</time>
      </trkpt>
      <trkpt lat="47.52267" lon="-1.4125">
        <ele>84</ele>
        <time>2012-08-20T08:32:19.000Z</time>
      </trkpt>
      <trkpt lat="47.52269" lon="-1.41241">
        <ele>84</ele>
        <time>2012-08-20T08:32:21.000Z</time>
      </trkpt>
      <trkpt lat="47.52272" lon="-1.41234">
        <ele>83</ele>
        <time>2012-08-20T08:32:22.000Z</time>
      </trkpt>
      <trkpt lat="47.52277" lon="-1.41225">
        <ele>85</ele>
        <time>2012-08-20T08:32:24.000Z</time>
      </trkpt>
      <trkpt lat="47.5228" lon="-1.41219">
        <ele>82</ele>
        <time>2012-08-20T08:32:25.000Z</time>
      </trkpt>
      <trkpt lat="47.52282" lon="-1.41213">
        <ele>83</ele>
        <time>2012-08-20T08:32:26.000Z</time>
      </trkpt>
      <trkpt lat="47.52284" lon="-1.41207">
        <ele>80</ele>
        <time>2012-08-20T08:32:27.000Z</time>
      </trkpt>
      <trkpt lat="47.52286" lon="-1.41197">
        <ele>84</ele>
        <time>2012-08-20T08:32:29.000Z</time>
      </trkpt>
      <trkpt lat="47.52287" lon="-1.41189">
        <ele>83</ele>
        <time>2012-08-20T08:32:30.000Z</time>
      </trkpt>
      <trkpt lat="47.52288" lon="-1.41181">
        <ele>78</ele>
        <time>2012-08-20T08:32:31.000Z</time>
      </trkpt>
      <trkpt lat="47.5229" lon="-1.41174">
        <ele>80</ele>
        <time>2012-08-20T08:32:32.000Z</time>
      </trkpt>
      <trkpt lat="47.52291" lon="-1.41167">
        <ele>82</ele>
        <time>2012-08-20T08:32:33.000Z</time>
      </trkpt>
      <trkpt lat="47.52292" lon="-1.4116">
        <ele>82</ele>
        <time>2012-08-20T08:32:34.000Z</time>
      </trkpt>
      <trkpt lat="47.52293" lon="-1.41154">
        <ele>83</ele>
        <time>2012-08-20T08:32:35.000Z</time>
      </trkpt>
      <trkpt lat="47.52294" lon="-1.41146">
        <ele>84</ele>
        <time>2012-08-20T08:32:36.000Z</time>
      </trkpt>
      <trkpt lat="47.52295" lon="-1.41139">
        <ele>82</ele>
        <time>2012-08-20T08:32:37.000Z</time>
      </trkpt>
      <trkpt lat="47.52297" lon="-1.41125">
        <ele>81</ele>
        <time>2012-08-20T08:32:39.000Z</time>
      </trkpt>
      <trkpt lat="47.52298" lon="-1.41117">
        <ele>84</ele>
        <time>2012-08-20T08:32:40.000Z</time>
      </trkpt>
      <trkpt lat="47.52297" lon="-1.4111">
        <ele>82</ele>
        <time>2012-08-20T08:32:41.000Z</time>
      </trkpt>
      <trkpt lat="47.52297" lon="-1.41102">
        <ele>86</ele>
        <time>2012-08-20T08:32:42.000Z</time>
      </trkpt>
      <trkpt lat="47.52298" lon="-1.4109">
        <ele>81</ele>
        <time>2012-08-20T08:32:44.000Z</time>
      </trkpt>
      <trkpt lat="47.523" lon="-1.41084">
        <ele>77</ele>
        <time>2012-08-20T08:32:45.000Z</time>
      </trkpt>
      <trkpt lat="47.52302" lon="-1.41078">
        <ele>76</ele>
        <time>2012-08-20T08:32:46.000Z</time>
      </trkpt>
      <trkpt lat="47.52306" lon="-1.41068">
        <ele>74</ele>
        <time>2012-08-20T08:32:48.000Z</time>
      </trkpt>
      <trkpt lat="47.52309" lon="-1.41061">
        <ele>77</ele>
        <time>2012-08-20T08:32:50.000Z</time>
      </trkpt>
      <trkpt lat="47.52313" lon="-1.41052">
        <ele>82</ele>
        <time>2012-08-20T08:32:52.000Z</time>
      </trkpt>
      <trkpt lat="47.52316" lon="-1.41046">
        <ele>83</ele>
        <time>2012-08-20T08:32:53.000Z</time>
      </trkpt>
      <trkpt lat="47.5232" lon="-1.41041">
        <ele>81</ele>
        <time>2012-08-20T08:32:54.000Z</time>
      </trkpt>
      <trkpt lat="47.52328" lon="-1.41033">
        <ele>83</ele>
        <time>2012-08-20T08:32:56.000Z</time>
      </trkpt>
      <trkpt lat="47.52334" lon="-1.41031">
        <ele>85</ele>
        <time>2012-08-20T08:32:57.000Z</time>
      </trkpt>
      <trkpt lat="47.5234" lon="-1.4103">
        <ele>83</ele>
        <time>2012-08-20T08:32:58.000Z</time>
      </trkpt>
      <trkpt lat="47.52346" lon="-1.41029">
        <ele>85</ele>
        <time>2012-08-20T08:32:59.000Z</time>
      </trkpt>
      <trkpt lat="47.52351" lon="-1.41028">
        <ele>83</ele>
        <time>2012-08-20T08:33:00.000Z</time>
      </trkpt>
      <trkpt lat="47.5236" lon="-1.41028">
        <ele>79</ele>
        <time>2012-08-20T08:33:02.000Z</time>
      </trkpt>
      <trkpt lat="47.52366" lon="-1.41028">
        <ele>84</ele>
        <time>2012-08-20T08:33:03.000Z</time>
      </trkpt>
      <trkpt lat="47.52371" lon="-1.41029">
        <ele>82</ele>
        <time>2012-08-20T08:33:04.000Z</time>
      </trkpt>
      <trkpt lat="47.52376" lon="-1.4103">
        <ele>81</ele>
        <time>2012-08-20T08:33:05.000Z</time>
      </trkpt>
      <trkpt lat="47.5238" lon="-1.41028">
        <ele>83</ele>
        <time>2012-08-20T08:33:06.000Z</time>
      </trkpt>
      <trkpt lat="47.52385" lon="-1.41026">
        <ele>83</ele>
        <time>2012-08-20T08:33:07.000Z</time>
      </trkpt>
      <trkpt lat="47.52393" lon="-1.41023">
        <ele>83</ele>
        <time>2012-08-20T08:33:09.000Z</time>
      </trkpt>
      <trkpt lat="47.52398" lon="-1.41021">
        <ele>85</ele>
        <time>2012-08-20T08:33:10.000Z</time>
      </trkpt>
      <trkpt lat="47.52402" lon="-1.41018">
        <ele>86</ele>
        <time>2012-08-20T08:33:11.000Z</time>
      </trkpt>
      <trkpt lat="47.5241" lon="-1.41013">
        <ele>83</ele>
        <time>2012-08-20T08:33:13.000Z</time>
      </trkpt>
      <trkpt lat="47.52418" lon="-1.41008">
        <ele>81</ele>
        <time>2012-08-20T08:33:15.000Z</time>
      </trkpt>
      <trkpt lat="47.52423" lon="-1.40999">
        <ele>82</ele>
        <time>2012-08-20T08:33:17.000Z</time>
      </trkpt>
      <trkpt lat="47.52425" lon="-1.40987">
        <ele>79</ele>
        <time>2012-08-20T08:33:19.000Z</time>
      </trkpt>
      <trkpt lat="47.52428" lon="-1.40977">
        <ele>79</ele>
        <time>2012-08-20T08:33:21.000Z</time>
      </trkpt>
      <trkpt lat="47.52432" lon="-1.40967">
        <ele>80</ele>
        <time>2012-08-20T08:33:23.000Z</time>
      </trkpt>
      <trkpt lat="47.52435" lon="-1.40956">
        <ele>85</ele>
        <time>2012-08-20T08:33:25.000Z</time>
      </trkpt>
      <trkpt lat="47.52436" lon="-1.40944">
        <ele>81</ele>
        <time>2012-08-20T08:33:27.000Z</time>
      </trkpt>
      <trkpt lat="47.52438" lon="-1.40936">
        <ele>79</ele>
        <time>2012-08-20T08:33:28.000Z</time>
      </trkpt>
      <trkpt lat="47.5244" lon="-1.40928">
        <ele>79</ele>
        <time>2012-08-20T08:33:29.000Z</time>
      </trkpt>
      <trkpt lat="47.5244" lon="-1.40921">
        <ele>79</ele>
        <time>2012-08-20T08:33:30.000Z</time>
      </trkpt>
      <trkpt lat="47.52439" lon="-1.40914">
        <ele>79</ele>
        <time>2012-08-20T08:33:31.000Z</time>
      </trkpt>
      <trkpt lat="47.52439" lon="-1.40908">
        <ele>77</ele>
        <time>2012-08-20T08:33:32.000Z</time>
      </trkpt>
      <trkpt lat="47.52438" lon="-1.40894">
        <ele>82</ele>
        <time>2012-08-20T08:33:34.000Z</time>
      </trkpt>
      <trkpt lat="47.52438" lon="-1.40886">
        <ele>78</ele>
        <time>2012-08-20T08:33:35.000Z</time>
      </trkpt>
      <trkpt lat="47.52439" lon="-1.40879">
        <ele>80</ele>
        <time>2012-08-20T08:33:36.000Z</time>
      </trkpt>
      <trkpt lat="47.5244" lon="-1.40866">
        <ele>83</ele>
        <time>2012-08-20T08:33:38.000Z</time>
      </trkpt>
      <trkpt lat="47.5244" lon="-1.40858">
        <ele>82</ele>
        <time>2012-08-20T08:33:39.000Z</time>
      </trkpt>
      <trkpt lat="47.52438" lon="-1.40845">
        <ele>85</ele>
        <time>2012-08-20T08:33:41.000Z</time>
      </trkpt>
      <trkpt lat="47.52438" lon="-1.40834">
        <ele>86</ele>
        <time>2012-08-20T08:33:43.000Z</time>
      </trkpt>
      <trkpt lat="47.52437" lon="-1.40822">
        <ele>81</ele>
        <time>2012-08-20T08:33:45.000Z</time>
      </trkpt>
      <trkpt lat="47.52437" lon="-1.40814">
        <ele>85</ele>
        <time>2012-08-20T08:33:46.000Z</time>
      </trkpt>
      <trkpt lat="47.52435" lon="-1.40803">
        <ele>84</ele>
        <time>2012-08-20T08:33:48.000Z</time>
      </trkpt>
      <trkpt lat="47.52432" lon="-1.40791">
        <ele>86</ele>
        <time>2012-08-20T08:33:50.000Z</time>
      </trkpt>
      <trkpt lat="47.52429" lon="-1.40781">
        <ele>88</ele>
        <time>2012-08-20T08:33:52.000Z</time>
      </trkpt>
      <trkpt lat="47.52423" lon="-1.40771">
        <ele>91</ele>
        <time>2012-08-20T08:33:54.000Z</time>
      </trkpt>
      <trkpt lat="47.52418" lon="-1.40763">
        <ele>87</ele>
        <time>2012-08-20T08:33:56.000Z</time>
      </trkpt>
      <trkpt lat="47.52412" lon="-1.4076">
        <ele>86</ele>
        <time>2012-08-20T08:33:58.000Z</time>
      </trkpt>
      <trkpt lat="47.52404" lon="-1.40757">
        <ele>83</ele>
        <time>2012-08-20T08:34:00.000Z</time>
      </trkpt>
      <trkpt lat="47.52396" lon="-1.40757">
        <ele>85</ele>
        <time>2012-08-20T08:34:02.000Z</time>
      </trkpt>
      <trkpt lat="47.52387" lon="-1.40759">
        <ele>83</ele>
        <time>2012-08-20T08:34:04.000Z</time>
      </trkpt>
      <trkpt lat="47.52381" lon="-1.40761">
        <ele>82</ele>
        <time>2012-08-20T08:34:05.000Z</time>
      </trkpt>
      <trkpt lat="47.52377" lon="-1.40763">
        <ele>84</ele>
        <time>2012-08-20T08:34:06.000Z</time>
      </trkpt>
      <trkpt lat="47.52372" lon="-1.40765">
        <ele>84</ele>
        <time>2012-08-20T08:34:07.000Z</time>
      </trkpt>
      <trkpt lat="47.52364" lon="-1.40766">
        <ele>80</ele>
        <time>2012-08-20T08:34:09.000Z</time>
      </trkpt>
      <trkpt lat="47.52359" lon="-1.40766">
        <ele>85</ele>
        <time>2012-08-20T08:34:10.000Z</time>
      </trkpt>
      <trkpt lat="47.52354" lon="-1.40766">
        <ele>83</ele>
        <time>2012-08-20T08:34:11.000Z</time>
      </trkpt>
      <trkpt lat="47.52348" lon="-1.40766">
        <ele>81</ele>
        <time>2012-08-20T08:34:12.000Z</time>
      </trkpt>
      <trkpt lat="47.5234" lon="-1.4077">
        <ele>83</ele>
        <time>2012-08-20T08:34:14.000Z</time>
      </trkpt>
      <trkpt lat="47.52332" lon="-1.40772">
        <ele>85</ele>
        <time>2012-08-20T08:34:16.000Z</time>
      </trkpt>
      <trkpt lat="47.52325" lon="-1.40772">
        <ele>82</ele>
        <time>2012-08-20T08:34:18.000Z</time>
      </trkpt>
      <trkpt lat="47.52321" lon="-1.40769">
        <ele>85</ele>
        <time>2012-08-20T08:34:19.000Z</time>
      </trkpt>
      <trkpt lat="47.52316" lon="-1.40759">
        <ele>84</ele>
        <time>2012-08-20T08:34:21.000Z</time>
      </trkpt>
      <trkpt lat="47.52314" lon="-1.40751">
        <ele>81</ele>
        <time>2012-08-20T08:34:22.000Z</time>
      </trkpt>
      <trkpt lat="47.52313" lon="-1.40743">
        <ele>82</ele>
        <time>2012-08-20T08:34:23.000Z</time>
      </trkpt>
      <trkpt lat="47.52312" lon="-1.40737">
        <ele>80</ele>
        <time>2012-08-20T08:34:24.000Z</time>
      </trkpt>
      <trkpt lat="47.52311" lon="-1.40729">
        <ele>79</ele>
        <time>2012-08-20T08:34:25.000Z</time>
      </trkpt>
      <trkpt lat="47.5231" lon="-1.40721">
        <ele>83</ele>
        <time>2012-08-20T08:34:26.000Z</time>
      </trkpt>
      <trkpt lat="47.52312" lon="-1.4071">
        <ele>86</ele>
        <time>2012-08-20T08:34:28.000Z</time>
      </trkpt>
      <trkpt lat="47.52317" lon="-1.40699">
        <ele>87</ele>
        <time>2012-08-20T08:34:30.000Z</time>
      </trkpt>
      <trkpt lat="47.52321" lon="-1.40687">
        <ele>88</ele>
        <time>2012-08-20T08:34:32.000Z</time>
      </trkpt>
      <trkpt lat="47.52324" lon="-1.40676">
        <ele>85</ele>
        <time>2012-08-20T08:34:34.000Z</time>
      </trkpt>
      <trkpt lat="47.52326" lon="-1.40669">
        <ele>84</ele>
        <time>2012-08-20T08:34:35.000Z</time>
      </trkpt>
      <trkpt lat="47.52325" lon="-1.40656">
        <ele>83</ele>
        <time>2012-08-20T08:34:37.000Z</time>
      </trkpt>
      <trkpt lat="47.52325" lon="-1.40648">
        <ele>81</ele>
        <time>2012-08-20T08:34:38.000Z</time>
      </trkpt>
      <trkpt lat="47.52324" lon="-1.40641">
        <ele>82</ele>
        <time>2012-08-20T08:34:39.000Z</time>
      </trkpt>
      <trkpt lat="47.5232" lon="-1.40629">
        <ele>83</ele>
        <time>2012-08-20T08:34:41.000Z</time>
      </trkpt>
      <trkpt lat="47.52319" lon="-1.40618">
        <ele>84</ele>
        <time>2012-08-20T08:34:43.000Z</time>
      </trkpt>
      <trkpt lat="47.52319" lon="-1.40606">
        <ele>80</ele>
        <time>2012-08-20T08:34:45.000Z</time>
      </trkpt>
      <trkpt lat="47.52318" lon="-1.40593">
        <ele>81</ele>
        <time>2012-08-20T08:34:47.000Z</time>
      </trkpt>
      <trkpt lat="47.52316" lon="-1.4058">
        <ele>82</ele>
        <time>2012-08-20T08:34:49.000Z</time>
      </trkpt>
      <trkpt lat="47.52315" lon="-1.40573">
        <ele>86</ele>
        <time>2012-08-20T08:34:50.000Z</time>
      </trkpt>
      <trkpt lat="47.52313" lon="-1.4056">
        <ele>84</ele>
        <time>2012-08-20T08:34:52.000Z</time>
      </trkpt>
      <trkpt lat="47.52311" lon="-1.40548">
        <ele>85</ele>
        <time>2012-08-20T08:34:54.000Z</time>
      </trkpt>
      <trkpt lat="47.5231" lon="-1.4054">
        <ele>86</ele>
        <time>2012-08-20T08:34:55.000Z</time>
      </trkpt>
      <trkpt lat="47.52308" lon="-1.40533">
        <ele>85</ele>
        <time>2012-08-20T08:34:56.000Z</time>
      </trkpt>
      <trkpt lat="47.52308" lon="-1.40526">
        <ele>87</ele>
        <time>2012-08-20T08:34:57.000Z</time>
      </trkpt>
      <trkpt lat="47.52306" lon="-1.40514">
        <ele>86</ele>
        <time>2012-08-20T08:34:59.000Z</time>
      </trkpt>
      <trkpt lat="47.52303" lon="-1.40506">
        <ele>84</ele>
        <time>2012-08-20T08:35:01.000Z</time>
      </trkpt>
      <trkpt lat="47.52302" lon="-1.40495">
        <ele>85</ele>
        <time>2012-08-20T08:35:03.000Z</time>
      </trkpt>
      <trkpt lat="47.52302" lon="-1.40483">
        <ele>83</ele>
        <time>2012-08-20T08:35:05.000Z</time>
      </trkpt>
      <trkpt lat="47.52302" lon="-1.40475">
        <ele>83</ele>
        <time>2012-08-20T08:35:06.000Z</time>
      </trkpt>
      <trkpt lat="47.52302" lon="-1.40467">
        <ele>77</ele>
        <time>2012-08-20T08:35:07.000Z</time>
      </trkpt>
      <trkpt lat="47.52303" lon="-1.40459">
        <ele>78</ele>
        <time>2012-08-20T08:35:08.000Z</time>
      </trkpt>
      <trkpt lat="47.52305" lon="-1.40452">
        <ele>81</ele>
        <time>2012-08-20T08:35:09.000Z</time>
      </trkpt>
      <trkpt lat="47.52307" lon="-1.40445">
        <ele>81</ele>
        <time>2012-08-20T08:35:10.000Z</time>
      </trkpt>
      <trkpt lat="47.52309" lon="-1.40433">
        <ele>79</ele>
        <time>2012-08-20T08:35:12.000Z</time>
      </trkpt>
      <trkpt lat="47.52312" lon="-1.40421">
        <ele>79</ele>
        <time>2012-08-20T08:35:14.000Z</time>
      </trkpt>
      <trkpt lat="47.52314" lon="-1.40414">
        <ele>79</ele>
        <time>2012-08-20T08:35:15.000Z</time>
      </trkpt>
      <trkpt lat="47.52317" lon="-1.40401">
        <ele>81</ele>
        <time>2012-08-20T08:35:17.000Z</time>
      </trkpt>
      <trkpt lat="47.5232" lon="-1.4039">
        <ele>85</ele>
        <time>2012-08-20T08:35:19.000Z</time>
      </trkpt>
      <trkpt lat="47.52323" lon="-1.4038">
        <ele>84</ele>
        <time>2012-08-20T08:35:21.000Z</time>
      </trkpt>
      <trkpt lat="47.52326" lon="-1.4037">
        <ele>82</ele>
        <time>2012-08-20T08:35:23.000Z</time>
      </trkpt>
      <trkpt lat="47.52328" lon="-1.40358">
        <ele>85</ele>
        <time>2012-08-20T08:35:25.000Z</time>
      </trkpt>
      <trkpt lat="47.5233" lon="-1.4035">
        <ele>83</ele>
        <time>2012-08-20T08:35:26.000Z</time>
      </trkpt>
      <trkpt lat="47.5233" lon="-1.40344">
        <ele>83</ele>
        <time>2012-08-20T08:35:27.000Z</time>
      </trkpt>
      <trkpt lat="47.52331" lon="-1.4033">
        <ele>82</ele>
        <time>2012-08-20T08:35:29.000Z</time>
      </trkpt>
      <trkpt lat="47.52331" lon="-1.40323">
        <ele>85</ele>
        <time>2012-08-20T08:35:30.000Z</time>
      </trkpt>
      <trkpt lat="47.5233" lon="-1.40311">
        <ele>84</ele>
        <time>2012-08-20T08:35:32.000Z</time>
      </trkpt>
      <trkpt lat="47.52331" lon="-1.40299">
        <ele>77</ele>
        <time>2012-08-20T08:35:34.000Z</time>
      </trkpt>
      <trkpt lat="47.52332" lon="-1.40291">
        <ele>77</ele>
        <time>2012-08-20T08:35:35.000Z</time>
      </trkpt>
      <trkpt lat="47.52333" lon="-1.40282">
        <ele>77</ele>
        <time>2012-08-20T08:35:36.000Z</time>
      </trkpt>
      <trkpt lat="47.52333" lon="-1.40275">
        <ele>78</ele>
        <time>2012-08-20T08:35:37.000Z</time>
      </trkpt>
      <trkpt lat="47.52332" lon="-1.40262">
        <ele>81</ele>
        <time>2012-08-20T08:35:39.000Z</time>
      </trkpt>
      <trkpt lat="47.52331" lon="-1.40254">
        <ele>82</ele>
        <time>2012-08-20T08:35:40.000Z</time>
      </trkpt>
      <trkpt lat="47.5233" lon="-1.40242">
        <ele>83</ele>
        <time>2012-08-20T08:35:42.000Z</time>
      </trkpt>
      <trkpt lat="47.52328" lon="-1.40229">
        <ele>84</ele>
        <time>2012-08-20T08:35:44.000Z</time>
      </trkpt>
      <trkpt lat="47.52328" lon="-1.40216">
        <ele>84</ele>
        <time>2012-08-20T08:35:46.000Z</time>
      </trkpt>
      <trkpt lat="47.52328" lon="-1.40209">
        <ele>84</ele>
        <time>2012-08-20T08:35:47.000Z</time>
      </trkpt>
      <trkpt lat="47.52328" lon="-1.40196">
        <ele>84</ele>
        <time>2012-08-20T08:35:49.000Z</time>
      </trkpt>
      <trkpt lat="47.52328" lon="-1.40188">
        <ele>82</ele>
        <time>2012-08-20T08:35:50.000Z</time>
      </trkpt>
      <trkpt lat="47.52328" lon="-1.40175">
        <ele>83</ele>
        <time>2012-08-20T08:35:52.000Z</time>
      </trkpt>
      <trkpt lat="47.52328" lon="-1.40167">
        <ele>86</ele>
        <time>2012-08-20T08:35:53.000Z</time>
      </trkpt>
      <trkpt lat="47.52329" lon="-1.40159">
        <ele>85</ele>
        <time>2012-08-20T08:35:54.000Z</time>
      </trkpt>
      <trkpt lat="47.52328" lon="-1.40152">
        <ele>85</ele>
        <time>2012-08-20T08:35:55.000Z</time>
      </trkpt>
      <trkpt lat="47.52328" lon="-1.40144">
        <ele>89</ele>
        <time>2012-08-20T08:35:56.000Z</time>
      </trkpt>
      <trkpt lat="47.52328" lon="-1.40137">
        <ele>84</ele>
        <time>2012-08-20T08:35:57.000Z</time>
      </trkpt>
      <trkpt lat="47.52326" lon="-1.40125">
        <ele>82</ele>
        <time>2012-08-20T08:35:59.000Z</time>
      </trkpt>
      <trkpt lat="47.52326" lon="-1.40111">
        <ele>81</ele>
        <time>2012-08-20T08:36:01.000Z</time>
      </trkpt>
      <trkpt lat="47.52325" lon="-1.40103">
        <ele>78</ele>
        <time>2012-08-20T08:36:02.000Z</time>
      </trkpt>
      <trkpt lat="47.52325" lon="-1.40095">
        <ele>78</ele>
        <time>2012-08-20T08:36:03.000Z</time>
      </trkpt>
      <trkpt lat="47.52324" lon="-1.40085">
        <ele>81</ele>
        <time>2012-08-20T08:36:05.000Z</time>
      </trkpt>
      <trkpt lat="47.52322" lon="-1.40079">
        <ele>80</ele>
        <time>2012-08-20T08:36:07.000Z</time>
      </trkpt>
      <trkpt lat="47.52318" lon="-1.40074">
        <ele>80</ele>
        <time>2012-08-20T08:36:09.000Z</time>
      </trkpt>
      <trkpt lat="47.52312" lon="-1.40071">
        <ele>81</ele>
        <time>2012-08-20T08:36:11.000Z</time>
      </trkpt>
      <trkpt lat="47.52306" lon="-1.4007">
        <ele>83</ele>
        <time>2012-08-20T08:36:13.000Z</time>
      </trkpt>
      <trkpt lat="47.52298" lon="-1.4007">
        <ele>82</ele>
        <time>2012-08-20T08:36:15.000Z</time>
      </trkpt>
      <trkpt lat="47.52289" lon="-1.4007">
        <ele>84</ele>
        <time>2012-08-20T08:36:17.000Z</time>
      </trkpt>
      <trkpt lat="47.52281" lon="-1.40068">
        <ele>83</ele>
        <time>2012-08-20T08:36:19.000Z</time>
      </trkpt>
      <trkpt lat="47.52273" lon="-1.40067">
        <ele>85</ele>
        <time>2012-08-20T08:36:21.000Z</time>
      </trkpt>
      <trkpt lat="47.52265" lon="-1.40066">
        <ele>90</ele>
        <time>2012-08-20T08:36:23.000Z</time>
      </trkpt>
      <trkpt lat="47.52258" lon="-1.40064">
        <ele>88</ele>
        <time>2012-08-20T08:36:25.000Z</time>
      </trkpt>
      <trkpt lat="47.52252" lon="-1.40064">
        <ele>83</ele>
        <time>2012-08-20T08:36:27.000Z</time>
      </trkpt>
      <trkpt lat="47.52244" lon="-1.40064">
        <ele>84</ele>
        <time>2012-08-20T08:36:29.000Z</time>
      </trkpt>
      <trkpt lat="47.52239" lon="-1.40064">
        <ele>91</ele>
        <time>2012-08-20T08:36:31.000Z</time>
      </trkpt>
      <trkpt lat="47.52234" lon="-1.40061">
        <ele>87</ele>
        <time>2012-08-20T08:36:33.000Z</time>
      </trkpt>
      <trkpt lat="47.5223" lon="-1.40053">
        <ele>81</ele>
        <time>2012-08-20T08:36:36.000Z</time>
      </trkpt>
      <trkpt lat="47.5223" lon="-1.40042">
        <ele>86</ele>
        <time>2012-08-20T08:36:38.000Z</time>
      </trkpt>
      <trkpt lat="47.5223" lon="-1.40034">
        <ele>83</ele>
        <time>2012-08-20T08:36:39.000Z</time>
      </trkpt>
      <trkpt lat="47.52229" lon="-1.40026">
        <ele>85</ele>
        <time>2012-08-20T08:36:40.000Z</time>
      </trkpt>
      <trkpt lat="47.52229" lon="-1.40019">
        <ele>84</ele>
        <time>2012-08-20T08:36:41.000Z</time>
      </trkpt>
      <trkpt lat="47.52229" lon="-1.40006">
        <ele>88</ele>
        <time>2012-08-20T08:36:43.000Z</time>
      </trkpt>
      <trkpt lat="47.52229" lon="-1.39999">
        <ele>89</ele>
        <time>2012-08-20T08:36:44.000Z</time>
      </trkpt>
      <trkpt lat="47.5223" lon="-1.39986">
        <ele>87</ele>
        <time>2012-08-20T08:36:46.000Z</time>
      </trkpt>
      <trkpt lat="47.52231" lon="-1.39979">
        <ele>86</ele>
        <time>2012-08-20T08:36:47.000Z</time>
      </trkpt>
      <trkpt lat="47.52231" lon="-1.39972">
        <ele>85</ele>
        <time>2012-08-20T08:36:48.000Z</time>
      </trkpt>
      <trkpt lat="47.52232" lon="-1.39964">
        <ele>84</ele>
        <time>2012-08-20T08:36:49.000Z</time>
      </trkpt>
      <trkpt lat="47.52233" lon="-1.39957">
        <ele>84</ele>
        <time>2012-08-20T08:36:50.000Z</time>
      </trkpt>
      <trkpt lat="47.52233" lon="-1.3995">
        <ele>84</ele>
        <time>2012-08-20T08:36:51.000Z</time>
      </trkpt>
      <trkpt lat="47.52234" lon="-1.39942">
        <ele>85</ele>
        <time>2012-08-20T08:36:52.000Z</time>
      </trkpt>
      <trkpt lat="47.52234" lon="-1.39935">
        <ele>84</ele>
        <time>2012-08-20T08:36:53.000Z</time>
      </trkpt>
      <trkpt lat="47.52235" lon="-1.39926">
        <ele>85</ele>
        <time>2012-08-20T08:36:54.000Z</time>
      </trkpt>
      <trkpt lat="47.52235" lon="-1.39918">
        <ele>85</ele>
        <time>2012-08-20T08:36:55.000Z</time>
      </trkpt>
      <trkpt lat="47.52237" lon="-1.3991">
        <ele>86</ele>
        <time>2012-08-20T08:36:56.000Z</time>
      </trkpt>
      <trkpt lat="47.52238" lon="-1.39902">
        <ele>88</ele>
        <time>2012-08-20T08:36:57.000Z</time>
      </trkpt>
      <trkpt lat="47.5224" lon="-1.39894">
        <ele>87</ele>
        <time>2012-08-20T08:36:58.000Z</time>
      </trkpt>
      <trkpt lat="47.52241" lon="-1.39886">
        <ele>84</ele>
        <time>2012-08-20T08:36:59.000Z</time>
      </trkpt>
      <trkpt lat="47.52244" lon="-1.39873">
        <ele>81</ele>
        <time>2012-08-20T08:37:01.000Z</time>
      </trkpt>
      <trkpt lat="47.52245" lon="-1.39866">
        <ele>83</ele>
        <time>2012-08-20T08:37:02.000Z</time>
      </trkpt>
      <trkpt lat="47.52247" lon="-1.39857">
        <ele>82</ele>
        <time>2012-08-20T08:37:03.000Z</time>
      </trkpt>
      <trkpt lat="47.52248" lon="-1.39848">
        <ele>80</ele>
        <time>2012-08-20T08:37:04.000Z</time>
      </trkpt>
      <trkpt lat="47.5225" lon="-1.39839">
        <ele>78</ele>
        <time>2012-08-20T08:37:05.000Z</time>
      </trkpt>
      <trkpt lat="47.52252" lon="-1.39831">
        <ele>81</ele>
        <time>2012-08-20T08:37:06.000Z</time>
      </trkpt>
      <trkpt lat="47.52254" lon="-1.39822">
        <ele>81</ele>
        <time>2012-08-20T08:37:07.000Z</time>
      </trkpt>
      <trkpt lat="47.52256" lon="-1.39814">
        <ele>81</ele>
        <time>2012-08-20T08:37:08.000Z</time>
      </trkpt>
      <trkpt lat="47.52258" lon="-1.39806">
        <ele>81</ele>
        <time>2012-08-20T08:37:09.000Z</time>
      </trkpt>
      <trkpt lat="47.5226" lon="-1.39798">
        <ele>82</ele>
        <time>2012-08-20T08:37:10.000Z</time>
      </trkpt>
      <trkpt lat="47.52262" lon="-1.3979">
        <ele>83</ele>
        <time>2012-08-20T08:37:11.000Z</time>
      </trkpt>
      <trkpt lat="47.52264" lon="-1.39783">
        <ele>87</ele>
        <time>2012-08-20T08:37:12.000Z</time>
      </trkpt>
      <trkpt lat="47.52265" lon="-1.39776">
        <ele>85</ele>
        <time>2012-08-20T08:37:13.000Z</time>
      </trkpt>
      <trkpt lat="47.52266" lon="-1.39768">
        <ele>84</ele>
        <time>2012-08-20T08:37:14.000Z</time>
      </trkpt>
      <trkpt lat="47.52268" lon="-1.39761">
        <ele>83</ele>
        <time>2012-08-20T08:37:15.000Z</time>
      </trkpt>
      <trkpt lat="47.52269" lon="-1.39753">
        <ele>83</ele>
        <time>2012-08-20T08:37:16.000Z</time>
      </trkpt>
      <trkpt lat="47.5227" lon="-1.39745">
        <ele>83</ele>
        <time>2012-08-20T08:37:17.000Z</time>
      </trkpt>
      <trkpt lat="47.52271" lon="-1.39737">
        <ele>84</ele>
        <time>2012-08-20T08:37:18.000Z</time>
      </trkpt>
      <trkpt lat="47.52272" lon="-1.39729">
        <ele>84</ele>
        <time>2012-08-20T08:37:19.000Z</time>
      </trkpt>
      <trkpt lat="47.52273" lon="-1.39721">
        <ele>82</ele>
        <time>2012-08-20T08:37:20.000Z</time>
      </trkpt>
      <trkpt lat="47.52273" lon="-1.39713">
        <ele>83</ele>
        <time>2012-08-20T08:37:21.000Z</time>
      </trkpt>
      <trkpt lat="47.52273" lon="-1.39706">
        <ele>83</ele>
        <time>2012-08-20T08:37:22.000Z</time>
      </trkpt>
      <trkpt lat="47.52273" lon="-1.39698">
        <ele>83</ele>
        <time>2012-08-20T08:37:23.000Z</time>
      </trkpt>
      <trkpt lat="47.52272" lon="-1.3969">
        <ele>81</ele>
        <time>2012-08-20T08:37:24.000Z</time>
      </trkpt>
      <trkpt lat="47.52271" lon="-1.39682">
        <ele>82</ele>
        <time>2012-08-20T08:37:25.000Z</time>
      </trkpt>
      <trkpt lat="47.52269" lon="-1.39676">
        <ele>83</ele>
        <time>2012-08-20T08:37:26.000Z</time>
      </trkpt>
      <trkpt lat="47.52267" lon="-1.39669">
        <ele>84</ele>
        <time>2012-08-20T08:37:27.000Z</time>
      </trkpt>
      <trkpt lat="47.52265" lon="-1.39662">
        <ele>83</ele>
        <time>2012-08-20T08:37:28.000Z</time>
      </trkpt>
      <trkpt lat="47.52262" lon="-1.39655">
        <ele>81</ele>
        <time>2012-08-20T08:37:29.000Z</time>
      </trkpt>
      <trkpt lat="47.52259" lon="-1.39648">
        <ele>84</ele>
        <time>2012-08-20T08:37:30.000Z</time>
      </trkpt>
      <trkpt lat="47.52255" lon="-1.39641">
        <ele>79</ele>
        <time>2012-08-20T08:37:31.000Z</time>
      </trkpt>
      <trkpt lat="47.52252" lon="-1.39634">
        <ele>77</ele>
        <time>2012-08-20T08:37:32.000Z</time>
      </trkpt>
      <trkpt lat="47.52249" lon="-1.39628">
        <ele>77</ele>
        <time>2012-08-20T08:37:33.000Z</time>
      </trkpt>
      <trkpt lat="47.52244" lon="-1.39618">
        <ele>76</ele>
        <time>2012-08-20T08:37:35.000Z</time>
      </trkpt>
      <trkpt lat="47.52239" lon="-1.3961">
        <ele>78</ele>
        <time>2012-08-20T08:37:37.000Z</time>
      </trkpt>
      <trkpt lat="47.52233" lon="-1.39607">
        <ele>79</ele>
        <time>2012-08-20T08:37:39.000Z</time>
      </trkpt>
      <trkpt lat="47.52227" lon="-1.39606">
        <ele>81</ele>
        <time>2012-08-20T08:37:42.000Z</time>
      </trkpt>
      <trkpt lat="47.52222" lon="-1.39606">
        <ele>81</ele>
        <time>2012-08-20T08:37:44.000Z</time>
      </trkpt>
      <trkpt lat="47.52217" lon="-1.39602">
        <ele>80</ele>
        <time>2012-08-20T08:37:46.000Z</time>
      </trkpt>
      <trkpt lat="47.52214" lon="-1.39596">
        <ele>89</ele>
        <time>2012-08-20T08:40:42.000Z</time>
      </trkpt>
      <trkpt lat="47.52212" lon="-1.39587">
        <ele>86</ele>
        <time>2012-08-20T08:40:46.000Z</time>
      </trkpt>
      <trkpt lat="47.5221" lon="-1.3958">
        <ele>85</ele>
        <time>2012-08-20T08:40:48.000Z</time>
      </trkpt>
      <trkpt lat="47.52208" lon="-1.39568">
        <ele>86</ele>
        <time>2012-08-20T08:40:50.000Z</time>
      </trkpt>
      <trkpt lat="47.52205" lon="-1.39557">
        <ele>90</ele>
        <time>2012-08-20T08:40:52.000Z</time>
      </trkpt>
      <trkpt lat="47.52204" lon="-1.39547">
        <ele>87</ele>
        <time>2012-08-20T08:40:54.000Z</time>
      </trkpt>
      <trkpt lat="47.52202" lon="-1.39536">
        <ele>85</ele>
        <time>2012-08-20T08:40:56.000Z</time>
      </trkpt>
      <trkpt lat="47.52201" lon="-1.39529">
        <ele>87</ele>
        <time>2012-08-20T08:40:57.000Z</time>
      </trkpt>
      <trkpt lat="47.522" lon="-1.39522">
        <ele>85</ele>
        <time>2012-08-20T08:40:58.000Z</time>
      </trkpt>
      <trkpt lat="47.52201" lon="-1.39514">
        <ele>83</ele>
        <time>2012-08-20T08:40:59.000Z</time>
      </trkpt>
      <trkpt lat="47.52202" lon="-1.39506">
        <ele>81</ele>
        <time>2012-08-20T08:41:00.000Z</time>
      </trkpt>
      <trkpt lat="47.52203" lon="-1.39498">
        <ele>80</ele>
        <time>2012-08-20T08:41:01.000Z</time>
      </trkpt>
      <trkpt lat="47.52204" lon="-1.39491">
        <ele>80</ele>
        <time>2012-08-20T08:41:02.000Z</time>
      </trkpt>
      <trkpt lat="47.52206" lon="-1.39484">
        <ele>82</ele>
        <time>2012-08-20T08:41:03.000Z</time>
      </trkpt>
      <trkpt lat="47.52208" lon="-1.39478">
        <ele>82</ele>
        <time>2012-08-20T08:41:04.000Z</time>
      </trkpt>
      <trkpt lat="47.5221" lon="-1.39471">
        <ele>81</ele>
        <time>2012-08-20T08:41:05.000Z</time>
      </trkpt>
      <trkpt lat="47.52214" lon="-1.3946">
        <ele>81</ele>
        <time>2012-08-20T08:41:07.000Z</time>
      </trkpt>
      <trkpt lat="47.52217" lon="-1.39452">
        <ele>82</ele>
        <time>2012-08-20T08:41:09.000Z</time>
      </trkpt>
      <trkpt lat="47.52222" lon="-1.39453">
        <ele>77</ele>
        <time>2012-08-20T08:41:16.000Z</time>
      </trkpt>
      <trkpt lat="47.52228" lon="-1.39452">
        <ele>79</ele>
        <time>2012-08-20T08:41:19.000Z</time>
      </trkpt>
      <trkpt lat="47.52233" lon="-1.3945">
        <ele>81</ele>
        <time>2012-08-20T08:41:22.000Z</time>
      </trkpt>
      <trkpt lat="47.52238" lon="-1.39448">
        <ele>80</ele>
        <time>2012-08-20T08:41:24.000Z</time>
      </trkpt>
      <trkpt lat="47.52245" lon="-1.39446">
        <ele>83</ele>
        <time>2012-08-20T08:41:26.000Z</time>
      </trkpt>
      <trkpt lat="47.52252" lon="-1.39442">
        <ele>82</ele>
        <time>2012-08-20T08:41:28.000Z</time>
      </trkpt>
      <trkpt lat="47.52258" lon="-1.39436">
        <ele>81</ele>
        <time>2012-08-20T08:41:30.000Z</time>
      </trkpt>
      <trkpt lat="47.52262" lon="-1.39432">
        <ele>83</ele>
        <time>2012-08-20T08:41:31.000Z</time>
      </trkpt>
      <trkpt lat="47.52268" lon="-1.39425">
        <ele>86</ele>
        <time>2012-08-20T08:41:33.000Z</time>
      </trkpt>
      <trkpt lat="47.52275" lon="-1.39416">
        <ele>82</ele>
        <time>2012-08-20T08:41:35.000Z</time>
      </trkpt>
      <trkpt lat="47.5228" lon="-1.39408">
        <ele>82</ele>
        <time>2012-08-20T08:41:37.000Z</time>
      </trkpt>
      <trkpt lat="47.52285" lon="-1.39404">
        <ele>85</ele>
        <time>2012-08-20T08:41:39.000Z</time>
      </trkpt>
      <trkpt lat="47.52291" lon="-1.39399">
        <ele>83</ele>
        <time>2012-08-20T08:41:41.000Z</time>
      </trkpt>
      <trkpt lat="47.52296" lon="-1.39394">
        <ele>82</ele>
        <time>2012-08-20T08:41:43.000Z</time>
      </trkpt>
      <trkpt lat="47.52301" lon="-1.39386">
        <ele>85</ele>
        <time>2012-08-20T08:41:45.000Z</time>
      </trkpt>
      <trkpt lat="47.52305" lon="-1.39378">
        <ele>82</ele>
        <time>2012-08-20T08:41:47.000Z</time>
      </trkpt>
      <trkpt lat="47.5231" lon="-1.3937">
        <ele>84</ele>
        <time>2012-08-20T08:41:49.000Z</time>
      </trkpt>
      <trkpt lat="47.52314" lon="-1.39362">
        <ele>84</ele>
        <time>2012-08-20T08:41:51.000Z</time>
      </trkpt>
      <trkpt lat="47.52318" lon="-1.39353">
        <ele>83</ele>
        <time>2012-08-20T08:41:53.000Z</time>
      </trkpt>
      <trkpt lat="47.52319" lon="-1.39346">
        <ele>84</ele>
        <time>2012-08-20T08:41:54.000Z</time>
      </trkpt>
      <trkpt lat="47.52321" lon="-1.39339">
        <ele>82</ele>
        <time>2012-08-20T08:41:55.000Z</time>
      </trkpt>
      <trkpt lat="47.52322" lon="-1.39332">
        <ele>83</ele>
        <time>2012-08-20T08:41:56.000Z</time>
      </trkpt>
      <trkpt lat="47.52326" lon="-1.39323">
        <ele>88</ele>
        <time>2012-08-20T08:41:58.000Z</time>
      </trkpt>
      <trkpt lat="47.52333" lon="-1.39317">
        <ele>87</ele>
        <time>2012-08-20T08:42:00.000Z</time>
      </trkpt>
      <trkpt lat="47.5234" lon="-1.39318">
        <ele>83</ele>
        <time>2012-08-20T08:42:02.000Z</time>
      </trkpt>
      <trkpt lat="47.52345" lon="-1.39316">
        <ele>81</ele>
        <time>2012-08-20T08:42:04.000Z</time>
      </trkpt>
      <trkpt lat="47.5235" lon="-1.39308">
        <ele>80</ele>
        <time>2012-08-20T08:42:06.000Z</time>
      </trkpt>
      <trkpt lat="47.52354" lon="-1.393">
        <ele>79</ele>
        <time>2012-08-20T08:42:08.000Z</time>
      </trkpt>
      <trkpt lat="47.52358" lon="-1.39296">
        <ele>81</ele>
        <time>2012-08-20T08:42:10.000Z</time>
      </trkpt>
      <trkpt lat="47.52363" lon="-1.39292">
        <ele>81</ele>
        <time>2012-08-20T08:42:12.000Z</time>
      </trkpt>
      <trkpt lat="47.52368" lon="-1.39287">
        <ele>83</ele>
        <time>2012-08-20T08:42:14.000Z</time>
      </trkpt>
      <trkpt lat="47.52373" lon="-1.39282">
        <ele>82</ele>
        <time>2012-08-20T08:42:16.000Z</time>
      </trkpt>
      <trkpt lat="47.52379" lon="-1.39275">
        <ele>80</ele>
        <time>2012-08-20T08:42:18.000Z</time>
      </trkpt>
      <trkpt lat="47.52385" lon="-1.39269">
        <ele>80</ele>
        <time>2012-08-20T08:42:20.000Z</time>
      </trkpt>
      <trkpt lat="47.52391" lon="-1.39263">
        <ele>80</ele>
        <time>2012-08-20T08:42:22.000Z</time>
      </trkpt>
      <trkpt lat="47.52398" lon="-1.39256">
        <ele>79</ele>
        <time>2012-08-20T08:42:24.000Z</time>
      </trkpt>
      <trkpt lat="47.52402" lon="-1.39252">
        <ele>82</ele>
        <time>2012-08-20T08:42:25.000Z</time>
      </trkpt>
      <trkpt lat="47.52406" lon="-1.39248">
        <ele>83</ele>
        <time>2012-08-20T08:42:26.000Z</time>
      </trkpt>
      <trkpt lat="47.52413" lon="-1.39242">
        <ele>81</ele>
        <time>2012-08-20T08:42:28.000Z</time>
      </trkpt>
      <trkpt lat="47.52419" lon="-1.39236">
        <ele>82</ele>
        <time>2012-08-20T08:42:30.000Z</time>
      </trkpt>
      <trkpt lat="47.52423" lon="-1.39233">
        <ele>84</ele>
        <time>2012-08-20T08:42:31.000Z</time>
      </trkpt>
      <trkpt lat="47.52427" lon="-1.3923">
        <ele>84</ele>
        <time>2012-08-20T08:42:32.000Z</time>
      </trkpt>
      <trkpt lat="47.52432" lon="-1.39226">
        <ele>83</ele>
        <time>2012-08-20T08:42:33.000Z</time>
      </trkpt>
      <trkpt lat="47.52439" lon="-1.3922">
        <ele>79</ele>
        <time>2012-08-20T08:42:35.000Z</time>
      </trkpt>
      <trkpt lat="47.52446" lon="-1.39213">
        <ele>78</ele>
        <time>2012-08-20T08:42:37.000Z</time>
      </trkpt>
      <trkpt lat="47.5245" lon="-1.39209">
        <ele>77</ele>
        <time>2012-08-20T08:42:38.000Z</time>
      </trkpt>
      <trkpt lat="47.52454" lon="-1.39206">
        <ele>78</ele>
        <time>2012-08-20T08:42:39.000Z</time>
      </trkpt>
      <trkpt lat="47.52461" lon="-1.39197">
        <ele>78</ele>
        <time>2012-08-20T08:42:41.000Z</time>
      </trkpt>
      <trkpt lat="47.52466" lon="-1.39187">
        <ele>77</ele>
        <time>2012-08-20T08:42:43.000Z</time>
      </trkpt>
      <trkpt lat="47.52468" lon="-1.39182">
        <ele>78</ele>
        <time>2012-08-20T08:42:44.000Z</time>
      </trkpt>
      <trkpt lat="47.52472" lon="-1.3917">
        <ele>80</ele>
        <time>2012-08-20T08:42:46.000Z</time>
      </trkpt>
      <trkpt lat="47.52474" lon="-1.39163">
        <ele>79</ele>
        <time>2012-08-20T08:42:47.000Z</time>
      </trkpt>
      <trkpt lat="47.52475" lon="-1.39157">
        <ele>79</ele>
        <time>2012-08-20T08:42:48.000Z</time>
      </trkpt>
      <trkpt lat="47.52478" lon="-1.39145">
        <ele>79</ele>
        <time>2012-08-20T08:42:50.000Z</time>
      </trkpt>
      <trkpt lat="47.52479" lon="-1.39138">
        <ele>79</ele>
        <time>2012-08-20T08:42:51.000Z</time>
      </trkpt>
      <trkpt lat="47.52481" lon="-1.39131">
        <ele>81</ele>
        <time>2012-08-20T08:42:52.000Z</time>
      </trkpt>
      <trkpt lat="47.52483" lon="-1.39119">
        <ele>82</ele>
        <time>2012-08-20T08:42:54.000Z</time>
      </trkpt>
      <trkpt lat="47.52485" lon="-1.39107">
        <ele>83</ele>
        <time>2012-08-20T08:42:56.000Z</time>
      </trkpt>
      <trkpt lat="47.52486" lon="-1.391">
        <ele>84</ele>
        <time>2012-08-20T08:42:57.000Z</time>
      </trkpt>
      <trkpt lat="47.52487" lon="-1.39088">
        <ele>83</ele>
        <time>2012-08-20T08:42:59.000Z</time>
      </trkpt>
      <trkpt lat="47.52489" lon="-1.39077">
        <ele>83</ele>
        <time>2012-08-20T08:43:01.000Z</time>
      </trkpt>
      <trkpt lat="47.52491" lon="-1.39066">
        <ele>84</ele>
        <time>2012-08-20T08:43:03.000Z</time>
      </trkpt>
      <trkpt lat="47.52493" lon="-1.39057">
        <ele>83</ele>
        <time>2012-08-20T08:43:05.000Z</time>
      </trkpt>
      <trkpt lat="47.52495" lon="-1.39046">
        <ele>85</ele>
        <time>2012-08-20T08:43:07.000Z</time>
      </trkpt>
      <trkpt lat="47.52496" lon="-1.39035">
        <ele>85</ele>
        <time>2012-08-20T08:43:09.000Z</time>
      </trkpt>
      <trkpt lat="47.52496" lon="-1.39024">
        <ele>86</ele>
        <time>2012-08-20T08:43:11.000Z</time>
      </trkpt>
      <trkpt lat="47.52496" lon="-1.39014">
        <ele>78</ele>
        <time>2012-08-20T08:43:13.000Z</time>
      </trkpt>
      <trkpt lat="47.52497" lon="-1.39005">
        <ele>76</ele>
        <time>2012-08-20T08:43:15.000Z</time>
      </trkpt>
      <trkpt lat="47.52499" lon="-1.38995">
        <ele>80</ele>
        <time>2012-08-20T08:43:17.000Z</time>
      </trkpt>
      <trkpt lat="47.52501" lon="-1.38984">
        <ele>84</ele>
        <time>2012-08-20T08:43:19.000Z</time>
      </trkpt>
      <trkpt lat="47.52502" lon="-1.38973">
        <ele>88</ele>
        <time>2012-08-20T08:43:21.000Z</time>
      </trkpt>
      <trkpt lat="47.52504" lon="-1.3896">
        <ele>86</ele>
        <time>2012-08-20T08:43:23.000Z</time>
      </trkpt>
      <trkpt lat="47.52505" lon="-1.38953">
        <ele>89</ele>
        <time>2012-08-20T08:43:24.000Z</time>
      </trkpt>
      <trkpt lat="47.52507" lon="-1.38942">
        <ele>91</ele>
        <time>2012-08-20T08:43:26.000Z</time>
      </trkpt>
      <trkpt lat="47.52509" lon="-1.38933">
        <ele>89</ele>
        <time>2012-08-20T08:43:28.000Z</time>
      </trkpt>
      <trkpt lat="47.52511" lon="-1.38922">
        <ele>89</ele>
        <time>2012-08-20T08:43:31.000Z</time>
      </trkpt>
      <trkpt lat="47.52512" lon="-1.38914">
        <ele>88</ele>
        <time>2012-08-20T08:43:33.000Z</time>
      </trkpt>
      <trkpt lat="47.52512" lon="-1.38905">
        <ele>90</ele>
        <time>2012-08-20T08:43:35.000Z</time>
      </trkpt>
      <trkpt lat="47.52513" lon="-1.38898">
        <ele>90</ele>
        <time>2012-08-20T08:43:37.000Z</time>
      </trkpt>
      <trkpt lat="47.52514" lon="-1.38891">
        <ele>92</ele>
        <time>2012-08-20T08:43:39.000Z</time>
      </trkpt>
      <trkpt lat="47.52515" lon="-1.38881">
        <ele>92</ele>
        <time>2012-08-20T08:43:42.000Z</time>
      </trkpt>
      <trkpt lat="47.52514" lon="-1.38873">
        <ele>97</ele>
        <time>2012-08-20T08:43:44.000Z</time>
      </trkpt>
      <trkpt lat="47.52515" lon="-1.38865">
        <ele>91</ele>
        <time>2012-08-20T08:43:46.000Z</time>
      </trkpt>
      <trkpt lat="47.52516" lon="-1.38856">
        <ele>97</ele>
        <time>2012-08-20T08:43:48.000Z</time>
      </trkpt>
      <trkpt lat="47.52518" lon="-1.38846">
        <ele>96</ele>
        <time>2012-08-20T08:43:50.000Z</time>
      </trkpt>
      <trkpt lat="47.5252" lon="-1.38838">
        <ele>99</ele>
        <time>2012-08-20T08:43:52.000Z</time>
      </trkpt>
      <trkpt lat="47.52521" lon="-1.3883">
        <ele>99</ele>
        <time>2012-08-20T08:43:54.000Z</time>
      </trkpt>
      <trkpt lat="47.52522" lon="-1.38823">
        <ele>101</ele>
        <time>2012-08-20T08:43:56.000Z</time>
      </trkpt>
      <trkpt lat="47.52524" lon="-1.38816">
        <ele>99</ele>
        <time>2012-08-20T08:43:58.000Z</time>
      </trkpt>
      <trkpt lat="47.52525" lon="-1.38808">
        <ele>101</ele>
        <time>2012-08-20T08:44:00.000Z</time>
      </trkpt>
      <trkpt lat="47.52528" lon="-1.388">
        <ele>100</ele>
        <time>2012-08-20T08:44:02.000Z</time>
      </trkpt>
      <trkpt lat="47.5253" lon="-1.38792">
        <ele>91</ele>
        <time>2012-08-20T08:44:04.000Z</time>
      </trkpt>
      <trkpt lat="47.52533" lon="-1.38786">
        <ele>90</ele>
        <time>2012-08-20T08:44:06.000Z</time>
      </trkpt>
      <trkpt lat="47.52536" lon="-1.38779">
        <ele>91</ele>
        <time>2012-08-20T08:44:08.000Z</time>
      </trkpt>
      <trkpt lat="47.52539" lon="-1.38771">
        <ele>94</ele>
        <time>2012-08-20T08:44:10.000Z</time>
      </trkpt>
      <trkpt lat="47.52544" lon="-1.38763">
        <ele>94</ele>
        <time>2012-08-20T08:44:12.000Z</time>
      </trkpt>
      <trkpt lat="47.52548" lon="-1.38756">
        <ele>95</ele>
        <time>2012-08-20T08:44:14.000Z</time>
      </trkpt>
      <trkpt lat="47.52552" lon="-1.38749">
        <ele>94</ele>
        <time>2012-08-20T08:44:16.000Z</time>
      </trkpt>
      <trkpt lat="47.52556" lon="-1.38744">
        <ele>95</ele>
        <time>2012-08-20T08:44:18.000Z</time>
      </trkpt>
      <trkpt lat="47.52559" lon="-1.38738">
        <ele>92</ele>
        <time>2012-08-20T08:44:20.000Z</time>
      </trkpt>
      <trkpt lat="47.52564" lon="-1.3873">
        <ele>94</ele>
        <time>2012-08-20T08:44:22.000Z</time>
      </trkpt>
      <trkpt lat="47.52567" lon="-1.38725">
        <ele>91</ele>
        <time>2012-08-20T08:44:23.000Z</time>
      </trkpt>
      <trkpt lat="47.5257" lon="-1.38717">
        <ele>96</ele>
        <time>2012-08-20T08:44:25.000Z</time>
      </trkpt>
      <trkpt lat="47.52573" lon="-1.38709">
        <ele>96</ele>
        <time>2012-08-20T08:44:27.000Z</time>
      </trkpt>
      <trkpt lat="47.52576" lon="-1.38702">
        <ele>94</ele>
        <time>2012-08-20T08:44:29.000Z</time>
      </trkpt>
      <trkpt lat="47.52578" lon="-1.38695">
        <ele>95</ele>
        <time>2012-08-20T08:44:31.000Z</time>
      </trkpt>
      <trkpt lat="47.52581" lon="-1.38686">
        <ele>95</ele>
        <time>2012-08-20T08:44:33.000Z</time>
      </trkpt>
      <trkpt lat="47.52584" lon="-1.38677">
        <ele>98</ele>
        <time>2012-08-20T08:44:35.000Z</time>
      </trkpt>
      <trkpt lat="47.52583" lon="-1.38669">
        <ele>98</ele>
        <time>2012-08-20T08:44:37.000Z</time>
      </trkpt>
      <trkpt lat="47.52582" lon="-1.3866">
        <ele>109</ele>
        <time>2012-08-20T08:44:39.000Z</time>
      </trkpt>
      <trkpt lat="47.52583" lon="-1.38648">
        <ele>103</ele>
        <time>2012-08-20T08:44:41.000Z</time>
      </trkpt>
      <trkpt lat="47.52583" lon="-1.38639">
        <ele>98</ele>
        <time>2012-08-20T08:44:43.000Z</time>
      </trkpt>
      <trkpt lat="47.52583" lon="-1.38632">
        <ele>93</ele>
        <time>2012-08-20T08:44:46.000Z</time>
      </trkpt>
      <trkpt lat="47.52583" lon="-1.38624">
        <ele>95</ele>
        <time>2012-08-20T08:44:57.000Z</time>
      </trkpt>
      <trkpt lat="47.52581" lon="-1.38617">
        <ele>88</ele>
        <time>2012-08-20T08:45:08.000Z</time>
      </trkpt>
      <trkpt lat="47.52577" lon="-1.3861">
        <ele>85</ele>
        <time>2012-08-20T08:45:16.000Z</time>
      </trkpt>
      <trkpt lat="47.52573" lon="-1.38605">
        <ele>83</ele>
        <time>2012-08-20T08:45:20.000Z</time>
      </trkpt>
      <trkpt lat="47.5257" lon="-1.3861">
        <ele>81</ele>
        <time>2012-08-20T08:46:37.000Z</time>
      </trkpt>
      <trkpt lat="47.52568" lon="-1.38604">
        <ele>78</ele>
        <time>2012-08-20T08:47:01.000Z</time>
      </trkpt>
      <trkpt lat="47.52574" lon="-1.38605">
        <ele>76</ele>
        <time>2012-08-20T08:47:39.000Z</time>
      </trkpt>
      <trkpt lat="47.52576" lon="-1.38598">
        <ele>70</ele>
        <time>2012-08-20T08:48:46.000Z</time>
      </trkpt>
      <trkpt lat="47.52581" lon="-1.38597">
        <ele>69</ele>
        <time>2012-08-20T08:48:49.000Z</time>
      </trkpt>
      <trkpt lat="47.52586" lon="-1.38596">
        <ele>70</ele>
        <time>2012-08-20T08:48:53.000Z</time>
      </trkpt>
      <trkpt lat="47.52584" lon="-1.38604">
        <ele>74</ele>
        <time>2012-08-20T08:49:00.000Z</time>
      </trkpt>
      <trkpt lat="47.52579" lon="-1.3861">
        <ele>88</ele>
        <time>2012-08-20T08:49:09.000Z</time>
      </trkpt>
      <trkpt lat="47.52574" lon="-1.3861">
        <ele>76</ele>
        <time>2012-08-20T08:49:14.000Z</time>
      </trkpt>
      <trkpt lat="47.52572" lon="-1.38605">
        <ele>90</ele>
        <time>2012-08-20T08:49:22.000Z</time>
      </trkpt>
      <trkpt lat="47.52573" lon="-1.38612">
        <ele>96</ele>
        <time>2012-08-20T08:49:55.000Z</time>
      </trkpt>
      <trkpt lat="47.52568" lon="-1.38609">
        <ele>88</ele>
        <time>2012-08-20T08:50:53.000Z</time>
      </trkpt>
      <trkpt lat="47.52569" lon="-1.38602">
        <ele>86</ele>
        <time>2012-08-20T08:51:06.000Z</time>
      </trkpt>
      <trkpt lat="47.52574" lon="-1.38605">
        <ele>87</ele>
        <time>2012-08-20T08:51:24.000Z</time>
      </trkpt>
      <trkpt lat="47.52578" lon="-1.38601">
        <ele>94</ele>
        <time>2012-08-20T08:51:40.000Z</time>
      </trkpt>
      <trkpt lat="47.52573" lon="-1.38606">
        <ele>83</ele>
        <time>2012-08-20T08:52:16.000Z</time>
      </trkpt>
      <trkpt lat="47.52569" lon="-1.3861">
        <ele>81</ele>
        <time>2012-08-20T08:54:24.000Z</time>
      </trkpt>
      <trkpt lat="47.52572" lon="-1.38602">
        <ele>90</ele>
        <time>2012-08-20T08:55:53.000Z</time>
      </trkpt>
      <trkpt lat="47.52569" lon="-1.38597">
        <ele>86</ele>
        <time>2012-08-20T08:56:13.000Z</time>
      </trkpt>
      <trkpt lat="47.52563" lon="-1.38598">
        <ele>91</ele>
        <time>2012-08-20T08:56:16.000Z</time>
      </trkpt>
      <trkpt lat="47.52558" lon="-1.38598">
        <ele>90</ele>
        <time>2012-08-20T08:56:18.000Z</time>
      </trkpt>
      <trkpt lat="47.52553" lon="-1.38597">
        <ele>92</ele>
        <time>2012-08-20T08:56:20.000Z</time>
      </trkpt>
      <trkpt lat="47.52547" lon="-1.38597">
        <ele>92</ele>
        <time>2012-08-20T08:56:22.000Z</time>
      </trkpt>
      <trkpt lat="47.5254" lon="-1.38595">
        <ele>90</ele>
        <time>2012-08-20T08:56:24.000Z</time>
      </trkpt>
      <trkpt lat="47.52534" lon="-1.38593">
        <ele>90</ele>
        <time>2012-08-20T08:56:26.000Z</time>
      </trkpt>
      <trkpt lat="47.52527" lon="-1.3859">
        <ele>97</ele>
        <time>2012-08-20T08:56:28.000Z</time>
      </trkpt>
      <trkpt lat="47.52521" lon="-1.38586">
        <ele>91</ele>
        <time>2012-08-20T08:56:30.000Z</time>
      </trkpt>
      <trkpt lat="47.52516" lon="-1.38582">
        <ele>90</ele>
        <time>2012-08-20T08:56:32.000Z</time>
      </trkpt>
      <trkpt lat="47.52512" lon="-1.3858">
        <ele>90</ele>
        <time>2012-08-20T08:56:33.000Z</time>
      </trkpt>
      <trkpt lat="47.52507" lon="-1.38576">
        <ele>91</ele>
        <time>2012-08-20T08:56:34.000Z</time>
      </trkpt>
      <trkpt lat="47.52503" lon="-1.38573">
        <ele>89</ele>
        <time>2012-08-20T08:56:35.000Z</time>
      </trkpt>
      <trkpt lat="47.52499" lon="-1.38569">
        <ele>91</ele>
        <time>2012-08-20T08:56:36.000Z</time>
      </trkpt>
      <trkpt lat="47.52492" lon="-1.38562">
        <ele>94</ele>
        <time>2012-08-20T08:56:38.000Z</time>
      </trkpt>
      <trkpt lat="47.52485" lon="-1.38554">
        <ele>93</ele>
        <time>2012-08-20T08:56:40.000Z</time>
      </trkpt>
      <trkpt lat="47.52477" lon="-1.38546">
        <ele>91</ele>
        <time>2012-08-20T08:56:42.000Z</time>
      </trkpt>
      <trkpt lat="47.52472" lon="-1.38542">
        <ele>91</ele>
        <time>2012-08-20T08:56:43.000Z</time>
      </trkpt>
      <trkpt lat="47.52468" lon="-1.38536">
        <ele>89</ele>
        <time>2012-08-20T08:56:44.000Z</time>
      </trkpt>
      <trkpt lat="47.52464" lon="-1.3853">
        <ele>93</ele>
        <time>2012-08-20T08:56:45.000Z</time>
      </trkpt>
      <trkpt lat="47.52461" lon="-1.38524">
        <ele>93</ele>
        <time>2012-08-20T08:56:46.000Z</time>
      </trkpt>
      <trkpt lat="47.52457" lon="-1.38514">
        <ele>90</ele>
        <time>2012-08-20T08:56:48.000Z</time>
      </trkpt>
      <trkpt lat="47.52452" lon="-1.38502">
        <ele>89</ele>
        <time>2012-08-20T08:56:50.000Z</time>
      </trkpt>
      <trkpt lat="47.52451" lon="-1.38495">
        <ele>92</ele>
        <time>2012-08-20T08:56:51.000Z</time>
      </trkpt>
      <trkpt lat="47.52448" lon="-1.38486">
        <ele>92</ele>
        <time>2012-08-20T08:56:52.000Z</time>
      </trkpt>
      <trkpt lat="47.52446" lon="-1.38477">
        <ele>92</ele>
        <time>2012-08-20T08:56:53.000Z</time>
      </trkpt>
      <trkpt lat="47.52445" lon="-1.3847">
        <ele>90</ele>
        <time>2012-08-20T08:56:54.000Z</time>
      </trkpt>
      <trkpt lat="47.52443" lon="-1.38463">
        <ele>91</ele>
        <time>2012-08-20T08:56:55.000Z</time>
      </trkpt>
      <trkpt lat="47.52442" lon="-1.38455">
        <ele>93</ele>
        <time>2012-08-20T08:56:56.000Z</time>
      </trkpt>
      <trkpt lat="47.52441" lon="-1.38448">
        <ele>93</ele>
        <time>2012-08-20T08:56:57.000Z</time>
      </trkpt>
      <trkpt lat="47.52441" lon="-1.38441">
        <ele>96</ele>
        <time>2012-08-20T08:56:58.000Z</time>
      </trkpt>
      <trkpt lat="47.5244" lon="-1.38428">
        <ele>95</ele>
        <time>2012-08-20T08:57:00.000Z</time>
      </trkpt>
      <trkpt lat="47.5244" lon="-1.38419">
        <ele>95</ele>
        <time>2012-08-20T08:57:01.000Z</time>
      </trkpt>
      <trkpt lat="47.52439" lon="-1.38412">
        <ele>94</ele>
        <time>2012-08-20T08:57:02.000Z</time>
      </trkpt>
      <trkpt lat="47.52439" lon="-1.38404">
        <ele>93</ele>
        <time>2012-08-20T08:57:03.000Z</time>
      </trkpt>
      <trkpt lat="47.52439" lon="-1.38396">
        <ele>92</ele>
        <time>2012-08-20T08:57:04.000Z</time>
      </trkpt>
      <trkpt lat="47.52439" lon="-1.38383">
        <ele>90</ele>
        <time>2012-08-20T08:57:06.000Z</time>
      </trkpt>
      <trkpt lat="47.5244" lon="-1.38371">
        <ele>90</ele>
        <time>2012-08-20T08:57:08.000Z</time>
      </trkpt>
      <trkpt lat="47.5244" lon="-1.38358">
        <ele>89</ele>
        <time>2012-08-20T08:57:10.000Z</time>
      </trkpt>
      <trkpt lat="47.52439" lon="-1.38351">
        <ele>91</ele>
        <time>2012-08-20T08:57:11.000Z</time>
      </trkpt>
      <trkpt lat="47.52439" lon="-1.38343">
        <ele>92</ele>
        <time>2012-08-20T08:57:12.000Z</time>
      </trkpt>
      <trkpt lat="47.52438" lon="-1.38335">
        <ele>92</ele>
        <time>2012-08-20T08:57:13.000Z</time>
      </trkpt>
      <trkpt lat="47.52438" lon="-1.38328">
        <ele>91</ele>
        <time>2012-08-20T08:57:14.000Z</time>
      </trkpt>
      <trkpt lat="47.52437" lon="-1.3832">
        <ele>90</ele>
        <time>2012-08-20T08:57:15.000Z</time>
      </trkpt>
      <trkpt lat="47.52437" lon="-1.38313">
        <ele>92</ele>
        <time>2012-08-20T08:57:16.000Z</time>
      </trkpt>
      <trkpt lat="47.52436" lon="-1.38306">
        <ele>93</ele>
        <time>2012-08-20T08:57:17.000Z</time>
      </trkpt>
      <trkpt lat="47.52436" lon="-1.38298">
        <ele>93</ele>
        <time>2012-08-20T08:57:18.000Z</time>
      </trkpt>
      <trkpt lat="47.52435" lon="-1.38285">
        <ele>96</ele>
        <time>2012-08-20T08:57:20.000Z</time>
      </trkpt>
      <trkpt lat="47.52435" lon="-1.38277">
        <ele>97</ele>
        <time>2012-08-20T08:57:21.000Z</time>
      </trkpt>
      <trkpt lat="47.52434" lon="-1.3827">
        <ele>98</ele>
        <time>2012-08-20T08:57:22.000Z</time>
      </trkpt>
      <trkpt lat="47.52433" lon="-1.38258">
        <ele>99</ele>
        <time>2012-08-20T08:57:24.000Z</time>
      </trkpt>
      <trkpt lat="47.52431" lon="-1.38245">
        <ele>98</ele>
        <time>2012-08-20T08:57:26.000Z</time>
      </trkpt>
      <trkpt lat="47.5243" lon="-1.38232">
        <ele>98</ele>
        <time>2012-08-20T08:57:28.000Z</time>
      </trkpt>
      <trkpt lat="47.5243" lon="-1.38224">
        <ele>98</ele>
        <time>2012-08-20T08:57:29.000Z</time>
      </trkpt>
      <trkpt lat="47.5243" lon="-1.38213">
        <ele>95</ele>
        <time>2012-08-20T08:57:31.000Z</time>
      </trkpt>
      <trkpt lat="47.52429" lon="-1.38207">
        <ele>94</ele>
        <time>2012-08-20T08:57:33.000Z</time>
      </trkpt>
      <trkpt lat="47.52428" lon="-1.38199">
        <ele>94</ele>
        <time>2012-08-20T08:57:35.000Z</time>
      </trkpt>
      <trkpt lat="47.52429" lon="-1.3819">
        <ele>93</ele>
        <time>2012-08-20T08:57:37.000Z</time>
      </trkpt>
      <trkpt lat="47.52429" lon="-1.38182">
        <ele>95</ele>
        <time>2012-08-20T08:57:39.000Z</time>
      </trkpt>
      <trkpt lat="47.52429" lon="-1.38175">
        <ele>95</ele>
        <time>2012-08-20T08:57:41.000Z</time>
      </trkpt>
      <trkpt lat="47.52429" lon="-1.38166">
        <ele>97</ele>
        <time>2012-08-20T08:57:43.000Z</time>
      </trkpt>
      <trkpt lat="47.52428" lon="-1.38159">
        <ele>95</ele>
        <time>2012-08-20T08:57:45.000Z</time>
      </trkpt>
      <trkpt lat="47.52429" lon="-1.3815">
        <ele>96</ele>
        <time>2012-08-20T08:57:48.000Z</time>
      </trkpt>
      <trkpt lat="47.52429" lon="-1.38143">
        <ele>96</ele>
        <time>2012-08-20T08:57:50.000Z</time>
      </trkpt>
      <trkpt lat="47.52429" lon="-1.38134">
        <ele>95</ele>
        <time>2012-08-20T08:57:53.000Z</time>
      </trkpt>
      <trkpt lat="47.52428" lon="-1.38127">
        <ele>94</ele>
        <time>2012-08-20T08:57:55.000Z</time>
      </trkpt>
      <trkpt lat="47.52428" lon="-1.38117">
        <ele>94</ele>
        <time>2012-08-20T08:57:58.000Z</time>
      </trkpt>
      <trkpt lat="47.52427" lon="-1.38107">
        <ele>93</ele>
        <time>2012-08-20T08:58:01.000Z</time>
      </trkpt>
      <trkpt lat="47.52427" lon="-1.38098">
        <ele>97</ele>
        <time>2012-08-20T08:58:03.000Z</time>
      </trkpt>
      <trkpt lat="47.52427" lon="-1.38087">
        <ele>96</ele>
        <time>2012-08-20T08:58:05.000Z</time>
      </trkpt>
      <trkpt lat="47.52425" lon="-1.38078">
        <ele>96</ele>
        <time>2012-08-20T08:58:07.000Z</time>
      </trkpt>
      <trkpt lat="47.52424" lon="-1.38071">
        <ele>93</ele>
        <time>2012-08-20T08:58:09.000Z</time>
      </trkpt>
      <trkpt lat="47.52424" lon="-1.38063">
        <ele>94</ele>
        <time>2012-08-20T08:58:11.000Z</time>
      </trkpt>
      <trkpt lat="47.52423" lon="-1.38053">
        <ele>93</ele>
        <time>2012-08-20T08:58:13.000Z</time>
      </trkpt>
      <trkpt lat="47.52422" lon="-1.38046">
        <ele>94</ele>
        <time>2012-08-20T08:58:15.000Z</time>
      </trkpt>
      <trkpt lat="47.52422" lon="-1.38037">
        <ele>94</ele>
        <time>2012-08-20T08:58:17.000Z</time>
      </trkpt>
      <trkpt lat="47.52422" lon="-1.38029">
        <ele>95</ele>
        <time>2012-08-20T08:58:19.000Z</time>
      </trkpt>
      <trkpt lat="47.52422" lon="-1.38021">
        <ele>94</ele>
        <time>2012-08-20T08:58:21.000Z</time>
      </trkpt>
      <trkpt lat="47.52422" lon="-1.38012">
        <ele>98</ele>
        <time>2012-08-20T08:58:24.000Z</time>
      </trkpt>
      <trkpt lat="47.52423" lon="-1.38004">
        <ele>98</ele>
        <time>2012-08-20T08:58:26.000Z</time>
      </trkpt>
      <trkpt lat="47.52423" lon="-1.37995">
        <ele>98</ele>
        <time>2012-08-20T08:58:28.000Z</time>
      </trkpt>
      <trkpt lat="47.52422" lon="-1.37987">
        <ele>99</ele>
        <time>2012-08-20T08:58:30.000Z</time>
      </trkpt>
      <trkpt lat="47.52422" lon="-1.37979">
        <ele>102</ele>
        <time>2012-08-20T08:58:32.000Z</time>
      </trkpt>
      <trkpt lat="47.52422" lon="-1.37972">
        <ele>100</ele>
        <time>2012-08-20T08:58:34.000Z</time>
      </trkpt>
      <trkpt lat="47.52422" lon="-1.37964">
        <ele>105</ele>
        <time>2012-08-20T08:58:36.000Z</time>
      </trkpt>
      <trkpt lat="47.52422" lon="-1.37955">
        <ele>102</ele>
        <time>2012-08-20T08:58:38.000Z</time>
      </trkpt>
      <trkpt lat="47.52423" lon="-1.37946">
        <ele>98</ele>
        <time>2012-08-20T08:58:40.000Z</time>
      </trkpt>
      <trkpt lat="47.52423" lon="-1.37937">
        <ele>101</ele>
        <time>2012-08-20T08:58:42.000Z</time>
      </trkpt>
      <trkpt lat="47.52423" lon="-1.37928">
        <ele>103</ele>
        <time>2012-08-20T08:58:44.000Z</time>
      </trkpt>
      <trkpt lat="47.52422" lon="-1.3792">
        <ele>106</ele>
        <time>2012-08-20T08:58:46.000Z</time>
      </trkpt>
      <trkpt lat="47.52422" lon="-1.37912">
        <ele>107</ele>
        <time>2012-08-20T08:58:48.000Z</time>
      </trkpt>
      <trkpt lat="47.52422" lon="-1.37902">
        <ele>105</ele>
        <time>2012-08-20T08:58:50.000Z</time>
      </trkpt>
      <trkpt lat="47.52422" lon="-1.37892">
        <ele>103</ele>
        <time>2012-08-20T08:58:52.000Z</time>
      </trkpt>
      <trkpt lat="47.5242" lon="-1.3788">
        <ele>105</ele>
        <time>2012-08-20T08:58:54.000Z</time>
      </trkpt>
      <trkpt lat="47.52419" lon="-1.37868">
        <ele>105</ele>
        <time>2012-08-20T08:58:56.000Z</time>
      </trkpt>
      <trkpt lat="47.52418" lon="-1.37856">
        <ele>105</ele>
        <time>2012-08-20T08:58:58.000Z</time>
      </trkpt>
      <trkpt lat="47.52418" lon="-1.37846">
        <ele>102</ele>
        <time>2012-08-20T08:59:00.000Z</time>
      </trkpt>
      <trkpt lat="47.52418" lon="-1.37837">
        <ele>102</ele>
        <time>2012-08-20T08:59:02.000Z</time>
      </trkpt>
      <trkpt lat="47.52418" lon="-1.37826">
        <ele>101</ele>
        <time>2012-08-20T08:59:04.000Z</time>
      </trkpt>
      <trkpt lat="47.52417" lon="-1.37816">
        <ele>102</ele>
        <time>2012-08-20T08:59:06.000Z</time>
      </trkpt>
      <trkpt lat="47.52418" lon="-1.37805">
        <ele>99</ele>
        <time>2012-08-20T08:59:08.000Z</time>
      </trkpt>
      <trkpt lat="47.52419" lon="-1.37794">
        <ele>99</ele>
        <time>2012-08-20T08:59:10.000Z</time>
      </trkpt>
      <trkpt lat="47.5242" lon="-1.37783">
        <ele>101</ele>
        <time>2012-08-20T08:59:12.000Z</time>
      </trkpt>
      <trkpt lat="47.52418" lon="-1.37775">
        <ele>105</ele>
        <time>2012-08-20T08:59:14.000Z</time>
      </trkpt>
      <trkpt lat="47.52416" lon="-1.37766">
        <ele>103</ele>
        <time>2012-08-20T08:59:16.000Z</time>
      </trkpt>
      <trkpt lat="47.52415" lon="-1.37755">
        <ele>102</ele>
        <time>2012-08-20T08:59:18.000Z</time>
      </trkpt>
      <trkpt lat="47.52414" lon="-1.37746">
        <ele>107</ele>
        <time>2012-08-20T08:59:20.000Z</time>
      </trkpt>
      <trkpt lat="47.52417" lon="-1.37737">
        <ele>109</ele>
        <time>2012-08-20T08:59:22.000Z</time>
      </trkpt>
      <trkpt lat="47.52422" lon="-1.37732">
        <ele>102</ele>
        <time>2012-08-20T08:59:24.000Z</time>
      </trkpt>
      <trkpt lat="47.52428" lon="-1.37731">
        <ele>100</ele>
        <time>2012-08-20T08:59:26.000Z</time>
      </trkpt>
      <trkpt lat="47.52433" lon="-1.37725">
        <ele>97</ele>
        <time>2012-08-20T08:59:28.000Z</time>
      </trkpt>
      <trkpt lat="47.52436" lon="-1.37718">
        <ele>97</ele>
        <time>2012-08-20T08:59:30.000Z</time>
      </trkpt>
      <trkpt lat="47.52436" lon="-1.3771">
        <ele>98</ele>
        <time>2012-08-20T08:59:32.000Z</time>
      </trkpt>
      <trkpt lat="47.5243" lon="-1.37709">
        <ele>99</ele>
        <time>2012-08-20T08:59:37.000Z</time>
      </trkpt>
      <trkpt lat="47.52425" lon="-1.37704">
        <ele>100</ele>
        <time>2012-08-20T08:59:40.000Z</time>
      </trkpt>
      <trkpt lat="47.52423" lon="-1.37697">
        <ele>100</ele>
        <time>2012-08-20T08:59:42.000Z</time>
      </trkpt>
      <trkpt lat="47.5242" lon="-1.37689">
        <ele>104</ele>
        <time>2012-08-20T08:59:44.000Z</time>
      </trkpt>
      <trkpt lat="47.52419" lon="-1.37678">
        <ele>105</ele>
        <time>2012-08-20T08:59:46.000Z</time>
      </trkpt>
      <trkpt lat="47.52418" lon="-1.37666">
        <ele>103</ele>
        <time>2012-08-20T08:59:48.000Z</time>
      </trkpt>
      <trkpt lat="47.52417" lon="-1.37652">
        <ele>103</ele>
        <time>2012-08-20T08:59:50.000Z</time>
      </trkpt>
      <trkpt lat="47.52417" lon="-1.37645">
        <ele>105</ele>
        <time>2012-08-20T08:59:51.000Z</time>
      </trkpt>
      <trkpt lat="47.52416" lon="-1.37638">
        <ele>104</ele>
        <time>2012-08-20T08:59:52.000Z</time>
      </trkpt>
      <trkpt lat="47.52414" lon="-1.37625">
        <ele>104</ele>
        <time>2012-08-20T08:59:54.000Z</time>
      </trkpt>
      <trkpt lat="47.52415" lon="-1.37614">
        <ele>101</ele>
        <time>2012-08-20T08:59:55.000Z</time>
      </trkpt>
      <trkpt lat="47.52417" lon="-1.37603">
        <ele>98</ele>
        <time>2012-08-20T08:59:56.000Z</time>
      </trkpt>
      <trkpt lat="47.52419" lon="-1.37592">
        <ele>96</ele>
        <time>2012-08-20T08:59:57.000Z</time>
      </trkpt>
      <trkpt lat="47.52419" lon="-1.37582">
        <ele>96</ele>
        <time>2012-08-20T08:59:58.000Z</time>
      </trkpt>
      <trkpt lat="47.52416" lon="-1.37573">
        <ele>95</ele>
        <time>2012-08-20T09:00:00.000Z</time>
      </trkpt>
      <trkpt lat="47.52412" lon="-1.37568">
        <ele>90</ele>
        <time>2012-08-20T09:00:02.000Z</time>
      </trkpt>
      <trkpt lat="47.5241" lon="-1.37562">
        <ele>91</ele>
        <time>2012-08-20T09:00:04.000Z</time>
      </trkpt>
      <trkpt lat="47.52412" lon="-1.37554">
        <ele>91</ele>
        <time>2012-08-20T09:00:06.000Z</time>
      </trkpt>
      <trkpt lat="47.52414" lon="-1.37543">
        <ele>92</ele>
        <time>2012-08-20T09:00:08.000Z</time>
      </trkpt>
      <trkpt lat="47.52415" lon="-1.37533">
        <ele>92</ele>
        <time>2012-08-20T09:00:10.000Z</time>
      </trkpt>
      <trkpt lat="47.52412" lon="-1.37524">
        <ele>90</ele>
        <time>2012-08-20T09:00:12.000Z</time>
      </trkpt>
      <trkpt lat="47.5241" lon="-1.37518">
        <ele>89</ele>
        <time>2012-08-20T09:00:13.000Z</time>
      </trkpt>
      <trkpt lat="47.52407" lon="-1.37506">
        <ele>89</ele>
        <time>2012-08-20T09:00:15.000Z</time>
      </trkpt>
      <trkpt lat="47.52406" lon="-1.37494">
        <ele>92</ele>
        <time>2012-08-20T09:00:17.000Z</time>
      </trkpt>
      <trkpt lat="47.52406" lon="-1.37482">
        <ele>96</ele>
        <time>2012-08-20T09:00:19.000Z</time>
      </trkpt>
      <trkpt lat="47.52407" lon="-1.37471">
        <ele>98</ele>
        <time>2012-08-20T09:00:21.000Z</time>
      </trkpt>
      <trkpt lat="47.52406" lon="-1.37458">
        <ele>99</ele>
        <time>2012-08-20T09:00:23.000Z</time>
      </trkpt>
      <trkpt lat="47.52404" lon="-1.37447">
        <ele>98</ele>
        <time>2012-08-20T09:00:25.000Z</time>
      </trkpt>
      <trkpt lat="47.52401" lon="-1.37437">
        <ele>96</ele>
        <time>2012-08-20T09:00:27.000Z</time>
      </trkpt>
      <trkpt lat="47.52397" lon="-1.3743">
        <ele>97</ele>
        <time>2012-08-20T09:00:28.000Z</time>
      </trkpt>
      <trkpt lat="47.52394" lon="-1.3742">
        <ele>95</ele>
        <time>2012-08-20T09:00:29.000Z</time>
      </trkpt>
      <trkpt lat="47.52391" lon="-1.37414">
        <ele>100</ele>
        <time>2012-08-20T09:00:30.000Z</time>
      </trkpt>
      <trkpt lat="47.52383" lon="-1.37408">
        <ele>96</ele>
        <time>2012-08-20T09:00:32.000Z</time>
      </trkpt>
      <trkpt lat="47.52379" lon="-1.37404">
        <ele>97</ele>
        <time>2012-08-20T09:00:33.000Z</time>
      </trkpt>
      <trkpt lat="47.52374" lon="-1.37401">
        <ele>101</ele>
        <time>2012-08-20T09:00:34.000Z</time>
      </trkpt>
      <trkpt lat="47.52369" lon="-1.37397">
        <ele>102</ele>
        <time>2012-08-20T09:00:35.000Z</time>
      </trkpt>
      <trkpt lat="47.52363" lon="-1.37395">
        <ele>102</ele>
        <time>2012-08-20T09:00:36.000Z</time>
      </trkpt>
      <trkpt lat="47.52358" lon="-1.37394">
        <ele>100</ele>
        <time>2012-08-20T09:00:37.000Z</time>
      </trkpt>
      <trkpt lat="47.52352" lon="-1.37392">
        <ele>99</ele>
        <time>2012-08-20T09:00:38.000Z</time>
      </trkpt>
      <trkpt lat="47.52347" lon="-1.37389">
        <ele>101</ele>
        <time>2012-08-20T09:00:39.000Z</time>
      </trkpt>
      <trkpt lat="47.52341" lon="-1.37386">
        <ele>104</ele>
        <time>2012-08-20T09:00:40.000Z</time>
      </trkpt>
      <trkpt lat="47.52335" lon="-1.37384">
        <ele>102</ele>
        <time>2012-08-20T09:00:41.000Z</time>
      </trkpt>
      <trkpt lat="47.52329" lon="-1.37381">
        <ele>99</ele>
        <time>2012-08-20T09:00:42.000Z</time>
      </trkpt>
      <trkpt lat="47.52323" lon="-1.3738">
        <ele>96</ele>
        <time>2012-08-20T09:00:43.000Z</time>
      </trkpt>
      <trkpt lat="47.52317" lon="-1.37377">
        <ele>98</ele>
        <time>2012-08-20T09:00:44.000Z</time>
      </trkpt>
      <trkpt lat="47.52311" lon="-1.37375">
        <ele>98</ele>
        <time>2012-08-20T09:00:45.000Z</time>
      </trkpt>
      <trkpt lat="47.52305" lon="-1.37372">
        <ele>98</ele>
        <time>2012-08-20T09:00:46.000Z</time>
      </trkpt>
      <trkpt lat="47.523" lon="-1.37369">
        <ele>101</ele>
        <time>2012-08-20T09:00:47.000Z</time>
      </trkpt>
      <trkpt lat="47.52293" lon="-1.37365">
        <ele>98</ele>
        <time>2012-08-20T09:00:48.000Z</time>
      </trkpt>
      <trkpt lat="47.52288" lon="-1.37362">
        <ele>96</ele>
        <time>2012-08-20T09:00:49.000Z</time>
      </trkpt>
      <trkpt lat="47.52281" lon="-1.3736">
        <ele>97</ele>
        <time>2012-08-20T09:00:50.000Z</time>
      </trkpt>
      <trkpt lat="47.52276" lon="-1.37358">
        <ele>94</ele>
        <time>2012-08-20T09:00:51.000Z</time>
      </trkpt>
      <trkpt lat="47.5227" lon="-1.37355">
        <ele>94</ele>
        <time>2012-08-20T09:00:52.000Z</time>
      </trkpt>
      <trkpt lat="47.52264" lon="-1.37353">
        <ele>98</ele>
        <time>2012-08-20T09:00:53.000Z</time>
      </trkpt>
      <trkpt lat="47.52258" lon="-1.3735">
        <ele>100</ele>
        <time>2012-08-20T09:00:54.000Z</time>
      </trkpt>
      <trkpt lat="47.52252" lon="-1.37347">
        <ele>98</ele>
        <time>2012-08-20T09:00:55.000Z</time>
      </trkpt>
      <trkpt lat="47.52246" lon="-1.37344">
        <ele>98</ele>
        <time>2012-08-20T09:00:56.000Z</time>
      </trkpt>
      <trkpt lat="47.52238" lon="-1.3734">
        <ele>98</ele>
        <time>2012-08-20T09:00:57.000Z</time>
      </trkpt>
      <trkpt lat="47.52232" lon="-1.37337">
        <ele>99</ele>
        <time>2012-08-20T09:00:58.000Z</time>
      </trkpt>
      <trkpt lat="47.52224" lon="-1.37335">
        <ele>96</ele>
        <time>2012-08-20T09:00:59.000Z</time>
      </trkpt>
      <trkpt lat="47.52217" lon="-1.37332">
        <ele>93</ele>
        <time>2012-08-20T09:01:00.000Z</time>
      </trkpt>
      <trkpt lat="47.52211" lon="-1.37328">
        <ele>94</ele>
        <time>2012-08-20T09:01:01.000Z</time>
      </trkpt>
      <trkpt lat="47.52204" lon="-1.37325">
        <ele>94</ele>
        <time>2012-08-20T09:01:02.000Z</time>
      </trkpt>
      <trkpt lat="47.52197" lon="-1.37322">
        <ele>97</ele>
        <time>2012-08-20T09:01:03.000Z</time>
      </trkpt>
      <trkpt lat="47.5219" lon="-1.3732">
        <ele>93</ele>
        <time>2012-08-20T09:01:04.000Z</time>
      </trkpt>
      <trkpt lat="47.52183" lon="-1.37318">
        <ele>93</ele>
        <time>2012-08-20T09:01:05.000Z</time>
      </trkpt>
      <trkpt lat="47.52177" lon="-1.37315">
        <ele>94</ele>
        <time>2012-08-20T09:01:06.000Z</time>
      </trkpt>
      <trkpt lat="47.52171" lon="-1.37312">
        <ele>93</ele>
        <time>2012-08-20T09:01:07.000Z</time>
      </trkpt>
      <trkpt lat="47.52165" lon="-1.3731">
        <ele>92</ele>
        <time>2012-08-20T09:01:08.000Z</time>
      </trkpt>
      <trkpt lat="47.52158" lon="-1.37308">
        <ele>87</ele>
        <time>2012-08-20T09:01:09.000Z</time>
      </trkpt>
      <trkpt lat="47.52151" lon="-1.37304">
        <ele>86</ele>
        <time>2012-08-20T09:01:10.000Z</time>
      </trkpt>
      <trkpt lat="47.52143" lon="-1.373">
        <ele>86</ele>
        <time>2012-08-20T09:01:11.000Z</time>
      </trkpt>
      <trkpt lat="47.52135" lon="-1.37296">
        <ele>89</ele>
        <time>2012-08-20T09:01:12.000Z</time>
      </trkpt>
      <trkpt lat="47.52128" lon="-1.37291">
        <ele>85</ele>
        <time>2012-08-20T09:01:13.000Z</time>
      </trkpt>
      <trkpt lat="47.52121" lon="-1.37287">
        <ele>84</ele>
        <time>2012-08-20T09:01:14.000Z</time>
      </trkpt>
      <trkpt lat="47.52116" lon="-1.37282">
        <ele>83</ele>
        <time>2012-08-20T09:01:15.000Z</time>
      </trkpt>
      <trkpt lat="47.52113" lon="-1.37274">
        <ele>84</ele>
        <time>2012-08-20T09:01:16.000Z</time>
      </trkpt>
      <trkpt lat="47.5211" lon="-1.3726">
        <ele>85</ele>
        <time>2012-08-20T09:01:18.000Z</time>
      </trkpt>
      <trkpt lat="47.52106" lon="-1.37248">
        <ele>85</ele>
        <time>2012-08-20T09:01:20.000Z</time>
      </trkpt>
      <trkpt lat="47.52103" lon="-1.37238">
        <ele>83</ele>
        <time>2012-08-20T09:01:22.000Z</time>
      </trkpt>
      <trkpt lat="47.52102" lon="-1.37229">
        <ele>83</ele>
        <time>2012-08-20T09:01:24.000Z</time>
      </trkpt>
      <trkpt lat="47.52102" lon="-1.37218">
        <ele>83</ele>
        <time>2012-08-20T09:01:26.000Z</time>
      </trkpt>
      <trkpt lat="47.52102" lon="-1.3721">
        <ele>80</ele>
        <time>2012-08-20T09:01:28.000Z</time>
      </trkpt>
      <trkpt lat="47.52102" lon="-1.372">
        <ele>84</ele>
        <time>2012-08-20T09:01:30.000Z</time>
      </trkpt>
      <trkpt lat="47.52102" lon="-1.37187">
        <ele>87</ele>
        <time>2012-08-20T09:01:32.000Z</time>
      </trkpt>
      <trkpt lat="47.52102" lon="-1.3718">
        <ele>86</ele>
        <time>2012-08-20T09:01:33.000Z</time>
      </trkpt>
      <trkpt lat="47.52101" lon="-1.37173">
        <ele>86</ele>
        <time>2012-08-20T09:01:34.000Z</time>
      </trkpt>
      <trkpt lat="47.52101" lon="-1.37165">
        <ele>85</ele>
        <time>2012-08-20T09:01:35.000Z</time>
      </trkpt>
      <trkpt lat="47.52101" lon="-1.37158">
        <ele>84</ele>
        <time>2012-08-20T09:01:36.000Z</time>
      </trkpt>
      <trkpt lat="47.52103" lon="-1.37146">
        <ele>86</ele>
        <time>2012-08-20T09:01:38.000Z</time>
      </trkpt>
      <trkpt lat="47.52106" lon="-1.37141">
        <ele>88</ele>
        <time>2012-08-20T09:01:40.000Z</time>
      </trkpt>
      <trkpt lat="47.52112" lon="-1.37138">
        <ele>85</ele>
        <time>2012-08-20T09:01:43.000Z</time>
      </trkpt>
      <trkpt lat="47.52116" lon="-1.37134">
        <ele>86</ele>
        <time>2012-08-20T09:01:46.000Z</time>
      </trkpt>
      <trkpt lat="47.52121" lon="-1.37131">
        <ele>87</ele>
        <time>2012-08-20T09:01:48.000Z</time>
      </trkpt>
      <trkpt lat="47.52116" lon="-1.37135">
        <ele>86</ele>
        <time>2012-08-20T09:01:54.000Z</time>
      </trkpt>
      <trkpt lat="47.52112" lon="-1.3713">
        <ele>86</ele>
        <time>2012-08-20T09:01:59.000Z</time>
      </trkpt>
      <trkpt lat="47.52112" lon="-1.3712">
        <ele>86</ele>
        <time>2012-08-20T09:02:02.000Z</time>
      </trkpt>
      <trkpt lat="47.52112" lon="-1.3711">
        <ele>87</ele>
        <time>2012-08-20T09:02:04.000Z</time>
      </trkpt>
      <trkpt lat="47.52112" lon="-1.37102">
        <ele>87</ele>
        <time>2012-08-20T09:02:06.000Z</time>
      </trkpt>
      <trkpt lat="47.52111" lon="-1.37094">
        <ele>83</ele>
        <time>2012-08-20T09:02:08.000Z</time>
      </trkpt>
      <trkpt lat="47.52111" lon="-1.37087">
        <ele>86</ele>
        <time>2012-08-20T09:02:10.000Z</time>
      </trkpt>
      <trkpt lat="47.52111" lon="-1.37075">
        <ele>88</ele>
        <time>2012-08-20T09:02:12.000Z</time>
      </trkpt>
      <trkpt lat="47.52111" lon="-1.37068">
        <ele>89</ele>
        <time>2012-08-20T09:02:13.000Z</time>
      </trkpt>
      <trkpt lat="47.5211" lon="-1.37053">
        <ele>86</ele>
        <time>2012-08-20T09:02:15.000Z</time>
      </trkpt>
      <trkpt lat="47.5211" lon="-1.37046">
        <ele>82</ele>
        <time>2012-08-20T09:02:16.000Z</time>
      </trkpt>
      <trkpt lat="47.5211" lon="-1.37038">
        <ele>82</ele>
        <time>2012-08-20T09:02:17.000Z</time>
      </trkpt>
      <trkpt lat="47.52109" lon="-1.37031">
        <ele>84</ele>
        <time>2012-08-20T09:02:18.000Z</time>
      </trkpt>
      <trkpt lat="47.5211" lon="-1.37018">
        <ele>90</ele>
        <time>2012-08-20T09:02:20.000Z</time>
      </trkpt>
      <trkpt lat="47.52112" lon="-1.37012">
        <ele>89</ele>
        <time>2012-08-20T09:02:21.000Z</time>
      </trkpt>
      <trkpt lat="47.52114" lon="-1.37004">
        <ele>87</ele>
        <time>2012-08-20T09:02:22.000Z</time>
      </trkpt>
      <trkpt lat="47.52116" lon="-1.36998">
        <ele>85</ele>
        <time>2012-08-20T09:02:23.000Z</time>
      </trkpt>
      <trkpt lat="47.5212" lon="-1.3699">
        <ele>86</ele>
        <time>2012-08-20T09:02:24.000Z</time>
      </trkpt>
      <trkpt lat="47.52124" lon="-1.36982">
        <ele>87</ele>
        <time>2012-08-20T09:02:25.000Z</time>
      </trkpt>
      <trkpt lat="47.52128" lon="-1.36974">
        <ele>89</ele>
        <time>2012-08-20T09:02:26.000Z</time>
      </trkpt>
      <trkpt lat="47.52132" lon="-1.36968">
        <ele>89</ele>
        <time>2012-08-20T09:02:27.000Z</time>
      </trkpt>
      <trkpt lat="47.52135" lon="-1.3696">
        <ele>87</ele>
        <time>2012-08-20T09:02:28.000Z</time>
      </trkpt>
      <trkpt lat="47.52138" lon="-1.36951">
        <ele>85</ele>
        <time>2012-08-20T09:02:29.000Z</time>
      </trkpt>
      <trkpt lat="47.5214" lon="-1.36943">
        <ele>83</ele>
        <time>2012-08-20T09:02:30.000Z</time>
      </trkpt>
      <trkpt lat="47.5214" lon="-1.36934">
        <ele>80</ele>
        <time>2012-08-20T09:02:31.000Z</time>
      </trkpt>
      <trkpt lat="47.52141" lon="-1.36927">
        <ele>83</ele>
        <time>2012-08-20T09:02:32.000Z</time>
      </trkpt>
      <trkpt lat="47.52142" lon="-1.36918">
        <ele>85</ele>
        <time>2012-08-20T09:02:33.000Z</time>
      </trkpt>
      <trkpt lat="47.52141" lon="-1.36909">
        <ele>83</ele>
        <time>2012-08-20T09:02:34.000Z</time>
      </trkpt>
      <trkpt lat="47.52141" lon="-1.369">
        <ele>83</ele>
        <time>2012-08-20T09:02:35.000Z</time>
      </trkpt>
      <trkpt lat="47.5214" lon="-1.36892">
        <ele>85</ele>
        <time>2012-08-20T09:02:36.000Z</time>
      </trkpt>
      <trkpt lat="47.5214" lon="-1.36883">
        <ele>86</ele>
        <time>2012-08-20T09:02:37.000Z</time>
      </trkpt>
      <trkpt lat="47.5214" lon="-1.36875">
        <ele>81</ele>
        <time>2012-08-20T09:02:38.000Z</time>
      </trkpt>
      <trkpt lat="47.52139" lon="-1.36866">
        <ele>84</ele>
        <time>2012-08-20T09:02:39.000Z</time>
      </trkpt>
      <trkpt lat="47.52138" lon="-1.36857">
        <ele>85</ele>
        <time>2012-08-20T09:02:40.000Z</time>
      </trkpt>
      <trkpt lat="47.52138" lon="-1.36849">
        <ele>85</ele>
        <time>2012-08-20T09:02:41.000Z</time>
      </trkpt>
      <trkpt lat="47.52138" lon="-1.36841">
        <ele>89</ele>
        <time>2012-08-20T09:02:42.000Z</time>
      </trkpt>
      <trkpt lat="47.52137" lon="-1.36833">
        <ele>91</ele>
        <time>2012-08-20T09:02:43.000Z</time>
      </trkpt>
      <trkpt lat="47.52137" lon="-1.36825">
        <ele>92</ele>
        <time>2012-08-20T09:02:44.000Z</time>
      </trkpt>
      <trkpt lat="47.52137" lon="-1.36816">
        <ele>87</ele>
        <time>2012-08-20T09:02:45.000Z</time>
      </trkpt>
      <trkpt lat="47.52136" lon="-1.36806">
        <ele>88</ele>
        <time>2012-08-20T09:02:46.000Z</time>
      </trkpt>
      <trkpt lat="47.52136" lon="-1.36798">
        <ele>87</ele>
        <time>2012-08-20T09:02:47.000Z</time>
      </trkpt>
      <trkpt lat="47.52136" lon="-1.36785">
        <ele>87</ele>
        <time>2012-08-20T09:02:49.000Z</time>
      </trkpt>
      <trkpt lat="47.52135" lon="-1.36777">
        <ele>83</ele>
        <time>2012-08-20T09:02:50.000Z</time>
      </trkpt>
      <trkpt lat="47.52136" lon="-1.3677">
        <ele>83</ele>
        <time>2012-08-20T09:02:51.000Z</time>
      </trkpt>
      <trkpt lat="47.52135" lon="-1.36758">
        <ele>87</ele>
        <time>2012-08-20T09:02:53.000Z</time>
      </trkpt>
      <trkpt lat="47.52134" lon="-1.36744">
        <ele>86</ele>
        <time>2012-08-20T09:02:55.000Z</time>
      </trkpt>
      <trkpt lat="47.52133" lon="-1.36738">
        <ele>82</ele>
        <time>2012-08-20T09:02:56.000Z</time>
      </trkpt>
      <trkpt lat="47.52132" lon="-1.36731">
        <ele>86</ele>
        <time>2012-08-20T09:02:57.000Z</time>
      </trkpt>
      <trkpt lat="47.52131" lon="-1.36723">
        <ele>87</ele>
        <time>2012-08-20T09:02:58.000Z</time>
      </trkpt>
      <trkpt lat="47.52131" lon="-1.36715">
        <ele>89</ele>
        <time>2012-08-20T09:02:59.000Z</time>
      </trkpt>
      <trkpt lat="47.5213" lon="-1.36708">
        <ele>88</ele>
        <time>2012-08-20T09:03:00.000Z</time>
      </trkpt>
      <trkpt lat="47.52131" lon="-1.36701">
        <ele>90</ele>
        <time>2012-08-20T09:03:01.000Z</time>
      </trkpt>
      <trkpt lat="47.52131" lon="-1.36693">
        <ele>90</ele>
        <time>2012-08-20T09:03:02.000Z</time>
      </trkpt>
      <trkpt lat="47.52131" lon="-1.36685">
        <ele>90</ele>
        <time>2012-08-20T09:03:03.000Z</time>
      </trkpt>
      <trkpt lat="47.52132" lon="-1.36678">
        <ele>88</ele>
        <time>2012-08-20T09:03:04.000Z</time>
      </trkpt>
      <trkpt lat="47.52134" lon="-1.36671">
        <ele>90</ele>
        <time>2012-08-20T09:03:05.000Z</time>
      </trkpt>
      <trkpt lat="47.52135" lon="-1.36664">
        <ele>87</ele>
        <time>2012-08-20T09:03:06.000Z</time>
      </trkpt>
      <trkpt lat="47.52137" lon="-1.36656">
        <ele>85</ele>
        <time>2012-08-20T09:03:07.000Z</time>
      </trkpt>
      <trkpt lat="47.52142" lon="-1.36643">
        <ele>86</ele>
        <time>2012-08-20T09:03:09.000Z</time>
      </trkpt>
      <trkpt lat="47.52145" lon="-1.36636">
        <ele>86</ele>
        <time>2012-08-20T09:03:10.000Z</time>
      </trkpt>
      <trkpt lat="47.52149" lon="-1.36629">
        <ele>84</ele>
        <time>2012-08-20T09:03:11.000Z</time>
      </trkpt>
      <trkpt lat="47.52152" lon="-1.36623">
        <ele>85</ele>
        <time>2012-08-20T09:03:12.000Z</time>
      </trkpt>
      <trkpt lat="47.52155" lon="-1.36616">
        <ele>84</ele>
        <time>2012-08-20T09:03:13.000Z</time>
      </trkpt>
      <trkpt lat="47.52157" lon="-1.36611">
        <ele>85</ele>
        <time>2012-08-20T09:03:14.000Z</time>
      </trkpt>
      <trkpt lat="47.5216" lon="-1.36604">
        <ele>86</ele>
        <time>2012-08-20T09:03:15.000Z</time>
      </trkpt>
      <trkpt lat="47.52164" lon="-1.36596">
        <ele>84</ele>
        <time>2012-08-20T09:03:16.000Z</time>
      </trkpt>
      <trkpt lat="47.52168" lon="-1.36589">
        <ele>86</ele>
        <time>2012-08-20T09:03:17.000Z</time>
      </trkpt>
      <trkpt lat="47.52171" lon="-1.36583">
        <ele>87</ele>
        <time>2012-08-20T09:03:18.000Z</time>
      </trkpt>
      <trkpt lat="47.52175" lon="-1.36576">
        <ele>89</ele>
        <time>2012-08-20T09:03:19.000Z</time>
      </trkpt>
      <trkpt lat="47.52178" lon="-1.36568">
        <ele>89</ele>
        <time>2012-08-20T09:03:20.000Z</time>
      </trkpt>
      <trkpt lat="47.52181" lon="-1.3656">
        <ele>86</ele>
        <time>2012-08-20T09:03:21.000Z</time>
      </trkpt>
      <trkpt lat="47.52183" lon="-1.36552">
        <ele>84</ele>
        <time>2012-08-20T09:03:22.000Z</time>
      </trkpt>
      <trkpt lat="47.52184" lon="-1.36545">
        <ele>86</ele>
        <time>2012-08-20T09:03:23.000Z</time>
      </trkpt>
      <trkpt lat="47.52185" lon="-1.36538">
        <ele>88</ele>
        <time>2012-08-20T09:03:24.000Z</time>
      </trkpt>
      <trkpt lat="47.52184" lon="-1.36527">
        <ele>82</ele>
        <time>2012-08-20T09:03:26.000Z</time>
      </trkpt>
      <trkpt lat="47.52182" lon="-1.36519">
        <ele>87</ele>
        <time>2012-08-20T09:03:27.000Z</time>
      </trkpt>
      <trkpt lat="47.52179" lon="-1.36511">
        <ele>89</ele>
        <time>2012-08-20T09:03:28.000Z</time>
      </trkpt>
      <trkpt lat="47.52178" lon="-1.36505">
        <ele>89</ele>
        <time>2012-08-20T09:03:29.000Z</time>
      </trkpt>
      <trkpt lat="47.52175" lon="-1.36499">
        <ele>89</ele>
        <time>2012-08-20T09:03:30.000Z</time>
      </trkpt>
      <trkpt lat="47.52171" lon="-1.36489">
        <ele>90</ele>
        <time>2012-08-20T09:03:32.000Z</time>
      </trkpt>
      <trkpt lat="47.52166" lon="-1.3648">
        <ele>91</ele>
        <time>2012-08-20T09:03:34.000Z</time>
      </trkpt>
      <trkpt lat="47.52161" lon="-1.3647">
        <ele>90</ele>
        <time>2012-08-20T09:03:36.000Z</time>
      </trkpt>
      <trkpt lat="47.52155" lon="-1.3646">
        <ele>88</ele>
        <time>2012-08-20T09:03:38.000Z</time>
      </trkpt>
      <trkpt lat="47.52153" lon="-1.36454">
        <ele>89</ele>
        <time>2012-08-20T09:03:39.000Z</time>
      </trkpt>
      <trkpt lat="47.5215" lon="-1.36448">
        <ele>92</ele>
        <time>2012-08-20T09:03:40.000Z</time>
      </trkpt>
      <trkpt lat="47.52148" lon="-1.36441">
        <ele>91</ele>
        <time>2012-08-20T09:03:41.000Z</time>
      </trkpt>
      <trkpt lat="47.52145" lon="-1.36431">
        <ele>95</ele>
        <time>2012-08-20T09:03:43.000Z</time>
      </trkpt>
      <trkpt lat="47.52143" lon="-1.36419">
        <ele>93</ele>
        <time>2012-08-20T09:03:45.000Z</time>
      </trkpt>
      <trkpt lat="47.5214" lon="-1.36409">
        <ele>90</ele>
        <time>2012-08-20T09:03:47.000Z</time>
      </trkpt>
      <trkpt lat="47.52138" lon="-1.36398">
        <ele>91</ele>
        <time>2012-08-20T09:03:49.000Z</time>
      </trkpt>
      <trkpt lat="47.52137" lon="-1.36387">
        <ele>89</ele>
        <time>2012-08-20T09:03:51.000Z</time>
      </trkpt>
      <trkpt lat="47.52136" lon="-1.36373">
        <ele>91</ele>
        <time>2012-08-20T09:03:53.000Z</time>
      </trkpt>
      <trkpt lat="47.52135" lon="-1.36366">
        <ele>92</ele>
        <time>2012-08-20T09:03:54.000Z</time>
      </trkpt>
      <trkpt lat="47.52134" lon="-1.36353">
        <ele>92</ele>
        <time>2012-08-20T09:03:56.000Z</time>
      </trkpt>
      <trkpt lat="47.52134" lon="-1.36341">
        <ele>91</ele>
        <time>2012-08-20T09:03:58.000Z</time>
      </trkpt>
      <trkpt lat="47.52134" lon="-1.36334">
        <ele>89</ele>
        <time>2012-08-20T09:03:59.000Z</time>
      </trkpt>
      <trkpt lat="47.52133" lon="-1.36326">
        <ele>88</ele>
        <time>2012-08-20T09:04:00.000Z</time>
      </trkpt>
      <trkpt lat="47.52133" lon="-1.36314">
        <ele>90</ele>
        <time>2012-08-20T09:04:02.000Z</time>
      </trkpt>
      <trkpt lat="47.52132" lon="-1.36307">
        <ele>89</ele>
        <time>2012-08-20T09:04:03.000Z</time>
      </trkpt>
      <trkpt lat="47.52131" lon="-1.363">
        <ele>90</ele>
        <time>2012-08-20T09:04:04.000Z</time>
      </trkpt>
      <trkpt lat="47.5213" lon="-1.36293">
        <ele>90</ele>
        <time>2012-08-20T09:04:05.000Z</time>
      </trkpt>
      <trkpt lat="47.5213" lon="-1.36286">
        <ele>89</ele>
        <time>2012-08-20T09:04:06.000Z</time>
      </trkpt>
      <trkpt lat="47.52129" lon="-1.36279">
        <ele>89</ele>
        <time>2012-08-20T09:04:07.000Z</time>
      </trkpt>
      <trkpt lat="47.52129" lon="-1.3627">
        <ele>90</ele>
        <time>2012-08-20T09:04:08.000Z</time>
      </trkpt>
      <trkpt lat="47.52129" lon="-1.36262">
        <ele>88</ele>
        <time>2012-08-20T09:04:09.000Z</time>
      </trkpt>
      <trkpt lat="47.52129" lon="-1.36254">
        <ele>90</ele>
        <time>2012-08-20T09:04:10.000Z</time>
      </trkpt>
      <trkpt lat="47.5213" lon="-1.36241">
        <ele>91</ele>
        <time>2012-08-20T09:04:12.000Z</time>
      </trkpt>
      <trkpt lat="47.52132" lon="-1.36235">
        <ele>89</ele>
        <time>2012-08-20T09:04:13.000Z</time>
      </trkpt>
      <trkpt lat="47.52133" lon="-1.36222">
        <ele>91</ele>
        <time>2012-08-20T09:04:15.000Z</time>
      </trkpt>
      <trkpt lat="47.52134" lon="-1.36215">
        <ele>92</ele>
        <time>2012-08-20T09:04:16.000Z</time>
      </trkpt>
      <trkpt lat="47.52134" lon="-1.36205">
        <ele>96</ele>
        <time>2012-08-20T09:04:18.000Z</time>
      </trkpt>
      <trkpt lat="47.52135" lon="-1.36194">
        <ele>95</ele>
        <time>2012-08-20T09:04:20.000Z</time>
      </trkpt>
      <trkpt lat="47.52136" lon="-1.36184">
        <ele>95</ele>
        <time>2012-08-20T09:04:21.000Z</time>
      </trkpt>
      <trkpt lat="47.52138" lon="-1.36173">
        <ele>91</ele>
        <time>2012-08-20T09:04:22.000Z</time>
      </trkpt>
      <trkpt lat="47.5214" lon="-1.36162">
        <ele>91</ele>
        <time>2012-08-20T09:04:23.000Z</time>
      </trkpt>
      <trkpt lat="47.52141" lon="-1.36153">
        <ele>91</ele>
        <time>2012-08-20T09:04:24.000Z</time>
      </trkpt>
      <trkpt lat="47.52142" lon="-1.36144">
        <ele>91</ele>
        <time>2012-08-20T09:04:25.000Z</time>
      </trkpt>
      <trkpt lat="47.52144" lon="-1.3613">
        <ele>87</ele>
        <time>2012-08-20T09:04:27.000Z</time>
      </trkpt>
      <trkpt lat="47.52146" lon="-1.36121">
        <ele>85</ele>
        <time>2012-08-20T09:04:28.000Z</time>
      </trkpt>
      <trkpt lat="47.52147" lon="-1.36112">
        <ele>83</ele>
        <time>2012-08-20T09:04:29.000Z</time>
      </trkpt>
      <trkpt lat="47.52149" lon="-1.36102">
        <ele>84</ele>
        <time>2012-08-20T09:04:30.000Z</time>
      </trkpt>
      <trkpt lat="47.5215" lon="-1.36092">
        <ele>84</ele>
        <time>2012-08-20T09:04:31.000Z</time>
      </trkpt>
      <trkpt lat="47.52151" lon="-1.36082">
        <ele>85</ele>
        <time>2012-08-20T09:04:32.000Z</time>
      </trkpt>
      <trkpt lat="47.52153" lon="-1.36072">
        <ele>84</ele>
        <time>2012-08-20T09:04:33.000Z</time>
      </trkpt>
      <trkpt lat="47.52154" lon="-1.36063">
        <ele>85</ele>
        <time>2012-08-20T09:04:34.000Z</time>
      </trkpt>
      <trkpt lat="47.52155" lon="-1.36055">
        <ele>85</ele>
        <time>2012-08-20T09:04:35.000Z</time>
      </trkpt>
      <trkpt lat="47.52155" lon="-1.36048">
        <ele>86</ele>
        <time>2012-08-20T09:04:36.000Z</time>
      </trkpt>
      <trkpt lat="47.52156" lon="-1.3604">
        <ele>86</ele>
        <time>2012-08-20T09:04:37.000Z</time>
      </trkpt>
      <trkpt lat="47.52157" lon="-1.36027">
        <ele>87</ele>
        <time>2012-08-20T09:04:39.000Z</time>
      </trkpt>
      <trkpt lat="47.52159" lon="-1.36015">
        <ele>85</ele>
        <time>2012-08-20T09:04:41.000Z</time>
      </trkpt>
      <trkpt lat="47.52161" lon="-1.36002">
        <ele>88</ele>
        <time>2012-08-20T09:04:43.000Z</time>
      </trkpt>
      <trkpt lat="47.52163" lon="-1.35994">
        <ele>90</ele>
        <time>2012-08-20T09:04:44.000Z</time>
      </trkpt>
      <trkpt lat="47.52164" lon="-1.35987">
        <ele>92</ele>
        <time>2012-08-20T09:04:45.000Z</time>
      </trkpt>
      <trkpt lat="47.52166" lon="-1.3598">
        <ele>92</ele>
        <time>2012-08-20T09:04:46.000Z</time>
      </trkpt>
      <trkpt lat="47.52169" lon="-1.35972">
        <ele>92</ele>
        <time>2012-08-20T09:04:47.000Z</time>
      </trkpt>
      <trkpt lat="47.52172" lon="-1.35964">
        <ele>91</ele>
        <time>2012-08-20T09:04:48.000Z</time>
      </trkpt>
      <trkpt lat="47.52175" lon="-1.35957">
        <ele>92</ele>
        <time>2012-08-20T09:04:49.000Z</time>
      </trkpt>
      <trkpt lat="47.52177" lon="-1.35949">
        <ele>91</ele>
        <time>2012-08-20T09:04:50.000Z</time>
      </trkpt>
      <trkpt lat="47.5218" lon="-1.35942">
        <ele>92</ele>
        <time>2012-08-20T09:04:51.000Z</time>
      </trkpt>
      <trkpt lat="47.52183" lon="-1.35937">
        <ele>90</ele>
        <time>2012-08-20T09:04:52.000Z</time>
      </trkpt>
      <trkpt lat="47.52186" lon="-1.35931">
        <ele>89</ele>
        <time>2012-08-20T09:04:53.000Z</time>
      </trkpt>
      <trkpt lat="47.5219" lon="-1.35925">
        <ele>91</ele>
        <time>2012-08-20T09:04:54.000Z</time>
      </trkpt>
      <trkpt lat="47.52193" lon="-1.3592">
        <ele>90</ele>
        <time>2012-08-20T09:04:55.000Z</time>
      </trkpt>
      <trkpt lat="47.52197" lon="-1.35915">
        <ele>88</ele>
        <time>2012-08-20T09:04:56.000Z</time>
      </trkpt>
      <trkpt lat="47.52201" lon="-1.3591">
        <ele>90</ele>
        <time>2012-08-20T09:04:57.000Z</time>
      </trkpt>
      <trkpt lat="47.52206" lon="-1.35906">
        <ele>90</ele>
        <time>2012-08-20T09:04:58.000Z</time>
      </trkpt>
      <trkpt lat="47.5221" lon="-1.35901">
        <ele>89</ele>
        <time>2012-08-20T09:04:59.000Z</time>
      </trkpt>
      <trkpt lat="47.52214" lon="-1.35897">
        <ele>89</ele>
        <time>2012-08-20T09:05:00.000Z</time>
      </trkpt>
      <trkpt lat="47.52218" lon="-1.35892">
        <ele>91</ele>
        <time>2012-08-20T09:05:01.000Z</time>
      </trkpt>
      <trkpt lat="47.52222" lon="-1.35888">
        <ele>92</ele>
        <time>2012-08-20T09:05:02.000Z</time>
      </trkpt>
      <trkpt lat="47.52229" lon="-1.35883">
        <ele>89</ele>
        <time>2012-08-20T09:05:04.000Z</time>
      </trkpt>
      <trkpt lat="47.52233" lon="-1.35879">
        <ele>88</ele>
        <time>2012-08-20T09:05:05.000Z</time>
      </trkpt>
      <trkpt lat="47.5224" lon="-1.35873">
        <ele>85</ele>
        <time>2012-08-20T09:05:07.000Z</time>
      </trkpt>
      <trkpt lat="47.52247" lon="-1.35866">
        <ele>88</ele>
        <time>2012-08-20T09:05:09.000Z</time>
      </trkpt>
      <trkpt lat="47.52256" lon="-1.35858">
        <ele>89</ele>
        <time>2012-08-20T09:05:11.000Z</time>
      </trkpt>
      <trkpt lat="47.5226" lon="-1.35854">
        <ele>88</ele>
        <time>2012-08-20T09:05:12.000Z</time>
      </trkpt>
      <trkpt lat="47.52264" lon="-1.3585">
        <ele>87</ele>
        <time>2012-08-20T09:05:13.000Z</time>
      </trkpt>
      <trkpt lat="47.52269" lon="-1.35846">
        <ele>87</ele>
        <time>2012-08-20T09:05:14.000Z</time>
      </trkpt>
      <trkpt lat="47.52273" lon="-1.35841">
        <ele>88</ele>
        <time>2012-08-20T09:05:15.000Z</time>
      </trkpt>
      <trkpt lat="47.52279" lon="-1.35832">
        <ele>90</ele>
        <time>2012-08-20T09:05:17.000Z</time>
      </trkpt>
      <trkpt lat="47.52282" lon="-1.35826">
        <ele>87</ele>
        <time>2012-08-20T09:05:18.000Z</time>
      </trkpt>
      <trkpt lat="47.52287" lon="-1.35815">
        <ele>91</ele>
        <time>2012-08-20T09:05:20.000Z</time>
      </trkpt>
      <trkpt lat="47.52292" lon="-1.35804">
        <ele>91</ele>
        <time>2012-08-20T09:05:22.000Z</time>
      </trkpt>
      <trkpt lat="47.52294" lon="-1.35796">
        <ele>90</ele>
        <time>2012-08-20T09:05:23.000Z</time>
      </trkpt>
      <trkpt lat="47.52296" lon="-1.35789">
        <ele>92</ele>
        <time>2012-08-20T09:05:24.000Z</time>
      </trkpt>
      <trkpt lat="47.52298" lon="-1.35779">
        <ele>93</ele>
        <time>2012-08-20T09:05:26.000Z</time>
      </trkpt>
      <trkpt lat="47.52298" lon="-1.35771">
        <ele>93</ele>
        <time>2012-08-20T09:05:28.000Z</time>
      </trkpt>
      <trkpt lat="47.52299" lon="-1.35759">
        <ele>97</ele>
        <time>2012-08-20T09:05:30.000Z</time>
      </trkpt>
      <trkpt lat="47.523" lon="-1.35752">
        <ele>97</ele>
        <time>2012-08-20T09:05:31.000Z</time>
      </trkpt>
      <trkpt lat="47.523" lon="-1.35745">
        <ele>95</ele>
        <time>2012-08-20T09:05:32.000Z</time>
      </trkpt>
      <trkpt lat="47.52301" lon="-1.35736">
        <ele>93</ele>
        <time>2012-08-20T09:05:33.000Z</time>
      </trkpt>
      <trkpt lat="47.52301" lon="-1.35726">
        <ele>94</ele>
        <time>2012-08-20T09:05:34.000Z</time>
      </trkpt>
      <trkpt lat="47.52301" lon="-1.35716">
        <ele>92</ele>
        <time>2012-08-20T09:05:35.000Z</time>
      </trkpt>
      <trkpt lat="47.52302" lon="-1.35706">
        <ele>90</ele>
        <time>2012-08-20T09:05:36.000Z</time>
      </trkpt>
      <trkpt lat="47.52301" lon="-1.35698">
        <ele>90</ele>
        <time>2012-08-20T09:05:37.000Z</time>
      </trkpt>
      <trkpt lat="47.523" lon="-1.35691">
        <ele>88</ele>
        <time>2012-08-20T09:05:38.000Z</time>
      </trkpt>
      <trkpt lat="47.52298" lon="-1.35684">
        <ele>88</ele>
        <time>2012-08-20T09:05:39.000Z</time>
      </trkpt>
      <trkpt lat="47.52296" lon="-1.35677">
        <ele>87</ele>
        <time>2012-08-20T09:05:40.000Z</time>
      </trkpt>
      <trkpt lat="47.52294" lon="-1.35665">
        <ele>88</ele>
        <time>2012-08-20T09:05:42.000Z</time>
      </trkpt>
      <trkpt lat="47.52292" lon="-1.35655">
        <ele>90</ele>
        <time>2012-08-20T09:05:44.000Z</time>
      </trkpt>
      <trkpt lat="47.52289" lon="-1.35645">
        <ele>94</ele>
        <time>2012-08-20T09:05:46.000Z</time>
      </trkpt>
      <trkpt lat="47.52287" lon="-1.35638">
        <ele>91</ele>
        <time>2012-08-20T09:05:48.000Z</time>
      </trkpt>
      <trkpt lat="47.52283" lon="-1.35632">
        <ele>88</ele>
        <time>2012-08-20T09:05:50.000Z</time>
      </trkpt>
      <trkpt lat="47.52279" lon="-1.35626">
        <ele>91</ele>
        <time>2012-08-20T09:05:52.000Z</time>
      </trkpt>
      <trkpt lat="47.52273" lon="-1.35616">
        <ele>86</ele>
        <time>2012-08-20T09:05:54.000Z</time>
      </trkpt>
      <trkpt lat="47.52267" lon="-1.35609">
        <ele>91</ele>
        <time>2012-08-20T09:05:56.000Z</time>
      </trkpt>
      <trkpt lat="47.52262" lon="-1.35602">
        <ele>93</ele>
        <time>2012-08-20T09:05:58.000Z</time>
      </trkpt>
      <trkpt lat="47.52257" lon="-1.35596">
        <ele>96</ele>
        <time>2012-08-20T09:06:00.000Z</time>
      </trkpt>
      <trkpt lat="47.52251" lon="-1.35589">
        <ele>94</ele>
        <time>2012-08-20T09:06:02.000Z</time>
      </trkpt>
      <trkpt lat="47.52247" lon="-1.35585">
        <ele>93</ele>
        <time>2012-08-20T09:06:03.000Z</time>
      </trkpt>
      <trkpt lat="47.5224" lon="-1.3558">
        <ele>99</ele>
        <time>2012-08-20T09:06:05.000Z</time>
      </trkpt>
      <trkpt lat="47.52234" lon="-1.35572">
        <ele>101</ele>
        <time>2012-08-20T09:06:07.000Z</time>
      </trkpt>
      <trkpt lat="47.52231" lon="-1.35562">
        <ele>104</ele>
        <time>2012-08-20T09:06:09.000Z</time>
      </trkpt>
      <trkpt lat="47.52228" lon="-1.35555">
        <ele>104</ele>
        <time>2012-08-20T09:06:10.000Z</time>
      </trkpt>
      <trkpt lat="47.52226" lon="-1.35547">
        <ele>101</ele>
        <time>2012-08-20T09:06:11.000Z</time>
      </trkpt>
      <trkpt lat="47.52223" lon="-1.3554">
        <ele>99</ele>
        <time>2012-08-20T09:06:12.000Z</time>
      </trkpt>
      <trkpt lat="47.52221" lon="-1.35533">
        <ele>97</ele>
        <time>2012-08-20T09:06:13.000Z</time>
      </trkpt>
      <trkpt lat="47.52221" lon="-1.35525">
        <ele>99</ele>
        <time>2012-08-20T09:06:14.000Z</time>
      </trkpt>
      <trkpt lat="47.52221" lon="-1.35517">
        <ele>96</ele>
        <time>2012-08-20T09:06:15.000Z</time>
      </trkpt>
      <trkpt lat="47.52219" lon="-1.3551">
        <ele>96</ele>
        <time>2012-08-20T09:06:16.000Z</time>
      </trkpt>
      <trkpt lat="47.52218" lon="-1.35502">
        <ele>94</ele>
        <time>2012-08-20T09:06:17.000Z</time>
      </trkpt>
      <trkpt lat="47.52216" lon="-1.35492">
        <ele>99</ele>
        <time>2012-08-20T09:06:19.000Z</time>
      </trkpt>
      <trkpt lat="47.52217" lon="-1.35482">
        <ele>96</ele>
        <time>2012-08-20T09:06:21.000Z</time>
      </trkpt>
      <trkpt lat="47.52219" lon="-1.3547">
        <ele>94</ele>
        <time>2012-08-20T09:06:23.000Z</time>
      </trkpt>
      <trkpt lat="47.52221" lon="-1.35457">
        <ele>94</ele>
        <time>2012-08-20T09:06:25.000Z</time>
      </trkpt>
      <trkpt lat="47.52222" lon="-1.35451">
        <ele>95</ele>
        <time>2012-08-20T09:06:26.000Z</time>
      </trkpt>
      <trkpt lat="47.52224" lon="-1.3544">
        <ele>93</ele>
        <time>2012-08-20T09:06:28.000Z</time>
      </trkpt>
      <trkpt lat="47.52226" lon="-1.35433">
        <ele>90</ele>
        <time>2012-08-20T09:06:29.000Z</time>
      </trkpt>
      <trkpt lat="47.52228" lon="-1.35426">
        <ele>89</ele>
        <time>2012-08-20T09:06:30.000Z</time>
      </trkpt>
      <trkpt lat="47.5223" lon="-1.35418">
        <ele>90</ele>
        <time>2012-08-20T09:06:31.000Z</time>
      </trkpt>
      <trkpt lat="47.52232" lon="-1.35409">
        <ele>90</ele>
        <time>2012-08-20T09:06:32.000Z</time>
      </trkpt>
      <trkpt lat="47.52234" lon="-1.35403">
        <ele>94</ele>
        <time>2012-08-20T09:06:33.000Z</time>
      </trkpt>
      <trkpt lat="47.52237" lon="-1.35396">
        <ele>95</ele>
        <time>2012-08-20T09:06:34.000Z</time>
      </trkpt>
      <trkpt lat="47.5224" lon="-1.3539">
        <ele>96</ele>
        <time>2012-08-20T09:06:35.000Z</time>
      </trkpt>
      <trkpt lat="47.52243" lon="-1.35383">
        <ele>94</ele>
        <time>2012-08-20T09:06:36.000Z</time>
      </trkpt>
      <trkpt lat="47.52245" lon="-1.35377">
        <ele>97</ele>
        <time>2012-08-20T09:06:37.000Z</time>
      </trkpt>
      <trkpt lat="47.52248" lon="-1.35369">
        <ele>96</ele>
        <time>2012-08-20T09:06:38.000Z</time>
      </trkpt>
      <trkpt lat="47.52251" lon="-1.35363">
        <ele>98</ele>
        <time>2012-08-20T09:06:39.000Z</time>
      </trkpt>
      <trkpt lat="47.52254" lon="-1.35355">
        <ele>98</ele>
        <time>2012-08-20T09:06:40.000Z</time>
      </trkpt>
      <trkpt lat="47.52257" lon="-1.35342">
        <ele>97</ele>
        <time>2012-08-20T09:06:42.000Z</time>
      </trkpt>
      <trkpt lat="47.52259" lon="-1.35334">
        <ele>95</ele>
        <time>2012-08-20T09:06:43.000Z</time>
      </trkpt>
      <trkpt lat="47.5226" lon="-1.35321">
        <ele>94</ele>
        <time>2012-08-20T09:06:45.000Z</time>
      </trkpt>
      <trkpt lat="47.52261" lon="-1.35313">
        <ele>95</ele>
        <time>2012-08-20T09:06:46.000Z</time>
      </trkpt>
      <trkpt lat="47.52263" lon="-1.35304">
        <ele>97</ele>
        <time>2012-08-20T09:06:47.000Z</time>
      </trkpt>
      <trkpt lat="47.52264" lon="-1.35297">
        <ele>98</ele>
        <time>2012-08-20T09:06:48.000Z</time>
      </trkpt>
      <trkpt lat="47.52266" lon="-1.35289">
        <ele>99</ele>
        <time>2012-08-20T09:06:49.000Z</time>
      </trkpt>
      <trkpt lat="47.52268" lon="-1.35279">
        <ele>98</ele>
        <time>2012-08-20T09:06:50.000Z</time>
      </trkpt>
      <trkpt lat="47.5227" lon="-1.35272">
        <ele>97</ele>
        <time>2012-08-20T09:06:51.000Z</time>
      </trkpt>
      <trkpt lat="47.52271" lon="-1.35265">
        <ele>97</ele>
        <time>2012-08-20T09:06:52.000Z</time>
      </trkpt>
      <trkpt lat="47.52273" lon="-1.35257">
        <ele>93</ele>
        <time>2012-08-20T09:06:53.000Z</time>
      </trkpt>
      <trkpt lat="47.52274" lon="-1.3525">
        <ele>94</ele>
        <time>2012-08-20T09:06:54.000Z</time>
      </trkpt>
      <trkpt lat="47.52275" lon="-1.35243">
        <ele>94</ele>
        <time>2012-08-20T09:06:55.000Z</time>
      </trkpt>
      <trkpt lat="47.52276" lon="-1.35236">
        <ele>94</ele>
        <time>2012-08-20T09:06:56.000Z</time>
      </trkpt>
      <trkpt lat="47.52278" lon="-1.35227">
        <ele>94</ele>
        <time>2012-08-20T09:06:57.000Z</time>
      </trkpt>
      <trkpt lat="47.52279" lon="-1.35218">
        <ele>90</ele>
        <time>2012-08-20T09:06:58.000Z</time>
      </trkpt>
      <trkpt lat="47.5228" lon="-1.3521">
        <ele>89</ele>
        <time>2012-08-20T09:06:59.000Z</time>
      </trkpt>
      <trkpt lat="47.52282" lon="-1.35202">
        <ele>88</ele>
        <time>2012-08-20T09:07:00.000Z</time>
      </trkpt>
      <trkpt lat="47.52283" lon="-1.35193">
        <ele>89</ele>
        <time>2012-08-20T09:07:01.000Z</time>
      </trkpt>
      <trkpt lat="47.52286" lon="-1.35179">
        <ele>89</ele>
        <time>2012-08-20T09:07:03.000Z</time>
      </trkpt>
      <trkpt lat="47.52287" lon="-1.35171">
        <ele>88</ele>
        <time>2012-08-20T09:07:04.000Z</time>
      </trkpt>
      <trkpt lat="47.52289" lon="-1.35164">
        <ele>89</ele>
        <time>2012-08-20T09:07:05.000Z</time>
      </trkpt>
      <trkpt lat="47.5229" lon="-1.35157">
        <ele>91</ele>
        <time>2012-08-20T09:07:06.000Z</time>
      </trkpt>
      <trkpt lat="47.5229" lon="-1.3515">
        <ele>90</ele>
        <time>2012-08-20T09:07:07.000Z</time>
      </trkpt>
      <trkpt lat="47.52291" lon="-1.35142">
        <ele>91</ele>
        <time>2012-08-20T09:07:08.000Z</time>
      </trkpt>
      <trkpt lat="47.52292" lon="-1.35133">
        <ele>90</ele>
        <time>2012-08-20T09:07:09.000Z</time>
      </trkpt>
      <trkpt lat="47.52294" lon="-1.35124">
        <ele>87</ele>
        <time>2012-08-20T09:07:10.000Z</time>
      </trkpt>
      <trkpt lat="47.52296" lon="-1.35114">
        <ele>87</ele>
        <time>2012-08-20T09:07:11.000Z</time>
      </trkpt>
      <trkpt lat="47.52298" lon="-1.35103">
        <ele>84</ele>
        <time>2012-08-20T09:07:12.000Z</time>
      </trkpt>
      <trkpt lat="47.52302" lon="-1.35092">
        <ele>84</ele>
        <time>2012-08-20T09:07:13.000Z</time>
      </trkpt>
      <trkpt lat="47.52304" lon="-1.35084">
        <ele>84</ele>
        <time>2012-08-20T09:07:14.000Z</time>
      </trkpt>
      <trkpt lat="47.52306" lon="-1.35076">
        <ele>84</ele>
        <time>2012-08-20T09:07:15.000Z</time>
      </trkpt>
      <trkpt lat="47.52307" lon="-1.35068">
        <ele>83</ele>
        <time>2012-08-20T09:07:16.000Z</time>
      </trkpt>
      <trkpt lat="47.52309" lon="-1.3506">
        <ele>82</ele>
        <time>2012-08-20T09:07:17.000Z</time>
      </trkpt>
      <trkpt lat="47.5231" lon="-1.35053">
        <ele>83</ele>
        <time>2012-08-20T09:07:18.000Z</time>
      </trkpt>
      <trkpt lat="47.52311" lon="-1.35046">
        <ele>83</ele>
        <time>2012-08-20T09:07:19.000Z</time>
      </trkpt>
      <trkpt lat="47.52314" lon="-1.35033">
        <ele>83</ele>
        <time>2012-08-20T09:07:21.000Z</time>
      </trkpt>
      <trkpt lat="47.52316" lon="-1.35021">
        <ele>83</ele>
        <time>2012-08-20T09:07:23.000Z</time>
      </trkpt>
      <trkpt lat="47.52317" lon="-1.35014">
        <ele>83</ele>
        <time>2012-08-20T09:07:24.000Z</time>
      </trkpt>
      <trkpt lat="47.5232" lon="-1.35003">
        <ele>83</ele>
        <time>2012-08-20T09:07:26.000Z</time>
      </trkpt>
      <trkpt lat="47.52322" lon="-1.34996">
        <ele>82</ele>
        <time>2012-08-20T09:07:27.000Z</time>
      </trkpt>
      <trkpt lat="47.52323" lon="-1.34985">
        <ele>81</ele>
        <time>2012-08-20T09:07:29.000Z</time>
      </trkpt>
      <trkpt lat="47.52324" lon="-1.34973">
        <ele>81</ele>
        <time>2012-08-20T09:07:31.000Z</time>
      </trkpt>
      <trkpt lat="47.52325" lon="-1.34966">
        <ele>80</ele>
        <time>2012-08-20T09:07:32.000Z</time>
      </trkpt>
      <trkpt lat="47.52325" lon="-1.34959">
        <ele>79</ele>
        <time>2012-08-20T09:07:33.000Z</time>
      </trkpt>
      <trkpt lat="47.52326" lon="-1.34947">
        <ele>79</ele>
        <time>2012-08-20T09:07:35.000Z</time>
      </trkpt>
      <trkpt lat="47.52328" lon="-1.34934">
        <ele>79</ele>
        <time>2012-08-20T09:07:37.000Z</time>
      </trkpt>
      <trkpt lat="47.5233" lon="-1.34922">
        <ele>80</ele>
        <time>2012-08-20T09:07:39.000Z</time>
      </trkpt>
      <trkpt lat="47.52331" lon="-1.34916">
        <ele>80</ele>
        <time>2012-08-20T09:07:40.000Z</time>
      </trkpt>
      <trkpt lat="47.52332" lon="-1.34903">
        <ele>79</ele>
        <time>2012-08-20T09:07:42.000Z</time>
      </trkpt>
      <trkpt lat="47.52335" lon="-1.34893">
        <ele>82</ele>
        <time>2012-08-20T09:07:44.000Z</time>
      </trkpt>
      <trkpt lat="47.52338" lon="-1.34882">
        <ele>81</ele>
        <time>2012-08-20T09:07:46.000Z</time>
      </trkpt>
      <trkpt lat="47.52342" lon="-1.34871">
        <ele>82</ele>
        <time>2012-08-20T09:07:48.000Z</time>
      </trkpt>
      <trkpt lat="47.52346" lon="-1.34862">
        <ele>85</ele>
        <time>2012-08-20T09:07:50.000Z</time>
      </trkpt>
      <trkpt lat="47.52352" lon="-1.34854">
        <ele>84</ele>
        <time>2012-08-20T09:07:52.000Z</time>
      </trkpt>
      <trkpt lat="47.52358" lon="-1.34847">
        <ele>84</ele>
        <time>2012-08-20T09:07:54.000Z</time>
      </trkpt>
      <trkpt lat="47.52366" lon="-1.3484">
        <ele>86</ele>
        <time>2012-08-20T09:07:56.000Z</time>
      </trkpt>
      <trkpt lat="47.52373" lon="-1.34834">
        <ele>87</ele>
        <time>2012-08-20T09:07:58.000Z</time>
      </trkpt>
      <trkpt lat="47.52377" lon="-1.3483">
        <ele>86</ele>
        <time>2012-08-20T09:07:59.000Z</time>
      </trkpt>
      <trkpt lat="47.52385" lon="-1.34824">
        <ele>84</ele>
        <time>2012-08-20T09:08:01.000Z</time>
      </trkpt>
      <trkpt lat="47.52389" lon="-1.34821">
        <ele>84</ele>
        <time>2012-08-20T09:08:02.000Z</time>
      </trkpt>
      <trkpt lat="47.52394" lon="-1.34818">
        <ele>85</ele>
        <time>2012-08-20T09:08:03.000Z</time>
      </trkpt>
      <trkpt lat="47.52398" lon="-1.34815">
        <ele>86</ele>
        <time>2012-08-20T09:08:04.000Z</time>
      </trkpt>
      <trkpt lat="47.52403" lon="-1.34811">
        <ele>87</ele>
        <time>2012-08-20T09:08:05.000Z</time>
      </trkpt>
      <trkpt lat="47.52407" lon="-1.34808">
        <ele>87</ele>
        <time>2012-08-20T09:08:06.000Z</time>
      </trkpt>
      <trkpt lat="47.52414" lon="-1.34802">
        <ele>82</ele>
        <time>2012-08-20T09:08:08.000Z</time>
      </trkpt>
      <trkpt lat="47.52418" lon="-1.34798">
        <ele>83</ele>
        <time>2012-08-20T09:08:09.000Z</time>
      </trkpt>
      <trkpt lat="47.52422" lon="-1.34795">
        <ele>85</ele>
        <time>2012-08-20T09:08:10.000Z</time>
      </trkpt>
      <trkpt lat="47.52429" lon="-1.34789">
        <ele>87</ele>
        <time>2012-08-20T09:08:12.000Z</time>
      </trkpt>
      <trkpt lat="47.52436" lon="-1.34783">
        <ele>88</ele>
        <time>2012-08-20T09:08:14.000Z</time>
      </trkpt>
      <trkpt lat="47.5244" lon="-1.34778">
        <ele>88</ele>
        <time>2012-08-20T09:08:15.000Z</time>
      </trkpt>
      <trkpt lat="47.52447" lon="-1.34771">
        <ele>85</ele>
        <time>2012-08-20T09:08:17.000Z</time>
      </trkpt>
      <trkpt lat="47.52451" lon="-1.34767">
        <ele>86</ele>
        <time>2012-08-20T09:08:18.000Z</time>
      </trkpt>
      <trkpt lat="47.52455" lon="-1.34763">
        <ele>86</ele>
        <time>2012-08-20T09:08:19.000Z</time>
      </trkpt>
      <trkpt lat="47.52458" lon="-1.34758">
        <ele>88</ele>
        <time>2012-08-20T09:08:20.000Z</time>
      </trkpt>
      <trkpt lat="47.52462" lon="-1.34753">
        <ele>85</ele>
        <time>2012-08-20T09:08:21.000Z</time>
      </trkpt>
      <trkpt lat="47.52466" lon="-1.34747">
        <ele>84</ele>
        <time>2012-08-20T09:08:22.000Z</time>
      </trkpt>
      <trkpt lat="47.52469" lon="-1.34741">
        <ele>84</ele>
        <time>2012-08-20T09:08:23.000Z</time>
      </trkpt>
      <trkpt lat="47.52475" lon="-1.34732">
        <ele>84</ele>
        <time>2012-08-20T09:08:25.000Z</time>
      </trkpt>
      <trkpt lat="47.52479" lon="-1.34726">
        <ele>84</ele>
        <time>2012-08-20T09:08:26.000Z</time>
      </trkpt>
      <trkpt lat="47.52482" lon="-1.34721">
        <ele>85</ele>
        <time>2012-08-20T09:08:27.000Z</time>
      </trkpt>
      <trkpt lat="47.52485" lon="-1.34716">
        <ele>85</ele>
        <time>2012-08-20T09:08:28.000Z</time>
      </trkpt>
      <trkpt lat="47.52488" lon="-1.3471">
        <ele>84</ele>
        <time>2012-08-20T09:08:29.000Z</time>
      </trkpt>
      <trkpt lat="47.52492" lon="-1.34705">
        <ele>84</ele>
        <time>2012-08-20T09:08:30.000Z</time>
      </trkpt>
      <trkpt lat="47.52495" lon="-1.347">
        <ele>85</ele>
        <time>2012-08-20T09:08:31.000Z</time>
      </trkpt>
      <trkpt lat="47.52499" lon="-1.34692">
        <ele>87</ele>
        <time>2012-08-20T09:08:33.000Z</time>
      </trkpt>
      <trkpt lat="47.52502" lon="-1.34687">
        <ele>85</ele>
        <time>2012-08-20T09:08:36.000Z</time>
      </trkpt>
      <trkpt lat="47.52506" lon="-1.34684">
        <ele>84</ele>
        <time>2012-08-20T09:10:16.000Z</time>
      </trkpt>
      <trkpt lat="47.52509" lon="-1.34689">
        <ele>85</ele>
        <time>2012-08-20T09:10:26.000Z</time>
      </trkpt>
      <trkpt lat="47.52513" lon="-1.34694">
        <ele>83</ele>
        <time>2012-08-20T09:10:30.000Z</time>
      </trkpt>
      <trkpt lat="47.52518" lon="-1.347">
        <ele>81</ele>
        <time>2012-08-20T09:10:33.000Z</time>
      </trkpt>
      <trkpt lat="47.52523" lon="-1.34705">
        <ele>83</ele>
        <time>2012-08-20T09:10:36.000Z</time>
      </trkpt>
      <trkpt lat="47.52526" lon="-1.34711">
        <ele>83</ele>
        <time>2012-08-20T09:10:38.000Z</time>
      </trkpt>
      <trkpt lat="47.52528" lon="-1.34717">
        <ele>82</ele>
        <time>2012-08-20T09:10:40.000Z</time>
      </trkpt>
      <trkpt lat="47.52531" lon="-1.34722">
        <ele>84</ele>
        <time>2012-08-20T09:10:42.000Z</time>
      </trkpt>
      <trkpt lat="47.52534" lon="-1.34731">
        <ele>88</ele>
        <time>2012-08-20T09:10:45.000Z</time>
      </trkpt>
      <trkpt lat="47.52535" lon="-1.34738">
        <ele>89</ele>
        <time>2012-08-20T09:10:47.000Z</time>
      </trkpt>
      <trkpt lat="47.52537" lon="-1.34745">
        <ele>85</ele>
        <time>2012-08-20T09:10:49.000Z</time>
      </trkpt>
      <trkpt lat="47.52539" lon="-1.34755">
        <ele>83</ele>
        <time>2012-08-20T09:10:51.000Z</time>
      </trkpt>
      <trkpt lat="47.52542" lon="-1.34764">
        <ele>84</ele>
        <time>2012-08-20T09:10:53.000Z</time>
      </trkpt>
      <trkpt lat="47.52541" lon="-1.34772">
        <ele>86</ele>
        <time>2012-08-20T09:10:56.000Z</time>
      </trkpt>
      <trkpt lat="47.52541" lon="-1.34779">
        <ele>84</ele>
        <time>2012-08-20T09:10:59.000Z</time>
      </trkpt>
      <trkpt lat="47.52542" lon="-1.34787">
        <ele>84</ele>
        <time>2012-08-20T09:11:04.000Z</time>
      </trkpt>
      <trkpt lat="47.52543" lon="-1.34794">
        <ele>82</ele>
        <time>2012-08-20T09:11:08.000Z</time>
      </trkpt>
      <trkpt lat="47.52544" lon="-1.34801">
        <ele>85</ele>
        <time>2012-08-20T09:11:12.000Z</time>
      </trkpt>
      <trkpt lat="47.52545" lon="-1.34808">
        <ele>86</ele>
        <time>2012-08-20T09:11:16.000Z</time>
      </trkpt>
      <trkpt lat="47.52546" lon="-1.34815">
        <ele>83</ele>
        <time>2012-08-20T09:11:21.000Z</time>
      </trkpt>
      <trkpt lat="47.52547" lon="-1.34823">
        <ele>84</ele>
        <time>2012-08-20T09:11:26.000Z</time>
      </trkpt>
      <trkpt lat="47.52548" lon="-1.34831">
        <ele>83</ele>
        <time>2012-08-20T09:11:28.000Z</time>
      </trkpt>
      <trkpt lat="47.52548" lon="-1.34839">
        <ele>84</ele>
        <time>2012-08-20T09:11:30.000Z</time>
      </trkpt>
      <trkpt lat="47.52549" lon="-1.34849">
        <ele>84</ele>
        <time>2012-08-20T09:11:32.000Z</time>
      </trkpt>
      <trkpt lat="47.52549" lon="-1.3486">
        <ele>83</ele>
        <time>2012-08-20T09:11:34.000Z</time>
      </trkpt>
      <trkpt lat="47.5255" lon="-1.3487">
        <ele>85</ele>
        <time>2012-08-20T09:11:36.000Z</time>
      </trkpt>
      <trkpt lat="47.52552" lon="-1.34881">
        <ele>85</ele>
        <time>2012-08-20T09:11:38.000Z</time>
      </trkpt>
      <trkpt lat="47.52553" lon="-1.34891">
        <ele>85</ele>
        <time>2012-08-20T09:11:40.000Z</time>
      </trkpt>
      <trkpt lat="47.52554" lon="-1.349">
        <ele>86</ele>
        <time>2012-08-20T09:11:42.000Z</time>
      </trkpt>
      <trkpt lat="47.52556" lon="-1.34909">
        <ele>83</ele>
        <time>2012-08-20T09:11:44.000Z</time>
      </trkpt>
      <trkpt lat="47.52558" lon="-1.34918">
        <ele>82</ele>
        <time>2012-08-20T09:11:46.000Z</time>
      </trkpt>
      <trkpt lat="47.5256" lon="-1.34927">
        <ele>81</ele>
        <time>2012-08-20T09:11:48.000Z</time>
      </trkpt>
      <trkpt lat="47.52562" lon="-1.34937">
        <ele>81</ele>
        <time>2012-08-20T09:11:50.000Z</time>
      </trkpt>
      <trkpt lat="47.52566" lon="-1.34947">
        <ele>82</ele>
        <time>2012-08-20T09:11:52.000Z</time>
      </trkpt>
      <trkpt lat="47.5257" lon="-1.34959">
        <ele>85</ele>
        <time>2012-08-20T09:11:54.000Z</time>
      </trkpt>
      <trkpt lat="47.52575" lon="-1.34967">
        <ele>83</ele>
        <time>2012-08-20T09:11:56.000Z</time>
      </trkpt>
      <trkpt lat="47.5258" lon="-1.34975">
        <ele>81</ele>
        <time>2012-08-20T09:11:58.000Z</time>
      </trkpt>
      <trkpt lat="47.52586" lon="-1.34982">
        <ele>84</ele>
        <time>2012-08-20T09:12:00.000Z</time>
      </trkpt>
      <trkpt lat="47.52591" lon="-1.34989">
        <ele>88</ele>
        <time>2012-08-20T09:12:02.000Z</time>
      </trkpt>
      <trkpt lat="47.52597" lon="-1.34997">
        <ele>88</ele>
        <time>2012-08-20T09:12:04.000Z</time>
      </trkpt>
      <trkpt lat="47.52604" lon="-1.35005">
        <ele>90</ele>
        <time>2012-08-20T09:12:06.000Z</time>
      </trkpt>
      <trkpt lat="47.5261" lon="-1.35014">
        <ele>91</ele>
        <time>2012-08-20T09:12:08.000Z</time>
      </trkpt>
      <trkpt lat="47.52616" lon="-1.35023">
        <ele>89</ele>
        <time>2012-08-20T09:12:10.000Z</time>
      </trkpt>
      <trkpt lat="47.52622" lon="-1.35031">
        <ele>84</ele>
        <time>2012-08-20T09:12:12.000Z</time>
      </trkpt>
      <trkpt lat="47.52625" lon="-1.35036">
        <ele>86</ele>
        <time>2012-08-20T09:12:14.000Z</time>
      </trkpt>
      <trkpt lat="47.52631" lon="-1.35042">
        <ele>81</ele>
        <time>2012-08-20T09:12:17.000Z</time>
      </trkpt>
      <trkpt lat="47.52634" lon="-1.35048">
        <ele>85</ele>
        <time>2012-08-20T09:12:19.000Z</time>
      </trkpt>
      <trkpt lat="47.52638" lon="-1.35055">
        <ele>85</ele>
        <time>2012-08-20T09:12:21.000Z</time>
      </trkpt>
      <trkpt lat="47.52641" lon="-1.35064">
        <ele>86</ele>
        <time>2012-08-20T09:12:23.000Z</time>
      </trkpt>
      <trkpt lat="47.52645" lon="-1.35074">
        <ele>86</ele>
        <time>2012-08-20T09:12:25.000Z</time>
      </trkpt>
      <trkpt lat="47.5265" lon="-1.35082">
        <ele>85</ele>
        <time>2012-08-20T09:12:27.000Z</time>
      </trkpt>
      <trkpt lat="47.52654" lon="-1.35091">
        <ele>85</ele>
        <time>2012-08-20T09:12:29.000Z</time>
      </trkpt>
      <trkpt lat="47.52658" lon="-1.351">
        <ele>81</ele>
        <time>2012-08-20T09:12:31.000Z</time>
      </trkpt>
      <trkpt lat="47.52662" lon="-1.35108">
        <ele>82</ele>
        <time>2012-08-20T09:12:33.000Z</time>
      </trkpt>
      <trkpt lat="47.52666" lon="-1.35116">
        <ele>85</ele>
        <time>2012-08-20T09:12:35.000Z</time>
      </trkpt>
      <trkpt lat="47.52671" lon="-1.35125">
        <ele>87</ele>
        <time>2012-08-20T09:12:37.000Z</time>
      </trkpt>
      <trkpt lat="47.52676" lon="-1.35136">
        <ele>90</ele>
        <time>2012-08-20T09:12:39.000Z</time>
      </trkpt>
      <trkpt lat="47.5268" lon="-1.35142">
        <ele>89</ele>
        <time>2012-08-20T09:12:40.000Z</time>
      </trkpt>
      <trkpt lat="47.52684" lon="-1.35153">
        <ele>92</ele>
        <time>2012-08-20T09:12:42.000Z</time>
      </trkpt>
      <trkpt lat="47.52687" lon="-1.35158">
        <ele>92</ele>
        <time>2012-08-20T09:12:43.000Z</time>
      </trkpt>
      <trkpt lat="47.52692" lon="-1.35168">
        <ele>92</ele>
        <time>2012-08-20T09:12:45.000Z</time>
      </trkpt>
      <trkpt lat="47.52696" lon="-1.35178">
        <ele>90</ele>
        <time>2012-08-20T09:12:47.000Z</time>
      </trkpt>
      <trkpt lat="47.52699" lon="-1.3519">
        <ele>92</ele>
        <time>2012-08-20T09:12:49.000Z</time>
      </trkpt>
      <trkpt lat="47.52702" lon="-1.35201">
        <ele>91</ele>
        <time>2012-08-20T09:12:51.000Z</time>
      </trkpt>
      <trkpt lat="47.52705" lon="-1.35212">
        <ele>89</ele>
        <time>2012-08-20T09:12:53.000Z</time>
      </trkpt>
      <trkpt lat="47.52709" lon="-1.35224">
        <ele>92</ele>
        <time>2012-08-20T09:12:55.000Z</time>
      </trkpt>
      <trkpt lat="47.5271" lon="-1.3523">
        <ele>89</ele>
        <time>2012-08-20T09:12:56.000Z</time>
      </trkpt>
      <trkpt lat="47.52712" lon="-1.35236">
        <ele>89</ele>
        <time>2012-08-20T09:12:57.000Z</time>
      </trkpt>
      <trkpt lat="47.52715" lon="-1.35242">
        <ele>89</ele>
        <time>2012-08-20T09:12:58.000Z</time>
      </trkpt>
      <trkpt lat="47.52717" lon="-1.35249">
        <ele>89</ele>
        <time>2012-08-20T09:12:59.000Z</time>
      </trkpt>
      <trkpt lat="47.52721" lon="-1.3526">
        <ele>90</ele>
        <time>2012-08-20T09:13:01.000Z</time>
      </trkpt>
      <trkpt lat="47.52723" lon="-1.35266">
        <ele>89</ele>
        <time>2012-08-20T09:13:02.000Z</time>
      </trkpt>
      <trkpt lat="47.52725" lon="-1.35273">
        <ele>89</ele>
        <time>2012-08-20T09:13:03.000Z</time>
      </trkpt>
      <trkpt lat="47.52729" lon="-1.35286">
        <ele>87</ele>
        <time>2012-08-20T09:13:05.000Z</time>
      </trkpt>
      <trkpt lat="47.52731" lon="-1.35292">
        <ele>87</ele>
        <time>2012-08-20T09:13:06.000Z</time>
      </trkpt>
      <trkpt lat="47.52733" lon="-1.35298">
        <ele>88</ele>
        <time>2012-08-20T09:13:07.000Z</time>
      </trkpt>
      <trkpt lat="47.52734" lon="-1.3531">
        <ele>90</ele>
        <time>2012-08-20T09:13:09.000Z</time>
      </trkpt>
      <trkpt lat="47.52736" lon="-1.35322">
        <ele>89</ele>
        <time>2012-08-20T09:13:11.000Z</time>
      </trkpt>
      <trkpt lat="47.52736" lon="-1.35329">
        <ele>87</ele>
        <time>2012-08-20T09:13:12.000Z</time>
      </trkpt>
      <trkpt lat="47.52737" lon="-1.35336">
        <ele>88</ele>
        <time>2012-08-20T09:13:13.000Z</time>
      </trkpt>
      <trkpt lat="47.52738" lon="-1.35343">
        <ele>89</ele>
        <time>2012-08-20T09:13:14.000Z</time>
      </trkpt>
      <trkpt lat="47.52739" lon="-1.35353">
        <ele>88</ele>
        <time>2012-08-20T09:13:15.000Z</time>
      </trkpt>
      <trkpt lat="47.5274" lon="-1.3536">
        <ele>87</ele>
        <time>2012-08-20T09:13:16.000Z</time>
      </trkpt>
      <trkpt lat="47.52741" lon="-1.35368">
        <ele>87</ele>
        <time>2012-08-20T09:13:17.000Z</time>
      </trkpt>
      <trkpt lat="47.52742" lon="-1.35376">
        <ele>85</ele>
        <time>2012-08-20T09:13:18.000Z</time>
      </trkpt>
      <trkpt lat="47.52744" lon="-1.35384">
        <ele>83</ele>
        <time>2012-08-20T09:13:19.000Z</time>
      </trkpt>
      <trkpt lat="47.52747" lon="-1.35392">
        <ele>84</ele>
        <time>2012-08-20T09:13:20.000Z</time>
      </trkpt>
      <trkpt lat="47.5275" lon="-1.35399">
        <ele>84</ele>
        <time>2012-08-20T09:13:21.000Z</time>
      </trkpt>
      <trkpt lat="47.52754" lon="-1.35406">
        <ele>84</ele>
        <time>2012-08-20T09:13:22.000Z</time>
      </trkpt>
      <trkpt lat="47.52758" lon="-1.35412">
        <ele>85</ele>
        <time>2012-08-20T09:13:23.000Z</time>
      </trkpt>
      <trkpt lat="47.52761" lon="-1.35418">
        <ele>87</ele>
        <time>2012-08-20T09:13:24.000Z</time>
      </trkpt>
      <trkpt lat="47.52764" lon="-1.35424">
        <ele>85</ele>
        <time>2012-08-20T09:13:25.000Z</time>
      </trkpt>
      <trkpt lat="47.52769" lon="-1.35434">
        <ele>84</ele>
        <time>2012-08-20T09:13:27.000Z</time>
      </trkpt>
      <trkpt lat="47.52772" lon="-1.35441">
        <ele>84</ele>
        <time>2012-08-20T09:13:29.000Z</time>
      </trkpt>
      <trkpt lat="47.52777" lon="-1.35447">
        <ele>84</ele>
        <time>2012-08-20T09:13:31.000Z</time>
      </trkpt>
      <trkpt lat="47.52781" lon="-1.35452">
        <ele>85</ele>
        <time>2012-08-20T09:13:33.000Z</time>
      </trkpt>
      <trkpt lat="47.52786" lon="-1.35455">
        <ele>83</ele>
        <time>2012-08-20T09:13:58.000Z</time>
      </trkpt>
      <trkpt lat="47.5279" lon="-1.35455">
        <ele>83</ele>
        <time>2012-08-20T09:14:00.000Z</time>
      </trkpt>
      <trkpt lat="47.52795" lon="-1.35459">
        <ele>88</ele>
        <time>2012-08-20T09:14:03.000Z</time>
      </trkpt>
      <trkpt lat="47.52801" lon="-1.35464">
        <ele>88</ele>
        <time>2012-08-20T09:14:06.000Z</time>
      </trkpt>
      <trkpt lat="47.52804" lon="-1.35469">
        <ele>89</ele>
        <time>2012-08-20T09:14:08.000Z</time>
      </trkpt>
      <trkpt lat="47.52811" lon="-1.35478">
        <ele>90</ele>
        <time>2012-08-20T09:14:10.000Z</time>
      </trkpt>
      <trkpt lat="47.52816" lon="-1.35486">
        <ele>90</ele>
        <time>2012-08-20T09:14:12.000Z</time>
      </trkpt>
      <trkpt lat="47.52823" lon="-1.35493">
        <ele>89</ele>
        <time>2012-08-20T09:14:14.000Z</time>
      </trkpt>
      <trkpt lat="47.52829" lon="-1.35498">
        <ele>87</ele>
        <time>2012-08-20T09:14:16.000Z</time>
      </trkpt>
      <trkpt lat="47.52835" lon="-1.35503">
        <ele>86</ele>
        <time>2012-08-20T09:14:18.000Z</time>
      </trkpt>
      <trkpt lat="47.5284" lon="-1.35508">
        <ele>87</ele>
        <time>2012-08-20T09:14:20.000Z</time>
      </trkpt>
      <trkpt lat="47.52846" lon="-1.35512">
        <ele>86</ele>
        <time>2012-08-20T09:14:22.000Z</time>
      </trkpt>
      <trkpt lat="47.52851" lon="-1.35516">
        <ele>84</ele>
        <time>2012-08-20T09:14:24.000Z</time>
      </trkpt>
      <trkpt lat="47.52857" lon="-1.35522">
        <ele>85</ele>
        <time>2012-08-20T09:14:26.000Z</time>
      </trkpt>
      <trkpt lat="47.52865" lon="-1.35528">
        <ele>87</ele>
        <time>2012-08-20T09:14:28.000Z</time>
      </trkpt>
      <trkpt lat="47.5287" lon="-1.35532">
        <ele>85</ele>
        <time>2012-08-20T09:14:29.000Z</time>
      </trkpt>
      <trkpt lat="47.52874" lon="-1.35535">
        <ele>86</ele>
        <time>2012-08-20T09:14:30.000Z</time>
      </trkpt>
      <trkpt lat="47.52881" lon="-1.35541">
        <ele>91</ele>
        <time>2012-08-20T09:14:32.000Z</time>
      </trkpt>
      <trkpt lat="47.52886" lon="-1.35546">
        <ele>89</ele>
        <time>2012-08-20T09:14:34.000Z</time>
      </trkpt>
      <trkpt lat="47.52892" lon="-1.3555">
        <ele>89</ele>
        <time>2012-08-20T09:14:36.000Z</time>
      </trkpt>
      <trkpt lat="47.52898" lon="-1.35554">
        <ele>88</ele>
        <time>2012-08-20T09:14:38.000Z</time>
      </trkpt>
      <trkpt lat="47.52904" lon="-1.35558">
        <ele>89</ele>
        <time>2012-08-20T09:14:40.000Z</time>
      </trkpt>
      <trkpt lat="47.5291" lon="-1.35563">
        <ele>90</ele>
        <time>2012-08-20T09:14:42.000Z</time>
      </trkpt>
      <trkpt lat="47.52915" lon="-1.35568">
        <ele>91</ele>
        <time>2012-08-20T09:14:44.000Z</time>
      </trkpt>
      <trkpt lat="47.52919" lon="-1.35572">
        <ele>91</ele>
        <time>2012-08-20T09:14:46.000Z</time>
      </trkpt>
      <trkpt lat="47.52924" lon="-1.35577">
        <ele>87</ele>
        <time>2012-08-20T09:14:48.000Z</time>
      </trkpt>
      <trkpt lat="47.5293" lon="-1.35583">
        <ele>88</ele>
        <time>2012-08-20T09:14:50.000Z</time>
      </trkpt>
      <trkpt lat="47.52938" lon="-1.3559">
        <ele>88</ele>
        <time>2012-08-20T09:14:52.000Z</time>
      </trkpt>
      <trkpt lat="47.52943" lon="-1.35597">
        <ele>92</ele>
        <time>2012-08-20T09:14:54.000Z</time>
      </trkpt>
      <trkpt lat="47.52947" lon="-1.35602">
        <ele>92</ele>
        <time>2012-08-20T09:14:56.000Z</time>
      </trkpt>
      <trkpt lat="47.52953" lon="-1.35607">
        <ele>95</ele>
        <time>2012-08-20T09:14:59.000Z</time>
      </trkpt>
      <trkpt lat="47.52958" lon="-1.35613">
        <ele>98</ele>
        <time>2012-08-20T09:15:01.000Z</time>
      </trkpt>
      <trkpt lat="47.52965" lon="-1.35619">
        <ele>98</ele>
        <time>2012-08-20T09:15:03.000Z</time>
      </trkpt>
      <trkpt lat="47.52971" lon="-1.35624">
        <ele>99</ele>
        <time>2012-08-20T09:15:05.000Z</time>
      </trkpt>
      <trkpt lat="47.52975" lon="-1.3563">
        <ele>98</ele>
        <time>2012-08-20T09:15:07.000Z</time>
      </trkpt>
      <trkpt lat="47.52979" lon="-1.35634">
        <ele>97</ele>
        <time>2012-08-20T09:15:09.000Z</time>
      </trkpt>
      <trkpt lat="47.52984" lon="-1.35639">
        <ele>97</ele>
        <time>2012-08-20T09:15:11.000Z</time>
      </trkpt>
      <trkpt lat="47.52989" lon="-1.35643">
        <ele>99</ele>
        <time>2012-08-20T09:15:13.000Z</time>
      </trkpt>
      <trkpt lat="47.52993" lon="-1.35647">
        <ele>103</ele>
        <time>2012-08-20T09:15:15.000Z</time>
      </trkpt>
      <trkpt lat="47.52999" lon="-1.35653">
        <ele>104</ele>
        <time>2012-08-20T09:15:17.000Z</time>
      </trkpt>
      <trkpt lat="47.53006" lon="-1.35661">
        <ele>105</ele>
        <time>2012-08-20T09:15:19.000Z</time>
      </trkpt>
      <trkpt lat="47.53012" lon="-1.35666">
        <ele>102</ele>
        <time>2012-08-20T09:15:21.000Z</time>
      </trkpt>
      <trkpt lat="47.53018" lon="-1.35672">
        <ele>100</ele>
        <time>2012-08-20T09:15:23.000Z</time>
      </trkpt>
      <trkpt lat="47.53026" lon="-1.35679">
        <ele>100</ele>
        <time>2012-08-20T09:15:25.000Z</time>
      </trkpt>
      <trkpt lat="47.53032" lon="-1.35685">
        <ele>101</ele>
        <time>2012-08-20T09:15:27.000Z</time>
      </trkpt>
      <trkpt lat="47.53038" lon="-1.35691">
        <ele>100</ele>
        <time>2012-08-20T09:15:29.000Z</time>
      </trkpt>
      <trkpt lat="47.53044" lon="-1.35698">
        <ele>99</ele>
        <time>2012-08-20T09:15:31.000Z</time>
      </trkpt>
      <trkpt lat="47.5305" lon="-1.35702">
        <ele>95</ele>
        <time>2012-08-20T09:15:33.000Z</time>
      </trkpt>
      <trkpt lat="47.53056" lon="-1.35706">
        <ele>97</ele>
        <time>2012-08-20T09:15:35.000Z</time>
      </trkpt>
      <trkpt lat="47.53063" lon="-1.35711">
        <ele>97</ele>
        <time>2012-08-20T09:15:37.000Z</time>
      </trkpt>
      <trkpt lat="47.53068" lon="-1.35714">
        <ele>97</ele>
        <time>2012-08-20T09:15:38.000Z</time>
      </trkpt>
      <trkpt lat="47.53072" lon="-1.35718">
        <ele>97</ele>
        <time>2012-08-20T09:15:39.000Z</time>
      </trkpt>
      <trkpt lat="47.53076" lon="-1.35722">
        <ele>99</ele>
        <time>2012-08-20T09:15:40.000Z</time>
      </trkpt>
      <trkpt lat="47.53081" lon="-1.35726">
        <ele>100</ele>
        <time>2012-08-20T09:15:41.000Z</time>
      </trkpt>
      <trkpt lat="47.53085" lon="-1.3573">
        <ele>100</ele>
        <time>2012-08-20T09:15:42.000Z</time>
      </trkpt>
      <trkpt lat="47.53092" lon="-1.35737">
        <ele>96</ele>
        <time>2012-08-20T09:15:44.000Z</time>
      </trkpt>
      <trkpt lat="47.53099" lon="-1.35742">
        <ele>95</ele>
        <time>2012-08-20T09:15:46.000Z</time>
      </trkpt>
      <trkpt lat="47.53105" lon="-1.35748">
        <ele>97</ele>
        <time>2012-08-20T09:15:48.000Z</time>
      </trkpt>
      <trkpt lat="47.53109" lon="-1.35753">
        <ele>98</ele>
        <time>2012-08-20T09:15:50.000Z</time>
      </trkpt>
      <trkpt lat="47.53115" lon="-1.35759">
        <ele>98</ele>
        <time>2012-08-20T09:15:52.000Z</time>
      </trkpt>
      <trkpt lat="47.5312" lon="-1.35766">
        <ele>100</ele>
        <time>2012-08-20T09:15:54.000Z</time>
      </trkpt>
      <trkpt lat="47.53125" lon="-1.35772">
        <ele>101</ele>
        <time>2012-08-20T09:15:56.000Z</time>
      </trkpt>
      <trkpt lat="47.5313" lon="-1.35778">
        <ele>102</ele>
        <time>2012-08-20T09:15:58.000Z</time>
      </trkpt>
      <trkpt lat="47.53135" lon="-1.35785">
        <ele>101</ele>
        <time>2012-08-20T09:16:00.000Z</time>
      </trkpt>
      <trkpt lat="47.53141" lon="-1.35792">
        <ele>101</ele>
        <time>2012-08-20T09:16:02.000Z</time>
      </trkpt>
      <trkpt lat="47.53146" lon="-1.35799">
        <ele>101</ele>
        <time>2012-08-20T09:16:04.000Z</time>
      </trkpt>
      <trkpt lat="47.5315" lon="-1.35805">
        <ele>101</ele>
        <time>2012-08-20T09:16:06.000Z</time>
      </trkpt>
      <trkpt lat="47.53155" lon="-1.35812">
        <ele>100</ele>
        <time>2012-08-20T09:16:08.000Z</time>
      </trkpt>
      <trkpt lat="47.53159" lon="-1.35819">
        <ele>106</ele>
        <time>2012-08-20T09:16:10.000Z</time>
      </trkpt>
      <trkpt lat="47.53164" lon="-1.35825">
        <ele>107</ele>
        <time>2012-08-20T09:16:12.000Z</time>
      </trkpt>
      <trkpt lat="47.53169" lon="-1.35831">
        <ele>105</ele>
        <time>2012-08-20T09:16:14.000Z</time>
      </trkpt>
      <trkpt lat="47.53175" lon="-1.35838">
        <ele>104</ele>
        <time>2012-08-20T09:16:16.000Z</time>
      </trkpt>
      <trkpt lat="47.53181" lon="-1.35844">
        <ele>104</ele>
        <time>2012-08-20T09:16:18.000Z</time>
      </trkpt>
      <trkpt lat="47.53186" lon="-1.35852">
        <ele>106</ele>
        <time>2012-08-20T09:16:20.000Z</time>
      </trkpt>
      <trkpt lat="47.5319" lon="-1.35859">
        <ele>105</ele>
        <time>2012-08-20T09:16:22.000Z</time>
      </trkpt>
      <trkpt lat="47.53196" lon="-1.35867">
        <ele>106</ele>
        <time>2012-08-20T09:16:24.000Z</time>
      </trkpt>
      <trkpt lat="47.532" lon="-1.35874">
        <ele>106</ele>
        <time>2012-08-20T09:16:26.000Z</time>
      </trkpt>
      <trkpt lat="47.53204" lon="-1.35883">
        <ele>104</ele>
        <time>2012-08-20T09:16:28.000Z</time>
      </trkpt>
      <trkpt lat="47.53208" lon="-1.35891">
        <ele>105</ele>
        <time>2012-08-20T09:16:30.000Z</time>
      </trkpt>
      <trkpt lat="47.53212" lon="-1.359">
        <ele>106</ele>
        <time>2012-08-20T09:16:32.000Z</time>
      </trkpt>
      <trkpt lat="47.53215" lon="-1.35906">
        <ele>104</ele>
        <time>2012-08-20T09:16:34.000Z</time>
      </trkpt>
      <trkpt lat="47.53219" lon="-1.35913">
        <ele>104</ele>
        <time>2012-08-20T09:16:36.000Z</time>
      </trkpt>
      <trkpt lat="47.53222" lon="-1.3592">
        <ele>106</ele>
        <time>2012-08-20T09:16:38.000Z</time>
      </trkpt>
      <trkpt lat="47.53224" lon="-1.35929">
        <ele>106</ele>
        <time>2012-08-20T09:16:41.000Z</time>
      </trkpt>
      <trkpt lat="47.53222" lon="-1.35938">
        <ele>108</ele>
        <time>2012-08-20T09:16:44.000Z</time>
      </trkpt>
      <trkpt lat="47.53219" lon="-1.35945">
        <ele>109</ele>
        <time>2012-08-20T09:16:46.000Z</time>
      </trkpt>
      <trkpt lat="47.53216" lon="-1.35953">
        <ele>110</ele>
        <time>2012-08-20T09:16:48.000Z</time>
      </trkpt>
      <trkpt lat="47.53214" lon="-1.35962">
        <ele>108</ele>
        <time>2012-08-20T09:16:50.000Z</time>
      </trkpt>
      <trkpt lat="47.53211" lon="-1.35971">
        <ele>108</ele>
        <time>2012-08-20T09:16:52.000Z</time>
      </trkpt>
      <trkpt lat="47.53208" lon="-1.35982">
        <ele>107</ele>
        <time>2012-08-20T09:16:54.000Z</time>
      </trkpt>
      <trkpt lat="47.53206" lon="-1.35988">
        <ele>105</ele>
        <time>2012-08-20T09:16:55.000Z</time>
      </trkpt>
      <trkpt lat="47.53202" lon="-1.35999">
        <ele>105</ele>
        <time>2012-08-20T09:16:57.000Z</time>
      </trkpt>
      <trkpt lat="47.53199" lon="-1.36011">
        <ele>107</ele>
        <time>2012-08-20T09:16:59.000Z</time>
      </trkpt>
      <trkpt lat="47.53196" lon="-1.36022">
        <ele>104</ele>
        <time>2012-08-20T09:17:01.000Z</time>
      </trkpt>
      <trkpt lat="47.53193" lon="-1.36033">
        <ele>104</ele>
        <time>2012-08-20T09:17:03.000Z</time>
      </trkpt>
      <trkpt lat="47.53189" lon="-1.36045">
        <ele>104</ele>
        <time>2012-08-20T09:17:05.000Z</time>
      </trkpt>
      <trkpt lat="47.53187" lon="-1.36051">
        <ele>103</ele>
        <time>2012-08-20T09:17:06.000Z</time>
      </trkpt>
      <trkpt lat="47.53185" lon="-1.36057">
        <ele>99</ele>
        <time>2012-08-20T09:17:07.000Z</time>
      </trkpt>
      <trkpt lat="47.53183" lon="-1.36063">
        <ele>99</ele>
        <time>2012-08-20T09:17:08.000Z</time>
      </trkpt>
      <trkpt lat="47.53179" lon="-1.36074">
        <ele>100</ele>
        <time>2012-08-20T09:17:10.000Z</time>
      </trkpt>
      <trkpt lat="47.53177" lon="-1.3608">
        <ele>101</ele>
        <time>2012-08-20T09:17:11.000Z</time>
      </trkpt>
      <trkpt lat="47.53175" lon="-1.36086">
        <ele>101</ele>
        <time>2012-08-20T09:17:12.000Z</time>
      </trkpt>
      <trkpt lat="47.53173" lon="-1.36093">
        <ele>99</ele>
        <time>2012-08-20T09:17:13.000Z</time>
      </trkpt>
      <trkpt lat="47.5317" lon="-1.361">
        <ele>97</ele>
        <time>2012-08-20T09:17:14.000Z</time>
      </trkpt>
      <trkpt lat="47.53168" lon="-1.36106">
        <ele>98</ele>
        <time>2012-08-20T09:17:15.000Z</time>
      </trkpt>
      <trkpt lat="47.53164" lon="-1.36118">
        <ele>99</ele>
        <time>2012-08-20T09:17:17.000Z</time>
      </trkpt>
      <trkpt lat="47.53162" lon="-1.36125">
        <ele>100</ele>
        <time>2012-08-20T09:17:18.000Z</time>
      </trkpt>
      <trkpt lat="47.53159" lon="-1.36131">
        <ele>100</ele>
        <time>2012-08-20T09:17:19.000Z</time>
      </trkpt>
      <trkpt lat="47.53157" lon="-1.36138">
        <ele>100</ele>
        <time>2012-08-20T09:17:20.000Z</time>
      </trkpt>
      <trkpt lat="47.53155" lon="-1.36144">
        <ele>100</ele>
        <time>2012-08-20T09:17:21.000Z</time>
      </trkpt>
      <trkpt lat="47.53151" lon="-1.36156">
        <ele>100</ele>
        <time>2012-08-20T09:17:23.000Z</time>
      </trkpt>
      <trkpt lat="47.53149" lon="-1.36162">
        <ele>101</ele>
        <time>2012-08-20T09:17:24.000Z</time>
      </trkpt>
      <trkpt lat="47.53145" lon="-1.36175">
        <ele>103</ele>
        <time>2012-08-20T09:17:26.000Z</time>
      </trkpt>
      <trkpt lat="47.53141" lon="-1.36186">
        <ele>103</ele>
        <time>2012-08-20T09:17:28.000Z</time>
      </trkpt>
      <trkpt lat="47.53139" lon="-1.36192">
        <ele>102</ele>
        <time>2012-08-20T09:17:29.000Z</time>
      </trkpt>
      <trkpt lat="47.53135" lon="-1.36204">
        <ele>101</ele>
        <time>2012-08-20T09:17:31.000Z</time>
      </trkpt>
      <trkpt lat="47.53133" lon="-1.36211">
        <ele>103</ele>
        <time>2012-08-20T09:17:32.000Z</time>
      </trkpt>
      <trkpt lat="47.5313" lon="-1.36217">
        <ele>103</ele>
        <time>2012-08-20T09:17:33.000Z</time>
      </trkpt>
      <trkpt lat="47.53128" lon="-1.36223">
        <ele>103</ele>
        <time>2012-08-20T09:17:34.000Z</time>
      </trkpt>
      <trkpt lat="47.53123" lon="-1.36234">
        <ele>102</ele>
        <time>2012-08-20T09:17:36.000Z</time>
      </trkpt>
      <trkpt lat="47.53121" lon="-1.36241">
        <ele>102</ele>
        <time>2012-08-20T09:17:37.000Z</time>
      </trkpt>
      <trkpt lat="47.53119" lon="-1.36248">
        <ele>101</ele>
        <time>2012-08-20T09:17:38.000Z</time>
      </trkpt>
      <trkpt lat="47.53117" lon="-1.36255">
        <ele>102</ele>
        <time>2012-08-20T09:17:39.000Z</time>
      </trkpt>
      <trkpt lat="47.53114" lon="-1.36261">
        <ele>103</ele>
        <time>2012-08-20T09:17:40.000Z</time>
      </trkpt>
      <trkpt lat="47.53112" lon="-1.36268">
        <ele>103</ele>
        <time>2012-08-20T09:17:41.000Z</time>
      </trkpt>
      <trkpt lat="47.53109" lon="-1.36274">
        <ele>103</ele>
        <time>2012-08-20T09:17:42.000Z</time>
      </trkpt>
      <trkpt lat="47.53106" lon="-1.3628">
        <ele>102</ele>
        <time>2012-08-20T09:17:43.000Z</time>
      </trkpt>
      <trkpt lat="47.53103" lon="-1.36287">
        <ele>101</ele>
        <time>2012-08-20T09:17:44.000Z</time>
      </trkpt>
      <trkpt lat="47.53101" lon="-1.36293">
        <ele>102</ele>
        <time>2012-08-20T09:17:45.000Z</time>
      </trkpt>
      <trkpt lat="47.53096" lon="-1.36304">
        <ele>101</ele>
        <time>2012-08-20T09:17:47.000Z</time>
      </trkpt>
      <trkpt lat="47.53092" lon="-1.36315">
        <ele>104</ele>
        <time>2012-08-20T09:17:49.000Z</time>
      </trkpt>
      <trkpt lat="47.53087" lon="-1.36325">
        <ele>104</ele>
        <time>2012-08-20T09:17:51.000Z</time>
      </trkpt>
      <trkpt lat="47.53083" lon="-1.36336">
        <ele>103</ele>
        <time>2012-08-20T09:17:53.000Z</time>
      </trkpt>
      <trkpt lat="47.53078" lon="-1.36348">
        <ele>103</ele>
        <time>2012-08-20T09:17:55.000Z</time>
      </trkpt>
      <trkpt lat="47.53075" lon="-1.36354">
        <ele>103</ele>
        <time>2012-08-20T09:17:56.000Z</time>
      </trkpt>
      <trkpt lat="47.53072" lon="-1.3636">
        <ele>106</ele>
        <time>2012-08-20T09:17:57.000Z</time>
      </trkpt>
      <trkpt lat="47.5307" lon="-1.36365">
        <ele>104</ele>
        <time>2012-08-20T09:17:58.000Z</time>
      </trkpt>
      <trkpt lat="47.53067" lon="-1.36372">
        <ele>103</ele>
        <time>2012-08-20T09:17:59.000Z</time>
      </trkpt>
      <trkpt lat="47.53064" lon="-1.36378">
        <ele>102</ele>
        <time>2012-08-20T09:18:00.000Z</time>
      </trkpt>
      <trkpt lat="47.53062" lon="-1.36385">
        <ele>102</ele>
        <time>2012-08-20T09:18:01.000Z</time>
      </trkpt>
      <trkpt lat="47.53059" lon="-1.3639">
        <ele>103</ele>
        <time>2012-08-20T09:18:02.000Z</time>
      </trkpt>
      <trkpt lat="47.53056" lon="-1.36396">
        <ele>104</ele>
        <time>2012-08-20T09:18:03.000Z</time>
      </trkpt>
      <trkpt lat="47.53054" lon="-1.36401">
        <ele>104</ele>
        <time>2012-08-20T09:18:04.000Z</time>
      </trkpt>
      <trkpt lat="47.5305" lon="-1.36408">
        <ele>101</ele>
        <time>2012-08-20T09:18:05.000Z</time>
      </trkpt>
      <trkpt lat="47.53045" lon="-1.36419">
        <ele>103</ele>
        <time>2012-08-20T09:18:07.000Z</time>
      </trkpt>
      <trkpt lat="47.5304" lon="-1.3643">
        <ele>103</ele>
        <time>2012-08-20T09:18:09.000Z</time>
      </trkpt>
      <trkpt lat="47.53035" lon="-1.36441">
        <ele>103</ele>
        <time>2012-08-20T09:18:11.000Z</time>
      </trkpt>
      <trkpt lat="47.5303" lon="-1.36451">
        <ele>103</ele>
        <time>2012-08-20T09:18:13.000Z</time>
      </trkpt>
      <trkpt lat="47.53025" lon="-1.36461">
        <ele>100</ele>
        <time>2012-08-20T09:18:15.000Z</time>
      </trkpt>
      <trkpt lat="47.53022" lon="-1.36467">
        <ele>101</ele>
        <time>2012-08-20T09:18:16.000Z</time>
      </trkpt>
      <trkpt lat="47.53019" lon="-1.36473">
        <ele>102</ele>
        <time>2012-08-20T09:18:17.000Z</time>
      </trkpt>
      <trkpt lat="47.53017" lon="-1.36478">
        <ele>102</ele>
        <time>2012-08-20T09:18:18.000Z</time>
      </trkpt>
      <trkpt lat="47.53014" lon="-1.36484">
        <ele>103</ele>
        <time>2012-08-20T09:18:19.000Z</time>
      </trkpt>
      <trkpt lat="47.5301" lon="-1.36494">
        <ele>105</ele>
        <time>2012-08-20T09:18:21.000Z</time>
      </trkpt>
      <trkpt lat="47.53004" lon="-1.36504">
        <ele>104</ele>
        <time>2012-08-20T09:18:23.000Z</time>
      </trkpt>
      <trkpt lat="47.52999" lon="-1.36515">
        <ele>103</ele>
        <time>2012-08-20T09:18:25.000Z</time>
      </trkpt>
      <trkpt lat="47.52996" lon="-1.36525">
        <ele>101</ele>
        <time>2012-08-20T09:18:27.000Z</time>
      </trkpt>
      <trkpt lat="47.52993" lon="-1.36534">
        <ele>102</ele>
        <time>2012-08-20T09:18:29.000Z</time>
      </trkpt>
      <trkpt lat="47.52994" lon="-1.36543">
        <ele>100</ele>
        <time>2012-08-20T09:18:31.000Z</time>
      </trkpt>
      <trkpt lat="47.52999" lon="-1.3655">
        <ele>102</ele>
        <time>2012-08-20T09:18:34.000Z</time>
      </trkpt>
      <trkpt lat="47.53003" lon="-1.36556">
        <ele>102</ele>
        <time>2012-08-20T09:18:36.000Z</time>
      </trkpt>
      <trkpt lat="47.53006" lon="-1.36567">
        <ele>100</ele>
        <time>2012-08-20T09:18:38.000Z</time>
      </trkpt>
      <trkpt lat="47.53009" lon="-1.36578">
        <ele>98</ele>
        <time>2012-08-20T09:18:40.000Z</time>
      </trkpt>
      <trkpt lat="47.5301" lon="-1.36588">
        <ele>100</ele>
        <time>2012-08-20T09:18:42.000Z</time>
      </trkpt>
      <trkpt lat="47.53011" lon="-1.36598">
        <ele>101</ele>
        <time>2012-08-20T09:18:44.000Z</time>
      </trkpt>
      <trkpt lat="47.53012" lon="-1.36608">
        <ele>104</ele>
        <time>2012-08-20T09:18:46.000Z</time>
      </trkpt>
      <trkpt lat="47.53012" lon="-1.3662">
        <ele>104</ele>
        <time>2012-08-20T09:18:48.000Z</time>
      </trkpt>
      <trkpt lat="47.53013" lon="-1.36633">
        <ele>104</ele>
        <time>2012-08-20T09:18:50.000Z</time>
      </trkpt>
      <trkpt lat="47.53014" lon="-1.36645">
        <ele>102</ele>
        <time>2012-08-20T09:18:52.000Z</time>
      </trkpt>
      <trkpt lat="47.53015" lon="-1.36658">
        <ele>100</ele>
        <time>2012-08-20T09:18:54.000Z</time>
      </trkpt>
      <trkpt lat="47.53016" lon="-1.3667">
        <ele>100</ele>
        <time>2012-08-20T09:18:56.000Z</time>
      </trkpt>
      <trkpt lat="47.53016" lon="-1.36677">
        <ele>101</ele>
        <time>2012-08-20T09:18:57.000Z</time>
      </trkpt>
      <trkpt lat="47.53017" lon="-1.36685">
        <ele>102</ele>
        <time>2012-08-20T09:18:58.000Z</time>
      </trkpt>
      <trkpt lat="47.53018" lon="-1.36693">
        <ele>101</ele>
        <time>2012-08-20T09:18:59.000Z</time>
      </trkpt>
      <trkpt lat="47.53019" lon="-1.36701">
        <ele>101</ele>
        <time>2012-08-20T09:19:00.000Z</time>
      </trkpt>
      <trkpt lat="47.5302" lon="-1.36708">
        <ele>100</ele>
        <time>2012-08-20T09:19:01.000Z</time>
      </trkpt>
      <trkpt lat="47.5302" lon="-1.36716">
        <ele>101</ele>
        <time>2012-08-20T09:19:02.000Z</time>
      </trkpt>
      <trkpt lat="47.53021" lon="-1.36723">
        <ele>101</ele>
        <time>2012-08-20T09:19:03.000Z</time>
      </trkpt>
      <trkpt lat="47.53021" lon="-1.3673">
        <ele>102</ele>
        <time>2012-08-20T09:19:04.000Z</time>
      </trkpt>
      <trkpt lat="47.53022" lon="-1.36738">
        <ele>101</ele>
        <time>2012-08-20T09:19:05.000Z</time>
      </trkpt>
      <trkpt lat="47.53023" lon="-1.36744">
        <ele>102</ele>
        <time>2012-08-20T09:19:06.000Z</time>
      </trkpt>
      <trkpt lat="47.53024" lon="-1.36756">
        <ele>101</ele>
        <time>2012-08-20T09:19:08.000Z</time>
      </trkpt>
      <trkpt lat="47.53024" lon="-1.36763">
        <ele>100</ele>
        <time>2012-08-20T09:19:09.000Z</time>
      </trkpt>
      <trkpt lat="47.53025" lon="-1.36771">
        <ele>100</ele>
        <time>2012-08-20T09:19:10.000Z</time>
      </trkpt>
      <trkpt lat="47.53026" lon="-1.36777">
        <ele>99</ele>
        <time>2012-08-20T09:19:11.000Z</time>
      </trkpt>
      <trkpt lat="47.53027" lon="-1.36784">
        <ele>100</ele>
        <time>2012-08-20T09:19:12.000Z</time>
      </trkpt>
      <trkpt lat="47.53028" lon="-1.36791">
        <ele>100</ele>
        <time>2012-08-20T09:19:13.000Z</time>
      </trkpt>
      <trkpt lat="47.53029" lon="-1.36797">
        <ele>100</ele>
        <time>2012-08-20T09:19:14.000Z</time>
      </trkpt>
      <trkpt lat="47.5303" lon="-1.3681">
        <ele>101</ele>
        <time>2012-08-20T09:19:16.000Z</time>
      </trkpt>
      <trkpt lat="47.53031" lon="-1.36823">
        <ele>102</ele>
        <time>2012-08-20T09:19:18.000Z</time>
      </trkpt>
      <trkpt lat="47.53032" lon="-1.36829">
        <ele>101</ele>
        <time>2012-08-20T09:19:19.000Z</time>
      </trkpt>
      <trkpt lat="47.53034" lon="-1.36843">
        <ele>102</ele>
        <time>2012-08-20T09:19:21.000Z</time>
      </trkpt>
      <trkpt lat="47.53034" lon="-1.3685">
        <ele>101</ele>
        <time>2012-08-20T09:19:22.000Z</time>
      </trkpt>
      <trkpt lat="47.53035" lon="-1.36861">
        <ele>101</ele>
        <time>2012-08-20T09:19:24.000Z</time>
      </trkpt>
      <trkpt lat="47.53036" lon="-1.36871">
        <ele>102</ele>
        <time>2012-08-20T09:19:26.000Z</time>
      </trkpt>
      <trkpt lat="47.53038" lon="-1.3688">
        <ele>102</ele>
        <time>2012-08-20T09:19:28.000Z</time>
      </trkpt>
      <trkpt lat="47.5304" lon="-1.36888">
        <ele>100</ele>
        <time>2012-08-20T09:19:30.000Z</time>
      </trkpt>
      <trkpt lat="47.53042" lon="-1.36897">
        <ele>101</ele>
        <time>2012-08-20T09:19:32.000Z</time>
      </trkpt>
      <trkpt lat="47.53045" lon="-1.36905">
        <ele>102</ele>
        <time>2012-08-20T09:19:34.000Z</time>
      </trkpt>
      <trkpt lat="47.53048" lon="-1.36912">
        <ele>101</ele>
        <time>2012-08-20T09:19:36.000Z</time>
      </trkpt>
      <trkpt lat="47.53051" lon="-1.36921">
        <ele>101</ele>
        <time>2012-08-20T09:19:38.000Z</time>
      </trkpt>
      <trkpt lat="47.53054" lon="-1.36929">
        <ele>101</ele>
        <time>2012-08-20T09:19:40.000Z</time>
      </trkpt>
      <trkpt lat="47.53057" lon="-1.36936">
        <ele>101</ele>
        <time>2012-08-20T09:19:42.000Z</time>
      </trkpt>
      <trkpt lat="47.53059" lon="-1.36943">
        <ele>101</ele>
        <time>2012-08-20T09:19:44.000Z</time>
      </trkpt>
      <trkpt lat="47.53062" lon="-1.3695">
        <ele>99</ele>
        <time>2012-08-20T09:19:46.000Z</time>
      </trkpt>
      <trkpt lat="47.53064" lon="-1.36958">
        <ele>100</ele>
        <time>2012-08-20T09:19:48.000Z</time>
      </trkpt>
      <trkpt lat="47.53068" lon="-1.36966">
        <ele>97</ele>
        <time>2012-08-20T09:19:50.000Z</time>
      </trkpt>
      <trkpt lat="47.53071" lon="-1.36977">
        <ele>97</ele>
        <time>2012-08-20T09:19:52.000Z</time>
      </trkpt>
      <trkpt lat="47.53073" lon="-1.36983">
        <ele>98</ele>
        <time>2012-08-20T09:19:53.000Z</time>
      </trkpt>
      <trkpt lat="47.53076" lon="-1.3699">
        <ele>99</ele>
        <time>2012-08-20T09:19:54.000Z</time>
      </trkpt>
      <trkpt lat="47.53078" lon="-1.36996">
        <ele>100</ele>
        <time>2012-08-20T09:19:55.000Z</time>
      </trkpt>
      <trkpt lat="47.5308" lon="-1.37004">
        <ele>99</ele>
        <time>2012-08-20T09:19:56.000Z</time>
      </trkpt>
      <trkpt lat="47.53083" lon="-1.37011">
        <ele>99</ele>
        <time>2012-08-20T09:19:57.000Z</time>
      </trkpt>
      <trkpt lat="47.53086" lon="-1.3702">
        <ele>100</ele>
        <time>2012-08-20T09:19:58.000Z</time>
      </trkpt>
      <trkpt lat="47.53088" lon="-1.37028">
        <ele>98</ele>
        <time>2012-08-20T09:19:59.000Z</time>
      </trkpt>
      <trkpt lat="47.53091" lon="-1.37036">
        <ele>97</ele>
        <time>2012-08-20T09:20:00.000Z</time>
      </trkpt>
      <trkpt lat="47.53093" lon="-1.37045">
        <ele>98</ele>
        <time>2012-08-20T09:20:01.000Z</time>
      </trkpt>
      <trkpt lat="47.53095" lon="-1.37055">
        <ele>98</ele>
        <time>2012-08-20T09:20:02.000Z</time>
      </trkpt>
      <trkpt lat="47.53097" lon="-1.37064">
        <ele>97</ele>
        <time>2012-08-20T09:20:03.000Z</time>
      </trkpt>
      <trkpt lat="47.53099" lon="-1.37073">
        <ele>96</ele>
        <time>2012-08-20T09:20:04.000Z</time>
      </trkpt>
      <trkpt lat="47.53101" lon="-1.37082">
        <ele>96</ele>
        <time>2012-08-20T09:20:05.000Z</time>
      </trkpt>
      <trkpt lat="47.53102" lon="-1.37091">
        <ele>96</ele>
        <time>2012-08-20T09:20:06.000Z</time>
      </trkpt>
      <trkpt lat="47.53103" lon="-1.371">
        <ele>96</ele>
        <time>2012-08-20T09:20:07.000Z</time>
      </trkpt>
      <trkpt lat="47.53104" lon="-1.37109">
        <ele>95</ele>
        <time>2012-08-20T09:20:08.000Z</time>
      </trkpt>
      <trkpt lat="47.53105" lon="-1.37119">
        <ele>95</ele>
        <time>2012-08-20T09:20:09.000Z</time>
      </trkpt>
      <trkpt lat="47.53106" lon="-1.37128">
        <ele>96</ele>
        <time>2012-08-20T09:20:10.000Z</time>
      </trkpt>
      <trkpt lat="47.53106" lon="-1.37137">
        <ele>96</ele>
        <time>2012-08-20T09:20:11.000Z</time>
      </trkpt>
      <trkpt lat="47.53107" lon="-1.37147">
        <ele>97</ele>
        <time>2012-08-20T09:20:12.000Z</time>
      </trkpt>
      <trkpt lat="47.53107" lon="-1.37156">
        <ele>94</ele>
        <time>2012-08-20T09:20:13.000Z</time>
      </trkpt>
      <trkpt lat="47.53108" lon="-1.37166">
        <ele>94</ele>
        <time>2012-08-20T09:20:14.000Z</time>
      </trkpt>
      <trkpt lat="47.53108" lon="-1.37176">
        <ele>95</ele>
        <time>2012-08-20T09:20:15.000Z</time>
      </trkpt>
      <trkpt lat="47.53109" lon="-1.37186">
        <ele>96</ele>
        <time>2012-08-20T09:20:16.000Z</time>
      </trkpt>
      <trkpt lat="47.53109" lon="-1.37196">
        <ele>96</ele>
        <time>2012-08-20T09:20:17.000Z</time>
      </trkpt>
      <trkpt lat="47.5311" lon="-1.37206">
        <ele>96</ele>
        <time>2012-08-20T09:20:18.000Z</time>
      </trkpt>
      <trkpt lat="47.5311" lon="-1.37215">
        <ele>96</ele>
        <time>2012-08-20T09:20:19.000Z</time>
      </trkpt>
      <trkpt lat="47.53111" lon="-1.37224">
        <ele>96</ele>
        <time>2012-08-20T09:20:20.000Z</time>
      </trkpt>
      <trkpt lat="47.53111" lon="-1.37234">
        <ele>96</ele>
        <time>2012-08-20T09:20:21.000Z</time>
      </trkpt>
      <trkpt lat="47.53112" lon="-1.37245">
        <ele>95</ele>
        <time>2012-08-20T09:20:22.000Z</time>
      </trkpt>
      <trkpt lat="47.53112" lon="-1.37254">
        <ele>95</ele>
        <time>2012-08-20T09:20:23.000Z</time>
      </trkpt>
      <trkpt lat="47.53113" lon="-1.37264">
        <ele>94</ele>
        <time>2012-08-20T09:20:24.000Z</time>
      </trkpt>
      <trkpt lat="47.53113" lon="-1.37274">
        <ele>94</ele>
        <time>2012-08-20T09:20:25.000Z</time>
      </trkpt>
      <trkpt lat="47.53113" lon="-1.37283">
        <ele>93</ele>
        <time>2012-08-20T09:20:26.000Z</time>
      </trkpt>
      <trkpt lat="47.53113" lon="-1.37292">
        <ele>96</ele>
        <time>2012-08-20T09:20:27.000Z</time>
      </trkpt>
      <trkpt lat="47.53113" lon="-1.37302">
        <ele>95</ele>
        <time>2012-08-20T09:20:28.000Z</time>
      </trkpt>
      <trkpt lat="47.53113" lon="-1.37311">
        <ele>96</ele>
        <time>2012-08-20T09:20:29.000Z</time>
      </trkpt>
      <trkpt lat="47.53113" lon="-1.37321">
        <ele>95</ele>
        <time>2012-08-20T09:20:30.000Z</time>
      </trkpt>
      <trkpt lat="47.53113" lon="-1.3733">
        <ele>92</ele>
        <time>2012-08-20T09:20:31.000Z</time>
      </trkpt>
      <trkpt lat="47.53113" lon="-1.37338">
        <ele>94</ele>
        <time>2012-08-20T09:20:32.000Z</time>
      </trkpt>
      <trkpt lat="47.53113" lon="-1.37347">
        <ele>94</ele>
        <time>2012-08-20T09:20:33.000Z</time>
      </trkpt>
      <trkpt lat="47.53112" lon="-1.37356">
        <ele>95</ele>
        <time>2012-08-20T09:20:34.000Z</time>
      </trkpt>
      <trkpt lat="47.53112" lon="-1.37365">
        <ele>94</ele>
        <time>2012-08-20T09:20:35.000Z</time>
      </trkpt>
      <trkpt lat="47.53112" lon="-1.37373">
        <ele>93</ele>
        <time>2012-08-20T09:20:36.000Z</time>
      </trkpt>
      <trkpt lat="47.53112" lon="-1.37383">
        <ele>93</ele>
        <time>2012-08-20T09:20:37.000Z</time>
      </trkpt>
      <trkpt lat="47.53112" lon="-1.37393">
        <ele>94</ele>
        <time>2012-08-20T09:20:38.000Z</time>
      </trkpt>
      <trkpt lat="47.53112" lon="-1.37403">
        <ele>94</ele>
        <time>2012-08-20T09:20:39.000Z</time>
      </trkpt>
      <trkpt lat="47.53112" lon="-1.37412">
        <ele>94</ele>
        <time>2012-08-20T09:20:40.000Z</time>
      </trkpt>
      <trkpt lat="47.53112" lon="-1.37421">
        <ele>95</ele>
        <time>2012-08-20T09:20:41.000Z</time>
      </trkpt>
      <trkpt lat="47.53112" lon="-1.37429">
        <ele>95</ele>
        <time>2012-08-20T09:20:42.000Z</time>
      </trkpt>
      <trkpt lat="47.53112" lon="-1.37437">
        <ele>94</ele>
        <time>2012-08-20T09:20:43.000Z</time>
      </trkpt>
      <trkpt lat="47.53112" lon="-1.37445">
        <ele>93</ele>
        <time>2012-08-20T09:20:44.000Z</time>
      </trkpt>
      <trkpt lat="47.53112" lon="-1.37453">
        <ele>93</ele>
        <time>2012-08-20T09:20:45.000Z</time>
      </trkpt>
      <trkpt lat="47.53113" lon="-1.37462">
        <ele>93</ele>
        <time>2012-08-20T09:20:46.000Z</time>
      </trkpt>
      <trkpt lat="47.53113" lon="-1.3747">
        <ele>93</ele>
        <time>2012-08-20T09:20:47.000Z</time>
      </trkpt>
      <trkpt lat="47.53113" lon="-1.37478">
        <ele>93</ele>
        <time>2012-08-20T09:20:48.000Z</time>
      </trkpt>
      <trkpt lat="47.53113" lon="-1.37486">
        <ele>92</ele>
        <time>2012-08-20T09:20:49.000Z</time>
      </trkpt>
      <trkpt lat="47.53113" lon="-1.37495">
        <ele>92</ele>
        <time>2012-08-20T09:20:50.000Z</time>
      </trkpt>
      <trkpt lat="47.53113" lon="-1.37504">
        <ele>92</ele>
        <time>2012-08-20T09:20:51.000Z</time>
      </trkpt>
      <trkpt lat="47.53113" lon="-1.37512">
        <ele>93</ele>
        <time>2012-08-20T09:20:52.000Z</time>
      </trkpt>
      <trkpt lat="47.53113" lon="-1.3752">
        <ele>93</ele>
        <time>2012-08-20T09:20:53.000Z</time>
      </trkpt>
      <trkpt lat="47.53113" lon="-1.37528">
        <ele>92</ele>
        <time>2012-08-20T09:20:54.000Z</time>
      </trkpt>
      <trkpt lat="47.53113" lon="-1.37536">
        <ele>92</ele>
        <time>2012-08-20T09:20:55.000Z</time>
      </trkpt>
      <trkpt lat="47.53113" lon="-1.37545">
        <ele>92</ele>
        <time>2012-08-20T09:20:56.000Z</time>
      </trkpt>
      <trkpt lat="47.53113" lon="-1.37554">
        <ele>92</ele>
        <time>2012-08-20T09:20:57.000Z</time>
      </trkpt>
      <trkpt lat="47.53112" lon="-1.37562">
        <ele>93</ele>
        <time>2012-08-20T09:20:58.000Z</time>
      </trkpt>
      <trkpt lat="47.53112" lon="-1.37571">
        <ele>93</ele>
        <time>2012-08-20T09:20:59.000Z</time>
      </trkpt>
      <trkpt lat="47.53112" lon="-1.3758">
        <ele>93</ele>
        <time>2012-08-20T09:21:00.000Z</time>
      </trkpt>
      <trkpt lat="47.53111" lon="-1.37589">
        <ele>92</ele>
        <time>2012-08-20T09:21:01.000Z</time>
      </trkpt>
      <trkpt lat="47.53111" lon="-1.37598">
        <ele>91</ele>
        <time>2012-08-20T09:21:02.000Z</time>
      </trkpt>
      <trkpt lat="47.53111" lon="-1.37608">
        <ele>90</ele>
        <time>2012-08-20T09:21:03.000Z</time>
      </trkpt>
      <trkpt lat="47.53111" lon="-1.37618">
        <ele>89</ele>
        <time>2012-08-20T09:21:04.000Z</time>
      </trkpt>
      <trkpt lat="47.5311" lon="-1.37628">
        <ele>90</ele>
        <time>2012-08-20T09:21:05.000Z</time>
      </trkpt>
      <trkpt lat="47.5311" lon="-1.37639">
        <ele>91</ele>
        <time>2012-08-20T09:21:06.000Z</time>
      </trkpt>
      <trkpt lat="47.5311" lon="-1.3765">
        <ele>91</ele>
        <time>2012-08-20T09:21:07.000Z</time>
      </trkpt>
      <trkpt lat="47.53109" lon="-1.37661">
        <ele>90</ele>
        <time>2012-08-20T09:21:08.000Z</time>
      </trkpt>
      <trkpt lat="47.53109" lon="-1.37671">
        <ele>90</ele>
        <time>2012-08-20T09:21:09.000Z</time>
      </trkpt>
      <trkpt lat="47.53109" lon="-1.37682">
        <ele>89</ele>
        <time>2012-08-20T09:21:10.000Z</time>
      </trkpt>
      <trkpt lat="47.53108" lon="-1.37693">
        <ele>89</ele>
        <time>2012-08-20T09:21:11.000Z</time>
      </trkpt>
      <trkpt lat="47.53108" lon="-1.37704">
        <ele>89</ele>
        <time>2012-08-20T09:21:12.000Z</time>
      </trkpt>
      <trkpt lat="47.53108" lon="-1.37715">
        <ele>89</ele>
        <time>2012-08-20T09:21:13.000Z</time>
      </trkpt>
      <trkpt lat="47.53107" lon="-1.37726">
        <ele>89</ele>
        <time>2012-08-20T09:21:14.000Z</time>
      </trkpt>
      <trkpt lat="47.53107" lon="-1.37736">
        <ele>89</ele>
        <time>2012-08-20T09:21:15.000Z</time>
      </trkpt>
      <trkpt lat="47.53107" lon="-1.37747">
        <ele>89</ele>
        <time>2012-08-20T09:21:16.000Z</time>
      </trkpt>
      <trkpt lat="47.53106" lon="-1.37757">
        <ele>90</ele>
        <time>2012-08-20T09:21:17.000Z</time>
      </trkpt>
      <trkpt lat="47.53106" lon="-1.37766">
        <ele>89</ele>
        <time>2012-08-20T09:21:18.000Z</time>
      </trkpt>
      <trkpt lat="47.53106" lon="-1.37775">
        <ele>90</ele>
        <time>2012-08-20T09:21:19.000Z</time>
      </trkpt>
      <trkpt lat="47.53106" lon="-1.37783">
        <ele>91</ele>
        <time>2012-08-20T09:21:20.000Z</time>
      </trkpt>
      <trkpt lat="47.53106" lon="-1.37792">
        <ele>91</ele>
        <time>2012-08-20T09:21:21.000Z</time>
      </trkpt>
      <trkpt lat="47.53106" lon="-1.37802">
        <ele>91</ele>
        <time>2012-08-20T09:21:22.000Z</time>
      </trkpt>
      <trkpt lat="47.53106" lon="-1.37812">
        <ele>92</ele>
        <time>2012-08-20T09:21:23.000Z</time>
      </trkpt>
      <trkpt lat="47.53105" lon="-1.37822">
        <ele>93</ele>
        <time>2012-08-20T09:21:24.000Z</time>
      </trkpt>
      <trkpt lat="47.53105" lon="-1.37832">
        <ele>92</ele>
        <time>2012-08-20T09:21:25.000Z</time>
      </trkpt>
      <trkpt lat="47.53104" lon="-1.37841">
        <ele>91</ele>
        <time>2012-08-20T09:21:26.000Z</time>
      </trkpt>
      <trkpt lat="47.53104" lon="-1.3785">
        <ele>91</ele>
        <time>2012-08-20T09:21:27.000Z</time>
      </trkpt>
      <trkpt lat="47.53103" lon="-1.37859">
        <ele>91</ele>
        <time>2012-08-20T09:21:28.000Z</time>
      </trkpt>
      <trkpt lat="47.53104" lon="-1.37868">
        <ele>92</ele>
        <time>2012-08-20T09:21:29.000Z</time>
      </trkpt>
      <trkpt lat="47.53104" lon="-1.37878">
        <ele>92</ele>
        <time>2012-08-20T09:21:30.000Z</time>
      </trkpt>
      <trkpt lat="47.53103" lon="-1.37888">
        <ele>94</ele>
        <time>2012-08-20T09:21:31.000Z</time>
      </trkpt>
      <trkpt lat="47.53103" lon="-1.37898">
        <ele>95</ele>
        <time>2012-08-20T09:21:32.000Z</time>
      </trkpt>
      <trkpt lat="47.53103" lon="-1.37908">
        <ele>93</ele>
        <time>2012-08-20T09:21:33.000Z</time>
      </trkpt>
      <trkpt lat="47.53102" lon="-1.37917">
        <ele>95</ele>
        <time>2012-08-20T09:21:34.000Z</time>
      </trkpt>
      <trkpt lat="47.531" lon="-1.37927">
        <ele>96</ele>
        <time>2012-08-20T09:21:35.000Z</time>
      </trkpt>
      <trkpt lat="47.53099" lon="-1.37938">
        <ele>93</ele>
        <time>2012-08-20T09:21:36.000Z</time>
      </trkpt>
      <trkpt lat="47.53098" lon="-1.37949">
        <ele>90</ele>
        <time>2012-08-20T09:21:37.000Z</time>
      </trkpt>
      <trkpt lat="47.53097" lon="-1.37958">
        <ele>89</ele>
        <time>2012-08-20T09:21:38.000Z</time>
      </trkpt>
      <trkpt lat="47.53096" lon="-1.37968">
        <ele>89</ele>
        <time>2012-08-20T09:21:39.000Z</time>
      </trkpt>
      <trkpt lat="47.53098" lon="-1.37978">
        <ele>89</ele>
        <time>2012-08-20T09:21:40.000Z</time>
      </trkpt>
      <trkpt lat="47.53101" lon="-1.37987">
        <ele>89</ele>
        <time>2012-08-20T09:21:41.000Z</time>
      </trkpt>
      <trkpt lat="47.53103" lon="-1.37995">
        <ele>90</ele>
        <time>2012-08-20T09:21:42.000Z</time>
      </trkpt>
      <trkpt lat="47.53106" lon="-1.38003">
        <ele>89</ele>
        <time>2012-08-20T09:21:43.000Z</time>
      </trkpt>
      <trkpt lat="47.53109" lon="-1.38011">
        <ele>89</ele>
        <time>2012-08-20T09:21:44.000Z</time>
      </trkpt>
      <trkpt lat="47.53112" lon="-1.38019">
        <ele>89</ele>
        <time>2012-08-20T09:21:45.000Z</time>
      </trkpt>
      <trkpt lat="47.53116" lon="-1.38026">
        <ele>88</ele>
        <time>2012-08-20T09:21:46.000Z</time>
      </trkpt>
      <trkpt lat="47.5312" lon="-1.38034">
        <ele>87</ele>
        <time>2012-08-20T09:21:47.000Z</time>
      </trkpt>
      <trkpt lat="47.53124" lon="-1.38041">
        <ele>87</ele>
        <time>2012-08-20T09:21:48.000Z</time>
      </trkpt>
      <trkpt lat="47.53128" lon="-1.38048">
        <ele>88</ele>
        <time>2012-08-20T09:21:49.000Z</time>
      </trkpt>
      <trkpt lat="47.53132" lon="-1.38055">
        <ele>87</ele>
        <time>2012-08-20T09:21:50.000Z</time>
      </trkpt>
      <trkpt lat="47.53136" lon="-1.38062">
        <ele>88</ele>
        <time>2012-08-20T09:21:51.000Z</time>
      </trkpt>
      <trkpt lat="47.5314" lon="-1.38068">
        <ele>88</ele>
        <time>2012-08-20T09:21:52.000Z</time>
      </trkpt>
      <trkpt lat="47.53144" lon="-1.38075">
        <ele>89</ele>
        <time>2012-08-20T09:21:53.000Z</time>
      </trkpt>
      <trkpt lat="47.53148" lon="-1.38081">
        <ele>88</ele>
        <time>2012-08-20T09:21:54.000Z</time>
      </trkpt>
      <trkpt lat="47.53152" lon="-1.38088">
        <ele>89</ele>
        <time>2012-08-20T09:21:55.000Z</time>
      </trkpt>
      <trkpt lat="47.53156" lon="-1.38093">
        <ele>90</ele>
        <time>2012-08-20T09:21:56.000Z</time>
      </trkpt>
      <trkpt lat="47.5316" lon="-1.38099">
        <ele>89</ele>
        <time>2012-08-20T09:21:57.000Z</time>
      </trkpt>
      <trkpt lat="47.53165" lon="-1.38104">
        <ele>89</ele>
        <time>2012-08-20T09:21:58.000Z</time>
      </trkpt>
      <trkpt lat="47.5317" lon="-1.3811">
        <ele>87</ele>
        <time>2012-08-20T09:21:59.000Z</time>
      </trkpt>
      <trkpt lat="47.53174" lon="-1.38115">
        <ele>87</ele>
        <time>2012-08-20T09:22:00.000Z</time>
      </trkpt>
      <trkpt lat="47.53179" lon="-1.3812">
        <ele>88</ele>
        <time>2012-08-20T09:22:01.000Z</time>
      </trkpt>
      <trkpt lat="47.53183" lon="-1.38125">
        <ele>88</ele>
        <time>2012-08-20T09:22:02.000Z</time>
      </trkpt>
      <trkpt lat="47.53187" lon="-1.3813">
        <ele>89</ele>
        <time>2012-08-20T09:22:03.000Z</time>
      </trkpt>
      <trkpt lat="47.53191" lon="-1.38134">
        <ele>89</ele>
        <time>2012-08-20T09:22:04.000Z</time>
      </trkpt>
      <trkpt lat="47.53195" lon="-1.38139">
        <ele>90</ele>
        <time>2012-08-20T09:22:05.000Z</time>
      </trkpt>
      <trkpt lat="47.53198" lon="-1.38144">
        <ele>90</ele>
        <time>2012-08-20T09:22:06.000Z</time>
      </trkpt>
      <trkpt lat="47.53202" lon="-1.3815">
        <ele>91</ele>
        <time>2012-08-20T09:22:07.000Z</time>
      </trkpt>
      <trkpt lat="47.53206" lon="-1.38156">
        <ele>91</ele>
        <time>2012-08-20T09:22:08.000Z</time>
      </trkpt>
      <trkpt lat="47.53209" lon="-1.38162">
        <ele>91</ele>
        <time>2012-08-20T09:22:09.000Z</time>
      </trkpt>
      <trkpt lat="47.53212" lon="-1.38168">
        <ele>91</ele>
        <time>2012-08-20T09:22:10.000Z</time>
      </trkpt>
      <trkpt lat="47.53214" lon="-1.38175">
        <ele>91</ele>
        <time>2012-08-20T09:22:11.000Z</time>
      </trkpt>
      <trkpt lat="47.53217" lon="-1.38182">
        <ele>89</ele>
        <time>2012-08-20T09:22:12.000Z</time>
      </trkpt>
      <trkpt lat="47.53219" lon="-1.38189">
        <ele>89</ele>
        <time>2012-08-20T09:22:13.000Z</time>
      </trkpt>
      <trkpt lat="47.53221" lon="-1.38196">
        <ele>89</ele>
        <time>2012-08-20T09:22:14.000Z</time>
      </trkpt>
      <trkpt lat="47.53223" lon="-1.38203">
        <ele>89</ele>
        <time>2012-08-20T09:22:15.000Z</time>
      </trkpt>
      <trkpt lat="47.53224" lon="-1.3821">
        <ele>89</ele>
        <time>2012-08-20T09:22:16.000Z</time>
      </trkpt>
      <trkpt lat="47.53225" lon="-1.38216">
        <ele>89</ele>
        <time>2012-08-20T09:22:17.000Z</time>
      </trkpt>
      <trkpt lat="47.53227" lon="-1.38228">
        <ele>87</ele>
        <time>2012-08-20T09:22:19.000Z</time>
      </trkpt>
      <trkpt lat="47.53227" lon="-1.3824">
        <ele>87</ele>
        <time>2012-08-20T09:22:21.000Z</time>
      </trkpt>
      <trkpt lat="47.53228" lon="-1.38251">
        <ele>88</ele>
        <time>2012-08-20T09:22:23.000Z</time>
      </trkpt>
      <trkpt lat="47.53229" lon="-1.38262">
        <ele>88</ele>
        <time>2012-08-20T09:22:25.000Z</time>
      </trkpt>
      <trkpt lat="47.5323" lon="-1.38273">
        <ele>88</ele>
        <time>2012-08-20T09:22:27.000Z</time>
      </trkpt>
      <trkpt lat="47.53231" lon="-1.38283">
        <ele>89</ele>
        <time>2012-08-20T09:22:29.000Z</time>
      </trkpt>
      <trkpt lat="47.53232" lon="-1.38294">
        <ele>88</ele>
        <time>2012-08-20T09:22:31.000Z</time>
      </trkpt>
      <trkpt lat="47.53232" lon="-1.38305">
        <ele>88</ele>
        <time>2012-08-20T09:22:33.000Z</time>
      </trkpt>
      <trkpt lat="47.53233" lon="-1.38314">
        <ele>89</ele>
        <time>2012-08-20T09:22:35.000Z</time>
      </trkpt>
      <trkpt lat="47.53233" lon="-1.38324">
        <ele>90</ele>
        <time>2012-08-20T09:22:37.000Z</time>
      </trkpt>
      <trkpt lat="47.53233" lon="-1.38333">
        <ele>90</ele>
        <time>2012-08-20T09:22:39.000Z</time>
      </trkpt>
      <trkpt lat="47.53233" lon="-1.38342">
        <ele>89</ele>
        <time>2012-08-20T09:22:41.000Z</time>
      </trkpt>
      <trkpt lat="47.53234" lon="-1.38352">
        <ele>91</ele>
        <time>2012-08-20T09:22:43.000Z</time>
      </trkpt>
      <trkpt lat="47.53234" lon="-1.38361">
        <ele>90</ele>
        <time>2012-08-20T09:22:45.000Z</time>
      </trkpt>
      <trkpt lat="47.53234" lon="-1.38372">
        <ele>93</ele>
        <time>2012-08-20T09:22:47.000Z</time>
      </trkpt>
      <trkpt lat="47.53234" lon="-1.38382">
        <ele>93</ele>
        <time>2012-08-20T09:22:49.000Z</time>
      </trkpt>
      <trkpt lat="47.53234" lon="-1.38392">
        <ele>93</ele>
        <time>2012-08-20T09:22:51.000Z</time>
      </trkpt>
      <trkpt lat="47.53233" lon="-1.38401">
        <ele>93</ele>
        <time>2012-08-20T09:22:53.000Z</time>
      </trkpt>
      <trkpt lat="47.53232" lon="-1.3841">
        <ele>92</ele>
        <time>2012-08-20T09:22:55.000Z</time>
      </trkpt>
      <trkpt lat="47.53232" lon="-1.38421">
        <ele>92</ele>
        <time>2012-08-20T09:22:57.000Z</time>
      </trkpt>
      <trkpt lat="47.53231" lon="-1.38431">
        <ele>93</ele>
        <time>2012-08-20T09:22:59.000Z</time>
      </trkpt>
      <trkpt lat="47.53231" lon="-1.3844">
        <ele>94</ele>
        <time>2012-08-20T09:23:01.000Z</time>
      </trkpt>
      <trkpt lat="47.5323" lon="-1.38454">
        <ele>95</ele>
        <time>2012-08-20T09:23:03.000Z</time>
      </trkpt>
      <trkpt lat="47.5323" lon="-1.38466">
        <ele>94</ele>
        <time>2012-08-20T09:23:05.000Z</time>
      </trkpt>
      <trkpt lat="47.53229" lon="-1.38478">
        <ele>93</ele>
        <time>2012-08-20T09:23:07.000Z</time>
      </trkpt>
      <trkpt lat="47.53229" lon="-1.3849">
        <ele>95</ele>
        <time>2012-08-20T09:23:09.000Z</time>
      </trkpt>
      <trkpt lat="47.53228" lon="-1.38501">
        <ele>97</ele>
        <time>2012-08-20T09:23:11.000Z</time>
      </trkpt>
      <trkpt lat="47.53228" lon="-1.38513">
        <ele>97</ele>
        <time>2012-08-20T09:23:13.000Z</time>
      </trkpt>
      <trkpt lat="47.53228" lon="-1.38524">
        <ele>97</ele>
        <time>2012-08-20T09:23:15.000Z</time>
      </trkpt>
      <trkpt lat="47.53227" lon="-1.38535">
        <ele>98</ele>
        <time>2012-08-20T09:23:17.000Z</time>
      </trkpt>
      <trkpt lat="47.53227" lon="-1.38545">
        <ele>99</ele>
        <time>2012-08-20T09:23:19.000Z</time>
      </trkpt>
      <trkpt lat="47.53227" lon="-1.38557">
        <ele>99</ele>
        <time>2012-08-20T09:23:21.000Z</time>
      </trkpt>
      <trkpt lat="47.53227" lon="-1.38567">
        <ele>100</ele>
        <time>2012-08-20T09:23:23.000Z</time>
      </trkpt>
      <trkpt lat="47.53227" lon="-1.38579">
        <ele>99</ele>
        <time>2012-08-20T09:23:25.000Z</time>
      </trkpt>
      <trkpt lat="47.53227" lon="-1.38591">
        <ele>99</ele>
        <time>2012-08-20T09:23:27.000Z</time>
      </trkpt>
      <trkpt lat="47.53227" lon="-1.38603">
        <ele>99</ele>
        <time>2012-08-20T09:23:29.000Z</time>
      </trkpt>
      <trkpt lat="47.53228" lon="-1.38615">
        <ele>99</ele>
        <time>2012-08-20T09:23:31.000Z</time>
      </trkpt>
      <trkpt lat="47.53228" lon="-1.38624">
        <ele>100</ele>
        <time>2012-08-20T09:23:33.000Z</time>
      </trkpt>
      <trkpt lat="47.5322" lon="-1.38625">
        <ele>97</ele>
        <time>2012-08-20T09:23:36.000Z</time>
      </trkpt>
      <trkpt lat="47.53212" lon="-1.38622">
        <ele>98</ele>
        <time>2012-08-20T09:23:38.000Z</time>
      </trkpt>
      <trkpt lat="47.53205" lon="-1.38619">
        <ele>96</ele>
        <time>2012-08-20T09:23:40.000Z</time>
      </trkpt>
      <trkpt lat="47.53196" lon="-1.38616">
        <ele>94</ele>
        <time>2012-08-20T09:23:42.000Z</time>
      </trkpt>
      <trkpt lat="47.53191" lon="-1.38614">
        <ele>94</ele>
        <time>2012-08-20T09:23:43.000Z</time>
      </trkpt>
      <trkpt lat="47.53187" lon="-1.38613">
        <ele>93</ele>
        <time>2012-08-20T09:23:44.000Z</time>
      </trkpt>
      <trkpt lat="47.53182" lon="-1.38611">
        <ele>93</ele>
        <time>2012-08-20T09:23:45.000Z</time>
      </trkpt>
      <trkpt lat="47.53174" lon="-1.38608">
        <ele>95</ele>
        <time>2012-08-20T09:23:47.000Z</time>
      </trkpt>
      <trkpt lat="47.53165" lon="-1.38605">
        <ele>94</ele>
        <time>2012-08-20T09:23:49.000Z</time>
      </trkpt>
      <trkpt lat="47.53157" lon="-1.38602">
        <ele>96</ele>
        <time>2012-08-20T09:23:51.000Z</time>
      </trkpt>
      <trkpt lat="47.53149" lon="-1.38599">
        <ele>95</ele>
        <time>2012-08-20T09:23:53.000Z</time>
      </trkpt>
      <trkpt lat="47.53141" lon="-1.38596">
        <ele>95</ele>
        <time>2012-08-20T09:23:55.000Z</time>
      </trkpt>
      <trkpt lat="47.53132" lon="-1.38593">
        <ele>97</ele>
        <time>2012-08-20T09:23:57.000Z</time>
      </trkpt>
      <trkpt lat="47.53124" lon="-1.3859">
        <ele>97</ele>
        <time>2012-08-20T09:23:59.000Z</time>
      </trkpt>
      <trkpt lat="47.53116" lon="-1.38587">
        <ele>96</ele>
        <time>2012-08-20T09:24:01.000Z</time>
      </trkpt>
      <trkpt lat="47.53108" lon="-1.38584">
        <ele>97</ele>
        <time>2012-08-20T09:24:03.000Z</time>
      </trkpt>
      <trkpt lat="47.531" lon="-1.38581">
        <ele>98</ele>
        <time>2012-08-20T09:24:05.000Z</time>
      </trkpt>
      <trkpt lat="47.53092" lon="-1.38578">
        <ele>100</ele>
        <time>2012-08-20T09:24:07.000Z</time>
      </trkpt>
      <trkpt lat="47.53084" lon="-1.38575">
        <ele>100</ele>
        <time>2012-08-20T09:24:09.000Z</time>
      </trkpt>
      <trkpt lat="47.53077" lon="-1.38572">
        <ele>100</ele>
        <time>2012-08-20T09:24:11.000Z</time>
      </trkpt>
      <trkpt lat="47.5307" lon="-1.38569">
        <ele>99</ele>
        <time>2012-08-20T09:24:13.000Z</time>
      </trkpt>
      <trkpt lat="47.53062" lon="-1.38566">
        <ele>98</ele>
        <time>2012-08-20T09:24:15.000Z</time>
      </trkpt>
      <trkpt lat="47.53055" lon="-1.38564">
        <ele>98</ele>
        <time>2012-08-20T09:24:17.000Z</time>
      </trkpt>
      <trkpt lat="47.53048" lon="-1.38562">
        <ele>98</ele>
        <time>2012-08-20T09:24:19.000Z</time>
      </trkpt>
      <trkpt lat="47.53041" lon="-1.3856">
        <ele>100</ele>
        <time>2012-08-20T09:24:21.000Z</time>
      </trkpt>
      <trkpt lat="47.53035" lon="-1.38558">
        <ele>99</ele>
        <time>2012-08-20T09:24:23.000Z</time>
      </trkpt>
      <trkpt lat="47.53029" lon="-1.38555">
        <ele>99</ele>
        <time>2012-08-20T09:24:25.000Z</time>
      </trkpt>
      <trkpt lat="47.53023" lon="-1.38553">
        <ele>100</ele>
        <time>2012-08-20T09:24:27.000Z</time>
      </trkpt>
      <trkpt lat="47.53017" lon="-1.3855">
        <ele>99</ele>
        <time>2012-08-20T09:24:29.000Z</time>
      </trkpt>
      <trkpt lat="47.5301" lon="-1.38548">
        <ele>99</ele>
        <time>2012-08-20T09:24:31.000Z</time>
      </trkpt>
      <trkpt lat="47.53005" lon="-1.38546">
        <ele>100</ele>
        <time>2012-08-20T09:24:33.000Z</time>
      </trkpt>
      <trkpt lat="47.53" lon="-1.38545">
        <ele>100</ele>
        <time>2012-08-20T09:24:36.000Z</time>
      </trkpt>
      <trkpt lat="47.53" lon="-1.38545">
        <ele>100</ele>
        <time>2012-08-20T09:24:36.000Z</time>
      </trkpt>
      <trkpt lat="47.53" lon="-1.38545">
        <ele>100</ele>
        <time>2012-08-20T09:24:45.000Z</time>
      </trkpt>
      <trkpt lat="47.52995" lon="-1.38543">
        <ele>97</ele>
        <time>2012-08-20T09:24:47.000Z</time>
      </trkpt>
      <trkpt lat="47.52992" lon="-1.38553">
        <ele>93</ele>
        <time>2012-08-20T09:26:54.000Z</time>
      </trkpt>
      <trkpt lat="47.52992" lon="-1.38553">
        <ele>93</ele>
        <time>2012-08-20T09:26:54.000Z</time>
      </trkpt>
      <trkpt lat="47.52992" lon="-1.38553">
        <ele>93</ele>
        <time>2012-08-20T09:26:56.000Z</time>
      </trkpt>
      <trkpt lat="47.52996" lon="-1.38557">
        <ele>90</ele>
        <time>2012-08-20T09:27:13.000Z</time>
      </trkpt>
      <trkpt lat="47.52992" lon="-1.38553">
        <ele>103</ele>
        <time>2012-08-20T09:29:25.000Z</time>
      </trkpt>
      <trkpt lat="47.52991" lon="-1.38546">
        <ele>91</ele>
        <time>2012-08-20T09:29:47.000Z</time>
      </trkpt>
      <trkpt lat="47.52991" lon="-1.38539">
        <ele>104</ele>
        <time>2012-08-20T09:32:45.000Z</time>
      </trkpt>
      <trkpt lat="47.52985" lon="-1.38536">
        <ele>102</ele>
        <time>2012-08-20T09:32:49.000Z</time>
      </trkpt>
      <trkpt lat="47.52978" lon="-1.38532">
        <ele>102</ele>
        <time>2012-08-20T09:32:51.000Z</time>
      </trkpt>
      <trkpt lat="47.5297" lon="-1.38528">
        <ele>102</ele>
        <time>2012-08-20T09:32:53.000Z</time>
      </trkpt>
      <trkpt lat="47.52961" lon="-1.38524">
        <ele>103</ele>
        <time>2012-08-20T09:32:55.000Z</time>
      </trkpt>
      <trkpt lat="47.52957" lon="-1.38521">
        <ele>102</ele>
        <time>2012-08-20T09:32:56.000Z</time>
      </trkpt>
      <trkpt lat="47.52953" lon="-1.38518">
        <ele>103</ele>
        <time>2012-08-20T09:32:57.000Z</time>
      </trkpt>
      <trkpt lat="47.52948" lon="-1.38513">
        <ele>105</ele>
        <time>2012-08-20T09:32:58.000Z</time>
      </trkpt>
      <trkpt lat="47.52943" lon="-1.3851">
        <ele>107</ele>
        <time>2012-08-20T09:32:59.000Z</time>
      </trkpt>
      <trkpt lat="47.52938" lon="-1.38506">
        <ele>108</ele>
        <time>2012-08-20T09:33:00.000Z</time>
      </trkpt>
      <trkpt lat="47.52934" lon="-1.38502">
        <ele>107</ele>
        <time>2012-08-20T09:33:01.000Z</time>
      </trkpt>
      <trkpt lat="47.52929" lon="-1.38497">
        <ele>106</ele>
        <time>2012-08-20T09:33:02.000Z</time>
      </trkpt>
      <trkpt lat="47.52923" lon="-1.38494">
        <ele>105</ele>
        <time>2012-08-20T09:33:03.000Z</time>
      </trkpt>
      <trkpt lat="47.52918" lon="-1.38491">
        <ele>106</ele>
        <time>2012-08-20T09:33:04.000Z</time>
      </trkpt>
      <trkpt lat="47.52912" lon="-1.38489">
        <ele>105</ele>
        <time>2012-08-20T09:33:05.000Z</time>
      </trkpt>
      <trkpt lat="47.52907" lon="-1.38486">
        <ele>108</ele>
        <time>2012-08-20T09:33:06.000Z</time>
      </trkpt>
      <trkpt lat="47.52902" lon="-1.38484">
        <ele>105</ele>
        <time>2012-08-20T09:33:07.000Z</time>
      </trkpt>
      <trkpt lat="47.52896" lon="-1.38479">
        <ele>105</ele>
        <time>2012-08-20T09:33:08.000Z</time>
      </trkpt>
      <trkpt lat="47.52889" lon="-1.38474">
        <ele>107</ele>
        <time>2012-08-20T09:33:09.000Z</time>
      </trkpt>
      <trkpt lat="47.52882" lon="-1.38468">
        <ele>106</ele>
        <time>2012-08-20T09:33:10.000Z</time>
      </trkpt>
      <trkpt lat="47.52874" lon="-1.38462">
        <ele>105</ele>
        <time>2012-08-20T09:33:11.000Z</time>
      </trkpt>
      <trkpt lat="47.52869" lon="-1.38457">
        <ele>108</ele>
        <time>2012-08-20T09:33:12.000Z</time>
      </trkpt>
      <trkpt lat="47.52862" lon="-1.38453">
        <ele>104</ele>
        <time>2012-08-20T09:33:13.000Z</time>
      </trkpt>
      <trkpt lat="47.52853" lon="-1.38448">
        <ele>103</ele>
        <time>2012-08-20T09:33:14.000Z</time>
      </trkpt>
      <trkpt lat="47.52845" lon="-1.38444">
        <ele>102</ele>
        <time>2012-08-20T09:33:15.000Z</time>
      </trkpt>
      <trkpt lat="47.52837" lon="-1.38439">
        <ele>102</ele>
        <time>2012-08-20T09:33:16.000Z</time>
      </trkpt>
      <trkpt lat="47.52829" lon="-1.38433">
        <ele>103</ele>
        <time>2012-08-20T09:33:17.000Z</time>
      </trkpt>
      <trkpt lat="47.52824" lon="-1.38428">
        <ele>104</ele>
        <time>2012-08-20T09:33:18.000Z</time>
      </trkpt>
      <trkpt lat="47.52816" lon="-1.38423">
        <ele>105</ele>
        <time>2012-08-20T09:33:19.000Z</time>
      </trkpt>
      <trkpt lat="47.52809" lon="-1.38416">
        <ele>103</ele>
        <time>2012-08-20T09:33:20.000Z</time>
      </trkpt>
      <trkpt lat="47.52802" lon="-1.38406">
        <ele>103</ele>
        <time>2012-08-20T09:33:21.000Z</time>
      </trkpt>
      <trkpt lat="47.52795" lon="-1.38397">
        <ele>102</ele>
        <time>2012-08-20T09:33:22.000Z</time>
      </trkpt>
      <trkpt lat="47.52788" lon="-1.38388">
        <ele>100</ele>
        <time>2012-08-20T09:33:23.000Z</time>
      </trkpt>
      <trkpt lat="47.52782" lon="-1.38382">
        <ele>101</ele>
        <time>2012-08-20T09:33:24.000Z</time>
      </trkpt>
      <trkpt lat="47.52779" lon="-1.38377">
        <ele>94</ele>
        <time>2012-08-20T09:33:25.000Z</time>
      </trkpt>
      <trkpt lat="47.52775" lon="-1.38383">
        <ele>85</ele>
        <time>2012-08-20T09:33:31.000Z</time>
      </trkpt>
      <trkpt lat="47.52773" lon="-1.38389">
        <ele>84</ele>
        <time>2012-08-20T09:33:32.000Z</time>
      </trkpt>
      <trkpt lat="47.52769" lon="-1.38399">
        <ele>83</ele>
        <time>2012-08-20T09:33:34.000Z</time>
      </trkpt>
      <trkpt lat="47.52765" lon="-1.3841">
        <ele>87</ele>
        <time>2012-08-20T09:33:36.000Z</time>
      </trkpt>
      <trkpt lat="47.52763" lon="-1.38418">
        <ele>83</ele>
        <time>2012-08-20T09:33:38.000Z</time>
      </trkpt>
      <trkpt lat="47.52761" lon="-1.38425">
        <ele>87</ele>
        <time>2012-08-20T09:33:41.000Z</time>
      </trkpt>
      <trkpt lat="47.52757" lon="-1.38432">
        <ele>84</ele>
        <time>2012-08-20T09:33:43.000Z</time>
      </trkpt>
      <trkpt lat="47.52756" lon="-1.3844">
        <ele>86</ele>
        <time>2012-08-20T09:33:45.000Z</time>
      </trkpt>
      <trkpt lat="47.52756" lon="-1.3845">
        <ele>84</ele>
        <time>2012-08-20T09:33:47.000Z</time>
      </trkpt>
      <trkpt lat="47.52756" lon="-1.38457">
        <ele>83</ele>
        <time>2012-08-20T09:33:49.000Z</time>
      </trkpt>
      <trkpt lat="47.52757" lon="-1.38465">
        <ele>82</ele>
        <time>2012-08-20T09:33:52.000Z</time>
      </trkpt>
      <trkpt lat="47.52758" lon="-1.38474">
        <ele>82</ele>
        <time>2012-08-20T09:33:54.000Z</time>
      </trkpt>
      <trkpt lat="47.52759" lon="-1.38486">
        <ele>85</ele>
        <time>2012-08-20T09:33:56.000Z</time>
      </trkpt>
      <trkpt lat="47.5276" lon="-1.38493">
        <ele>86</ele>
        <time>2012-08-20T09:33:57.000Z</time>
      </trkpt>
      <trkpt lat="47.52762" lon="-1.38504">
        <ele>86</ele>
        <time>2012-08-20T09:33:59.000Z</time>
      </trkpt>
      <trkpt lat="47.52762" lon="-1.38515">
        <ele>87</ele>
        <time>2012-08-20T09:34:01.000Z</time>
      </trkpt>
      <trkpt lat="47.52762" lon="-1.38524">
        <ele>88</ele>
        <time>2012-08-20T09:34:03.000Z</time>
      </trkpt>
      <trkpt lat="47.52762" lon="-1.38532">
        <ele>89</ele>
        <time>2012-08-20T09:34:05.000Z</time>
      </trkpt>
      <trkpt lat="47.5276" lon="-1.38543">
        <ele>90</ele>
        <time>2012-08-20T09:34:07.000Z</time>
      </trkpt>
      <trkpt lat="47.52758" lon="-1.3855">
        <ele>88</ele>
        <time>2012-08-20T09:34:09.000Z</time>
      </trkpt>
      <trkpt lat="47.52756" lon="-1.38544">
        <ele>108</ele>
        <time>2012-08-20T09:34:44.000Z</time>
      </trkpt>
      <trkpt lat="47.52756" lon="-1.38531">
        <ele>108</ele>
        <time>2012-08-20T09:34:46.000Z</time>
      </trkpt>
      <trkpt lat="47.52755" lon="-1.38519">
        <ele>108</ele>
        <time>2012-08-20T09:34:48.000Z</time>
      </trkpt>
      <trkpt lat="47.52754" lon="-1.38509">
        <ele>107</ele>
        <time>2012-08-20T09:34:50.000Z</time>
      </trkpt>
      <trkpt lat="47.52754" lon="-1.38498">
        <ele>102</ele>
        <time>2012-08-20T09:34:52.000Z</time>
      </trkpt>
      <trkpt lat="47.52753" lon="-1.3849">
        <ele>101</ele>
        <time>2012-08-20T09:34:54.000Z</time>
      </trkpt>
      <trkpt lat="47.52754" lon="-1.38482">
        <ele>102</ele>
        <time>2012-08-20T09:34:56.000Z</time>
      </trkpt>
      <trkpt lat="47.52753" lon="-1.38472">
        <ele>100</ele>
        <time>2012-08-20T09:34:58.000Z</time>
      </trkpt>
      <trkpt lat="47.52752" lon="-1.3846">
        <ele>102</ele>
        <time>2012-08-20T09:35:00.000Z</time>
      </trkpt>
      <trkpt lat="47.52753" lon="-1.3845">
        <ele>99</ele>
        <time>2012-08-20T09:35:02.000Z</time>
      </trkpt>
      <trkpt lat="47.52756" lon="-1.38441">
        <ele>95</ele>
        <time>2012-08-20T09:35:04.000Z</time>
      </trkpt>
      <trkpt lat="47.52756" lon="-1.38449">
        <ele>96</ele>
        <time>2012-08-20T09:35:12.000Z</time>
      </trkpt>
      <trkpt lat="47.52756" lon="-1.38456">
        <ele>97</ele>
        <time>2012-08-20T09:35:14.000Z</time>
      </trkpt>
      <trkpt lat="47.52758" lon="-1.38462">
        <ele>97</ele>
        <time>2012-08-20T09:35:16.000Z</time>
      </trkpt>
      <trkpt lat="47.5276" lon="-1.38471">
        <ele>98</ele>
        <time>2012-08-20T09:35:18.000Z</time>
      </trkpt>
      <trkpt lat="47.52762" lon="-1.38481">
        <ele>95</ele>
        <time>2012-08-20T09:35:20.000Z</time>
      </trkpt>
      <trkpt lat="47.52764" lon="-1.38491">
        <ele>94</ele>
        <time>2012-08-20T09:35:22.000Z</time>
      </trkpt>
      <trkpt lat="47.52767" lon="-1.385">
        <ele>93</ele>
        <time>2012-08-20T09:35:24.000Z</time>
      </trkpt>
      <trkpt lat="47.5277" lon="-1.38508">
        <ele>92</ele>
        <time>2012-08-20T09:35:26.000Z</time>
      </trkpt>
      <trkpt lat="47.52772" lon="-1.38516">
        <ele>95</ele>
        <time>2012-08-20T09:35:28.000Z</time>
      </trkpt>
      <trkpt lat="47.52774" lon="-1.38523">
        <ele>94</ele>
        <time>2012-08-20T09:35:30.000Z</time>
      </trkpt>
      <trkpt lat="47.52776" lon="-1.3853">
        <ele>96</ele>
        <time>2012-08-20T09:35:32.000Z</time>
      </trkpt>
      <trkpt lat="47.52778" lon="-1.38538">
        <ele>95</ele>
        <time>2012-08-20T09:35:34.000Z</time>
      </trkpt>
      <trkpt lat="47.52779" lon="-1.38548">
        <ele>96</ele>
        <time>2012-08-20T09:35:36.000Z</time>
      </trkpt>
      <trkpt lat="47.52781" lon="-1.38556">
        <ele>101</ele>
        <time>2012-08-20T09:35:38.000Z</time>
      </trkpt>
      <trkpt lat="47.52782" lon="-1.38565">
        <ele>99</ele>
        <time>2012-08-20T09:35:40.000Z</time>
      </trkpt>
      <trkpt lat="47.52784" lon="-1.38574">
        <ele>99</ele>
        <time>2012-08-20T09:35:42.000Z</time>
      </trkpt>
      <trkpt lat="47.52785" lon="-1.38584">
        <ele>103</ele>
        <time>2012-08-20T09:35:44.000Z</time>
      </trkpt>
      <trkpt lat="47.52788" lon="-1.38594">
        <ele>106</ele>
        <time>2012-08-20T09:35:46.000Z</time>
      </trkpt>
      <trkpt lat="47.52792" lon="-1.38606">
        <ele>106</ele>
        <time>2012-08-20T09:35:48.000Z</time>
      </trkpt>
      <trkpt lat="47.52794" lon="-1.38612">
        <ele>104</ele>
        <time>2012-08-20T09:35:49.000Z</time>
      </trkpt>
      <trkpt lat="47.52797" lon="-1.38624">
        <ele>104</ele>
        <time>2012-08-20T09:35:51.000Z</time>
      </trkpt>
      <trkpt lat="47.52801" lon="-1.38635">
        <ele>102</ele>
        <time>2012-08-20T09:35:53.000Z</time>
      </trkpt>
      <trkpt lat="47.52805" lon="-1.38645">
        <ele>100</ele>
        <time>2012-08-20T09:35:55.000Z</time>
      </trkpt>
      <trkpt lat="47.52808" lon="-1.38655">
        <ele>100</ele>
        <time>2012-08-20T09:35:57.000Z</time>
      </trkpt>
      <trkpt lat="47.5281" lon="-1.38663">
        <ele>101</ele>
        <time>2012-08-20T09:35:59.000Z</time>
      </trkpt>
      <trkpt lat="47.52814" lon="-1.38669">
        <ele>101</ele>
        <time>2012-08-20T09:36:02.000Z</time>
      </trkpt>
      <trkpt lat="47.52816" lon="-1.38675">
        <ele>99</ele>
        <time>2012-08-20T09:36:05.000Z</time>
      </trkpt>
      <trkpt lat="47.52819" lon="-1.38682">
        <ele>99</ele>
        <time>2012-08-20T09:36:08.000Z</time>
      </trkpt>
      <trkpt lat="47.52824" lon="-1.38688">
        <ele>96</ele>
        <time>2012-08-20T09:36:11.000Z</time>
      </trkpt>
      <trkpt lat="47.52828" lon="-1.38694">
        <ele>98</ele>
        <time>2012-08-20T09:36:14.000Z</time>
      </trkpt>
      <trkpt lat="47.52832" lon="-1.38698">
        <ele>101</ele>
        <time>2012-08-20T09:36:16.000Z</time>
      </trkpt>
      <trkpt lat="47.52836" lon="-1.38702">
        <ele>99</ele>
        <time>2012-08-20T09:36:18.000Z</time>
      </trkpt>
      <trkpt lat="47.52841" lon="-1.38706">
        <ele>103</ele>
        <time>2012-08-20T09:36:20.000Z</time>
      </trkpt>
      <trkpt lat="47.52845" lon="-1.38712">
        <ele>101</ele>
        <time>2012-08-20T09:36:22.000Z</time>
      </trkpt>
      <trkpt lat="47.5285" lon="-1.38718">
        <ele>100</ele>
        <time>2012-08-20T09:36:24.000Z</time>
      </trkpt>
      <trkpt lat="47.52855" lon="-1.38725">
        <ele>101</ele>
        <time>2012-08-20T09:36:26.000Z</time>
      </trkpt>
      <trkpt lat="47.52859" lon="-1.38732">
        <ele>103</ele>
        <time>2012-08-20T09:36:28.000Z</time>
      </trkpt>
      <trkpt lat="47.52863" lon="-1.38737">
        <ele>102</ele>
        <time>2012-08-20T09:36:30.000Z</time>
      </trkpt>
      <trkpt lat="47.52867" lon="-1.38746">
        <ele>105</ele>
        <time>2012-08-20T09:36:36.000Z</time>
      </trkpt>
      <trkpt lat="47.52867" lon="-1.38754">
        <ele>107</ele>
        <time>2012-08-20T09:36:39.000Z</time>
      </trkpt>
      <trkpt lat="47.52866" lon="-1.38762">
        <ele>103</ele>
        <time>2012-08-20T09:36:42.000Z</time>
      </trkpt>
      <trkpt lat="47.52866" lon="-1.3877">
        <ele>101</ele>
        <time>2012-08-20T09:36:44.000Z</time>
      </trkpt>
      <trkpt lat="47.52867" lon="-1.38778">
        <ele>101</ele>
        <time>2012-08-20T09:36:46.000Z</time>
      </trkpt>
      <trkpt lat="47.52868" lon="-1.38788">
        <ele>100</ele>
        <time>2012-08-20T09:36:48.000Z</time>
      </trkpt>
      <trkpt lat="47.52872" lon="-1.38796">
        <ele>101</ele>
        <time>2012-08-20T09:36:50.000Z</time>
      </trkpt>
      <trkpt lat="47.52876" lon="-1.38802">
        <ele>102</ele>
        <time>2012-08-20T09:36:52.000Z</time>
      </trkpt>
      <trkpt lat="47.52879" lon="-1.38808">
        <ele>101</ele>
        <time>2012-08-20T09:36:55.000Z</time>
      </trkpt>
      <trkpt lat="47.5288" lon="-1.38814">
        <ele>102</ele>
        <time>2012-08-20T09:36:57.000Z</time>
      </trkpt>
      <trkpt lat="47.52884" lon="-1.3882">
        <ele>103</ele>
        <time>2012-08-20T09:37:00.000Z</time>
      </trkpt>
      <trkpt lat="47.52888" lon="-1.38826">
        <ele>100</ele>
        <time>2012-08-20T09:37:09.000Z</time>
      </trkpt>
      <trkpt lat="47.52892" lon="-1.38831">
        <ele>93</ele>
        <time>2012-08-20T09:37:13.000Z</time>
      </trkpt>
      <trkpt lat="47.52892" lon="-1.38831">
        <ele>93</ele>
        <time>2012-08-20T09:37:13.000Z</time>
      </trkpt>
      <trkpt lat="47.52892" lon="-1.38831">
        <ele>93</ele>
        <time>2012-08-20T09:37:14.000Z</time>
      </trkpt>
      <trkpt lat="47.52896" lon="-1.38837">
        <ele>96</ele>
        <time>2012-08-20T09:37:18.000Z</time>
      </trkpt>
      <trkpt lat="47.52899" lon="-1.38842">
        <ele>97</ele>
        <time>2012-08-20T09:37:20.000Z</time>
      </trkpt>
      <trkpt lat="47.52903" lon="-1.38848">
        <ele>100</ele>
        <time>2012-08-20T09:37:22.000Z</time>
      </trkpt>
      <trkpt lat="47.52906" lon="-1.38856">
        <ele>99</ele>
        <time>2012-08-20T09:37:24.000Z</time>
      </trkpt>
      <trkpt lat="47.52907" lon="-1.38864">
        <ele>100</ele>
        <time>2012-08-20T09:37:26.000Z</time>
      </trkpt>
      <trkpt lat="47.52908" lon="-1.38874">
        <ele>102</ele>
        <time>2012-08-20T09:37:29.000Z</time>
      </trkpt>
      <trkpt lat="47.5291" lon="-1.38881">
        <ele>104</ele>
        <time>2012-08-20T09:37:31.000Z</time>
      </trkpt>
      <trkpt lat="47.5291" lon="-1.38881">
        <ele>104</ele>
        <time>2012-08-20T09:37:31.000Z</time>
      </trkpt>
      <trkpt lat="47.5291" lon="-1.38881">
        <ele>104</ele>
        <time>2012-08-20T09:37:32.000Z</time>
      </trkpt>
      <trkpt lat="47.52915" lon="-1.38885">
        <ele>108</ele>
        <time>2012-08-20T09:37:34.000Z</time>
      </trkpt>
      <trkpt lat="47.52919" lon="-1.38889">
        <ele>107</ele>
        <time>2012-08-20T09:37:37.000Z</time>
      </trkpt>
      <trkpt lat="47.52922" lon="-1.38894">
        <ele>106</ele>
        <time>2012-08-20T09:37:39.000Z</time>
      </trkpt>
      <trkpt lat="47.52925" lon="-1.38899">
        <ele>104</ele>
        <time>2012-08-20T09:37:41.000Z</time>
      </trkpt>
      <trkpt lat="47.52928" lon="-1.38906">
        <ele>101</ele>
        <time>2012-08-20T09:37:43.000Z</time>
      </trkpt>
      <trkpt lat="47.5293" lon="-1.38912">
        <ele>101</ele>
        <time>2012-08-20T09:37:45.000Z</time>
      </trkpt>
      <trkpt lat="47.52933" lon="-1.38922">
        <ele>104</ele>
        <time>2012-08-20T09:37:48.000Z</time>
      </trkpt>
      <trkpt lat="47.52936" lon="-1.3893">
        <ele>106</ele>
        <time>2012-08-20T09:37:51.000Z</time>
      </trkpt>
      <trkpt lat="47.52938" lon="-1.38936">
        <ele>107</ele>
        <time>2012-08-20T09:37:53.000Z</time>
      </trkpt>
      <trkpt lat="47.5294" lon="-1.38946">
        <ele>105</ele>
        <time>2012-08-20T09:37:55.000Z</time>
      </trkpt>
      <trkpt lat="47.52941" lon="-1.38953">
        <ele>106</ele>
        <time>2012-08-20T09:37:57.000Z</time>
      </trkpt>
      <trkpt lat="47.52941" lon="-1.38961">
        <ele>108</ele>
        <time>2012-08-20T09:37:59.000Z</time>
      </trkpt>
      <trkpt lat="47.52941" lon="-1.38969">
        <ele>107</ele>
        <time>2012-08-20T09:38:01.000Z</time>
      </trkpt>
      <trkpt lat="47.52942" lon="-1.38977">
        <ele>107</ele>
        <time>2012-08-20T09:38:03.000Z</time>
      </trkpt>
      <trkpt lat="47.52944" lon="-1.38984">
        <ele>106</ele>
        <time>2012-08-20T09:38:05.000Z</time>
      </trkpt>
      <trkpt lat="47.52944" lon="-1.38993">
        <ele>107</ele>
        <time>2012-08-20T09:38:07.000Z</time>
      </trkpt>
      <trkpt lat="47.52944" lon="-1.39002">
        <ele>103</ele>
        <time>2012-08-20T09:38:09.000Z</time>
      </trkpt>
      <trkpt lat="47.52945" lon="-1.39012">
        <ele>104</ele>
        <time>2012-08-20T09:38:11.000Z</time>
      </trkpt>
      <trkpt lat="47.52947" lon="-1.39021">
        <ele>106</ele>
        <time>2012-08-20T09:38:13.000Z</time>
      </trkpt>
      <trkpt lat="47.52949" lon="-1.39029">
        <ele>104</ele>
        <time>2012-08-20T09:38:15.000Z</time>
      </trkpt>
      <trkpt lat="47.5295" lon="-1.39037">
        <ele>107</ele>
        <time>2012-08-20T09:38:17.000Z</time>
      </trkpt>
      <trkpt lat="47.52951" lon="-1.39045">
        <ele>108</ele>
        <time>2012-08-20T09:38:19.000Z</time>
      </trkpt>
      <trkpt lat="47.52952" lon="-1.39052">
        <ele>109</ele>
        <time>2012-08-20T09:38:21.000Z</time>
      </trkpt>
      <trkpt lat="47.52954" lon="-1.39059">
        <ele>109</ele>
        <time>2012-08-20T09:38:23.000Z</time>
      </trkpt>
      <trkpt lat="47.52955" lon="-1.39067">
        <ele>106</ele>
        <time>2012-08-20T09:38:25.000Z</time>
      </trkpt>
      <trkpt lat="47.52957" lon="-1.39074">
        <ele>109</ele>
        <time>2012-08-20T09:38:27.000Z</time>
      </trkpt>
      <trkpt lat="47.52957" lon="-1.39083">
        <ele>110</ele>
        <time>2012-08-20T09:38:29.000Z</time>
      </trkpt>
      <trkpt lat="47.52959" lon="-1.3909">
        <ele>111</ele>
        <time>2012-08-20T09:38:31.000Z</time>
      </trkpt>
      <trkpt lat="47.5296" lon="-1.39096">
        <ele>109</ele>
        <time>2012-08-20T09:38:33.000Z</time>
      </trkpt>
      <trkpt lat="47.52962" lon="-1.39104">
        <ele>106</ele>
        <time>2012-08-20T09:38:35.000Z</time>
      </trkpt>
      <trkpt lat="47.52965" lon="-1.39113">
        <ele>107</ele>
        <time>2012-08-20T09:38:38.000Z</time>
      </trkpt>
      <trkpt lat="47.52968" lon="-1.39121">
        <ele>104</ele>
        <time>2012-08-20T09:38:41.000Z</time>
      </trkpt>
      <trkpt lat="47.5297" lon="-1.39128">
        <ele>104</ele>
        <time>2012-08-20T09:38:43.000Z</time>
      </trkpt>
      <trkpt lat="47.52972" lon="-1.39135">
        <ele>107</ele>
        <time>2012-08-20T09:38:45.000Z</time>
      </trkpt>
      <trkpt lat="47.52973" lon="-1.39144">
        <ele>108</ele>
        <time>2012-08-20T09:38:47.000Z</time>
      </trkpt>
      <trkpt lat="47.52974" lon="-1.39153">
        <ele>107</ele>
        <time>2012-08-20T09:38:49.000Z</time>
      </trkpt>
      <trkpt lat="47.52975" lon="-1.39159">
        <ele>108</ele>
        <time>2012-08-20T09:38:51.000Z</time>
      </trkpt>
      <trkpt lat="47.52979" lon="-1.39163">
        <ele>104</ele>
        <time>2012-08-20T09:38:53.000Z</time>
      </trkpt>
      <trkpt lat="47.52984" lon="-1.39168">
        <ele>106</ele>
        <time>2012-08-20T09:38:55.000Z</time>
      </trkpt>
      <trkpt lat="47.52989" lon="-1.39174">
        <ele>108</ele>
        <time>2012-08-20T09:38:57.000Z</time>
      </trkpt>
      <trkpt lat="47.52992" lon="-1.39181">
        <ele>106</ele>
        <time>2012-08-20T09:38:59.000Z</time>
      </trkpt>
      <trkpt lat="47.52989" lon="-1.39192">
        <ele>110</ele>
        <time>2012-08-20T09:39:01.000Z</time>
      </trkpt>
      <trkpt lat="47.52986" lon="-1.39198">
        <ele>105</ele>
        <time>2012-08-20T09:39:02.000Z</time>
      </trkpt>
      <trkpt lat="47.52983" lon="-1.39204">
        <ele>111</ele>
        <time>2012-08-20T09:39:03.000Z</time>
      </trkpt>
      <trkpt lat="47.52981" lon="-1.3921">
        <ele>111</ele>
        <time>2012-08-20T09:39:04.000Z</time>
      </trkpt>
      <trkpt lat="47.52979" lon="-1.39216">
        <ele>110</ele>
        <time>2012-08-20T09:39:05.000Z</time>
      </trkpt>
      <trkpt lat="47.52977" lon="-1.39223">
        <ele>113</ele>
        <time>2012-08-20T09:39:06.000Z</time>
      </trkpt>
      <trkpt lat="47.52975" lon="-1.39235">
        <ele>112</ele>
        <time>2012-08-20T09:39:08.000Z</time>
      </trkpt>
      <trkpt lat="47.52972" lon="-1.39246">
        <ele>114</ele>
        <time>2012-08-20T09:39:10.000Z</time>
      </trkpt>
      <trkpt lat="47.5297" lon="-1.39257">
        <ele>115</ele>
        <time>2012-08-20T09:39:12.000Z</time>
      </trkpt>
      <trkpt lat="47.52969" lon="-1.3927">
        <ele>114</ele>
        <time>2012-08-20T09:39:14.000Z</time>
      </trkpt>
      <trkpt lat="47.52969" lon="-1.3928">
        <ele>118</ele>
        <time>2012-08-20T09:39:16.000Z</time>
      </trkpt>
      <trkpt lat="47.5297" lon="-1.39288">
        <ele>117</ele>
        <time>2012-08-20T09:39:18.000Z</time>
      </trkpt>
      <trkpt lat="47.52969" lon="-1.39299">
        <ele>117</ele>
        <time>2012-08-20T09:39:20.000Z</time>
      </trkpt>
      <trkpt lat="47.52968" lon="-1.3931">
        <ele>117</ele>
        <time>2012-08-20T09:39:22.000Z</time>
      </trkpt>
      <trkpt lat="47.52968" lon="-1.39317">
        <ele>117</ele>
        <time>2012-08-20T09:39:23.000Z</time>
      </trkpt>
      <trkpt lat="47.52967" lon="-1.39329">
        <ele>118</ele>
        <time>2012-08-20T09:39:25.000Z</time>
      </trkpt>
      <trkpt lat="47.52966" lon="-1.39337">
        <ele>118</ele>
        <time>2012-08-20T09:39:26.000Z</time>
      </trkpt>
      <trkpt lat="47.52965" lon="-1.39349">
        <ele>118</ele>
        <time>2012-08-20T09:39:28.000Z</time>
      </trkpt>
      <trkpt lat="47.52966" lon="-1.39361">
        <ele>116</ele>
        <time>2012-08-20T09:39:30.000Z</time>
      </trkpt>
      <trkpt lat="47.52966" lon="-1.39371">
        <ele>118</ele>
        <time>2012-08-20T09:39:32.000Z</time>
      </trkpt>
      <trkpt lat="47.52964" lon="-1.39383">
        <ele>117</ele>
        <time>2012-08-20T09:39:34.000Z</time>
      </trkpt>
      <trkpt lat="47.52962" lon="-1.39393">
        <ele>113</ele>
        <time>2012-08-20T09:39:36.000Z</time>
      </trkpt>
      <trkpt lat="47.52958" lon="-1.39401">
        <ele>114</ele>
        <time>2012-08-20T09:39:38.000Z</time>
      </trkpt>
      <trkpt lat="47.52954" lon="-1.39413">
        <ele>117</ele>
        <time>2012-08-20T09:39:40.000Z</time>
      </trkpt>
      <trkpt lat="47.52952" lon="-1.39419">
        <ele>114</ele>
        <time>2012-08-20T09:39:41.000Z</time>
      </trkpt>
      <trkpt lat="47.52948" lon="-1.39424">
        <ele>113</ele>
        <time>2012-08-20T09:39:42.000Z</time>
      </trkpt>
      <trkpt lat="47.52944" lon="-1.39436">
        <ele>112</ele>
        <time>2012-08-20T09:39:44.000Z</time>
      </trkpt>
      <trkpt lat="47.52938" lon="-1.39447">
        <ele>111</ele>
        <time>2012-08-20T09:39:45.000Z</time>
      </trkpt>
      <trkpt lat="47.52933" lon="-1.39455">
        <ele>110</ele>
        <time>2012-08-20T09:39:46.000Z</time>
      </trkpt>
      <trkpt lat="47.52929" lon="-1.3946">
        <ele>110</ele>
        <time>2012-08-20T09:39:47.000Z</time>
      </trkpt>
      <trkpt lat="47.52925" lon="-1.39465">
        <ele>107</ele>
        <time>2012-08-20T09:39:48.000Z</time>
      </trkpt>
      <trkpt lat="47.52918" lon="-1.39471">
        <ele>108</ele>
        <time>2012-08-20T09:39:50.000Z</time>
      </trkpt>
      <trkpt lat="47.52917" lon="-1.3948">
        <ele>107</ele>
        <time>2012-08-20T09:39:55.000Z</time>
      </trkpt>
      <trkpt lat="47.52914" lon="-1.39488">
        <ele>108</ele>
        <time>2012-08-20T09:39:57.000Z</time>
      </trkpt>
      <trkpt lat="47.52907" lon="-1.39495">
        <ele>113</ele>
        <time>2012-08-20T09:39:59.000Z</time>
      </trkpt>
      <trkpt lat="47.52902" lon="-1.395">
        <ele>112</ele>
        <time>2012-08-20T09:40:00.000Z</time>
      </trkpt>
      <trkpt lat="47.52896" lon="-1.39506">
        <ele>113</ele>
        <time>2012-08-20T09:40:02.000Z</time>
      </trkpt>
      <trkpt lat="47.52889" lon="-1.39513">
        <ele>112</ele>
        <time>2012-08-20T09:40:04.000Z</time>
      </trkpt>
      <trkpt lat="47.52885" lon="-1.39518">
        <ele>111</ele>
        <time>2012-08-20T09:40:06.000Z</time>
      </trkpt>
      <trkpt lat="47.52882" lon="-1.39525">
        <ele>113</ele>
        <time>2012-08-20T09:40:09.000Z</time>
      </trkpt>
      <trkpt lat="47.52879" lon="-1.39532">
        <ele>112</ele>
        <time>2012-08-20T09:40:13.000Z</time>
      </trkpt>
      <trkpt lat="47.52876" lon="-1.3954">
        <ele>109</ele>
        <time>2012-08-20T09:40:16.000Z</time>
      </trkpt>
      <trkpt lat="47.52873" lon="-1.39546">
        <ele>111</ele>
        <time>2012-08-20T09:40:18.000Z</time>
      </trkpt>
      <trkpt lat="47.5287" lon="-1.39552">
        <ele>108</ele>
        <time>2012-08-20T09:40:20.000Z</time>
      </trkpt>
      <trkpt lat="47.52865" lon="-1.39559">
        <ele>108</ele>
        <time>2012-08-20T09:40:22.000Z</time>
      </trkpt>
      <trkpt lat="47.5286" lon="-1.39568">
        <ele>108</ele>
        <time>2012-08-20T09:40:24.000Z</time>
      </trkpt>
      <trkpt lat="47.52856" lon="-1.39575">
        <ele>107</ele>
        <time>2012-08-20T09:40:26.000Z</time>
      </trkpt>
      <trkpt lat="47.52854" lon="-1.39582">
        <ele>108</ele>
        <time>2012-08-20T09:40:28.000Z</time>
      </trkpt>
      <trkpt lat="47.52852" lon="-1.3959">
        <ele>105</ele>
        <time>2012-08-20T09:40:31.000Z</time>
      </trkpt>
      <trkpt lat="47.52853" lon="-1.39598">
        <ele>103</ele>
        <time>2012-08-20T09:40:33.000Z</time>
      </trkpt>
      <trkpt lat="47.52853" lon="-1.39608">
        <ele>103</ele>
        <time>2012-08-20T09:40:35.000Z</time>
      </trkpt>
      <trkpt lat="47.52853" lon="-1.39621">
        <ele>100</ele>
        <time>2012-08-20T09:40:37.000Z</time>
      </trkpt>
      <trkpt lat="47.5285" lon="-1.39628">
        <ele>98</ele>
        <time>2012-08-20T09:40:39.000Z</time>
      </trkpt>
      <trkpt lat="47.52846" lon="-1.39633">
        <ele>99</ele>
        <time>2012-08-20T09:40:41.000Z</time>
      </trkpt>
      <trkpt lat="47.5284" lon="-1.39639">
        <ele>100</ele>
        <time>2012-08-20T09:40:43.000Z</time>
      </trkpt>
      <trkpt lat="47.52833" lon="-1.39644">
        <ele>99</ele>
        <time>2012-08-20T09:40:45.000Z</time>
      </trkpt>
      <trkpt lat="47.52827" lon="-1.39646">
        <ele>105</ele>
        <time>2012-08-20T09:40:47.000Z</time>
      </trkpt>
      <trkpt lat="47.52821" lon="-1.39648">
        <ele>108</ele>
        <time>2012-08-20T09:40:48.000Z</time>
      </trkpt>
      <trkpt lat="47.52815" lon="-1.39652">
        <ele>105</ele>
        <time>2012-08-20T09:40:49.000Z</time>
      </trkpt>
      <trkpt lat="47.52809" lon="-1.39656">
        <ele>105</ele>
        <time>2012-08-20T09:40:50.000Z</time>
      </trkpt>
      <trkpt lat="47.52802" lon="-1.39661">
        <ele>106</ele>
        <time>2012-08-20T09:40:51.000Z</time>
      </trkpt>
      <trkpt lat="47.528" lon="-1.39667">
        <ele>102</ele>
        <time>2012-08-20T09:40:58.000Z</time>
      </trkpt>
      <trkpt lat="47.52804" lon="-1.39674">
        <ele>103</ele>
        <time>2012-08-20T09:41:02.000Z</time>
      </trkpt>
      <trkpt lat="47.52809" lon="-1.39678">
        <ele>104</ele>
        <time>2012-08-20T09:41:04.000Z</time>
      </trkpt>
      <trkpt lat="47.52815" lon="-1.39682">
        <ele>106</ele>
        <time>2012-08-20T09:41:06.000Z</time>
      </trkpt>
      <trkpt lat="47.52821" lon="-1.39686">
        <ele>108</ele>
        <time>2012-08-20T09:41:08.000Z</time>
      </trkpt>
      <trkpt lat="47.52828" lon="-1.39691">
        <ele>109</ele>
        <time>2012-08-20T09:41:10.000Z</time>
      </trkpt>
      <trkpt lat="47.52834" lon="-1.39694">
        <ele>110</ele>
        <time>2012-08-20T09:41:12.000Z</time>
      </trkpt>
      <trkpt lat="47.52841" lon="-1.39696">
        <ele>113</ele>
        <time>2012-08-20T09:41:14.000Z</time>
      </trkpt>
      <trkpt lat="47.52847" lon="-1.39699">
        <ele>113</ele>
        <time>2012-08-20T09:41:16.000Z</time>
      </trkpt>
      <trkpt lat="47.52854" lon="-1.39701">
        <ele>114</ele>
        <time>2012-08-20T09:41:18.000Z</time>
      </trkpt>
      <trkpt lat="47.52862" lon="-1.39704">
        <ele>116</ele>
        <time>2012-08-20T09:41:20.000Z</time>
      </trkpt>
      <trkpt lat="47.52869" lon="-1.39706">
        <ele>116</ele>
        <time>2012-08-20T09:41:22.000Z</time>
      </trkpt>
      <trkpt lat="47.52875" lon="-1.39708">
        <ele>117</ele>
        <time>2012-08-20T09:41:24.000Z</time>
      </trkpt>
      <trkpt lat="47.52882" lon="-1.3971">
        <ele>117</ele>
        <time>2012-08-20T09:41:26.000Z</time>
      </trkpt>
      <trkpt lat="47.52887" lon="-1.39711">
        <ele>115</ele>
        <time>2012-08-20T09:41:27.000Z</time>
      </trkpt>
      <trkpt lat="47.52892" lon="-1.39713">
        <ele>114</ele>
        <time>2012-08-20T09:41:28.000Z</time>
      </trkpt>
      <trkpt lat="47.52897" lon="-1.39714">
        <ele>113</ele>
        <time>2012-08-20T09:41:29.000Z</time>
      </trkpt>
      <trkpt lat="47.52901" lon="-1.39716">
        <ele>113</ele>
        <time>2012-08-20T09:41:30.000Z</time>
      </trkpt>
      <trkpt lat="47.52906" lon="-1.39717">
        <ele>113</ele>
        <time>2012-08-20T09:41:31.000Z</time>
      </trkpt>
      <trkpt lat="47.52913" lon="-1.39719">
        <ele>114</ele>
        <time>2012-08-20T09:41:33.000Z</time>
      </trkpt>
      <trkpt lat="47.52921" lon="-1.39719">
        <ele>116</ele>
        <time>2012-08-20T09:41:35.000Z</time>
      </trkpt>
      <trkpt lat="47.52929" lon="-1.3972">
        <ele>117</ele>
        <time>2012-08-20T09:41:37.000Z</time>
      </trkpt>
      <trkpt lat="47.52936" lon="-1.3972">
        <ele>121</ele>
        <time>2012-08-20T09:41:39.000Z</time>
      </trkpt>
      <trkpt lat="47.52942" lon="-1.39722">
        <ele>123</ele>
        <time>2012-08-20T09:41:41.000Z</time>
      </trkpt>
      <trkpt lat="47.52947" lon="-1.39725">
        <ele>123</ele>
        <time>2012-08-20T09:41:43.000Z</time>
      </trkpt>
      <trkpt lat="47.52951" lon="-1.39734">
        <ele>125</ele>
        <time>2012-08-20T09:41:45.000Z</time>
      </trkpt>
      <trkpt lat="47.52953" lon="-1.39741">
        <ele>126</ele>
        <time>2012-08-20T09:41:47.000Z</time>
      </trkpt>
      <trkpt lat="47.52957" lon="-1.39747">
        <ele>125</ele>
        <time>2012-08-20T09:41:49.000Z</time>
      </trkpt>
      <trkpt lat="47.52964" lon="-1.39751">
        <ele>128</ele>
        <time>2012-08-20T09:41:51.000Z</time>
      </trkpt>
      <trkpt lat="47.52972" lon="-1.39754">
        <ele>129</ele>
        <time>2012-08-20T09:41:53.000Z</time>
      </trkpt>
      <trkpt lat="47.52978" lon="-1.39757">
        <ele>125</ele>
        <time>2012-08-20T09:41:55.000Z</time>
      </trkpt>
      <trkpt lat="47.52984" lon="-1.39766">
        <ele>129</ele>
        <time>2012-08-20T09:41:57.000Z</time>
      </trkpt>
      <trkpt lat="47.52987" lon="-1.39777">
        <ele>133</ele>
        <time>2012-08-20T09:41:59.000Z</time>
      </trkpt>
      <trkpt lat="47.52991" lon="-1.39788">
        <ele>138</ele>
        <time>2012-08-20T09:42:01.000Z</time>
      </trkpt>
      <trkpt lat="47.52994" lon="-1.39795">
        <ele>139</ele>
        <time>2012-08-20T09:42:02.000Z</time>
      </trkpt>
      <trkpt lat="47.52998" lon="-1.398">
        <ele>139</ele>
        <time>2012-08-20T09:42:03.000Z</time>
      </trkpt>
      <trkpt lat="47.53002" lon="-1.39807">
        <ele>138</ele>
        <time>2012-08-20T09:42:04.000Z</time>
      </trkpt>
      <trkpt lat="47.53006" lon="-1.39815">
        <ele>137</ele>
        <time>2012-08-20T09:42:05.000Z</time>
      </trkpt>
      <trkpt lat="47.53009" lon="-1.39824">
        <ele>138</ele>
        <time>2012-08-20T09:42:06.000Z</time>
      </trkpt>
      <trkpt lat="47.53012" lon="-1.39833">
        <ele>138</ele>
        <time>2012-08-20T09:42:07.000Z</time>
      </trkpt>
      <trkpt lat="47.53015" lon="-1.39847">
        <ele>137</ele>
        <time>2012-08-20T09:42:08.000Z</time>
      </trkpt>
      <trkpt lat="47.53015" lon="-1.3986">
        <ele>131</ele>
        <time>2012-08-20T09:42:09.000Z</time>
      </trkpt>
      <trkpt lat="47.53016" lon="-1.39871">
        <ele>127</ele>
        <time>2012-08-20T09:42:10.000Z</time>
      </trkpt>
      <trkpt lat="47.53019" lon="-1.39882">
        <ele>125</ele>
        <time>2012-08-20T09:42:11.000Z</time>
      </trkpt>
      <trkpt lat="47.53022" lon="-1.39892">
        <ele>125</ele>
        <time>2012-08-20T09:42:12.000Z</time>
      </trkpt>
      <trkpt lat="47.53025" lon="-1.39902">
        <ele>127</ele>
        <time>2012-08-20T09:42:13.000Z</time>
      </trkpt>
      <trkpt lat="47.5303" lon="-1.3991">
        <ele>126</ele>
        <time>2012-08-20T09:42:14.000Z</time>
      </trkpt>
      <trkpt lat="47.53033" lon="-1.39919">
        <ele>124</ele>
        <time>2012-08-20T09:42:15.000Z</time>
      </trkpt>
      <trkpt lat="47.53038" lon="-1.39928">
        <ele>121</ele>
        <time>2012-08-20T09:42:16.000Z</time>
      </trkpt>
      <trkpt lat="47.5304" lon="-1.3994">
        <ele>120</ele>
        <time>2012-08-20T09:42:17.000Z</time>
      </trkpt>
      <trkpt lat="47.53041" lon="-1.39953">
        <ele>119</ele>
        <time>2012-08-20T09:42:18.000Z</time>
      </trkpt>
      <trkpt lat="47.53043" lon="-1.39963">
        <ele>118</ele>
        <time>2012-08-20T09:42:19.000Z</time>
      </trkpt>
      <trkpt lat="47.53045" lon="-1.39972">
        <ele>119</ele>
        <time>2012-08-20T09:42:20.000Z</time>
      </trkpt>
      <trkpt lat="47.53046" lon="-1.39984">
        <ele>118</ele>
        <time>2012-08-20T09:42:21.000Z</time>
      </trkpt>
      <trkpt lat="47.53048" lon="-1.39994">
        <ele>119</ele>
        <time>2012-08-20T09:42:22.000Z</time>
      </trkpt>
      <trkpt lat="47.53051" lon="-1.40002">
        <ele>119</ele>
        <time>2012-08-20T09:42:23.000Z</time>
      </trkpt>
      <trkpt lat="47.53054" lon="-1.4001">
        <ele>117</ele>
        <time>2012-08-20T09:42:24.000Z</time>
      </trkpt>
      <trkpt lat="47.53057" lon="-1.40017">
        <ele>115</ele>
        <time>2012-08-20T09:42:25.000Z</time>
      </trkpt>
      <trkpt lat="47.5306" lon="-1.40024">
        <ele>115</ele>
        <time>2012-08-20T09:42:26.000Z</time>
      </trkpt>
      <trkpt lat="47.53062" lon="-1.40031">
        <ele>118</ele>
        <time>2012-08-20T09:42:27.000Z</time>
      </trkpt>
      <trkpt lat="47.53062" lon="-1.40042">
        <ele>120</ele>
        <time>2012-08-20T09:42:28.000Z</time>
      </trkpt>
      <trkpt lat="47.53062" lon="-1.4005">
        <ele>120</ele>
        <time>2012-08-20T09:42:29.000Z</time>
      </trkpt>
      <trkpt lat="47.53063" lon="-1.40058">
        <ele>117</ele>
        <time>2012-08-20T09:42:30.000Z</time>
      </trkpt>
      <trkpt lat="47.53064" lon="-1.40068">
        <ele>116</ele>
        <time>2012-08-20T09:42:31.000Z</time>
      </trkpt>
      <trkpt lat="47.53064" lon="-1.40074">
        <ele>118</ele>
        <time>2012-08-20T09:42:32.000Z</time>
      </trkpt>
      <trkpt lat="47.53065" lon="-1.40081">
        <ele>119</ele>
        <time>2012-08-20T09:42:33.000Z</time>
      </trkpt>
      <trkpt lat="47.53066" lon="-1.40087">
        <ele>119</ele>
        <time>2012-08-20T09:42:34.000Z</time>
      </trkpt>
      <trkpt lat="47.5307" lon="-1.40096">
        <ele>117</ele>
        <time>2012-08-20T09:42:36.000Z</time>
      </trkpt>
      <trkpt lat="47.53071" lon="-1.40108">
        <ele>118</ele>
        <time>2012-08-20T09:42:38.000Z</time>
      </trkpt>
      <trkpt lat="47.53072" lon="-1.40115">
        <ele>117</ele>
        <time>2012-08-20T09:42:39.000Z</time>
      </trkpt>
      <trkpt lat="47.53072" lon="-1.40122">
        <ele>116</ele>
        <time>2012-08-20T09:42:40.000Z</time>
      </trkpt>
      <trkpt lat="47.53074" lon="-1.40132">
        <ele>115</ele>
        <time>2012-08-20T09:42:42.000Z</time>
      </trkpt>
      <trkpt lat="47.53076" lon="-1.4014">
        <ele>117</ele>
        <time>2012-08-20T09:42:44.000Z</time>
      </trkpt>
      <trkpt lat="47.53075" lon="-1.40148">
        <ele>117</ele>
        <time>2012-08-20T09:42:45.000Z</time>
      </trkpt>
      <trkpt lat="47.53077" lon="-1.40158">
        <ele>114</ele>
        <time>2012-08-20T09:42:47.000Z</time>
      </trkpt>
      <trkpt lat="47.53077" lon="-1.40169">
        <ele>111</ele>
        <time>2012-08-20T09:42:49.000Z</time>
      </trkpt>
      <trkpt lat="47.53077" lon="-1.4018">
        <ele>109</ele>
        <time>2012-08-20T09:42:51.000Z</time>
      </trkpt>
      <trkpt lat="47.53078" lon="-1.40189">
        <ele>109</ele>
        <time>2012-08-20T09:42:53.000Z</time>
      </trkpt>
      <trkpt lat="47.53079" lon="-1.40197">
        <ele>111</ele>
        <time>2012-08-20T09:42:55.000Z</time>
      </trkpt>
      <trkpt lat="47.53083" lon="-1.40206">
        <ele>109</ele>
        <time>2012-08-20T09:42:58.000Z</time>
      </trkpt>
      <trkpt lat="47.53086" lon="-1.40216">
        <ele>108</ele>
        <time>2012-08-20T09:43:00.000Z</time>
      </trkpt>
      <trkpt lat="47.53087" lon="-1.40225">
        <ele>108</ele>
        <time>2012-08-20T09:43:01.000Z</time>
      </trkpt>
      <trkpt lat="47.53088" lon="-1.40232">
        <ele>108</ele>
        <time>2012-08-20T09:43:02.000Z</time>
      </trkpt>
      <trkpt lat="47.53092" lon="-1.40242">
        <ele>106</ele>
        <time>2012-08-20T09:43:04.000Z</time>
      </trkpt>
      <trkpt lat="47.53095" lon="-1.40252">
        <ele>105</ele>
        <time>2012-08-20T09:43:06.000Z</time>
      </trkpt>
      <trkpt lat="47.53096" lon="-1.4026">
        <ele>104</ele>
        <time>2012-08-20T09:43:07.000Z</time>
      </trkpt>
      <trkpt lat="47.53098" lon="-1.40268">
        <ele>102</ele>
        <time>2012-08-20T09:43:08.000Z</time>
      </trkpt>
      <trkpt lat="47.53099" lon="-1.40275">
        <ele>102</ele>
        <time>2012-08-20T09:43:09.000Z</time>
      </trkpt>
      <trkpt lat="47.53101" lon="-1.40282">
        <ele>101</ele>
        <time>2012-08-20T09:43:10.000Z</time>
      </trkpt>
      <trkpt lat="47.53103" lon="-1.4029">
        <ele>100</ele>
        <time>2012-08-20T09:43:11.000Z</time>
      </trkpt>
      <trkpt lat="47.53105" lon="-1.40296">
        <ele>101</ele>
        <time>2012-08-20T09:43:12.000Z</time>
      </trkpt>
      <trkpt lat="47.5311" lon="-1.40309">
        <ele>100</ele>
        <time>2012-08-20T09:43:14.000Z</time>
      </trkpt>
      <trkpt lat="47.53113" lon="-1.40318">
        <ele>101</ele>
        <time>2012-08-20T09:43:15.000Z</time>
      </trkpt>
      <trkpt lat="47.53116" lon="-1.40326">
        <ele>99</ele>
        <time>2012-08-20T09:43:16.000Z</time>
      </trkpt>
      <trkpt lat="47.53118" lon="-1.40336">
        <ele>101</ele>
        <time>2012-08-20T09:43:17.000Z</time>
      </trkpt>
      <trkpt lat="47.53119" lon="-1.40346">
        <ele>101</ele>
        <time>2012-08-20T09:43:18.000Z</time>
      </trkpt>
      <trkpt lat="47.5312" lon="-1.40352">
        <ele>96</ele>
        <time>2012-08-20T09:43:19.000Z</time>
      </trkpt>
      <trkpt lat="47.53123" lon="-1.40359">
        <ele>95</ele>
        <time>2012-08-20T09:43:20.000Z</time>
      </trkpt>
      <trkpt lat="47.53125" lon="-1.40366">
        <ele>96</ele>
        <time>2012-08-20T09:43:21.000Z</time>
      </trkpt>
      <trkpt lat="47.53127" lon="-1.40376">
        <ele>94</ele>
        <time>2012-08-20T09:43:22.000Z</time>
      </trkpt>
      <trkpt lat="47.5313" lon="-1.40384">
        <ele>91</ele>
        <time>2012-08-20T09:43:23.000Z</time>
      </trkpt>
      <trkpt lat="47.53133" lon="-1.40391">
        <ele>89</ele>
        <time>2012-08-20T09:43:24.000Z</time>
      </trkpt>
      <trkpt lat="47.53135" lon="-1.404">
        <ele>91</ele>
        <time>2012-08-20T09:43:25.000Z</time>
      </trkpt>
      <trkpt lat="47.53138" lon="-1.40411">
        <ele>88</ele>
        <time>2012-08-20T09:43:26.000Z</time>
      </trkpt>
      <trkpt lat="47.5314" lon="-1.4042">
        <ele>89</ele>
        <time>2012-08-20T09:43:27.000Z</time>
      </trkpt>
      <trkpt lat="47.53141" lon="-1.40427">
        <ele>90</ele>
        <time>2012-08-20T09:43:28.000Z</time>
      </trkpt>
      <trkpt lat="47.53143" lon="-1.40436">
        <ele>87</ele>
        <time>2012-08-20T09:43:29.000Z</time>
      </trkpt>
      <trkpt lat="47.53145" lon="-1.40443">
        <ele>86</ele>
        <time>2012-08-20T09:43:30.000Z</time>
      </trkpt>
      <trkpt lat="47.53146" lon="-1.40454">
        <ele>85</ele>
        <time>2012-08-20T09:43:31.000Z</time>
      </trkpt>
      <trkpt lat="47.53143" lon="-1.40466">
        <ele>88</ele>
        <time>2012-08-20T09:43:32.000Z</time>
      </trkpt>
      <trkpt lat="47.53141" lon="-1.40477">
        <ele>91</ele>
        <time>2012-08-20T09:43:33.000Z</time>
      </trkpt>
      <trkpt lat="47.53141" lon="-1.40486">
        <ele>89</ele>
        <time>2012-08-20T09:43:34.000Z</time>
      </trkpt>
      <trkpt lat="47.5314" lon="-1.40496">
        <ele>90</ele>
        <time>2012-08-20T09:43:35.000Z</time>
      </trkpt>
      <trkpt lat="47.5314" lon="-1.40505">
        <ele>92</ele>
        <time>2012-08-20T09:43:36.000Z</time>
      </trkpt>
      <trkpt lat="47.5314" lon="-1.40514">
        <ele>93</ele>
        <time>2012-08-20T09:43:37.000Z</time>
      </trkpt>
      <trkpt lat="47.5314" lon="-1.40522">
        <ele>90</ele>
        <time>2012-08-20T09:43:38.000Z</time>
      </trkpt>
      <trkpt lat="47.5314" lon="-1.40531">
        <ele>90</ele>
        <time>2012-08-20T09:43:39.000Z</time>
      </trkpt>
      <trkpt lat="47.5314" lon="-1.40541">
        <ele>91</ele>
        <time>2012-08-20T09:43:40.000Z</time>
      </trkpt>
      <trkpt lat="47.53143" lon="-1.40556">
        <ele>95</ele>
        <time>2012-08-20T09:43:42.000Z</time>
      </trkpt>
      <trkpt lat="47.53145" lon="-1.40565">
        <ele>95</ele>
        <time>2012-08-20T09:43:43.000Z</time>
      </trkpt>
      <trkpt lat="47.53148" lon="-1.40573">
        <ele>94</ele>
        <time>2012-08-20T09:43:44.000Z</time>
      </trkpt>
      <trkpt lat="47.53151" lon="-1.4058">
        <ele>93</ele>
        <time>2012-08-20T09:43:45.000Z</time>
      </trkpt>
      <trkpt lat="47.53154" lon="-1.40586">
        <ele>91</ele>
        <time>2012-08-20T09:43:46.000Z</time>
      </trkpt>
      <trkpt lat="47.53157" lon="-1.40594">
        <ele>90</ele>
        <time>2012-08-20T09:43:47.000Z</time>
      </trkpt>
      <trkpt lat="47.5316" lon="-1.40602">
        <ele>89</ele>
        <time>2012-08-20T09:43:48.000Z</time>
      </trkpt>
      <trkpt lat="47.53164" lon="-1.40608">
        <ele>89</ele>
        <time>2012-08-20T09:43:49.000Z</time>
      </trkpt>
      <trkpt lat="47.53167" lon="-1.40613">
        <ele>88</ele>
        <time>2012-08-20T09:43:50.000Z</time>
      </trkpt>
      <trkpt lat="47.53173" lon="-1.40622">
        <ele>85</ele>
        <time>2012-08-20T09:43:52.000Z</time>
      </trkpt>
      <trkpt lat="47.53175" lon="-1.4063">
        <ele>84</ele>
        <time>2012-08-20T09:43:53.000Z</time>
      </trkpt>
      <trkpt lat="47.53176" lon="-1.40636">
        <ele>79</ele>
        <time>2012-08-20T09:43:54.000Z</time>
      </trkpt>
      <trkpt lat="47.53177" lon="-1.40644">
        <ele>81</ele>
        <time>2012-08-20T09:43:55.000Z</time>
      </trkpt>
      <trkpt lat="47.53178" lon="-1.40651">
        <ele>83</ele>
        <time>2012-08-20T09:43:56.000Z</time>
      </trkpt>
      <trkpt lat="47.53181" lon="-1.40663">
        <ele>82</ele>
        <time>2012-08-20T09:43:58.000Z</time>
      </trkpt>
      <trkpt lat="47.53181" lon="-1.4067">
        <ele>83</ele>
        <time>2012-08-20T09:43:59.000Z</time>
      </trkpt>
      <trkpt lat="47.53182" lon="-1.40678">
        <ele>83</ele>
        <time>2012-08-20T09:44:00.000Z</time>
      </trkpt>
      <trkpt lat="47.53183" lon="-1.40685">
        <ele>81</ele>
        <time>2012-08-20T09:44:01.000Z</time>
      </trkpt>
      <trkpt lat="47.53185" lon="-1.40697">
        <ele>87</ele>
        <time>2012-08-20T09:44:03.000Z</time>
      </trkpt>
      <trkpt lat="47.53186" lon="-1.40704">
        <ele>87</ele>
        <time>2012-08-20T09:44:04.000Z</time>
      </trkpt>
      <trkpt lat="47.53188" lon="-1.40711">
        <ele>87</ele>
        <time>2012-08-20T09:44:05.000Z</time>
      </trkpt>
      <trkpt lat="47.53191" lon="-1.40721">
        <ele>87</ele>
        <time>2012-08-20T09:44:07.000Z</time>
      </trkpt>
      <trkpt lat="47.53196" lon="-1.40728">
        <ele>89</ele>
        <time>2012-08-20T09:44:09.000Z</time>
      </trkpt>
      <trkpt lat="47.532" lon="-1.40737">
        <ele>90</ele>
        <time>2012-08-20T09:44:11.000Z</time>
      </trkpt>
      <trkpt lat="47.53202" lon="-1.4075">
        <ele>91</ele>
        <time>2012-08-20T09:44:13.000Z</time>
      </trkpt>
      <trkpt lat="47.53201" lon="-1.40758">
        <ele>90</ele>
        <time>2012-08-20T09:44:14.000Z</time>
      </trkpt>
      <trkpt lat="47.53202" lon="-1.40766">
        <ele>90</ele>
        <time>2012-08-20T09:44:16.000Z</time>
      </trkpt>
      <trkpt lat="47.53203" lon="-1.40775">
        <ele>89</ele>
        <time>2012-08-20T09:44:18.000Z</time>
      </trkpt>
      <trkpt lat="47.53205" lon="-1.40784">
        <ele>94</ele>
        <time>2012-08-20T09:44:21.000Z</time>
      </trkpt>
      <trkpt lat="47.53208" lon="-1.40791">
        <ele>95</ele>
        <time>2012-08-20T09:44:23.000Z</time>
      </trkpt>
      <trkpt lat="47.53209" lon="-1.408">
        <ele>99</ele>
        <time>2012-08-20T09:44:25.000Z</time>
      </trkpt>
      <trkpt lat="47.5321" lon="-1.40809">
        <ele>104</ele>
        <time>2012-08-20T09:44:27.000Z</time>
      </trkpt>
      <trkpt lat="47.53212" lon="-1.40817">
        <ele>105</ele>
        <time>2012-08-20T09:44:29.000Z</time>
      </trkpt>
      <trkpt lat="47.53215" lon="-1.40825">
        <ele>105</ele>
        <time>2012-08-20T09:44:31.000Z</time>
      </trkpt>
      <trkpt lat="47.53219" lon="-1.40834">
        <ele>103</ele>
        <time>2012-08-20T09:44:33.000Z</time>
      </trkpt>
      <trkpt lat="47.5322" lon="-1.40844">
        <ele>105</ele>
        <time>2012-08-20T09:44:35.000Z</time>
      </trkpt>
      <trkpt lat="47.53219" lon="-1.40854">
        <ele>107</ele>
        <time>2012-08-20T09:44:37.000Z</time>
      </trkpt>
      <trkpt lat="47.53219" lon="-1.40865">
        <ele>112</ele>
        <time>2012-08-20T09:44:39.000Z</time>
      </trkpt>
      <trkpt lat="47.53221" lon="-1.40874">
        <ele>111</ele>
        <time>2012-08-20T09:44:41.000Z</time>
      </trkpt>
      <trkpt lat="47.53221" lon="-1.40881">
        <ele>115</ele>
        <time>2012-08-20T09:44:42.000Z</time>
      </trkpt>
      <trkpt lat="47.53221" lon="-1.40889">
        <ele>119</ele>
        <time>2012-08-20T09:44:44.000Z</time>
      </trkpt>
      <trkpt lat="47.5322" lon="-1.40899">
        <ele>115</ele>
        <time>2012-08-20T09:44:46.000Z</time>
      </trkpt>
      <trkpt lat="47.53222" lon="-1.40908">
        <ele>118</ele>
        <time>2012-08-20T09:44:49.000Z</time>
      </trkpt>
      <trkpt lat="47.53222" lon="-1.40921">
        <ele>113</ele>
        <time>2012-08-20T09:44:51.000Z</time>
      </trkpt>
      <trkpt lat="47.53218" lon="-1.40934">
        <ele>113</ele>
        <time>2012-08-20T09:44:53.000Z</time>
      </trkpt>
      <trkpt lat="47.53215" lon="-1.4094">
        <ele>113</ele>
        <time>2012-08-20T09:44:54.000Z</time>
      </trkpt>
      <trkpt lat="47.53213" lon="-1.4095">
        <ele>117</ele>
        <time>2012-08-20T09:44:56.000Z</time>
      </trkpt>
      <trkpt lat="47.5321" lon="-1.4096">
        <ele>113</ele>
        <time>2012-08-20T09:44:58.000Z</time>
      </trkpt>
      <trkpt lat="47.53208" lon="-1.40966">
        <ele>114</ele>
        <time>2012-08-20T09:44:59.000Z</time>
      </trkpt>
      <trkpt lat="47.53207" lon="-1.40973">
        <ele>115</ele>
        <time>2012-08-20T09:45:01.000Z</time>
      </trkpt>
      <trkpt lat="47.53209" lon="-1.40979">
        <ele>123</ele>
        <time>2012-08-20T09:45:03.000Z</time>
      </trkpt>
      <trkpt lat="47.5321" lon="-1.40987">
        <ele>124</ele>
        <time>2012-08-20T09:45:05.000Z</time>
      </trkpt>
      <trkpt lat="47.53214" lon="-1.40994">
        <ele>126</ele>
        <time>2012-08-20T09:45:07.000Z</time>
      </trkpt>
      <trkpt lat="47.53217" lon="-1.41001">
        <ele>125</ele>
        <time>2012-08-20T09:45:09.000Z</time>
      </trkpt>
      <trkpt lat="47.5322" lon="-1.4101">
        <ele>124</ele>
        <time>2012-08-20T09:45:11.000Z</time>
      </trkpt>
      <trkpt lat="47.53224" lon="-1.4102">
        <ele>126</ele>
        <time>2012-08-20T09:45:13.000Z</time>
      </trkpt>
      <trkpt lat="47.53228" lon="-1.4103">
        <ele>126</ele>
        <time>2012-08-20T09:45:15.000Z</time>
      </trkpt>
      <trkpt lat="47.53228" lon="-1.41036">
        <ele>127</ele>
        <time>2012-08-20T09:45:16.000Z</time>
      </trkpt>
      <trkpt lat="47.53228" lon="-1.41046">
        <ele>126</ele>
        <time>2012-08-20T09:45:17.000Z</time>
      </trkpt>
      <trkpt lat="47.5323" lon="-1.41056">
        <ele>124</ele>
        <time>2012-08-20T09:45:19.000Z</time>
      </trkpt>
      <trkpt lat="47.53234" lon="-1.41064">
        <ele>123</ele>
        <time>2012-08-20T09:45:21.000Z</time>
      </trkpt>
      <trkpt lat="47.53235" lon="-1.41073">
        <ele>126</ele>
        <time>2012-08-20T09:45:23.000Z</time>
      </trkpt>
      <trkpt lat="47.53237" lon="-1.41081">
        <ele>127</ele>
        <time>2012-08-20T09:45:25.000Z</time>
      </trkpt>
      <trkpt lat="47.5324" lon="-1.41089">
        <ele>126</ele>
        <time>2012-08-20T09:45:27.000Z</time>
      </trkpt>
      <trkpt lat="47.53242" lon="-1.411">
        <ele>127</ele>
        <time>2012-08-20T09:45:29.000Z</time>
      </trkpt>
      <trkpt lat="47.53241" lon="-1.41116">
        <ele>123</ele>
        <time>2012-08-20T09:45:31.000Z</time>
      </trkpt>
      <trkpt lat="47.5324" lon="-1.41123">
        <ele>122</ele>
        <time>2012-08-20T09:45:32.000Z</time>
      </trkpt>
      <trkpt lat="47.5324" lon="-1.41131">
        <ele>123</ele>
        <time>2012-08-20T09:45:33.000Z</time>
      </trkpt>
      <trkpt lat="47.53239" lon="-1.41138">
        <ele>121</ele>
        <time>2012-08-20T09:45:34.000Z</time>
      </trkpt>
      <trkpt lat="47.5324" lon="-1.41147">
        <ele>122</ele>
        <time>2012-08-20T09:45:36.000Z</time>
      </trkpt>
      <trkpt lat="47.5324" lon="-1.41154">
        <ele>125</ele>
        <time>2012-08-20T09:45:38.000Z</time>
      </trkpt>
      <trkpt lat="47.53243" lon="-1.41162">
        <ele>123</ele>
        <time>2012-08-20T09:45:40.000Z</time>
      </trkpt>
      <trkpt lat="47.53245" lon="-1.41169">
        <ele>123</ele>
        <time>2012-08-20T09:45:42.000Z</time>
      </trkpt>
      <trkpt lat="47.53246" lon="-1.41177">
        <ele>128</ele>
        <time>2012-08-20T09:45:44.000Z</time>
      </trkpt>
      <trkpt lat="47.53248" lon="-1.41186">
        <ele>126</ele>
        <time>2012-08-20T09:45:46.000Z</time>
      </trkpt>
      <trkpt lat="47.53246" lon="-1.41198">
        <ele>125</ele>
        <time>2012-08-20T09:45:48.000Z</time>
      </trkpt>
      <trkpt lat="47.53244" lon="-1.41206">
        <ele>124</ele>
        <time>2012-08-20T09:45:49.000Z</time>
      </trkpt>
      <trkpt lat="47.53241" lon="-1.41211">
        <ele>123</ele>
        <time>2012-08-20T09:45:50.000Z</time>
      </trkpt>
      <trkpt lat="47.53235" lon="-1.41215">
        <ele>117</ele>
        <time>2012-08-20T09:45:52.000Z</time>
      </trkpt>
      <trkpt lat="47.5323" lon="-1.41218">
        <ele>117</ele>
        <time>2012-08-20T09:45:53.000Z</time>
      </trkpt>
      <trkpt lat="47.53222" lon="-1.41221">
        <ele>120</ele>
        <time>2012-08-20T09:45:55.000Z</time>
      </trkpt>
      <trkpt lat="47.53217" lon="-1.41223">
        <ele>123</ele>
        <time>2012-08-20T09:45:56.000Z</time>
      </trkpt>
      <trkpt lat="47.53212" lon="-1.41225">
        <ele>123</ele>
        <time>2012-08-20T09:45:57.000Z</time>
      </trkpt>
      <trkpt lat="47.53205" lon="-1.41231">
        <ele>119</ele>
        <time>2012-08-20T09:45:59.000Z</time>
      </trkpt>
      <trkpt lat="47.53197" lon="-1.41233">
        <ele>118</ele>
        <time>2012-08-20T09:46:01.000Z</time>
      </trkpt>
      <trkpt lat="47.53191" lon="-1.41234">
        <ele>122</ele>
        <time>2012-08-20T09:46:03.000Z</time>
      </trkpt>
      <trkpt lat="47.53183" lon="-1.41238">
        <ele>121</ele>
        <time>2012-08-20T09:46:06.000Z</time>
      </trkpt>
      <trkpt lat="47.53178" lon="-1.41242">
        <ele>118</ele>
        <time>2012-08-20T09:46:08.000Z</time>
      </trkpt>
      <trkpt lat="47.53174" lon="-1.41245">
        <ele>124</ele>
        <time>2012-08-20T09:46:10.000Z</time>
      </trkpt>
      <trkpt lat="47.53168" lon="-1.4125">
        <ele>126</ele>
        <time>2012-08-20T09:46:12.000Z</time>
      </trkpt>
      <trkpt lat="47.53163" lon="-1.41254">
        <ele>120</ele>
        <time>2012-08-20T09:46:14.000Z</time>
      </trkpt>
      <trkpt lat="47.53158" lon="-1.41259">
        <ele>116</ele>
        <time>2012-08-20T09:46:16.000Z</time>
      </trkpt>
      <trkpt lat="47.53155" lon="-1.41264">
        <ele>116</ele>
        <time>2012-08-20T09:46:19.000Z</time>
      </trkpt>
      <trkpt lat="47.53149" lon="-1.41264">
        <ele>123</ele>
        <time>2012-08-20T09:46:25.000Z</time>
      </trkpt>
      <trkpt lat="47.53152" lon="-1.41271">
        <ele>129</ele>
        <time>2012-08-20T09:46:41.000Z</time>
      </trkpt>
      <trkpt lat="47.53154" lon="-1.41277">
        <ele>132</ele>
        <time>2012-08-20T09:46:45.000Z</time>
      </trkpt>
      <trkpt lat="47.53157" lon="-1.41282">
        <ele>133</ele>
        <time>2012-08-20T09:46:47.000Z</time>
      </trkpt>
      <trkpt lat="47.5316" lon="-1.41289">
        <ele>134</ele>
        <time>2012-08-20T09:46:49.000Z</time>
      </trkpt>
      <trkpt lat="47.53162" lon="-1.41295">
        <ele>134</ele>
        <time>2012-08-20T09:46:51.000Z</time>
      </trkpt>
      <trkpt lat="47.53162" lon="-1.41302">
        <ele>130</ele>
        <time>2012-08-20T09:46:53.000Z</time>
      </trkpt>
      <trkpt lat="47.53161" lon="-1.41312">
        <ele>126</ele>
        <time>2012-08-20T09:46:55.000Z</time>
      </trkpt>
      <trkpt lat="47.53159" lon="-1.41324">
        <ele>121</ele>
        <time>2012-08-20T09:46:57.000Z</time>
      </trkpt>
      <trkpt lat="47.53155" lon="-1.41332">
        <ele>120</ele>
        <time>2012-08-20T09:46:59.000Z</time>
      </trkpt>
      <trkpt lat="47.53151" lon="-1.41337">
        <ele>116</ele>
        <time>2012-08-20T09:47:01.000Z</time>
      </trkpt>
      <trkpt lat="47.53145" lon="-1.41344">
        <ele>117</ele>
        <time>2012-08-20T09:47:03.000Z</time>
      </trkpt>
      <trkpt lat="47.53141" lon="-1.4135">
        <ele>116</ele>
        <time>2012-08-20T09:47:04.000Z</time>
      </trkpt>
      <trkpt lat="47.53136" lon="-1.41357">
        <ele>115</ele>
        <time>2012-08-20T09:47:05.000Z</time>
      </trkpt>
      <trkpt lat="47.53132" lon="-1.41363">
        <ele>114</ele>
        <time>2012-08-20T09:47:06.000Z</time>
      </trkpt>
      <trkpt lat="47.53128" lon="-1.41368">
        <ele>113</ele>
        <time>2012-08-20T09:47:07.000Z</time>
      </trkpt>
      <trkpt lat="47.53122" lon="-1.41374">
        <ele>112</ele>
        <time>2012-08-20T09:47:08.000Z</time>
      </trkpt>
      <trkpt lat="47.53116" lon="-1.4138">
        <ele>111</ele>
        <time>2012-08-20T09:47:09.000Z</time>
      </trkpt>
      <trkpt lat="47.5311" lon="-1.41386">
        <ele>110</ele>
        <time>2012-08-20T09:47:10.000Z</time>
      </trkpt>
      <trkpt lat="47.53105" lon="-1.4139">
        <ele>112</ele>
        <time>2012-08-20T09:47:11.000Z</time>
      </trkpt>
      <trkpt lat="47.53101" lon="-1.41395">
        <ele>110</ele>
        <time>2012-08-20T09:47:12.000Z</time>
      </trkpt>
      <trkpt lat="47.53092" lon="-1.41409">
        <ele>110</ele>
        <time>2012-08-20T09:47:14.000Z</time>
      </trkpt>
      <trkpt lat="47.53088" lon="-1.41415">
        <ele>110</ele>
        <time>2012-08-20T09:47:15.000Z</time>
      </trkpt>
      <trkpt lat="47.53082" lon="-1.41419">
        <ele>109</ele>
        <time>2012-08-20T09:47:16.000Z</time>
      </trkpt>
      <trkpt lat="47.53077" lon="-1.41423">
        <ele>109</ele>
        <time>2012-08-20T09:47:17.000Z</time>
      </trkpt>
      <trkpt lat="47.53071" lon="-1.41423">
        <ele>108</ele>
        <time>2012-08-20T09:47:18.000Z</time>
      </trkpt>
      <trkpt lat="47.53066" lon="-1.41423">
        <ele>110</ele>
        <time>2012-08-20T09:47:19.000Z</time>
      </trkpt>
      <trkpt lat="47.5306" lon="-1.41422">
        <ele>108</ele>
        <time>2012-08-20T09:47:20.000Z</time>
      </trkpt>
      <trkpt lat="47.53054" lon="-1.41418">
        <ele>110</ele>
        <time>2012-08-20T09:47:21.000Z</time>
      </trkpt>
      <trkpt lat="47.5305" lon="-1.41415">
        <ele>113</ele>
        <time>2012-08-20T09:47:22.000Z</time>
      </trkpt>
      <trkpt lat="47.53044" lon="-1.41412">
        <ele>115</ele>
        <time>2012-08-20T09:47:23.000Z</time>
      </trkpt>
      <trkpt lat="47.53038" lon="-1.41409">
        <ele>115</ele>
        <time>2012-08-20T09:47:24.000Z</time>
      </trkpt>
      <trkpt lat="47.53032" lon="-1.41406">
        <ele>118</ele>
        <time>2012-08-20T09:47:25.000Z</time>
      </trkpt>
      <trkpt lat="47.53026" lon="-1.41403">
        <ele>117</ele>
        <time>2012-08-20T09:47:26.000Z</time>
      </trkpt>
      <trkpt lat="47.53021" lon="-1.41402">
        <ele>117</ele>
        <time>2012-08-20T09:47:27.000Z</time>
      </trkpt>
      <trkpt lat="47.53015" lon="-1.414">
        <ele>116</ele>
        <time>2012-08-20T09:47:28.000Z</time>
      </trkpt>
      <trkpt lat="47.53008" lon="-1.41397">
        <ele>116</ele>
        <time>2012-08-20T09:47:29.000Z</time>
      </trkpt>
      <trkpt lat="47.53002" lon="-1.41396">
        <ele>118</ele>
        <time>2012-08-20T09:47:30.000Z</time>
      </trkpt>
      <trkpt lat="47.52995" lon="-1.41395">
        <ele>115</ele>
        <time>2012-08-20T09:47:31.000Z</time>
      </trkpt>
      <trkpt lat="47.52989" lon="-1.41394">
        <ele>118</ele>
        <time>2012-08-20T09:47:32.000Z</time>
      </trkpt>
      <trkpt lat="47.52983" lon="-1.41395">
        <ele>115</ele>
        <time>2012-08-20T09:47:33.000Z</time>
      </trkpt>
      <trkpt lat="47.52977" lon="-1.41396">
        <ele>116</ele>
        <time>2012-08-20T09:47:34.000Z</time>
      </trkpt>
      <trkpt lat="47.52971" lon="-1.41398">
        <ele>113</ele>
        <time>2012-08-20T09:47:35.000Z</time>
      </trkpt>
      <trkpt lat="47.52966" lon="-1.41398">
        <ele>115</ele>
        <time>2012-08-20T09:47:36.000Z</time>
      </trkpt>
      <trkpt lat="47.52957" lon="-1.41399">
        <ele>113</ele>
        <time>2012-08-20T09:47:38.000Z</time>
      </trkpt>
      <trkpt lat="47.52952" lon="-1.41399">
        <ele>112</ele>
        <time>2012-08-20T09:47:39.000Z</time>
      </trkpt>
      <trkpt lat="47.52947" lon="-1.414">
        <ele>115</ele>
        <time>2012-08-20T09:47:40.000Z</time>
      </trkpt>
      <trkpt lat="47.52941" lon="-1.41402">
        <ele>115</ele>
        <time>2012-08-20T09:47:41.000Z</time>
      </trkpt>
      <trkpt lat="47.52935" lon="-1.41402">
        <ele>113</ele>
        <time>2012-08-20T09:47:42.000Z</time>
      </trkpt>
      <trkpt lat="47.52929" lon="-1.41401">
        <ele>111</ele>
        <time>2012-08-20T09:47:43.000Z</time>
      </trkpt>
      <trkpt lat="47.52923" lon="-1.41401">
        <ele>108</ele>
        <time>2012-08-20T09:47:44.000Z</time>
      </trkpt>
      <trkpt lat="47.52917" lon="-1.41402">
        <ele>109</ele>
        <time>2012-08-20T09:47:45.000Z</time>
      </trkpt>
      <trkpt lat="47.52911" lon="-1.41404">
        <ele>109</ele>
        <time>2012-08-20T09:47:46.000Z</time>
      </trkpt>
      <trkpt lat="47.52905" lon="-1.41407">
        <ele>110</ele>
        <time>2012-08-20T09:47:47.000Z</time>
      </trkpt>
      <trkpt lat="47.529" lon="-1.41415">
        <ele>103</ele>
        <time>2012-08-20T09:47:49.000Z</time>
      </trkpt>
      <trkpt lat="47.52896" lon="-1.41428">
        <ele>101</ele>
        <time>2012-08-20T09:47:51.000Z</time>
      </trkpt>
      <trkpt lat="47.52893" lon="-1.41434">
        <ele>101</ele>
        <time>2012-08-20T09:47:52.000Z</time>
      </trkpt>
      <trkpt lat="47.52889" lon="-1.41439">
        <ele>101</ele>
        <time>2012-08-20T09:47:53.000Z</time>
      </trkpt>
      <trkpt lat="47.52885" lon="-1.41443">
        <ele>98</ele>
        <time>2012-08-20T09:47:54.000Z</time>
      </trkpt>
      <trkpt lat="47.52881" lon="-1.41447">
        <ele>97</ele>
        <time>2012-08-20T09:47:55.000Z</time>
      </trkpt>
      <trkpt lat="47.52877" lon="-1.41452">
        <ele>97</ele>
        <time>2012-08-20T09:47:56.000Z</time>
      </trkpt>
      <trkpt lat="47.52873" lon="-1.41459">
        <ele>100</ele>
        <time>2012-08-20T09:47:58.000Z</time>
      </trkpt>
      <trkpt lat="47.5287" lon="-1.41466">
        <ele>108</ele>
        <time>2012-08-20T09:48:22.000Z</time>
      </trkpt>
      <trkpt lat="47.52866" lon="-1.41475">
        <ele>109</ele>
        <time>2012-08-20T09:48:24.000Z</time>
      </trkpt>
      <trkpt lat="47.52856" lon="-1.41479">
        <ele>108</ele>
        <time>2012-08-20T09:48:26.000Z</time>
      </trkpt>
      <trkpt lat="47.5285" lon="-1.41483">
        <ele>110</ele>
        <time>2012-08-20T09:48:27.000Z</time>
      </trkpt>
      <trkpt lat="47.52845" lon="-1.41489">
        <ele>109</ele>
        <time>2012-08-20T09:48:28.000Z</time>
      </trkpt>
      <trkpt lat="47.52838" lon="-1.41493">
        <ele>110</ele>
        <time>2012-08-20T09:48:29.000Z</time>
      </trkpt>
      <trkpt lat="47.5283" lon="-1.415">
        <ele>112</ele>
        <time>2012-08-20T09:48:30.000Z</time>
      </trkpt>
      <trkpt lat="47.52822" lon="-1.41506">
        <ele>108</ele>
        <time>2012-08-20T09:48:31.000Z</time>
      </trkpt>
      <trkpt lat="47.52814" lon="-1.4151">
        <ele>108</ele>
        <time>2012-08-20T09:48:32.000Z</time>
      </trkpt>
      <trkpt lat="47.52806" lon="-1.41514">
        <ele>110</ele>
        <time>2012-08-20T09:48:33.000Z</time>
      </trkpt>
      <trkpt lat="47.52799" lon="-1.41517">
        <ele>109</ele>
        <time>2012-08-20T09:48:34.000Z</time>
      </trkpt>
      <trkpt lat="47.52791" lon="-1.41519">
        <ele>109</ele>
        <time>2012-08-20T09:48:35.000Z</time>
      </trkpt>
      <trkpt lat="47.52783" lon="-1.41521">
        <ele>109</ele>
        <time>2012-08-20T09:48:36.000Z</time>
      </trkpt>
      <trkpt lat="47.52775" lon="-1.41524">
        <ele>112</ele>
        <time>2012-08-20T09:48:37.000Z</time>
      </trkpt>
      <trkpt lat="47.52767" lon="-1.41527">
        <ele>109</ele>
        <time>2012-08-20T09:48:38.000Z</time>
      </trkpt>
      <trkpt lat="47.52758" lon="-1.41529">
        <ele>108</ele>
        <time>2012-08-20T09:48:39.000Z</time>
      </trkpt>
      <trkpt lat="47.52749" lon="-1.41532">
        <ele>106</ele>
        <time>2012-08-20T09:48:40.000Z</time>
      </trkpt>
      <trkpt lat="47.52742" lon="-1.41535">
        <ele>106</ele>
        <time>2012-08-20T09:48:41.000Z</time>
      </trkpt>
      <trkpt lat="47.52734" lon="-1.41538">
        <ele>104</ele>
        <time>2012-08-20T09:48:42.000Z</time>
      </trkpt>
      <trkpt lat="47.52728" lon="-1.41544">
        <ele>107</ele>
        <time>2012-08-20T09:48:43.000Z</time>
      </trkpt>
      <trkpt lat="47.52722" lon="-1.41549">
        <ele>107</ele>
        <time>2012-08-20T09:48:44.000Z</time>
      </trkpt>
      <trkpt lat="47.52715" lon="-1.41556">
        <ele>106</ele>
        <time>2012-08-20T09:48:45.000Z</time>
      </trkpt>
      <trkpt lat="47.52707" lon="-1.41563">
        <ele>101</ele>
        <time>2012-08-20T09:48:46.000Z</time>
      </trkpt>
      <trkpt lat="47.527" lon="-1.41569">
        <ele>101</ele>
        <time>2012-08-20T09:48:47.000Z</time>
      </trkpt>
      <trkpt lat="47.52695" lon="-1.41574">
        <ele>100</ele>
        <time>2012-08-20T09:48:48.000Z</time>
      </trkpt>
      <trkpt lat="47.52692" lon="-1.41579">
        <ele>98</ele>
        <time>2012-08-20T09:48:49.000Z</time>
      </trkpt>
      <trkpt lat="47.52688" lon="-1.41585">
        <ele>100</ele>
        <time>2012-08-20T09:48:50.000Z</time>
      </trkpt>
      <trkpt lat="47.52684" lon="-1.41591">
        <ele>96</ele>
        <time>2012-08-20T09:48:51.000Z</time>
      </trkpt>
      <trkpt lat="47.52685" lon="-1.416">
        <ele>92</ele>
        <time>2012-08-20T09:48:53.000Z</time>
      </trkpt>
      <trkpt lat="47.52685" lon="-1.416">
        <ele>92</ele>
        <time>2012-08-20T09:48:53.000Z</time>
      </trkpt>
      <trkpt lat="47.52685" lon="-1.416">
        <ele>92</ele>
        <time>2012-08-20T09:48:55.000Z</time>
      </trkpt>
      <trkpt lat="47.52684" lon="-1.41612">
        <ele>92</ele>
        <time>2012-08-20T09:48:56.000Z</time>
      </trkpt>
      <trkpt lat="47.52687" lon="-1.41627">
        <ele>96</ele>
        <time>2012-08-20T09:49:00.000Z</time>
      </trkpt>
      <trkpt lat="47.52689" lon="-1.41634">
        <ele>96</ele>
        <time>2012-08-20T09:49:02.000Z</time>
      </trkpt>
      <trkpt lat="47.52692" lon="-1.41654">
        <ele>88</ele>
        <time>2012-08-20T09:49:07.000Z</time>
      </trkpt>
      <trkpt lat="47.52703" lon="-1.41661">
        <ele>88</ele>
        <time>2012-08-20T09:49:14.000Z</time>
      </trkpt>
      <trkpt lat="47.52708" lon="-1.4166">
        <ele>93</ele>
        <time>2012-08-20T09:49:17.000Z</time>
      </trkpt>
      <trkpt lat="47.52708" lon="-1.4166">
        <ele>93</ele>
        <time>2012-08-20T09:49:17.000Z</time>
      </trkpt>
      <trkpt lat="47.52708" lon="-1.4166">
        <ele>93</ele>
        <time>2012-08-20T09:49:18.000Z</time>
      </trkpt>
      <trkpt lat="47.52714" lon="-1.41658">
        <ele>95</ele>
        <time>2012-08-20T09:49:20.000Z</time>
      </trkpt>
      <trkpt lat="47.52714" lon="-1.41658">
        <ele>95</ele>
        <time>2012-08-20T09:49:20.000Z</time>
      </trkpt>
      <trkpt lat="47.52714" lon="-1.41658">
        <ele>95</ele>
        <time>2012-08-20T09:49:22.000Z</time>
      </trkpt>
      <trkpt lat="47.5272" lon="-1.41656">
        <ele>98</ele>
        <time>2012-08-20T09:49:23.000Z</time>
      </trkpt>
      <trkpt lat="47.5272" lon="-1.41656">
        <ele>98</ele>
        <time>2012-08-20T09:49:23.000Z</time>
      </trkpt>
      <trkpt lat="47.5272" lon="-1.41656">
        <ele>98</ele>
        <time>2012-08-20T09:49:29.000Z</time>
      </trkpt>
      <trkpt lat="47.52726" lon="-1.41648">
        <ele>102</ele>
        <time>2012-08-20T09:49:30.000Z</time>
      </trkpt>
      <trkpt lat="47.5273" lon="-1.41646">
        <ele>100</ele>
        <time>2012-08-20T09:49:33.000Z</time>
      </trkpt>
      <trkpt lat="47.52735" lon="-1.41644">
        <ele>101</ele>
        <time>2012-08-20T09:49:37.000Z</time>
      </trkpt>
      <trkpt lat="47.5274" lon="-1.4164">
        <ele>92</ele>
        <time>2012-08-20T09:49:47.000Z</time>
      </trkpt>
      <trkpt lat="47.5274" lon="-1.4164">
        <ele>92</ele>
        <time>2012-08-20T09:49:47.000Z</time>
      </trkpt>
      <trkpt lat="47.5274" lon="-1.4164">
        <ele>92</ele>
        <time>2012-08-20T09:49:53.000Z</time>
      </trkpt>
      <trkpt lat="47.52747" lon="-1.41635">
        <ele>98</ele>
        <time>2012-08-20T09:49:54.000Z</time>
      </trkpt>
      <trkpt lat="47.52747" lon="-1.41635">
        <ele>98</ele>
        <time>2012-08-20T09:49:54.000Z</time>
      </trkpt>
      <trkpt lat="47.52747" lon="-1.41635">
        <ele>98</ele>
        <time>2012-08-20T09:49:56.000Z</time>
      </trkpt>
      <trkpt lat="47.52752" lon="-1.41632">
        <ele>98</ele>
        <time>2012-08-20T09:50:00.000Z</time>
      </trkpt>
      <trkpt lat="47.52752" lon="-1.41632">
        <ele>98</ele>
        <time>2012-08-20T09:50:00.000Z</time>
      </trkpt>
      <trkpt lat="47.52752" lon="-1.41632">
        <ele>98</ele>
        <time>2012-08-20T09:50:02.000Z</time>
      </trkpt>
      <trkpt lat="47.52757" lon="-1.4163">
        <ele>99</ele>
        <time>2012-08-20T09:50:06.000Z</time>
      </trkpt>
      <trkpt lat="47.52757" lon="-1.4163">
        <ele>99</ele>
        <time>2012-08-20T09:50:06.000Z</time>
      </trkpt>
      <trkpt lat="47.52757" lon="-1.4163">
        <ele>99</ele>
        <time>2012-08-20T09:50:07.000Z</time>
      </trkpt>
      <trkpt lat="47.52762" lon="-1.4163">
        <ele>99</ele>
        <time>2012-08-20T09:50:11.000Z</time>
      </trkpt>
      <trkpt lat="47.52767" lon="-1.41627">
        <ele>99</ele>
        <time>2012-08-20T09:50:15.000Z</time>
      </trkpt>
      <trkpt lat="47.52773" lon="-1.41625">
        <ele>99</ele>
        <time>2012-08-20T09:50:18.000Z</time>
      </trkpt>
      <trkpt lat="47.52773" lon="-1.41625">
        <ele>99</ele>
        <time>2012-08-20T09:50:18.000Z</time>
      </trkpt>
      <trkpt lat="47.52773" lon="-1.41625">
        <ele>99</ele>
        <time>2012-08-20T09:50:19.000Z</time>
      </trkpt>
      <trkpt lat="47.52781" lon="-1.41622">
        <ele>100</ele>
        <time>2012-08-20T09:50:25.000Z</time>
      </trkpt>
      <trkpt lat="47.52786" lon="-1.4162">
        <ele>98</ele>
        <time>2012-08-20T09:50:28.000Z</time>
      </trkpt>
      <trkpt lat="47.52795" lon="-1.41614">
        <ele>97</ele>
        <time>2012-08-20T09:50:35.000Z</time>
      </trkpt>
      <trkpt lat="47.52801" lon="-1.41611">
        <ele>104</ele>
        <time>2012-08-20T09:50:40.000Z</time>
      </trkpt>
      <trkpt lat="47.52801" lon="-1.41611">
        <ele>104</ele>
        <time>2012-08-20T09:50:40.000Z</time>
      </trkpt>
      <trkpt lat="47.52801" lon="-1.41611">
        <ele>104</ele>
        <time>2012-08-20T09:50:42.000Z</time>
      </trkpt>
      <trkpt lat="47.52807" lon="-1.41611">
        <ele>109</ele>
        <time>2012-08-20T09:50:45.000Z</time>
      </trkpt>
      <trkpt lat="47.52811" lon="-1.41609">
        <ele>104</ele>
        <time>2012-08-20T09:50:48.000Z</time>
      </trkpt>
      <trkpt lat="47.52811" lon="-1.41609">
        <ele>104</ele>
        <time>2012-08-20T09:50:48.000Z</time>
      </trkpt>
      <trkpt lat="47.52811" lon="-1.41609">
        <ele>104</ele>
        <time>2012-08-20T09:50:49.000Z</time>
      </trkpt>
      <trkpt lat="47.5282" lon="-1.41607">
        <ele>105</ele>
        <time>2012-08-20T09:50:56.000Z</time>
      </trkpt>
      <trkpt lat="47.5282" lon="-1.41607">
        <ele>105</ele>
        <time>2012-08-20T09:50:56.000Z</time>
      </trkpt>
      <trkpt lat="47.5282" lon="-1.41607">
        <ele>105</ele>
        <time>2012-08-20T09:50:57.000Z</time>
      </trkpt>
      <trkpt lat="47.52826" lon="-1.41605">
        <ele>103</ele>
        <time>2012-08-20T09:51:01.000Z</time>
      </trkpt>
      <trkpt lat="47.52831" lon="-1.41603">
        <ele>107</ele>
        <time>2012-08-20T09:51:04.000Z</time>
      </trkpt>
      <trkpt lat="47.52836" lon="-1.41602">
        <ele>111</ele>
        <time>2012-08-20T09:51:08.000Z</time>
      </trkpt>
      <trkpt lat="47.52843" lon="-1.41599">
        <ele>114</ele>
        <time>2012-08-20T09:51:13.000Z</time>
      </trkpt>
      <trkpt lat="47.52848" lon="-1.41597">
        <ele>114</ele>
        <time>2012-08-20T09:51:16.000Z</time>
      </trkpt>
      <trkpt lat="47.52853" lon="-1.41594">
        <ele>110</ele>
        <time>2012-08-20T09:51:20.000Z</time>
      </trkpt>
      <trkpt lat="47.52853" lon="-1.41594">
        <ele>110</ele>
        <time>2012-08-20T09:51:20.000Z</time>
      </trkpt>
      <trkpt lat="47.52853" lon="-1.41594">
        <ele>110</ele>
        <time>2012-08-20T09:51:21.000Z</time>
      </trkpt>
      <trkpt lat="47.52858" lon="-1.41591">
        <ele>108</ele>
        <time>2012-08-20T09:51:24.000Z</time>
      </trkpt>
      <trkpt lat="47.52858" lon="-1.41591">
        <ele>108</ele>
        <time>2012-08-20T09:51:24.000Z</time>
      </trkpt>
      <trkpt lat="47.52858" lon="-1.41591">
        <ele>108</ele>
        <time>2012-08-20T09:51:25.000Z</time>
      </trkpt>
      <trkpt lat="47.52863" lon="-1.4159">
        <ele>111</ele>
        <time>2012-08-20T09:51:28.000Z</time>
      </trkpt>
      <trkpt lat="47.52863" lon="-1.4159">
        <ele>111</ele>
        <time>2012-08-20T09:51:28.000Z</time>
      </trkpt>
      <trkpt lat="47.52863" lon="-1.4159">
        <ele>111</ele>
        <time>2012-08-20T09:51:29.000Z</time>
      </trkpt>
      <trkpt lat="47.52868" lon="-1.41588">
        <ele>112</ele>
        <time>2012-08-20T09:51:33.000Z</time>
      </trkpt>
      <trkpt lat="47.52868" lon="-1.41588">
        <ele>112</ele>
        <time>2012-08-20T09:51:33.000Z</time>
      </trkpt>
      <trkpt lat="47.52868" lon="-1.41588">
        <ele>112</ele>
        <time>2012-08-20T09:51:34.000Z</time>
      </trkpt>
      <trkpt lat="47.52874" lon="-1.41585">
        <ele>108</ele>
        <time>2012-08-20T09:51:38.000Z</time>
      </trkpt>
      <trkpt lat="47.52874" lon="-1.41585">
        <ele>108</ele>
        <time>2012-08-20T09:51:38.000Z</time>
      </trkpt>
      <trkpt lat="47.52874" lon="-1.41585">
        <ele>108</ele>
        <time>2012-08-20T09:51:42.000Z</time>
      </trkpt>
      <trkpt lat="47.5288" lon="-1.41584">
        <ele>105</ele>
        <time>2012-08-20T09:51:43.000Z</time>
      </trkpt>
      <trkpt lat="47.5288" lon="-1.41584">
        <ele>105</ele>
        <time>2012-08-20T09:51:43.000Z</time>
      </trkpt>
      <trkpt lat="47.5288" lon="-1.41584">
        <ele>105</ele>
        <time>2012-08-20T09:51:46.000Z</time>
      </trkpt>
      <trkpt lat="47.52886" lon="-1.41581">
        <ele>106</ele>
        <time>2012-08-20T09:51:47.000Z</time>
      </trkpt>
      <trkpt lat="47.52886" lon="-1.41581">
        <ele>106</ele>
        <time>2012-08-20T09:51:47.000Z</time>
      </trkpt>
      <trkpt lat="47.52886" lon="-1.41581">
        <ele>106</ele>
        <time>2012-08-20T09:51:53.000Z</time>
      </trkpt>
      <trkpt lat="47.52894" lon="-1.41577">
        <ele>108</ele>
        <time>2012-08-20T09:51:54.000Z</time>
      </trkpt>
      <trkpt lat="47.52894" lon="-1.41577">
        <ele>108</ele>
        <time>2012-08-20T09:51:54.000Z</time>
      </trkpt>
      <trkpt lat="47.52894" lon="-1.41577">
        <ele>108</ele>
        <time>2012-08-20T09:52:02.000Z</time>
      </trkpt>
      <trkpt lat="47.52904" lon="-1.41571">
        <ele>105</ele>
        <time>2012-08-20T09:52:03.000Z</time>
      </trkpt>
      <trkpt lat="47.52904" lon="-1.41571">
        <ele>105</ele>
        <time>2012-08-20T09:52:03.000Z</time>
      </trkpt>
      <trkpt lat="47.52904" lon="-1.41571">
        <ele>105</ele>
        <time>2012-08-20T09:52:05.000Z</time>
      </trkpt>
      <trkpt lat="47.52909" lon="-1.41569">
        <ele>111</ele>
        <time>2012-08-20T09:52:08.000Z</time>
      </trkpt>
      <trkpt lat="47.52914" lon="-1.41567">
        <ele>114</ele>
        <time>2012-08-20T09:52:11.000Z</time>
      </trkpt>
      <trkpt lat="47.52914" lon="-1.41567">
        <ele>114</ele>
        <time>2012-08-20T09:52:11.000Z</time>
      </trkpt>
      <trkpt lat="47.52914" lon="-1.41567">
        <ele>114</ele>
        <time>2012-08-20T09:52:13.000Z</time>
      </trkpt>
      <trkpt lat="47.5292" lon="-1.41565">
        <ele>113</ele>
        <time>2012-08-20T09:52:16.000Z</time>
      </trkpt>
      <trkpt lat="47.52926" lon="-1.41563">
        <ele>109</ele>
        <time>2012-08-20T09:52:21.000Z</time>
      </trkpt>
      <trkpt lat="47.52926" lon="-1.41563">
        <ele>109</ele>
        <time>2012-08-20T09:52:21.000Z</time>
      </trkpt>
      <trkpt lat="47.52926" lon="-1.41563">
        <ele>109</ele>
        <time>2012-08-20T09:52:24.000Z</time>
      </trkpt>
      <trkpt lat="47.52931" lon="-1.41561">
        <ele>112</ele>
        <time>2012-08-20T09:52:25.000Z</time>
      </trkpt>
      <trkpt lat="47.52931" lon="-1.41561">
        <ele>112</ele>
        <time>2012-08-20T09:52:25.000Z</time>
      </trkpt>
      <trkpt lat="47.52931" lon="-1.41561">
        <ele>112</ele>
        <time>2012-08-20T09:52:27.000Z</time>
      </trkpt>
      <trkpt lat="47.52941" lon="-1.41556">
        <ele>109</ele>
        <time>2012-08-20T09:52:35.000Z</time>
      </trkpt>
      <trkpt lat="47.52941" lon="-1.41556">
        <ele>109</ele>
        <time>2012-08-20T09:52:35.000Z</time>
      </trkpt>
      <trkpt lat="47.52941" lon="-1.41556">
        <ele>109</ele>
        <time>2012-08-20T09:52:36.000Z</time>
      </trkpt>
      <trkpt lat="47.52947" lon="-1.41554">
        <ele>110</ele>
        <time>2012-08-20T09:52:38.000Z</time>
      </trkpt>
      <trkpt lat="47.52947" lon="-1.41554">
        <ele>110</ele>
        <time>2012-08-20T09:52:38.000Z</time>
      </trkpt>
      <trkpt lat="47.52947" lon="-1.41554">
        <ele>110</ele>
        <time>2012-08-20T09:52:39.000Z</time>
      </trkpt>
      <trkpt lat="47.5296" lon="-1.41547">
        <ele>114</ele>
        <time>2012-08-20T09:52:49.000Z</time>
      </trkpt>
      <trkpt lat="47.52965" lon="-1.41545">
        <ele>112</ele>
        <time>2012-08-20T09:52:53.000Z</time>
      </trkpt>
      <trkpt lat="47.52971" lon="-1.41543">
        <ele>113</ele>
        <time>2012-08-20T09:52:56.000Z</time>
      </trkpt>
      <trkpt lat="47.52975" lon="-1.41541">
        <ele>112</ele>
        <time>2012-08-20T09:52:59.000Z</time>
      </trkpt>
      <trkpt lat="47.52981" lon="-1.41539">
        <ele>111</ele>
        <time>2012-08-20T09:53:04.000Z</time>
      </trkpt>
      <trkpt lat="47.52987" lon="-1.41536">
        <ele>112</ele>
        <time>2012-08-20T09:53:08.000Z</time>
      </trkpt>
      <trkpt lat="47.52987" lon="-1.41536">
        <ele>112</ele>
        <time>2012-08-20T09:53:08.000Z</time>
      </trkpt>
      <trkpt lat="47.52987" lon="-1.41536">
        <ele>112</ele>
        <time>2012-08-20T09:53:09.000Z</time>
      </trkpt>
      <trkpt lat="47.52991" lon="-1.41534">
        <ele>119</ele>
        <time>2012-08-20T09:53:11.000Z</time>
      </trkpt>
      <trkpt lat="47.52996" lon="-1.41533">
        <ele>116</ele>
        <time>2012-08-20T09:53:14.000Z</time>
      </trkpt>
      <trkpt lat="47.53003" lon="-1.4153">
        <ele>117</ele>
        <time>2012-08-20T09:53:19.000Z</time>
      </trkpt>
      <trkpt lat="47.53003" lon="-1.4153">
        <ele>117</ele>
        <time>2012-08-20T09:53:19.000Z</time>
      </trkpt>
      <trkpt lat="47.53003" lon="-1.4153">
        <ele>117</ele>
        <time>2012-08-20T09:53:20.000Z</time>
      </trkpt>
      <trkpt lat="47.53008" lon="-1.41528">
        <ele>115</ele>
        <time>2012-08-20T09:53:23.000Z</time>
      </trkpt>
      <trkpt lat="47.53008" lon="-1.41528">
        <ele>115</ele>
        <time>2012-08-20T09:53:23.000Z</time>
      </trkpt>
      <trkpt lat="47.53008" lon="-1.41528">
        <ele>115</ele>
        <time>2012-08-20T09:53:26.000Z</time>
      </trkpt>
      <trkpt lat="47.53013" lon="-1.41526">
        <ele>116</ele>
        <time>2012-08-20T09:53:28.000Z</time>
      </trkpt>
      <trkpt lat="47.53013" lon="-1.41526">
        <ele>116</ele>
        <time>2012-08-20T09:53:28.000Z</time>
      </trkpt>
      <trkpt lat="47.53013" lon="-1.41526">
        <ele>116</ele>
        <time>2012-08-20T09:53:29.000Z</time>
      </trkpt>
      <trkpt lat="47.53024" lon="-1.41521">
        <ele>124</ele>
        <time>2012-08-20T09:53:37.000Z</time>
      </trkpt>
      <trkpt lat="47.53034" lon="-1.41516">
        <ele>123</ele>
        <time>2012-08-20T09:53:46.000Z</time>
      </trkpt>
      <trkpt lat="47.53034" lon="-1.41516">
        <ele>123</ele>
        <time>2012-08-20T09:53:46.000Z</time>
      </trkpt>
      <trkpt lat="47.53034" lon="-1.41516">
        <ele>123</ele>
        <time>2012-08-20T09:53:47.000Z</time>
      </trkpt>
      <trkpt lat="47.53039" lon="-1.41516">
        <ele>121</ele>
        <time>2012-08-20T09:53:52.000Z</time>
      </trkpt>
      <trkpt lat="47.53044" lon="-1.41515">
        <ele>122</ele>
        <time>2012-08-20T09:53:55.000Z</time>
      </trkpt>
      <trkpt lat="47.53049" lon="-1.41512">
        <ele>122</ele>
        <time>2012-08-20T09:53:59.000Z</time>
      </trkpt>
      <trkpt lat="47.53053" lon="-1.41509">
        <ele>123</ele>
        <time>2012-08-20T09:54:03.000Z</time>
      </trkpt>
      <trkpt lat="47.53057" lon="-1.41506">
        <ele>119</ele>
        <time>2012-08-20T09:54:07.000Z</time>
      </trkpt>
      <trkpt lat="47.53058" lon="-1.41499">
        <ele>119</ele>
        <time>2012-08-20T09:54:13.000Z</time>
      </trkpt>
      <trkpt lat="47.53055" lon="-1.41494">
        <ele>115</ele>
        <time>2012-08-20T09:54:21.000Z</time>
      </trkpt>
      <trkpt lat="47.53053" lon="-1.41486">
        <ele>116</ele>
        <time>2012-08-20T09:54:29.000Z</time>
      </trkpt>
      <trkpt lat="47.53054" lon="-1.41479">
        <ele>118</ele>
        <time>2012-08-20T09:54:33.000Z</time>
      </trkpt>
      <trkpt lat="47.53053" lon="-1.41472">
        <ele>117</ele>
        <time>2012-08-20T09:54:39.000Z</time>
      </trkpt>
      <trkpt lat="47.53053" lon="-1.41465">
        <ele>120</ele>
        <time>2012-08-20T09:54:46.000Z</time>
      </trkpt>
      <trkpt lat="47.53052" lon="-1.41457">
        <ele>119</ele>
        <time>2012-08-20T09:54:55.000Z</time>
      </trkpt>
      <trkpt lat="47.5305" lon="-1.41449">
        <ele>117</ele>
        <time>2012-08-20T09:55:02.000Z</time>
      </trkpt>
      <trkpt lat="47.53052" lon="-1.41444">
        <ele>113</ele>
        <time>2012-08-20T09:55:14.000Z</time>
      </trkpt>
      <trkpt lat="47.53051" lon="-1.41437">
        <ele>113</ele>
        <time>2012-08-20T09:55:17.000Z</time>
      </trkpt>
      <trkpt lat="47.5305" lon="-1.4143">
        <ele>112</ele>
        <time>2012-08-20T09:55:21.000Z</time>
      </trkpt>
      <trkpt lat="47.53054" lon="-1.41426">
        <ele>119</ele>
        <time>2012-08-20T09:55:26.000Z</time>
      </trkpt>
      <trkpt lat="47.53059" lon="-1.41425">
        <ele>122</ele>
        <time>2012-08-20T09:55:30.000Z</time>
      </trkpt>
      <trkpt lat="47.53063" lon="-1.41424">
        <ele>120</ele>
        <time>2012-08-20T09:55:36.000Z</time>
      </trkpt>
      <trkpt lat="47.53068" lon="-1.41422">
        <ele>135</ele>
        <time>2012-08-20T09:55:45.000Z</time>
      </trkpt>
      <trkpt lat="47.53071" lon="-1.41417">
        <ele>134</ele>
        <time>2012-08-20T09:55:52.000Z</time>
      </trkpt>
      <trkpt lat="47.53075" lon="-1.41413">
        <ele>143</ele>
        <time>2012-08-20T09:55:55.000Z</time>
      </trkpt>
      <trkpt lat="47.53077" lon="-1.41407">
        <ele>134</ele>
        <time>2012-08-20T09:56:00.000Z</time>
      </trkpt>
      <trkpt lat="47.5308" lon="-1.414">
        <ele>138</ele>
        <time>2012-08-20T09:56:10.000Z</time>
      </trkpt>
      <trkpt lat="47.53083" lon="-1.41395">
        <ele>137</ele>
        <time>2012-08-20T09:56:13.000Z</time>
      </trkpt>
      <trkpt lat="47.53087" lon="-1.41389">
        <ele>142</ele>
        <time>2012-08-20T09:56:17.000Z</time>
      </trkpt>
      <trkpt lat="47.53091" lon="-1.41385">
        <ele>143</ele>
        <time>2012-08-20T09:56:23.000Z</time>
      </trkpt>
      <trkpt lat="47.53094" lon="-1.41379">
        <ele>153</ele>
        <time>2012-08-20T09:56:28.000Z</time>
      </trkpt>
      <trkpt lat="47.53097" lon="-1.41373">
        <ele>149</ele>
        <time>2012-08-20T09:56:32.000Z</time>
      </trkpt>
      <trkpt lat="47.531" lon="-1.41368">
        <ele>145</ele>
        <time>2012-08-20T09:56:35.000Z</time>
      </trkpt>
      <trkpt lat="47.53101" lon="-1.41361">
        <ele>140</ele>
        <time>2012-08-20T09:56:40.000Z</time>
      </trkpt>
      <trkpt lat="47.53104" lon="-1.41356">
        <ele>142</ele>
        <time>2012-08-20T09:56:45.000Z</time>
      </trkpt>
      <trkpt lat="47.53104" lon="-1.41348">
        <ele>170</ele>
        <time>2012-08-20T09:57:07.000Z</time>
      </trkpt>
      <trkpt lat="47.53109" lon="-1.41344">
        <ele>152</ele>
        <time>2012-08-20T09:57:15.000Z</time>
      </trkpt>
      <trkpt lat="47.53113" lon="-1.41347">
        <ele>144</ele>
        <time>2012-08-20T09:57:18.000Z</time>
      </trkpt>
      <trkpt lat="47.53117" lon="-1.4135">
        <ele>151</ele>
        <time>2012-08-20T09:57:26.000Z</time>
      </trkpt>
      <trkpt lat="47.53117" lon="-1.41356">
        <ele>133</ele>
        <time>2012-08-20T09:58:09.000Z</time>
      </trkpt>
      <trkpt lat="47.53122" lon="-1.41355">
        <ele>123</ele>
        <time>2012-08-20T09:58:31.000Z</time>
      </trkpt>
      <trkpt lat="47.53126" lon="-1.4135">
        <ele>107</ele>
        <time>2012-08-20T09:58:38.000Z</time>
      </trkpt>
      <trkpt lat="47.5313" lon="-1.41345">
        <ele>110</ele>
        <time>2012-08-20T09:58:43.000Z</time>
      </trkpt>
      <trkpt lat="47.53126" lon="-1.4135">
        <ele>113</ele>
        <time>2012-08-20T09:58:49.000Z</time>
      </trkpt>
      <trkpt lat="47.53123" lon="-1.41354">
        <ele>111</ele>
        <time>2012-08-20T09:58:52.000Z</time>
      </trkpt>
      <trkpt lat="47.53118" lon="-1.41361">
        <ele>113</ele>
        <time>2012-08-20T09:58:55.000Z</time>
      </trkpt>
      <trkpt lat="47.53112" lon="-1.41373">
        <ele>110</ele>
        <time>2012-08-20T09:58:57.000Z</time>
      </trkpt>
      <trkpt lat="47.53108" lon="-1.4138">
        <ele>112</ele>
        <time>2012-08-20T09:58:58.000Z</time>
      </trkpt>
      <trkpt lat="47.53103" lon="-1.41386">
        <ele>116</ele>
        <time>2012-08-20T09:58:59.000Z</time>
      </trkpt>
      <trkpt lat="47.53098" lon="-1.41392">
        <ele>119</ele>
        <time>2012-08-20T09:59:00.000Z</time>
      </trkpt>
      <trkpt lat="47.53092" lon="-1.41399">
        <ele>116</ele>
        <time>2012-08-20T09:59:01.000Z</time>
      </trkpt>
      <trkpt lat="47.53089" lon="-1.41405">
        <ele>118</ele>
        <time>2012-08-20T09:59:02.000Z</time>
      </trkpt>
      <trkpt lat="47.53083" lon="-1.41412">
        <ele>118</ele>
        <time>2012-08-20T09:59:03.000Z</time>
      </trkpt>
      <trkpt lat="47.53077" lon="-1.41419">
        <ele>118</ele>
        <time>2012-08-20T09:59:04.000Z</time>
      </trkpt>
      <trkpt lat="47.53072" lon="-1.41423">
        <ele>116</ele>
        <time>2012-08-20T09:59:05.000Z</time>
      </trkpt>
      <trkpt lat="47.53063" lon="-1.41424">
        <ele>117</ele>
        <time>2012-08-20T09:59:07.000Z</time>
      </trkpt>
      <trkpt lat="47.53058" lon="-1.41423">
        <ele>117</ele>
        <time>2012-08-20T09:59:08.000Z</time>
      </trkpt>
      <trkpt lat="47.53054" lon="-1.4142">
        <ele>119</ele>
        <time>2012-08-20T09:59:09.000Z</time>
      </trkpt>
      <trkpt lat="47.53048" lon="-1.41416">
        <ele>114</ele>
        <time>2012-08-20T09:59:10.000Z</time>
      </trkpt>
      <trkpt lat="47.53042" lon="-1.41412">
        <ele>118</ele>
        <time>2012-08-20T09:59:11.000Z</time>
      </trkpt>
      <trkpt lat="47.53036" lon="-1.41407">
        <ele>115</ele>
        <time>2012-08-20T09:59:12.000Z</time>
      </trkpt>
      <trkpt lat="47.53028" lon="-1.41403">
        <ele>118</ele>
        <time>2012-08-20T09:59:13.000Z</time>
      </trkpt>
      <trkpt lat="47.53022" lon="-1.41399">
        <ele>115</ele>
        <time>2012-08-20T09:59:14.000Z</time>
      </trkpt>
      <trkpt lat="47.53016" lon="-1.41396">
        <ele>118</ele>
        <time>2012-08-20T09:59:15.000Z</time>
      </trkpt>
      <trkpt lat="47.53012" lon="-1.41396">
        <ele>121</ele>
        <time>2012-08-20T09:59:16.000Z</time>
      </trkpt>
      <trkpt lat="47.53006" lon="-1.41395">
        <ele>123</ele>
        <time>2012-08-20T09:59:17.000Z</time>
      </trkpt>
      <trkpt lat="47.53" lon="-1.41396">
        <ele>123</ele>
        <time>2012-08-20T09:59:18.000Z</time>
      </trkpt>
      <trkpt lat="47.52995" lon="-1.41396">
        <ele>123</ele>
        <time>2012-08-20T09:59:19.000Z</time>
      </trkpt>
      <trkpt lat="47.52989" lon="-1.41397">
        <ele>120</ele>
        <time>2012-08-20T09:59:20.000Z</time>
      </trkpt>
      <trkpt lat="47.52984" lon="-1.41398">
        <ele>119</ele>
        <time>2012-08-20T09:59:21.000Z</time>
      </trkpt>
      <trkpt lat="47.52977" lon="-1.41399">
        <ele>117</ele>
        <time>2012-08-20T09:59:22.000Z</time>
      </trkpt>
      <trkpt lat="47.5297" lon="-1.414">
        <ele>116</ele>
        <time>2012-08-20T09:59:23.000Z</time>
      </trkpt>
      <trkpt lat="47.52964" lon="-1.41401">
        <ele>110</ele>
        <time>2012-08-20T09:59:24.000Z</time>
      </trkpt>
      <trkpt lat="47.52958" lon="-1.41401">
        <ele>112</ele>
        <time>2012-08-20T09:59:25.000Z</time>
      </trkpt>
      <trkpt lat="47.52951" lon="-1.41401">
        <ele>112</ele>
        <time>2012-08-20T09:59:26.000Z</time>
      </trkpt>
      <trkpt lat="47.52944" lon="-1.41403">
        <ele>113</ele>
        <time>2012-08-20T09:59:27.000Z</time>
      </trkpt>
      <trkpt lat="47.52937" lon="-1.41404">
        <ele>116</ele>
        <time>2012-08-20T09:59:28.000Z</time>
      </trkpt>
      <trkpt lat="47.52929" lon="-1.41404">
        <ele>118</ele>
        <time>2012-08-20T09:59:29.000Z</time>
      </trkpt>
      <trkpt lat="47.52921" lon="-1.41403">
        <ele>115</ele>
        <time>2012-08-20T09:59:30.000Z</time>
      </trkpt>
      <trkpt lat="47.52914" lon="-1.41405">
        <ele>109</ele>
        <time>2012-08-20T09:59:31.000Z</time>
      </trkpt>
      <trkpt lat="47.52908" lon="-1.41406">
        <ele>110</ele>
        <time>2012-08-20T09:59:32.000Z</time>
      </trkpt>
      <trkpt lat="47.52901" lon="-1.41411">
        <ele>108</ele>
        <time>2012-08-20T09:59:33.000Z</time>
      </trkpt>
      <trkpt lat="47.52896" lon="-1.41418">
        <ele>106</ele>
        <time>2012-08-20T09:59:34.000Z</time>
      </trkpt>
      <trkpt lat="47.52892" lon="-1.41424">
        <ele>107</ele>
        <time>2012-08-20T09:59:35.000Z</time>
      </trkpt>
      <trkpt lat="47.52889" lon="-1.41431">
        <ele>107</ele>
        <time>2012-08-20T09:59:36.000Z</time>
      </trkpt>
      <trkpt lat="47.52886" lon="-1.41438">
        <ele>106</ele>
        <time>2012-08-20T09:59:37.000Z</time>
      </trkpt>
      <trkpt lat="47.52883" lon="-1.41445">
        <ele>107</ele>
        <time>2012-08-20T09:59:38.000Z</time>
      </trkpt>
      <trkpt lat="47.52878" lon="-1.41449">
        <ele>106</ele>
        <time>2012-08-20T09:59:39.000Z</time>
      </trkpt>
      <trkpt lat="47.52874" lon="-1.41454">
        <ele>100</ele>
        <time>2012-08-20T09:59:40.000Z</time>
      </trkpt>
      <trkpt lat="47.5287" lon="-1.41459">
        <ele>100</ele>
        <time>2012-08-20T09:59:41.000Z</time>
      </trkpt>
      <trkpt lat="47.52864" lon="-1.41469">
        <ele>98</ele>
        <time>2012-08-20T09:59:43.000Z</time>
      </trkpt>
      <trkpt lat="47.5286" lon="-1.41474">
        <ele>96</ele>
        <time>2012-08-20T09:59:44.000Z</time>
      </trkpt>
      <trkpt lat="47.52855" lon="-1.41478">
        <ele>92</ele>
        <time>2012-08-20T09:59:45.000Z</time>
      </trkpt>
      <trkpt lat="47.52849" lon="-1.41481">
        <ele>91</ele>
        <time>2012-08-20T09:59:46.000Z</time>
      </trkpt>
      <trkpt lat="47.52845" lon="-1.41485">
        <ele>92</ele>
        <time>2012-08-20T09:59:47.000Z</time>
      </trkpt>
      <trkpt lat="47.52841" lon="-1.41491">
        <ele>90</ele>
        <time>2012-08-20T09:59:48.000Z</time>
      </trkpt>
      <trkpt lat="47.52836" lon="-1.41496">
        <ele>87</ele>
        <time>2012-08-20T09:59:49.000Z</time>
      </trkpt>
      <trkpt lat="47.5283" lon="-1.41502">
        <ele>87</ele>
        <time>2012-08-20T09:59:50.000Z</time>
      </trkpt>
      <trkpt lat="47.52824" lon="-1.41506">
        <ele>88</ele>
        <time>2012-08-20T09:59:51.000Z</time>
      </trkpt>
      <trkpt lat="47.52818" lon="-1.41509">
        <ele>83</ele>
        <time>2012-08-20T09:59:52.000Z</time>
      </trkpt>
      <trkpt lat="47.52812" lon="-1.41511">
        <ele>84</ele>
        <time>2012-08-20T09:59:53.000Z</time>
      </trkpt>
      <trkpt lat="47.52806" lon="-1.41512">
        <ele>80</ele>
        <time>2012-08-20T09:59:54.000Z</time>
      </trkpt>
      <trkpt lat="47.52799" lon="-1.41513">
        <ele>80</ele>
        <time>2012-08-20T09:59:55.000Z</time>
      </trkpt>
      <trkpt lat="47.52792" lon="-1.41515">
        <ele>83</ele>
        <time>2012-08-20T09:59:56.000Z</time>
      </trkpt>
      <trkpt lat="47.52786" lon="-1.41517">
        <ele>81</ele>
        <time>2012-08-20T09:59:57.000Z</time>
      </trkpt>
      <trkpt lat="47.52778" lon="-1.4152">
        <ele>79</ele>
        <time>2012-08-20T09:59:58.000Z</time>
      </trkpt>
      <trkpt lat="47.5277" lon="-1.41522">
        <ele>77</ele>
        <time>2012-08-20T09:59:59.000Z</time>
      </trkpt>
      <trkpt lat="47.52762" lon="-1.41525">
        <ele>77</ele>
        <time>2012-08-20T10:00:00.000Z</time>
      </trkpt>
      <trkpt lat="47.52754" lon="-1.41528">
        <ele>78</ele>
        <time>2012-08-20T10:00:01.000Z</time>
      </trkpt>
      <trkpt lat="47.52746" lon="-1.41531">
        <ele>80</ele>
        <time>2012-08-20T10:00:02.000Z</time>
      </trkpt>
      <trkpt lat="47.52738" lon="-1.41534">
        <ele>79</ele>
        <time>2012-08-20T10:00:03.000Z</time>
      </trkpt>
      <trkpt lat="47.52731" lon="-1.41541">
        <ele>81</ele>
        <time>2012-08-20T10:00:04.000Z</time>
      </trkpt>
      <trkpt lat="47.52724" lon="-1.41548">
        <ele>83</ele>
        <time>2012-08-20T10:00:05.000Z</time>
      </trkpt>
      <trkpt lat="47.52717" lon="-1.41554">
        <ele>85</ele>
        <time>2012-08-20T10:00:06.000Z</time>
      </trkpt>
      <trkpt lat="47.52711" lon="-1.41561">
        <ele>87</ele>
        <time>2012-08-20T10:00:07.000Z</time>
      </trkpt>
      <trkpt lat="47.52705" lon="-1.41567">
        <ele>85</ele>
        <time>2012-08-20T10:00:08.000Z</time>
      </trkpt>
      <trkpt lat="47.527" lon="-1.41573">
        <ele>86</ele>
        <time>2012-08-20T10:00:09.000Z</time>
      </trkpt>
      <trkpt lat="47.52696" lon="-1.41579">
        <ele>84</ele>
        <time>2012-08-20T10:00:10.000Z</time>
      </trkpt>
      <trkpt lat="47.52692" lon="-1.41587">
        <ele>84</ele>
        <time>2012-08-20T10:00:11.000Z</time>
      </trkpt>
      <trkpt lat="47.52689" lon="-1.41595">
        <ele>86</ele>
        <time>2012-08-20T10:00:12.000Z</time>
      </trkpt>
      <trkpt lat="47.52686" lon="-1.41602">
        <ele>83</ele>
        <time>2012-08-20T10:00:13.000Z</time>
      </trkpt>
      <trkpt lat="47.52684" lon="-1.41609">
        <ele>87</ele>
        <time>2012-08-20T10:00:14.000Z</time>
      </trkpt>
      <trkpt lat="47.52683" lon="-1.41616">
        <ele>87</ele>
        <time>2012-08-20T10:00:15.000Z</time>
      </trkpt>
      <trkpt lat="47.52684" lon="-1.41624">
        <ele>86</ele>
        <time>2012-08-20T10:00:17.000Z</time>
      </trkpt>
      <trkpt lat="47.52686" lon="-1.41632">
        <ele>86</ele>
        <time>2012-08-20T10:00:19.000Z</time>
      </trkpt>
      <trkpt lat="47.52687" lon="-1.41642">
        <ele>88</ele>
        <time>2012-08-20T10:00:21.000Z</time>
      </trkpt>
      <trkpt lat="47.52688" lon="-1.41652">
        <ele>90</ele>
        <time>2012-08-20T10:00:23.000Z</time>
      </trkpt>
      <trkpt lat="47.5269" lon="-1.41662">
        <ele>87</ele>
        <time>2012-08-20T10:00:25.000Z</time>
      </trkpt>
      <trkpt lat="47.52691" lon="-1.4167">
        <ele>85</ele>
        <time>2012-08-20T10:00:27.000Z</time>
      </trkpt>
      <trkpt lat="47.52689" lon="-1.41677">
        <ele>83</ele>
        <time>2012-08-20T10:00:29.000Z</time>
      </trkpt>
      <trkpt lat="47.52689" lon="-1.41685">
        <ele>84</ele>
        <time>2012-08-20T10:00:31.000Z</time>
      </trkpt>
      <trkpt lat="47.52691" lon="-1.41695">
        <ele>87</ele>
        <time>2012-08-20T10:00:33.000Z</time>
      </trkpt>
      <trkpt lat="47.52692" lon="-1.41703">
        <ele>85</ele>
        <time>2012-08-20T10:00:35.000Z</time>
      </trkpt>
      <trkpt lat="47.52694" lon="-1.41713">
        <ele>82</ele>
        <time>2012-08-20T10:00:37.000Z</time>
      </trkpt>
      <trkpt lat="47.52697" lon="-1.41723">
        <ele>80</ele>
        <time>2012-08-20T10:00:39.000Z</time>
      </trkpt>
      <trkpt lat="47.52699" lon="-1.41733">
        <ele>80</ele>
        <time>2012-08-20T10:00:41.000Z</time>
      </trkpt>
      <trkpt lat="47.52702" lon="-1.41742">
        <ele>80</ele>
        <time>2012-08-20T10:00:43.000Z</time>
      </trkpt>
      <trkpt lat="47.52704" lon="-1.41752">
        <ele>82</ele>
        <time>2012-08-20T10:00:45.000Z</time>
      </trkpt>
      <trkpt lat="47.52706" lon="-1.41761">
        <ele>85</ele>
        <time>2012-08-20T10:00:47.000Z</time>
      </trkpt>
      <trkpt lat="47.52708" lon="-1.41769">
        <ele>88</ele>
        <time>2012-08-20T10:00:49.000Z</time>
      </trkpt>
      <trkpt lat="47.5271" lon="-1.41778">
        <ele>89</ele>
        <time>2012-08-20T10:00:51.000Z</time>
      </trkpt>
      <trkpt lat="47.52712" lon="-1.41786">
        <ele>87</ele>
        <time>2012-08-20T10:00:53.000Z</time>
      </trkpt>
      <trkpt lat="47.52716" lon="-1.41793">
        <ele>87</ele>
        <time>2012-08-20T10:00:55.000Z</time>
      </trkpt>
      <trkpt lat="47.52719" lon="-1.41802">
        <ele>87</ele>
        <time>2012-08-20T10:00:57.000Z</time>
      </trkpt>
      <trkpt lat="47.52722" lon="-1.41809">
        <ele>86</ele>
        <time>2012-08-20T10:00:59.000Z</time>
      </trkpt>
      <trkpt lat="47.52724" lon="-1.41818">
        <ele>87</ele>
        <time>2012-08-20T10:01:01.000Z</time>
      </trkpt>
      <trkpt lat="47.52728" lon="-1.41829">
        <ele>87</ele>
        <time>2012-08-20T10:01:03.000Z</time>
      </trkpt>
      <trkpt lat="47.52731" lon="-1.41835">
        <ele>87</ele>
        <time>2012-08-20T10:01:04.000Z</time>
      </trkpt>
      <trkpt lat="47.52735" lon="-1.41845">
        <ele>85</ele>
        <time>2012-08-20T10:01:06.000Z</time>
      </trkpt>
      <trkpt lat="47.52737" lon="-1.4185">
        <ele>86</ele>
        <time>2012-08-20T10:01:07.000Z</time>
      </trkpt>
      <trkpt lat="47.52739" lon="-1.41856">
        <ele>85</ele>
        <time>2012-08-20T10:01:08.000Z</time>
      </trkpt>
      <trkpt lat="47.52742" lon="-1.41862">
        <ele>84</ele>
        <time>2012-08-20T10:01:09.000Z</time>
      </trkpt>
      <trkpt lat="47.52744" lon="-1.41867">
        <ele>84</ele>
        <time>2012-08-20T10:01:10.000Z</time>
      </trkpt>
      <trkpt lat="47.52747" lon="-1.41874">
        <ele>84</ele>
        <time>2012-08-20T10:01:11.000Z</time>
      </trkpt>
      <trkpt lat="47.5275" lon="-1.41884">
        <ele>83</ele>
        <time>2012-08-20T10:01:13.000Z</time>
      </trkpt>
      <trkpt lat="47.52755" lon="-1.41894">
        <ele>83</ele>
        <time>2012-08-20T10:01:15.000Z</time>
      </trkpt>
      <trkpt lat="47.52759" lon="-1.41903">
        <ele>81</ele>
        <time>2012-08-20T10:01:17.000Z</time>
      </trkpt>
      <trkpt lat="47.52762" lon="-1.41911">
        <ele>82</ele>
        <time>2012-08-20T10:01:19.000Z</time>
      </trkpt>
      <trkpt lat="47.52766" lon="-1.41921">
        <ele>81</ele>
        <time>2012-08-20T10:01:21.000Z</time>
      </trkpt>
      <trkpt lat="47.52771" lon="-1.41931">
        <ele>80</ele>
        <time>2012-08-20T10:01:23.000Z</time>
      </trkpt>
      <trkpt lat="47.52774" lon="-1.4194">
        <ele>80</ele>
        <time>2012-08-20T10:01:25.000Z</time>
      </trkpt>
      <trkpt lat="47.52778" lon="-1.41949">
        <ele>79</ele>
        <time>2012-08-20T10:01:27.000Z</time>
      </trkpt>
      <trkpt lat="47.52782" lon="-1.41957">
        <ele>77</ele>
        <time>2012-08-20T10:01:29.000Z</time>
      </trkpt>
      <trkpt lat="47.52786" lon="-1.41966">
        <ele>79</ele>
        <time>2012-08-20T10:01:31.000Z</time>
      </trkpt>
      <trkpt lat="47.5279" lon="-1.41973">
        <ele>78</ele>
        <time>2012-08-20T10:01:33.000Z</time>
      </trkpt>
      <trkpt lat="47.52795" lon="-1.4198">
        <ele>78</ele>
        <time>2012-08-20T10:01:35.000Z</time>
      </trkpt>
      <trkpt lat="47.528" lon="-1.41988">
        <ele>81</ele>
        <time>2012-08-20T10:01:37.000Z</time>
      </trkpt>
      <trkpt lat="47.52805" lon="-1.41994">
        <ele>81</ele>
        <time>2012-08-20T10:01:39.000Z</time>
      </trkpt>
      <trkpt lat="47.52812" lon="-1.41998">
        <ele>82</ele>
        <time>2012-08-20T10:01:41.000Z</time>
      </trkpt>
      <trkpt lat="47.52819" lon="-1.42001">
        <ele>83</ele>
        <time>2012-08-20T10:01:43.000Z</time>
      </trkpt>
      <trkpt lat="47.52825" lon="-1.42002">
        <ele>82</ele>
        <time>2012-08-20T10:01:45.000Z</time>
      </trkpt>
      <trkpt lat="47.52833" lon="-1.42004">
        <ele>83</ele>
        <time>2012-08-20T10:01:47.000Z</time>
      </trkpt>
      <trkpt lat="47.52838" lon="-1.42005">
        <ele>82</ele>
        <time>2012-08-20T10:01:48.000Z</time>
      </trkpt>
      <trkpt lat="47.52843" lon="-1.42009">
        <ele>82</ele>
        <time>2012-08-20T10:01:49.000Z</time>
      </trkpt>
      <trkpt lat="47.52849" lon="-1.42017">
        <ele>84</ele>
        <time>2012-08-20T10:01:51.000Z</time>
      </trkpt>
      <trkpt lat="47.52855" lon="-1.42026">
        <ele>85</ele>
        <time>2012-08-20T10:01:53.000Z</time>
      </trkpt>
      <trkpt lat="47.52858" lon="-1.42035">
        <ele>85</ele>
        <time>2012-08-20T10:01:55.000Z</time>
      </trkpt>
      <trkpt lat="47.52859" lon="-1.42043">
        <ele>83</ele>
        <time>2012-08-20T10:01:57.000Z</time>
      </trkpt>
      <trkpt lat="47.52859" lon="-1.42052">
        <ele>82</ele>
        <time>2012-08-20T10:01:59.000Z</time>
      </trkpt>
      <trkpt lat="47.52859" lon="-1.42059">
        <ele>81</ele>
        <time>2012-08-20T10:02:01.000Z</time>
      </trkpt>
      <trkpt lat="47.52857" lon="-1.42066">
        <ele>80</ele>
        <time>2012-08-20T10:02:03.000Z</time>
      </trkpt>
      <trkpt lat="47.52854" lon="-1.42072">
        <ele>80</ele>
        <time>2012-08-20T10:02:05.000Z</time>
      </trkpt>
      <trkpt lat="47.52848" lon="-1.42078">
        <ele>80</ele>
        <time>2012-08-20T10:02:08.000Z</time>
      </trkpt>
      <trkpt lat="47.52842" lon="-1.42083">
        <ele>78</ele>
        <time>2012-08-20T10:02:11.000Z</time>
      </trkpt>
      <trkpt lat="47.5284" lon="-1.42089">
        <ele>81</ele>
        <time>2012-08-20T10:02:13.000Z</time>
      </trkpt>
      <trkpt lat="47.52837" lon="-1.42094">
        <ele>85</ele>
        <time>2012-08-20T10:02:15.000Z</time>
      </trkpt>
      <trkpt lat="47.52833" lon="-1.421">
        <ele>85</ele>
        <time>2012-08-20T10:02:17.000Z</time>
      </trkpt>
      <trkpt lat="47.52831" lon="-1.42106">
        <ele>87</ele>
        <time>2012-08-20T10:02:19.000Z</time>
      </trkpt>
      <trkpt lat="47.52827" lon="-1.42117">
        <ele>82</ele>
        <time>2012-08-20T10:02:22.000Z</time>
      </trkpt>
      <trkpt lat="47.52822" lon="-1.42128">
        <ele>77</ele>
        <time>2012-08-20T10:02:24.000Z</time>
      </trkpt>
      <trkpt lat="47.52817" lon="-1.42138">
        <ele>75</ele>
        <time>2012-08-20T10:02:26.000Z</time>
      </trkpt>
      <trkpt lat="47.52813" lon="-1.42147">
        <ele>76</ele>
        <time>2012-08-20T10:02:28.000Z</time>
      </trkpt>
      <trkpt lat="47.52809" lon="-1.42156">
        <ele>78</ele>
        <time>2012-08-20T10:02:30.000Z</time>
      </trkpt>
      <trkpt lat="47.52807" lon="-1.42162">
        <ele>78</ele>
        <time>2012-08-20T10:02:32.000Z</time>
      </trkpt>
      <trkpt lat="47.52803" lon="-1.42168">
        <ele>79</ele>
        <time>2012-08-20T10:02:35.000Z</time>
      </trkpt>
      <trkpt lat="47.528" lon="-1.42175">
        <ele>78</ele>
        <time>2012-08-20T10:02:38.000Z</time>
      </trkpt>
      <trkpt lat="47.52797" lon="-1.42182">
        <ele>77</ele>
        <time>2012-08-20T10:02:40.000Z</time>
      </trkpt>
      <trkpt lat="47.52792" lon="-1.42188">
        <ele>80</ele>
        <time>2012-08-20T10:02:42.000Z</time>
      </trkpt>
      <trkpt lat="47.52787" lon="-1.42195">
        <ele>79</ele>
        <time>2012-08-20T10:02:44.000Z</time>
      </trkpt>
      <trkpt lat="47.52783" lon="-1.42201">
        <ele>79</ele>
        <time>2012-08-20T10:02:46.000Z</time>
      </trkpt>
      <trkpt lat="47.52778" lon="-1.42207">
        <ele>78</ele>
        <time>2012-08-20T10:02:48.000Z</time>
      </trkpt>
      <trkpt lat="47.52774" lon="-1.42214">
        <ele>78</ele>
        <time>2012-08-20T10:02:50.000Z</time>
      </trkpt>
      <trkpt lat="47.5277" lon="-1.4222">
        <ele>79</ele>
        <time>2012-08-20T10:02:52.000Z</time>
      </trkpt>
      <trkpt lat="47.52767" lon="-1.42225">
        <ele>78</ele>
        <time>2012-08-20T10:02:54.000Z</time>
      </trkpt>
      <trkpt lat="47.52765" lon="-1.42232">
        <ele>79</ele>
        <time>2012-08-20T10:02:56.000Z</time>
      </trkpt>
      <trkpt lat="47.52768" lon="-1.42238">
        <ele>81</ele>
        <time>2012-08-20T10:02:59.000Z</time>
      </trkpt>
      <trkpt lat="47.52774" lon="-1.42242">
        <ele>80</ele>
        <time>2012-08-20T10:03:02.000Z</time>
      </trkpt>
      <trkpt lat="47.5278" lon="-1.42245">
        <ele>82</ele>
        <time>2012-08-20T10:03:04.000Z</time>
      </trkpt>
      <trkpt lat="47.52786" lon="-1.42248">
        <ele>82</ele>
        <time>2012-08-20T10:03:06.000Z</time>
      </trkpt>
      <trkpt lat="47.52792" lon="-1.42251">
        <ele>84</ele>
        <time>2012-08-20T10:03:08.000Z</time>
      </trkpt>
      <trkpt lat="47.52799" lon="-1.42254">
        <ele>85</ele>
        <time>2012-08-20T10:03:10.000Z</time>
      </trkpt>
      <trkpt lat="47.52804" lon="-1.42256">
        <ele>87</ele>
        <time>2012-08-20T10:03:12.000Z</time>
      </trkpt>
      <trkpt lat="47.5281" lon="-1.42259">
        <ele>88</ele>
        <time>2012-08-20T10:03:14.000Z</time>
      </trkpt>
      <trkpt lat="47.52817" lon="-1.42262">
        <ele>87</ele>
        <time>2012-08-20T10:03:16.000Z</time>
      </trkpt>
      <trkpt lat="47.52823" lon="-1.42265">
        <ele>86</ele>
        <time>2012-08-20T10:03:18.000Z</time>
      </trkpt>
      <trkpt lat="47.52828" lon="-1.42268">
        <ele>86</ele>
        <time>2012-08-20T10:03:20.000Z</time>
      </trkpt>
      <trkpt lat="47.52834" lon="-1.4227">
        <ele>87</ele>
        <time>2012-08-20T10:03:22.000Z</time>
      </trkpt>
      <trkpt lat="47.52838" lon="-1.42272">
        <ele>88</ele>
        <time>2012-08-20T10:03:24.000Z</time>
      </trkpt>
      <trkpt lat="47.52844" lon="-1.42273">
        <ele>89</ele>
        <time>2012-08-20T10:03:27.000Z</time>
      </trkpt>
      <trkpt lat="47.5285" lon="-1.42272">
        <ele>89</ele>
        <time>2012-08-20T10:03:30.000Z</time>
      </trkpt>
      <trkpt lat="47.52853" lon="-1.42266">
        <ele>88</ele>
        <time>2012-08-20T10:03:33.000Z</time>
      </trkpt>
      <trkpt lat="47.52853" lon="-1.42259">
        <ele>86</ele>
        <time>2012-08-20T10:03:36.000Z</time>
      </trkpt>
      <trkpt lat="47.5285" lon="-1.42251">
        <ele>88</ele>
        <time>2012-08-20T10:03:39.000Z</time>
      </trkpt>
      <trkpt lat="47.52847" lon="-1.42244">
        <ele>87</ele>
        <time>2012-08-20T10:03:42.000Z</time>
      </trkpt>
      <trkpt lat="47.52845" lon="-1.42236">
        <ele>85</ele>
        <time>2012-08-20T10:03:45.000Z</time>
      </trkpt>
      <trkpt lat="47.52844" lon="-1.42226">
        <ele>88</ele>
        <time>2012-08-20T10:03:48.000Z</time>
      </trkpt>
      <trkpt lat="47.52844" lon="-1.42219">
        <ele>89</ele>
        <time>2012-08-20T10:03:50.000Z</time>
      </trkpt>
      <trkpt lat="47.52844" lon="-1.42212">
        <ele>88</ele>
        <time>2012-08-20T10:03:52.000Z</time>
      </trkpt>
      <trkpt lat="47.52844" lon="-1.42206">
        <ele>88</ele>
        <time>2012-08-20T10:03:54.000Z</time>
      </trkpt>
      <trkpt lat="47.52842" lon="-1.42199">
        <ele>86</ele>
        <time>2012-08-20T10:03:57.000Z</time>
      </trkpt>
    </trkseg>
  </trk>
</gpx>